<?xml version='1.0' encoding='UTF-8'?><gpx version="1.1" creator="JPX - https://github.com/jenetics/jpx" xmlns="http://www.topografix.com/GPX/1/1"><trk><trkseg><trkpt lat="45.1825087" lon="9.1460178"><ele>71.0</ele><time>2026-05-04T13:57:43.822Z</time></trkpt><trkpt lat="45.1825268" lon="9.1459274"><ele>71.0</ele><time>2026-05-04T13:57:50.89Z</time></trkpt><trkpt lat="45.1825069" lon="9.1458271"><ele>71.0</ele><time>2026-05-04T13:57:57.816Z</time></trkpt><trkpt lat="45.1825186" lon="9.1457126"><ele>71.0</ele><time>2026-05-04T13:58:05.823Z</time></trkpt><trkpt lat="45.1825172" lon="9.1456166"><ele>71.0</ele><time>2026-05-04T13:58:08.822Z</time></trkpt><trkpt lat="45.1825175" lon="9.1454775"><ele>71.0</ele><time>2026-05-04T13:58:11.824Z</time></trkpt><trkpt lat="45.1825118" lon="9.1453492"><ele>70.83333333333334</ele><time>2026-05-04T13:58:14.822Z</time></trkpt><trkpt lat="45.1825085" lon="9.1452568"><ele>70.66666666666667</ele><time>2026-05-04T13:58:16.824Z</time></trkpt><trkpt lat="45.1824891" lon="9.1451651"><ele>70.5</ele><time>2026-05-04T13:58:18.822Z</time></trkpt><trkpt lat="45.182439" lon="9.1450926"><ele>70.33333333333333</ele><time>2026-05-04T13:58:21.826Z</time></trkpt><trkpt lat="45.1823635" lon="9.1450361"><ele>70.16666666666666</ele><time>2026-05-04T13:58:23.823Z</time></trkpt><trkpt lat="45.1822474" lon="9.1449583"><ele>70.0</ele><time>2026-05-04T13:58:25.82Z</time></trkpt><trkpt lat="45.1821779" lon="9.1449241"><ele>68.83333333333333</ele><time>2026-05-04T13:58:26.822Z</time></trkpt><trkpt lat="45.1821155" lon="9.1448838"><ele>67.66666666666666</ele><time>2026-05-04T13:58:27.896Z</time></trkpt><trkpt lat="45.1820088" lon="9.1448037"><ele>66.5</ele><time>2026-05-04T13:58:29.82Z</time></trkpt><trkpt lat="45.1819324" lon="9.1447302"><ele>65.33333333333333</ele><time>2026-05-04T13:58:31.833Z</time></trkpt><trkpt lat="45.1818782" lon="9.1446422"><ele>64.16666666666667</ele><time>2026-05-04T13:58:34.82Z</time></trkpt><trkpt lat="45.1818689" lon="9.1445221"><ele>63.0</ele><time>2026-05-04T13:58:38.82Z</time></trkpt><trkpt lat="45.1818867" lon="9.1444266"><ele>62.166666666666664</ele><time>2026-05-04T13:58:40.819Z</time></trkpt><trkpt lat="45.1819005" lon="9.1443005"><ele>61.33333333333333</ele><time>2026-05-04T13:58:42.826Z</time></trkpt><trkpt lat="45.1819182" lon="9.1441847"><ele>60.5</ele><time>2026-05-04T13:58:44.817Z</time></trkpt><trkpt lat="45.1819349" lon="9.1440735"><ele>59.666666666666664</ele><time>2026-05-04T13:58:46.83Z</time></trkpt><trkpt lat="45.1819588" lon="9.1439696"><ele>58.83333333333333</ele><time>2026-05-04T13:58:48.821Z</time></trkpt><trkpt lat="45.1819792" lon="9.1438529"><ele>58.0</ele><time>2026-05-04T13:58:50.835Z</time></trkpt><trkpt lat="45.1819993" lon="9.143741"><ele>57.666666666666664</ele><time>2026-05-04T13:58:52.818Z</time></trkpt><trkpt lat="45.1820119" lon="9.143632"><ele>57.33333333333333</ele><time>2026-05-04T13:58:54.899Z</time></trkpt><trkpt lat="45.1820175" lon="9.1435191"><ele>57.0</ele><time>2026-05-04T13:58:56.832Z</time></trkpt><trkpt lat="45.1820349" lon="9.1434172"><ele>56.66666666666667</ele><time>2026-05-04T13:58:58.821Z</time></trkpt><trkpt lat="45.1820495" lon="9.1432951"><ele>56.333333333333336</ele><time>2026-05-04T13:59:00.827Z</time></trkpt><trkpt lat="45.1820669" lon="9.1431732"><ele>56.0</ele><time>2026-05-04T13:59:02.817Z</time></trkpt><trkpt lat="45.1820884" lon="9.1430688"><ele>55.833333333333336</ele><time>2026-05-04T13:59:04.816Z</time></trkpt><trkpt lat="45.1821166" lon="9.1429784"><ele>55.66666666666667</ele><time>2026-05-04T13:59:06.82Z</time></trkpt><trkpt lat="45.1821466" lon="9.1428769"><ele>55.5</ele><time>2026-05-04T13:59:08.906Z</time></trkpt><trkpt lat="45.1821871" lon="9.1427547"><ele>55.33333333333333</ele><time>2026-05-04T13:59:10.894Z</time></trkpt><trkpt lat="45.18224" lon="9.1426555"><ele>55.166666666666664</ele><time>2026-05-04T13:59:12.82Z</time></trkpt><trkpt lat="45.1822945" lon="9.1425668"><ele>55.0</ele><time>2026-05-04T13:59:14.824Z</time></trkpt><trkpt lat="45.182348" lon="9.1424675"><ele>55.166666666666664</ele><time>2026-05-04T13:59:16.823Z</time></trkpt><trkpt lat="45.182399" lon="9.1423533"><ele>55.33333333333333</ele><time>2026-05-04T13:59:18.821Z</time></trkpt><trkpt lat="45.1824449" lon="9.1422548"><ele>55.5</ele><time>2026-05-04T13:59:20.82Z</time></trkpt><trkpt lat="45.1824753" lon="9.1421565"><ele>55.66666666666667</ele><time>2026-05-04T13:59:22.817Z</time></trkpt><trkpt lat="45.1825049" lon="9.142051"><ele>55.833333333333336</ele><time>2026-05-04T13:59:24.82Z</time></trkpt><trkpt lat="45.1825384" lon="9.1419439"><ele>56.0</ele><time>2026-05-04T13:59:26.825Z</time></trkpt><trkpt lat="45.1825724" lon="9.1418419"><ele>56.00000000000001</ele><time>2026-05-04T13:59:28.814Z</time></trkpt><trkpt lat="45.182606" lon="9.1417297"><ele>56.0</ele><time>2026-05-04T13:59:30.824Z</time></trkpt><trkpt lat="45.1826339" lon="9.1416171"><ele>56.0</ele><time>2026-05-04T13:59:32.812Z</time></trkpt><trkpt lat="45.1826635" lon="9.14149"><ele>56.0</ele><time>2026-05-04T13:59:34.828Z</time></trkpt><trkpt lat="45.1826893" lon="9.1413714"><ele>56.00000000000001</ele><time>2026-05-04T13:59:36.82Z</time></trkpt><trkpt lat="45.1827037" lon="9.1412528"><ele>56.0</ele><time>2026-05-04T13:59:38.817Z</time></trkpt><trkpt lat="45.1827263" lon="9.1411389"><ele>55.4</ele><time>2026-05-04T13:59:40.816Z</time></trkpt><trkpt lat="45.1827466" lon="9.1410068"><ele>54.8</ele><time>2026-05-04T13:59:42.824Z</time></trkpt><trkpt lat="45.182772" lon="9.140875"><ele>54.199999999999996</ele><time>2026-05-04T13:59:44.822Z</time></trkpt><trkpt lat="45.1828028" lon="9.1407492"><ele>53.599999999999994</ele><time>2026-05-04T13:59:46.824Z</time></trkpt><trkpt lat="45.1828326" lon="9.140618"><ele>53.0</ele><time>2026-05-04T13:59:48.824Z</time></trkpt><trkpt lat="45.1828625" lon="9.1404942"><ele>52.599999999999994</ele><time>2026-05-04T13:59:50.818Z</time></trkpt><trkpt lat="45.1828966" lon="9.1403732"><ele>52.199999999999996</ele><time>2026-05-04T13:59:52.813Z</time></trkpt><trkpt lat="45.1829189" lon="9.1402432"><ele>51.8</ele><time>2026-05-04T13:59:54.823Z</time></trkpt><trkpt lat="45.1829506" lon="9.1401193"><ele>51.4</ele><time>2026-05-04T13:59:56.836Z</time></trkpt><trkpt lat="45.1829857" lon="9.1399959"><ele>51.0</ele><time>2026-05-04T13:59:58.821Z</time></trkpt><trkpt lat="45.1830323" lon="9.139887"><ele>51.0</ele><time>2026-05-04T14:00:00.813Z</time></trkpt><trkpt lat="45.1830736" lon="9.1397698"><ele>51.0</ele><time>2026-05-04T14:00:02.818Z</time></trkpt><trkpt lat="45.1831148" lon="9.1396429"><ele>51.0</ele><time>2026-05-04T14:00:04.824Z</time></trkpt><trkpt lat="45.1831595" lon="9.1395309"><ele>51.0</ele><time>2026-05-04T14:00:06.823Z</time></trkpt><trkpt lat="45.1831978" lon="9.1394104"><ele>51.0</ele><time>2026-05-04T14:00:08.826Z</time></trkpt><trkpt lat="45.1832363" lon="9.1392852"><ele>52.0</ele><time>2026-05-04T14:00:10.823Z</time></trkpt><trkpt lat="45.1832785" lon="9.139166"><ele>53.0</ele><time>2026-05-04T14:00:12.821Z</time></trkpt><trkpt lat="45.1833283" lon="9.1390562"><ele>53.99999999999999</ele><time>2026-05-04T14:00:14.821Z</time></trkpt><trkpt lat="45.1833822" lon="9.13895"><ele>55.0</ele><time>2026-05-04T14:00:16.821Z</time></trkpt><trkpt lat="45.183434" lon="9.1388314"><ele>56.0</ele><time>2026-05-04T14:00:18.905Z</time></trkpt><trkpt lat="45.1834833" lon="9.1387231"><ele>51.0</ele><time>2026-05-04T14:00:20.818Z</time></trkpt><trkpt lat="45.1828966" lon="9.1403732"><ele>51.0</ele><time>2026-05-04T13:59:52.813Z</time></trkpt><trkpt lat="45.1829189" lon="9.1402432"><ele>51.0</ele><time>2026-05-04T13:59:54.823Z</time></trkpt><trkpt lat="45.1829506" lon="9.1401193"><ele>51.0</ele><time>2026-05-04T13:59:56.836Z</time></trkpt><trkpt lat="45.1829857" lon="9.1399959"><ele>51.0</ele><time>2026-05-04T13:59:58.821Z</time></trkpt><trkpt lat="45.1830323" lon="9.139887"><ele>51.0</ele><time>2026-05-04T14:00:00.813Z</time></trkpt><trkpt lat="45.1830736" lon="9.1397698"><ele>51.0</ele><time>2026-05-04T14:00:02.818Z</time></trkpt><trkpt lat="45.1831148" lon="9.1396429"><ele>51.0</ele><time>2026-05-04T14:00:04.824Z</time></trkpt><trkpt lat="45.1831595" lon="9.1395309"><ele>51.0</ele><time>2026-05-04T14:00:06.823Z</time></trkpt><trkpt lat="45.1831978" lon="9.1394104"><ele>51.0</ele><time>2026-05-04T14:00:08.826Z</time></trkpt><trkpt lat="45.1832363" lon="9.1392852"><ele>51.0</ele><time>2026-05-04T14:00:10.823Z</time></trkpt><trkpt lat="45.1832785" lon="9.139166"><ele>52.0</ele><time>2026-05-04T14:00:12.821Z</time></trkpt><trkpt lat="45.1833283" lon="9.1390562"><ele>53.0</ele><time>2026-05-04T14:00:14.821Z</time></trkpt><trkpt lat="45.1833822" lon="9.13895"><ele>53.99999999999999</ele><time>2026-05-04T14:00:16.821Z</time></trkpt><trkpt lat="45.183434" lon="9.1388314"><ele>55.0</ele><time>2026-05-04T14:00:18.905Z</time></trkpt><trkpt lat="45.1834833" lon="9.1387231"><ele>56.0</ele><time>2026-05-04T14:00:20.818Z</time></trkpt><trkpt lat="45.1835355" lon="9.1385998"><ele>56.0</ele><time>2026-05-04T14:00:22.814Z</time></trkpt><trkpt lat="45.1835768" lon="9.1384803"><ele>55.99999999999999</ele><time>2026-05-04T14:00:24.812Z</time></trkpt><trkpt lat="45.1836241" lon="9.1383575"><ele>55.99999999999999</ele><time>2026-05-04T14:00:26.812Z</time></trkpt><trkpt lat="45.1836825" lon="9.1382462"><ele>56.0</ele><time>2026-05-04T14:00:28.826Z</time></trkpt><trkpt lat="45.1837296" lon="9.1381251"><ele>56.0</ele><time>2026-05-04T14:00:30.822Z</time></trkpt><trkpt lat="45.1837892" lon="9.1380106"><ele>55.4</ele><time>2026-05-04T14:00:32.821Z</time></trkpt><trkpt lat="45.1838557" lon="9.1378995"><ele>54.8</ele><time>2026-05-04T14:00:34.827Z</time></trkpt><trkpt lat="45.1839115" lon="9.1377933"><ele>54.199999999999996</ele><time>2026-05-04T14:00:36.822Z</time></trkpt><trkpt lat="45.1839554" lon="9.1376626"><ele>53.599999999999994</ele><time>2026-05-04T14:00:38.824Z</time></trkpt><trkpt lat="45.1839899" lon="9.1375218"><ele>53.0</ele><time>2026-05-04T14:00:40.822Z</time></trkpt><trkpt lat="45.1840125" lon="9.1373929"><ele>54.8</ele><time>2026-05-04T14:00:42.827Z</time></trkpt><trkpt lat="45.1840322" lon="9.1372569"><ele>56.599999999999994</ele><time>2026-05-04T14:00:44.894Z</time></trkpt><trkpt lat="45.1840538" lon="9.1371132"><ele>58.400000000000006</ele><time>2026-05-04T14:00:46.833Z</time></trkpt><trkpt lat="45.1840886" lon="9.1369744"><ele>60.2</ele><time>2026-05-04T14:00:48.821Z</time></trkpt><trkpt lat="45.1841212" lon="9.136848"><ele>62.0</ele><time>2026-05-04T14:00:50.819Z</time></trkpt><trkpt lat="45.1841658" lon="9.1367267"><ele>62.00000000000001</ele><time>2026-05-04T14:00:52.822Z</time></trkpt><trkpt lat="45.1842226" lon="9.136621"><ele>62.0</ele><time>2026-05-04T14:00:54.824Z</time></trkpt><trkpt lat="45.1842873" lon="9.1365625"><ele>62.0</ele><time>2026-05-04T14:00:56.821Z</time></trkpt><trkpt lat="45.1843419" lon="9.1364756"><ele>62.0</ele><time>2026-05-04T14:00:58.828Z</time></trkpt><trkpt lat="45.1844341" lon="9.136351"><ele>62.00000000000001</ele><time>2026-05-04T14:01:00.831Z</time></trkpt><trkpt lat="45.1844899" lon="9.1363077"><ele>62.0</ele><time>2026-05-04T14:01:02.834Z</time></trkpt><trkpt lat="45.1845502" lon="9.1362532"><ele>61.66666666666667</ele><time>2026-05-04T14:01:04.816Z</time></trkpt><trkpt lat="45.1846202" lon="9.1361731"><ele>61.333333333333336</ele><time>2026-05-04T14:01:06.829Z</time></trkpt><trkpt lat="45.1846965" lon="9.1360888"><ele>61.0</ele><time>2026-05-04T14:01:08.834Z</time></trkpt><trkpt lat="45.1847716" lon="9.1359978"><ele>60.66666666666667</ele><time>2026-05-04T14:01:10.822Z</time></trkpt><trkpt lat="45.1848377" lon="9.1359329"><ele>60.333333333333336</ele><time>2026-05-04T14:01:12.829Z</time></trkpt><trkpt lat="45.184893" lon="9.1358465"><ele>60.0</ele><time>2026-05-04T14:01:14.818Z</time></trkpt><trkpt lat="45.1849231" lon="9.1357285"><ele>60.0</ele><time>2026-05-04T14:01:16.824Z</time></trkpt><trkpt lat="45.1849383" lon="9.135609"><ele>60.0</ele><time>2026-05-04T14:01:18.821Z</time></trkpt><trkpt lat="45.1849332" lon="9.1355075"><ele>60.0</ele><time>2026-05-04T14:01:20.817Z</time></trkpt><trkpt lat="45.1849334" lon="9.1354118"><ele>60.0</ele><time>2026-05-04T14:01:22.828Z</time></trkpt><trkpt lat="45.1849239" lon="9.1353198"><ele>60.0</ele><time>2026-05-04T14:01:24.825Z</time></trkpt><trkpt lat="45.1849199" lon="9.1352269"><ele>60.0</ele><time>2026-05-04T14:01:26.897Z</time></trkpt><trkpt lat="45.1849035" lon="9.1351022"><ele>60.0</ele><time>2026-05-04T14:01:29.832Z</time></trkpt><trkpt lat="45.1848811" lon="9.1349686"><ele>60.2</ele><time>2026-05-04T14:01:32.822Z</time></trkpt><trkpt lat="45.1848765" lon="9.1348563"><ele>60.4</ele><time>2026-05-04T14:01:34.822Z</time></trkpt><trkpt lat="45.1848898" lon="9.1347551"><ele>60.599999999999994</ele><time>2026-05-04T14:01:36.83Z</time></trkpt><trkpt lat="45.1849295" lon="9.1346073"><ele>60.8</ele><time>2026-05-04T14:01:38.821Z</time></trkpt><trkpt lat="45.1849702" lon="9.1344295"><ele>61.0</ele><time>2026-05-04T14:01:40.818Z</time></trkpt><trkpt lat="45.185004" lon="9.1343273"><ele>61.0</ele><time>2026-05-04T14:01:41.814Z</time></trkpt><trkpt lat="45.1850325" lon="9.1342285"><ele>60.99999999999999</ele><time>2026-05-04T14:01:42.825Z</time></trkpt><trkpt lat="45.1850857" lon="9.1340787"><ele>60.99999999999999</ele><time>2026-05-04T14:01:44.826Z</time></trkpt><trkpt lat="45.1851419" lon="9.1339571"><ele>61.0</ele><time>2026-05-04T14:01:46.824Z</time></trkpt><trkpt lat="45.185191" lon="9.1338496"><ele>61.0</ele><time>2026-05-04T14:01:48.825Z</time></trkpt><trkpt lat="45.185239" lon="9.1337481"><ele>60.199999999999996</ele><time>2026-05-04T14:01:50.824Z</time></trkpt><trkpt lat="45.1852837" lon="9.1336541"><ele>59.39999999999999</ele><time>2026-05-04T14:01:52.822Z</time></trkpt><trkpt lat="45.1853169" lon="9.1335544"><ele>58.6</ele><time>2026-05-04T14:01:54.817Z</time></trkpt><trkpt lat="45.1853567" lon="9.1334332"><ele>57.8</ele><time>2026-05-04T14:01:56.826Z</time></trkpt><trkpt lat="45.1854098" lon="9.1332867"><ele>57.0</ele><time>2026-05-04T14:01:58.832Z</time></trkpt><trkpt lat="45.1854818" lon="9.1331447"><ele>57.166666666666664</ele><time>2026-05-04T14:02:00.825Z</time></trkpt><trkpt lat="45.1855588" lon="9.1330262"><ele>57.33333333333333</ele><time>2026-05-04T14:02:02.819Z</time></trkpt><trkpt lat="45.1856229" lon="9.1329121"><ele>57.5</ele><time>2026-05-04T14:02:04.833Z</time></trkpt><trkpt lat="45.1856812" lon="9.1328184"><ele>57.666666666666664</ele><time>2026-05-04T14:02:06.825Z</time></trkpt><trkpt lat="45.1857368" lon="9.1327554"><ele>57.83333333333333</ele><time>2026-05-04T14:02:08.813Z</time></trkpt><trkpt lat="45.1857947" lon="9.1326974"><ele>58.0</ele><time>2026-05-04T14:02:10.825Z</time></trkpt><trkpt lat="45.1858474" lon="9.1326309"><ele>57.99999999999999</ele><time>2026-05-04T14:02:12.825Z</time></trkpt><trkpt lat="45.1858925" lon="9.1325552"><ele>58.0</ele><time>2026-05-04T14:02:14.826Z</time></trkpt><trkpt lat="45.1859438" lon="9.1324614"><ele>58.0</ele><time>2026-05-04T14:02:16.822Z</time></trkpt><trkpt lat="45.1859909" lon="9.1323969"><ele>58.0</ele><time>2026-05-04T14:02:18.825Z</time></trkpt><trkpt lat="45.1860448" lon="9.132313"><ele>57.99999999999999</ele><time>2026-05-04T14:02:20.834Z</time></trkpt><trkpt lat="45.1861" lon="9.1322226"><ele>58.0</ele><time>2026-05-04T14:02:22.815Z</time></trkpt><trkpt lat="45.1861466" lon="9.1321242"><ele>58.0</ele><time>2026-05-04T14:02:24.825Z</time></trkpt><trkpt lat="45.1861809" lon="9.1320245"><ele>58.0</ele><time>2026-05-04T14:02:26.825Z</time></trkpt><trkpt lat="45.1862482" lon="9.1318902"><ele>58.0</ele><time>2026-05-04T14:02:28.829Z</time></trkpt><trkpt lat="45.1863252" lon="9.131772"><ele>58.0</ele><time>2026-05-04T14:02:30.827Z</time></trkpt><trkpt lat="45.1864055" lon="9.1316668"><ele>58.0</ele><time>2026-05-04T14:02:32.825Z</time></trkpt><trkpt lat="45.1864782" lon="9.1315868"><ele>58.599999999999994</ele><time>2026-05-04T14:02:34.824Z</time></trkpt><trkpt lat="45.1865502" lon="9.1315183"><ele>59.199999999999996</ele><time>2026-05-04T14:02:36.822Z</time></trkpt><trkpt lat="45.1866409" lon="9.1314386"><ele>59.8</ele><time>2026-05-04T14:02:38.829Z</time></trkpt><trkpt lat="45.1867297" lon="9.1313742"><ele>60.4</ele><time>2026-05-04T14:02:40.824Z</time></trkpt><trkpt lat="45.1868035" lon="9.1313229"><ele>61.0</ele><time>2026-05-04T14:02:42.828Z</time></trkpt><trkpt lat="45.1868731" lon="9.1312735"><ele>61.0</ele><time>2026-05-04T14:02:44.822Z</time></trkpt><trkpt lat="45.1869485" lon="9.1312279"><ele>60.99999999999999</ele><time>2026-05-04T14:02:46.823Z</time></trkpt><trkpt lat="45.1870295" lon="9.131185"><ele>60.99999999999999</ele><time>2026-05-04T14:02:48.831Z</time></trkpt><trkpt lat="45.1871221" lon="9.1311307"><ele>61.0</ele><time>2026-05-04T14:02:50.828Z</time></trkpt><trkpt lat="45.1872171" lon="9.131076"><ele>61.0</ele><time>2026-05-04T14:02:52.826Z</time></trkpt><trkpt lat="45.1872942" lon="9.1310196"><ele>60.166666666666664</ele><time>2026-05-04T14:02:54.821Z</time></trkpt><trkpt lat="45.1873684" lon="9.1309628"><ele>59.33333333333333</ele><time>2026-05-04T14:02:56.826Z</time></trkpt><trkpt lat="45.1874476" lon="9.1309029"><ele>58.5</ele><time>2026-05-04T14:02:58.82Z</time></trkpt><trkpt lat="45.187523" lon="9.1308662"><ele>57.66666666666667</ele><time>2026-05-04T14:03:00.908Z</time></trkpt><trkpt lat="45.1875898" lon="9.1308292"><ele>56.833333333333336</ele><time>2026-05-04T14:03:02.828Z</time></trkpt><trkpt lat="45.1876745" lon="9.1307747"><ele>56.0</ele><time>2026-05-04T14:03:04.826Z</time></trkpt><trkpt lat="45.1877591" lon="9.1307385"><ele>55.833333333333336</ele><time>2026-05-04T14:03:06.828Z</time></trkpt><trkpt lat="45.1878469" lon="9.1307102"><ele>55.66666666666667</ele><time>2026-05-04T14:03:08.822Z</time></trkpt><trkpt lat="45.1879172" lon="9.1306607"><ele>55.5</ele><time>2026-05-04T14:03:10.826Z</time></trkpt><trkpt lat="45.1879869" lon="9.1306255"><ele>55.33333333333333</ele><time>2026-05-04T14:03:12.818Z</time></trkpt><trkpt lat="45.1880661" lon="9.1305831"><ele>55.166666666666664</ele><time>2026-05-04T14:03:14.824Z</time></trkpt><trkpt lat="45.1881377" lon="9.1305388"><ele>55.0</ele><time>2026-05-04T14:03:16.827Z</time></trkpt><trkpt lat="45.1882028" lon="9.1305013"><ele>54.99999999999999</ele><time>2026-05-04T14:03:18.821Z</time></trkpt><trkpt lat="45.1882707" lon="9.1304762"><ele>55.0</ele><time>2026-05-04T14:03:20.822Z</time></trkpt><trkpt lat="45.1883389" lon="9.1304389"><ele>55.0</ele><time>2026-05-04T14:03:22.823Z</time></trkpt><trkpt lat="45.1884256" lon="9.1303997"><ele>55.0</ele><time>2026-05-04T14:03:25.821Z</time></trkpt><trkpt lat="45.1884896" lon="9.1303805"><ele>54.99999999999999</ele><time>2026-05-04T14:03:27.821Z</time></trkpt><trkpt lat="45.1885676" lon="9.1303589"><ele>55.0</ele><time>2026-05-04T14:03:29.81Z</time></trkpt><trkpt lat="45.1886429" lon="9.1303333"><ele>55.0</ele><time>2026-05-04T14:03:31.818Z</time></trkpt><trkpt lat="45.1887157" lon="9.1302956"><ele>55.0</ele><time>2026-05-04T14:03:33.812Z</time></trkpt><trkpt lat="45.1887967" lon="9.130254"><ele>55.0</ele><time>2026-05-04T14:03:35.826Z</time></trkpt><trkpt lat="45.1888916" lon="9.1301869"><ele>55.0</ele><time>2026-05-04T14:03:37.828Z</time></trkpt><trkpt lat="45.1889792" lon="9.130114"><ele>55.0</ele><time>2026-05-04T14:03:39.819Z</time></trkpt><trkpt lat="45.1890731" lon="9.1300412"><ele>56.0</ele><time>2026-05-04T14:03:41.821Z</time></trkpt><trkpt lat="45.1891687" lon="9.1299686"><ele>57.0</ele><time>2026-05-04T14:03:43.821Z</time></trkpt><trkpt lat="45.1892659" lon="9.1298908"><ele>58.0</ele><time>2026-05-04T14:03:45.828Z</time></trkpt><trkpt lat="45.189352" lon="9.1298116"><ele>59.0</ele><time>2026-05-04T14:03:47.823Z</time></trkpt><trkpt lat="45.1894451" lon="9.129759"><ele>60.0</ele><time>2026-05-04T14:03:49.827Z</time></trkpt><trkpt lat="45.189541" lon="9.1297049"><ele>60.0</ele><time>2026-05-04T14:03:51.903Z</time></trkpt><trkpt lat="45.1896289" lon="9.1296472"><ele>60.0</ele><time>2026-05-04T14:03:53.911Z</time></trkpt><trkpt lat="45.189738" lon="9.1295854"><ele>60.0</ele><time>2026-05-04T14:03:55.828Z</time></trkpt><trkpt lat="45.1898314" lon="9.129558"><ele>60.0</ele><time>2026-05-04T14:03:57.822Z</time></trkpt><trkpt lat="45.1899203" lon="9.1295142"><ele>60.0</ele><time>2026-05-04T14:03:59.824Z</time></trkpt><trkpt lat="45.1900115" lon="9.1294599"><ele>60.0</ele><time>2026-05-04T14:04:01.83Z</time></trkpt><trkpt lat="45.1900874" lon="9.1294177"><ele>60.0</ele><time>2026-05-04T14:04:03.822Z</time></trkpt><trkpt lat="45.19017" lon="9.1293701"><ele>60.0</ele><time>2026-05-04T14:04:05.816Z</time></trkpt><trkpt lat="45.1902482" lon="9.1293169"><ele>60.0</ele><time>2026-05-04T14:04:07.82Z</time></trkpt><trkpt lat="45.1903388" lon="9.1292554"><ele>60.0</ele><time>2026-05-04T14:04:09.824Z</time></trkpt><trkpt lat="45.1904165" lon="9.1291819"><ele>60.0</ele><time>2026-05-04T14:04:11.822Z</time></trkpt><trkpt lat="45.1905038" lon="9.1291185"><ele>60.0</ele><time>2026-05-04T14:04:13.831Z</time></trkpt><trkpt lat="45.1905942" lon="9.1290405"><ele>60.0</ele><time>2026-05-04T14:04:15.824Z</time></trkpt><trkpt lat="45.1906733" lon="9.1289633"><ele>60.0</ele><time>2026-05-04T14:04:17.892Z</time></trkpt><trkpt lat="45.1907487" lon="9.1288891"><ele>60.0</ele><time>2026-05-04T14:04:19.815Z</time></trkpt><trkpt lat="45.190822" lon="9.1288346"><ele>60.6</ele><time>2026-05-04T14:04:21.818Z</time></trkpt><trkpt lat="45.1908988" lon="9.1287466"><ele>61.2</ele><time>2026-05-04T14:04:23.821Z</time></trkpt><trkpt lat="45.1909782" lon="9.1286511"><ele>61.8</ele><time>2026-05-04T14:04:25.825Z</time></trkpt><trkpt lat="45.1910804" lon="9.1285928"><ele>62.4</ele><time>2026-05-04T14:04:27.811Z</time></trkpt><trkpt lat="45.1911395" lon="9.1285543"><ele>63.0</ele><time>2026-05-04T14:04:28.815Z</time></trkpt><trkpt lat="45.1912484" lon="9.1284992"><ele>63.0</ele><time>2026-05-04T14:04:30.824Z</time></trkpt><trkpt lat="45.1913475" lon="9.1284448"><ele>63.0</ele><time>2026-05-04T14:04:32.825Z</time></trkpt><trkpt lat="45.1914431" lon="9.1284018"><ele>63.0</ele><time>2026-05-04T14:04:34.827Z</time></trkpt><trkpt lat="45.1915408" lon="9.1283572"><ele>63.0</ele><time>2026-05-04T14:04:36.827Z</time></trkpt><trkpt lat="45.1916463" lon="9.1282905"><ele>63.0</ele><time>2026-05-04T14:04:38.81Z</time></trkpt><trkpt lat="45.1917357" lon="9.1282441"><ele>60.8</ele><time>2026-05-04T14:04:40.823Z</time></trkpt><trkpt lat="45.1918356" lon="9.1281572"><ele>58.599999999999994</ele><time>2026-05-04T14:04:42.814Z</time></trkpt><trkpt lat="45.1919286" lon="9.1280796"><ele>56.400000000000006</ele><time>2026-05-04T14:04:44.819Z</time></trkpt><trkpt lat="45.1920186" lon="9.1279842"><ele>54.2</ele><time>2026-05-04T14:04:46.826Z</time></trkpt><trkpt lat="45.192108" lon="9.127893"><ele>52.0</ele><time>2026-05-04T14:04:48.91Z</time></trkpt><trkpt lat="45.1921944" lon="9.1277846"><ele>52.0</ele><time>2026-05-04T14:04:50.828Z</time></trkpt><trkpt lat="45.1922809" lon="9.1276851"><ele>52.0</ele><time>2026-05-04T14:04:52.826Z</time></trkpt><trkpt lat="45.1923587" lon="9.1275729"><ele>52.0</ele><time>2026-05-04T14:04:54.817Z</time></trkpt><trkpt lat="45.1924013" lon="9.1275061"><ele>52.0</ele><time>2026-05-04T14:04:55.824Z</time></trkpt><trkpt lat="45.192481" lon="9.1273881"><ele>52.0</ele><time>2026-05-04T14:04:57.822Z</time></trkpt><trkpt lat="45.1925548" lon="9.1272889"><ele>52.400000000000006</ele><time>2026-05-04T14:04:59.822Z</time></trkpt><trkpt lat="45.1926292" lon="9.1272068"><ele>52.800000000000004</ele><time>2026-05-04T14:05:01.828Z</time></trkpt><trkpt lat="45.1927115" lon="9.1271115"><ele>53.2</ele><time>2026-05-04T14:05:03.823Z</time></trkpt><trkpt lat="45.1927893" lon="9.1270088"><ele>53.6</ele><time>2026-05-04T14:05:05.821Z</time></trkpt><trkpt lat="45.1928646" lon="9.1268836"><ele>54.0</ele><time>2026-05-04T14:05:07.82Z</time></trkpt><trkpt lat="45.1929326" lon="9.1267759"><ele>54.0</ele><time>2026-05-04T14:05:09.82Z</time></trkpt><trkpt lat="45.1929999" lon="9.1266562"><ele>54.0</ele><time>2026-05-04T14:05:11.818Z</time></trkpt><trkpt lat="45.1930579" lon="9.1265784"><ele>54.0</ele><time>2026-05-04T14:05:13.822Z</time></trkpt><trkpt lat="45.1931229" lon="9.1265125"><ele>54.0</ele><time>2026-05-04T14:05:15.897Z</time></trkpt><trkpt lat="45.1931819" lon="9.1264407"><ele>54.0</ele><time>2026-05-04T14:05:17.815Z</time></trkpt><trkpt lat="45.1932384" lon="9.126373"><ele>54.0</ele><time>2026-05-04T14:05:19.818Z</time></trkpt><trkpt lat="45.1932814" lon="9.1263046"><ele>55.2</ele><time>2026-05-04T14:05:21.812Z</time></trkpt><trkpt lat="45.1933383" lon="9.1261904"><ele>56.400000000000006</ele><time>2026-05-04T14:05:24.83Z</time></trkpt><trkpt lat="45.1933835" lon="9.1260861"><ele>57.6</ele><time>2026-05-04T14:05:26.82Z</time></trkpt><trkpt lat="45.1934212" lon="9.1259326"><ele>58.8</ele><time>2026-05-04T14:05:28.823Z</time></trkpt><trkpt lat="45.1934599" lon="9.1257718"><ele>60.0</ele><time>2026-05-04T14:05:30.825Z</time></trkpt><trkpt lat="45.1935024" lon="9.1256171"><ele>60.2</ele><time>2026-05-04T14:05:32.826Z</time></trkpt><trkpt lat="45.1935197" lon="9.12547"><ele>60.4</ele><time>2026-05-04T14:05:34.821Z</time></trkpt><trkpt lat="45.1935143" lon="9.1253063"><ele>60.599999999999994</ele><time>2026-05-04T14:05:36.827Z</time></trkpt><trkpt lat="45.1935242" lon="9.1251474"><ele>60.8</ele><time>2026-05-04T14:05:38.818Z</time></trkpt><trkpt lat="45.1935322" lon="9.1249886"><ele>61.0</ele><time>2026-05-04T14:05:40.824Z</time></trkpt><trkpt lat="45.1935432" lon="9.1248291"><ele>60.99999999999999</ele><time>2026-05-04T14:05:42.824Z</time></trkpt><trkpt lat="45.1935537" lon="9.1247065"><ele>61.0</ele><time>2026-05-04T14:05:44.822Z</time></trkpt><trkpt lat="45.1935617" lon="9.1245827"><ele>61.0</ele><time>2026-05-04T14:05:46.819Z</time></trkpt><trkpt lat="45.193572" lon="9.1244597"><ele>61.0</ele><time>2026-05-04T14:05:48.825Z</time></trkpt><trkpt lat="45.1935925" lon="9.1243392"><ele>60.99999999999999</ele><time>2026-05-04T14:05:50.826Z</time></trkpt><trkpt lat="45.1936044" lon="9.1242046"><ele>61.0</ele><time>2026-05-04T14:05:52.82Z</time></trkpt><trkpt lat="45.1936106" lon="9.1240753"><ele>60.199999999999996</ele><time>2026-05-04T14:05:54.818Z</time></trkpt><trkpt lat="45.193618" lon="9.1239522"><ele>59.39999999999999</ele><time>2026-05-04T14:05:56.826Z</time></trkpt><trkpt lat="45.1936228" lon="9.1238153"><ele>58.6</ele><time>2026-05-04T14:05:58.824Z</time></trkpt><trkpt lat="45.1936397" lon="9.1236915"><ele>57.8</ele><time>2026-05-04T14:06:00.822Z</time></trkpt><trkpt lat="45.1936644" lon="9.1235652"><ele>57.0</ele><time>2026-05-04T14:06:02.818Z</time></trkpt><trkpt lat="45.1936873" lon="9.1234175"><ele>57.0</ele><time>2026-05-04T14:06:04.816Z</time></trkpt><trkpt lat="45.1937013" lon="9.123259"><ele>57.0</ele><time>2026-05-04T14:06:06.816Z</time></trkpt><trkpt lat="45.1937221" lon="9.1231222"><ele>57.0</ele><time>2026-05-04T14:06:08.823Z</time></trkpt><trkpt lat="45.1937371" lon="9.1229679"><ele>57.0</ele><time>2026-05-04T14:06:10.819Z</time></trkpt><trkpt lat="45.1937444" lon="9.1228455"><ele>57.0</ele><time>2026-05-04T14:06:12.814Z</time></trkpt><trkpt lat="45.1937538" lon="9.1227144"><ele>57.0</ele><time>2026-05-04T14:06:14.817Z</time></trkpt><trkpt lat="45.1937889" lon="9.1226057"><ele>56.99999999999999</ele><time>2026-05-04T14:06:16.824Z</time></trkpt><trkpt lat="45.1938172" lon="9.1225108"><ele>57.0</ele><time>2026-05-04T14:06:18.823Z</time></trkpt><trkpt lat="45.1938871" lon="9.1224545"><ele>57.0</ele><time>2026-05-04T14:06:21.817Z</time></trkpt><trkpt lat="45.1939538" lon="9.1224753"><ele>56.99999999999999</ele><time>2026-05-04T14:06:23.822Z</time></trkpt><trkpt lat="45.1940195" lon="9.1224975"><ele>57.0</ele><time>2026-05-04T14:06:26.816Z</time></trkpt><trkpt lat="45.1940802" lon="9.1225447"><ele>57.0</ele><time>2026-05-04T14:06:32.821Z</time></trkpt><trkpt lat="45.1941396" lon="9.1225985"><ele>58.57142857142857</ele><time>2026-05-04T14:06:36.898Z</time></trkpt><trkpt lat="45.1942066" lon="9.1226286"><ele>60.14285714285714</ele><time>2026-05-04T14:06:39.821Z</time></trkpt><trkpt lat="45.1942708" lon="9.1226508"><ele>61.71428571428571</ele><time>2026-05-04T14:06:42.822Z</time></trkpt><trkpt lat="45.1943371" lon="9.1226833"><ele>63.28571428571428</ele><time>2026-05-04T14:06:45.818Z</time></trkpt><trkpt lat="45.1944167" lon="9.1227161"><ele>64.85714285714286</ele><time>2026-05-04T14:06:48.9Z</time></trkpt><trkpt lat="45.1944868" lon="9.1227594"><ele>66.42857142857142</ele><time>2026-05-04T14:06:51.817Z</time></trkpt><trkpt lat="45.1945488" lon="9.1227814"><ele>68.0</ele><time>2026-05-04T14:06:53.816Z</time></trkpt><trkpt lat="45.1946291" lon="9.1228009"><ele>67.99999999999999</ele><time>2026-05-04T14:06:56.825Z</time></trkpt><trkpt lat="45.1946979" lon="9.12278"><ele>68.0</ele><time>2026-05-04T14:06:59.815Z</time></trkpt><trkpt lat="45.1947438" lon="9.1226994"><ele>68.0</ele><time>2026-05-04T14:07:03.817Z</time></trkpt><trkpt lat="45.1947624" lon="9.1226112"><ele>68.0</ele><time>2026-05-04T14:07:06.817Z</time></trkpt><trkpt lat="45.194769" lon="9.1225091"><ele>68.0</ele><time>2026-05-04T14:07:10.82Z</time></trkpt><trkpt lat="45.1947906" lon="9.1223996"><ele>67.99999999999999</ele><time>2026-05-04T14:07:14.822Z</time></trkpt><trkpt lat="45.1948355" lon="9.1223171"><ele>68.0</ele><time>2026-05-04T14:07:18.815Z</time></trkpt><trkpt lat="45.1948792" lon="9.1222361"><ele>68.66666666666667</ele><time>2026-05-04T14:07:21.812Z</time></trkpt><trkpt lat="45.1948873" lon="9.1221433"><ele>69.33333333333334</ele><time>2026-05-04T14:07:23.816Z</time></trkpt><trkpt lat="45.1949025" lon="9.1220049"><ele>70.0</ele><time>2026-05-04T14:07:26.822Z</time></trkpt><trkpt lat="45.1949203" lon="9.121891"><ele>70.66666666666667</ele><time>2026-05-04T14:07:28.816Z</time></trkpt><trkpt lat="45.1949323" lon="9.1217736"><ele>71.33333333333333</ele><time>2026-05-04T14:07:30.819Z</time></trkpt><trkpt lat="45.1949703" lon="9.1216679"><ele>72.0</ele><time>2026-05-04T14:07:32.821Z</time></trkpt><trkpt lat="45.1950023" lon="9.1215464"><ele>72.0</ele><time>2026-05-04T14:07:34.823Z</time></trkpt><trkpt lat="45.1950239" lon="9.1214299"><ele>72.0</ele><time>2026-05-04T14:07:36.819Z</time></trkpt><trkpt lat="45.1950546" lon="9.1213057"><ele>72.0</ele><time>2026-05-04T14:07:38.823Z</time></trkpt><trkpt lat="45.1950803" lon="9.1211674"><ele>72.0</ele><time>2026-05-04T14:07:40.825Z</time></trkpt><trkpt lat="45.195109" lon="9.121024"><ele>72.0</ele><time>2026-05-04T14:07:42.81Z</time></trkpt><trkpt lat="45.1951359" lon="9.1208805"><ele>72.0</ele><time>2026-05-04T14:07:44.813Z</time></trkpt><trkpt lat="45.195158" lon="9.1207463"><ele>72.0</ele><time>2026-05-04T14:07:46.815Z</time></trkpt><trkpt lat="45.1951862" lon="9.1206059"><ele>72.0</ele><time>2026-05-04T14:07:48.826Z</time></trkpt><trkpt lat="45.1952104" lon="9.1204664"><ele>72.0</ele><time>2026-05-04T14:07:50.823Z</time></trkpt><trkpt lat="45.195238" lon="9.1203237"><ele>72.0</ele><time>2026-05-04T14:07:52.824Z</time></trkpt><trkpt lat="45.195271" lon="9.1201748"><ele>72.0</ele><time>2026-05-04T14:07:54.829Z</time></trkpt><trkpt lat="45.1952962" lon="9.1200272"><ele>72.0</ele><time>2026-05-04T14:07:56.822Z</time></trkpt><trkpt lat="45.1953245" lon="9.1198851"><ele>72.0</ele><time>2026-05-04T14:07:58.826Z</time></trkpt><trkpt lat="45.1953485" lon="9.1197267"><ele>72.0</ele><time>2026-05-04T14:08:00.826Z</time></trkpt><trkpt lat="45.1953777" lon="9.1195865"><ele>72.0</ele><time>2026-05-04T14:08:02.824Z</time></trkpt><trkpt lat="45.1953956" lon="9.1194434"><ele>72.0</ele><time>2026-05-04T14:08:04.82Z</time></trkpt><trkpt lat="45.1954141" lon="9.1193026"><ele>72.0</ele><time>2026-05-04T14:08:06.826Z</time></trkpt><trkpt lat="45.1954336" lon="9.1191603"><ele>72.0</ele><time>2026-05-04T14:08:08.834Z</time></trkpt><trkpt lat="45.1954479" lon="9.1190123"><ele>72.0</ele><time>2026-05-04T14:08:10.824Z</time></trkpt><trkpt lat="45.1954786" lon="9.1188647"><ele>72.0</ele><time>2026-05-04T14:08:12.817Z</time></trkpt><trkpt lat="45.1954967" lon="9.1187108"><ele>72.2</ele><time>2026-05-04T14:08:14.821Z</time></trkpt><trkpt lat="45.1955121" lon="9.1185706"><ele>72.4</ele><time>2026-05-04T14:08:16.826Z</time></trkpt><trkpt lat="45.195535" lon="9.1184337"><ele>72.6</ele><time>2026-05-04T14:08:18.822Z</time></trkpt><trkpt lat="45.19557" lon="9.1182864"><ele>72.8</ele><time>2026-05-04T14:08:20.833Z</time></trkpt><trkpt lat="45.1955945" lon="9.1181285"><ele>73.0</ele><time>2026-05-04T14:08:22.819Z</time></trkpt><trkpt lat="45.1956228" lon="9.1179784"><ele>73.0</ele><time>2026-05-04T14:08:24.823Z</time></trkpt><trkpt lat="45.1956473" lon="9.1178181"><ele>73.0</ele><time>2026-05-04T14:08:26.834Z</time></trkpt><trkpt lat="45.1956711" lon="9.1176638"><ele>73.0</ele><time>2026-05-04T14:08:28.828Z</time></trkpt><trkpt lat="45.1956949" lon="9.1175003"><ele>73.0</ele><time>2026-05-04T14:08:30.822Z</time></trkpt><trkpt lat="45.1957198" lon="9.1173457"><ele>73.25</ele><time>2026-05-04T14:08:32.817Z</time></trkpt><trkpt lat="45.1957459" lon="9.1171901"><ele>73.5</ele><time>2026-05-04T14:08:34.821Z</time></trkpt><trkpt lat="45.1957674" lon="9.1170384"><ele>73.75</ele><time>2026-05-04T14:08:36.897Z</time></trkpt><trkpt lat="45.1957933" lon="9.1168802"><ele>74.0</ele><time>2026-05-04T14:08:38.903Z</time></trkpt><trkpt lat="45.1958202" lon="9.1167173"><ele>73.75</ele><time>2026-05-04T14:08:40.826Z</time></trkpt><trkpt lat="45.1958468" lon="9.1165557"><ele>73.5</ele><time>2026-05-04T14:08:42.821Z</time></trkpt><trkpt lat="45.1958741" lon="9.1164041"><ele>73.25</ele><time>2026-05-04T14:08:44.822Z</time></trkpt><trkpt lat="45.1959047" lon="9.116249"><ele>73.0</ele><time>2026-05-04T14:08:46.814Z</time></trkpt><trkpt lat="45.195931" lon="9.1160893"><ele>73.0</ele><time>2026-05-04T14:08:48.825Z</time></trkpt><trkpt lat="45.1959563" lon="9.1159245"><ele>73.0</ele><time>2026-05-04T14:08:50.897Z</time></trkpt><trkpt lat="45.195984" lon="9.1157773"><ele>73.0</ele><time>2026-05-04T14:08:52.821Z</time></trkpt><trkpt lat="45.1960112" lon="9.1156221"><ele>73.0</ele><time>2026-05-04T14:08:54.829Z</time></trkpt><trkpt lat="45.1960368" lon="9.1154605"><ele>73.0</ele><time>2026-05-04T14:08:56.819Z</time></trkpt><trkpt lat="45.196064" lon="9.1152966"><ele>73.0</ele><time>2026-05-04T14:08:58.822Z</time></trkpt><trkpt lat="45.1960826" lon="9.1151267"><ele>73.0</ele><time>2026-05-04T14:09:00.819Z</time></trkpt><trkpt lat="45.1961155" lon="9.1149739"><ele>73.0</ele><time>2026-05-04T14:09:02.824Z</time></trkpt><trkpt lat="45.1961468" lon="9.1148224"><ele>72.75</ele><time>2026-05-04T14:09:04.828Z</time></trkpt><trkpt lat="45.1961727" lon="9.114665"><ele>72.5</ele><time>2026-05-04T14:09:06.903Z</time></trkpt><trkpt lat="45.1961984" lon="9.1145084"><ele>72.25</ele><time>2026-05-04T14:09:08.818Z</time></trkpt><trkpt lat="45.1962344" lon="9.1143495"><ele>72.0</ele><time>2026-05-04T14:09:10.818Z</time></trkpt><trkpt lat="45.1962691" lon="9.1141939"><ele>72.0</ele><time>2026-05-04T14:09:12.82Z</time></trkpt><trkpt lat="45.1963096" lon="9.1140311"><ele>72.0</ele><time>2026-05-04T14:09:14.834Z</time></trkpt><trkpt lat="45.1963519" lon="9.1138768"><ele>72.0</ele><time>2026-05-04T14:09:16.823Z</time></trkpt><trkpt lat="45.1963994" lon="9.1137325"><ele>72.0</ele><time>2026-05-04T14:09:18.821Z</time></trkpt><trkpt lat="45.1964395" lon="9.1135918"><ele>72.0</ele><time>2026-05-04T14:09:20.818Z</time></trkpt><trkpt lat="45.1964786" lon="9.1134414"><ele>72.0</ele><time>2026-05-04T14:09:22.819Z</time></trkpt><trkpt lat="45.1965211" lon="9.1132925"><ele>72.0</ele><time>2026-05-04T14:09:24.822Z</time></trkpt><trkpt lat="45.1965601" lon="9.1131335"><ele>72.0</ele><time>2026-05-04T14:09:26.822Z</time></trkpt><trkpt lat="45.1966042" lon="9.1129777"><ele>72.75</ele><time>2026-05-04T14:09:28.821Z</time></trkpt><trkpt lat="45.1966407" lon="9.1128225"><ele>73.5</ele><time>2026-05-04T14:09:30.827Z</time></trkpt><trkpt lat="45.1966871" lon="9.1126704"><ele>74.25</ele><time>2026-05-04T14:09:32.826Z</time></trkpt><trkpt lat="45.1967289" lon="9.1125139"><ele>75.0</ele><time>2026-05-04T14:09:34.824Z</time></trkpt><trkpt lat="45.1967662" lon="9.11237"><ele>75.0</ele><time>2026-05-04T14:09:36.82Z</time></trkpt><trkpt lat="45.1968041" lon="9.11223"><ele>75.0</ele><time>2026-05-04T14:09:38.827Z</time></trkpt><trkpt lat="45.1968485" lon="9.1120685"><ele>75.0</ele><time>2026-05-04T14:09:40.825Z</time></trkpt><trkpt lat="45.1968949" lon="9.1119112"><ele>75.0</ele><time>2026-05-04T14:09:42.817Z</time></trkpt><trkpt lat="45.1969437" lon="9.1117513"><ele>75.0</ele><time>2026-05-04T14:09:44.816Z</time></trkpt><trkpt lat="45.1969927" lon="9.1115901"><ele>75.0</ele><time>2026-05-04T14:09:46.813Z</time></trkpt><trkpt lat="45.197044" lon="9.1114328"><ele>75.0</ele><time>2026-05-04T14:09:48.819Z</time></trkpt><trkpt lat="45.1970699" lon="9.1113511"><ele>75.0</ele><time>2026-05-04T14:09:49.823Z</time></trkpt><trkpt lat="45.1971277" lon="9.111195"><ele>75.0</ele><time>2026-05-04T14:09:51.811Z</time></trkpt><trkpt lat="45.1971786" lon="9.111035"><ele>74.75</ele><time>2026-05-04T14:09:53.822Z</time></trkpt><trkpt lat="45.197233" lon="9.1108834"><ele>74.5</ele><time>2026-05-04T14:09:55.841Z</time></trkpt><trkpt lat="45.1972917" lon="9.1107435"><ele>74.25</ele><time>2026-05-04T14:09:57.823Z</time></trkpt><trkpt lat="45.1973445" lon="9.1105914"><ele>74.0</ele><time>2026-05-04T14:09:59.822Z</time></trkpt><trkpt lat="45.1974005" lon="9.1104383"><ele>74.0</ele><time>2026-05-04T14:10:01.821Z</time></trkpt><trkpt lat="45.1974252" lon="9.110351"><ele>74.0</ele><time>2026-05-04T14:10:02.818Z</time></trkpt><trkpt lat="45.1974813" lon="9.1101937"><ele>74.0</ele><time>2026-05-04T14:10:04.82Z</time></trkpt><trkpt lat="45.1975402" lon="9.110042"><ele>74.0</ele><time>2026-05-04T14:10:06.815Z</time></trkpt><trkpt lat="45.1975946" lon="9.1098935"><ele>74.0</ele><time>2026-05-04T14:10:08.818Z</time></trkpt><trkpt lat="45.1976233" lon="9.1098114"><ele>74.2</ele><time>2026-05-04T14:10:09.82Z</time></trkpt><trkpt lat="45.1976793" lon="9.1096665"><ele>74.4</ele><time>2026-05-04T14:10:11.822Z</time></trkpt><trkpt lat="45.1977069" lon="9.1095823"><ele>74.6</ele><time>2026-05-04T14:10:12.819Z</time></trkpt><trkpt lat="45.1977577" lon="9.1094312"><ele>74.8</ele><time>2026-05-04T14:10:14.822Z</time></trkpt><trkpt lat="45.1978109" lon="9.1092786"><ele>75.0</ele><time>2026-05-04T14:10:16.808Z</time></trkpt><trkpt lat="45.1978632" lon="9.1091308"><ele>74.4</ele><time>2026-05-04T14:10:18.818Z</time></trkpt><trkpt lat="45.1979229" lon="9.1089886"><ele>73.8</ele><time>2026-05-04T14:10:20.811Z</time></trkpt><trkpt lat="45.197977" lon="9.1088469"><ele>73.2</ele><time>2026-05-04T14:10:22.825Z</time></trkpt><trkpt lat="45.1980273" lon="9.108696"><ele>72.6</ele><time>2026-05-04T14:10:24.822Z</time></trkpt><trkpt lat="45.1980557" lon="9.1086153"><ele>72.0</ele><time>2026-05-04T14:10:25.814Z</time></trkpt><trkpt lat="45.1980871" lon="9.1085357"><ele>72.0</ele><time>2026-05-04T14:10:26.907Z</time></trkpt><trkpt lat="45.1981428" lon="9.1083807"><ele>72.0</ele><time>2026-05-04T14:10:28.82Z</time></trkpt><trkpt lat="45.1981883" lon="9.1082247"><ele>72.0</ele><time>2026-05-04T14:10:30.816Z</time></trkpt><trkpt lat="45.1982333" lon="9.1080678"><ele>72.0</ele><time>2026-05-04T14:10:32.822Z</time></trkpt><trkpt lat="45.1982694" lon="9.1079062"><ele>71.8</ele><time>2026-05-04T14:10:34.815Z</time></trkpt><trkpt lat="45.1983137" lon="9.1077514"><ele>71.6</ele><time>2026-05-04T14:10:36.817Z</time></trkpt><trkpt lat="45.1983539" lon="9.1076104"><ele>71.39999999999999</ele><time>2026-05-04T14:10:38.82Z</time></trkpt><trkpt lat="45.1983873" lon="9.1074542"><ele>71.2</ele><time>2026-05-04T14:10:40.82Z</time></trkpt><trkpt lat="45.1984245" lon="9.107313"><ele>71.0</ele><time>2026-05-04T14:10:42.823Z</time></trkpt><trkpt lat="45.1984556" lon="9.1071754"><ele>71.0</ele><time>2026-05-04T14:10:44.821Z</time></trkpt><trkpt lat="45.1984828" lon="9.1070303"><ele>71.0</ele><time>2026-05-04T14:10:46.82Z</time></trkpt><trkpt lat="45.1985062" lon="9.1068804"><ele>71.0</ele><time>2026-05-04T14:10:48.822Z</time></trkpt><trkpt lat="45.1985278" lon="9.1067303"><ele>71.0</ele><time>2026-05-04T14:10:50.826Z</time></trkpt><trkpt lat="45.198562" lon="9.1065823"><ele>71.0</ele><time>2026-05-04T14:10:52.827Z</time></trkpt><trkpt lat="45.1986116" lon="9.106435"><ele>70.2</ele><time>2026-05-04T14:10:54.822Z</time></trkpt><trkpt lat="45.1986687" lon="9.1062899"><ele>69.39999999999999</ele><time>2026-05-04T14:10:56.814Z</time></trkpt><trkpt lat="45.1987348" lon="9.1061707"><ele>68.6</ele><time>2026-05-04T14:10:58.812Z</time></trkpt><trkpt lat="45.198819" lon="9.1060822"><ele>67.8</ele><time>2026-05-04T14:11:00.826Z</time></trkpt><trkpt lat="45.1989123" lon="9.1059949"><ele>67.0</ele><time>2026-05-04T14:11:02.819Z</time></trkpt><trkpt lat="45.1990092" lon="9.105924"><ele>67.8</ele><time>2026-05-04T14:11:04.823Z</time></trkpt><trkpt lat="45.1991043" lon="9.105855"><ele>68.6</ele><time>2026-05-04T14:11:06.817Z</time></trkpt><trkpt lat="45.1991932" lon="9.1057852"><ele>69.39999999999999</ele><time>2026-05-04T14:11:08.892Z</time></trkpt><trkpt lat="45.1992838" lon="9.1057163"><ele>70.2</ele><time>2026-05-04T14:11:10.818Z</time></trkpt><trkpt lat="45.1993821" lon="9.1056488"><ele>71.0</ele><time>2026-05-04T14:11:12.814Z</time></trkpt><trkpt lat="45.1994768" lon="9.1055776"><ele>71.0</ele><time>2026-05-04T14:11:14.82Z</time></trkpt><trkpt lat="45.1995649" lon="9.1054999"><ele>71.0</ele><time>2026-05-04T14:11:16.821Z</time></trkpt><trkpt lat="45.1996539" lon="9.1054084"><ele>71.0</ele><time>2026-05-04T14:11:18.838Z</time></trkpt><trkpt lat="45.1997415" lon="9.1053323"><ele>71.0</ele><time>2026-05-04T14:11:20.816Z</time></trkpt><trkpt lat="45.1998351" lon="9.1052535"><ele>71.0</ele><time>2026-05-04T14:11:22.818Z</time></trkpt><trkpt lat="45.1999267" lon="9.1051756"><ele>72.39999999999999</ele><time>2026-05-04T14:11:24.813Z</time></trkpt><trkpt lat="45.2000161" lon="9.10509"><ele>73.8</ele><time>2026-05-04T14:11:26.813Z</time></trkpt><trkpt lat="45.2001033" lon="9.1050077"><ele>75.19999999999999</ele><time>2026-05-04T14:11:28.816Z</time></trkpt><trkpt lat="45.2001868" lon="9.1049254"><ele>76.6</ele><time>2026-05-04T14:11:30.811Z</time></trkpt><trkpt lat="45.2002735" lon="9.1048364"><ele>78.0</ele><time>2026-05-04T14:11:32.817Z</time></trkpt><trkpt lat="45.2003667" lon="9.1047525"><ele>78.2</ele><time>2026-05-04T14:11:34.827Z</time></trkpt><trkpt lat="45.2004552" lon="9.1046656"><ele>78.4</ele><time>2026-05-04T14:11:36.819Z</time></trkpt><trkpt lat="45.2005463" lon="9.1045731"><ele>78.60000000000001</ele><time>2026-05-04T14:11:38.823Z</time></trkpt><trkpt lat="45.2006386" lon="9.1044925"><ele>78.8</ele><time>2026-05-04T14:11:40.814Z</time></trkpt><trkpt lat="45.2007236" lon="9.1044032"><ele>79.0</ele><time>2026-05-04T14:11:42.825Z</time></trkpt><trkpt lat="45.2008184" lon="9.1043103"><ele>79.0</ele><time>2026-05-04T14:11:44.813Z</time></trkpt><trkpt lat="45.2009075" lon="9.1042149"><ele>79.0</ele><time>2026-05-04T14:11:46.82Z</time></trkpt><trkpt lat="45.2009936" lon="9.1041322"><ele>79.0</ele><time>2026-05-04T14:11:48.813Z</time></trkpt><trkpt lat="45.2010749" lon="9.1040446"><ele>79.0</ele><time>2026-05-04T14:11:50.812Z</time></trkpt><trkpt lat="45.2011632" lon="9.1039574"><ele>79.0</ele><time>2026-05-04T14:11:52.818Z</time></trkpt><trkpt lat="45.2012577" lon="9.1038635"><ele>79.2</ele><time>2026-05-04T14:11:54.822Z</time></trkpt><trkpt lat="45.2013393" lon="9.1037689"><ele>79.4</ele><time>2026-05-04T14:11:56.817Z</time></trkpt><trkpt lat="45.2014291" lon="9.1036725"><ele>79.6</ele><time>2026-05-04T14:11:58.815Z</time></trkpt><trkpt lat="45.2015194" lon="9.1035784"><ele>79.8</ele><time>2026-05-04T14:12:00.826Z</time></trkpt><trkpt lat="45.2016122" lon="9.1034824"><ele>80.0</ele><time>2026-05-04T14:12:02.819Z</time></trkpt><trkpt lat="45.2017082" lon="9.1033884"><ele>79.5</ele><time>2026-05-04T14:12:04.82Z</time></trkpt><trkpt lat="45.2018024" lon="9.1032933"><ele>79.0</ele><time>2026-05-04T14:12:06.819Z</time></trkpt><trkpt lat="45.2019017" lon="9.1031993"><ele>78.5</ele><time>2026-05-04T14:12:08.811Z</time></trkpt><trkpt lat="45.2019934" lon="9.1031078"><ele>78.0</ele><time>2026-05-04T14:12:10.819Z</time></trkpt><trkpt lat="45.2020845" lon="9.1030142"><ele>77.4</ele><time>2026-05-04T14:12:12.808Z</time></trkpt><trkpt lat="45.2021702" lon="9.102926"><ele>76.8</ele><time>2026-05-04T14:12:14.822Z</time></trkpt><trkpt lat="45.2022632" lon="9.1028379"><ele>76.2</ele><time>2026-05-04T14:12:16.824Z</time></trkpt><trkpt lat="45.2023506" lon="9.102747"><ele>75.6</ele><time>2026-05-04T14:12:18.815Z</time></trkpt><trkpt lat="45.2024364" lon="9.1026552"><ele>75.0</ele><time>2026-05-04T14:12:20.815Z</time></trkpt><trkpt lat="45.2025237" lon="9.1025506"><ele>75.0</ele><time>2026-05-04T14:12:22.82Z</time></trkpt><trkpt lat="45.2026162" lon="9.102433"><ele>75.0</ele><time>2026-05-04T14:12:24.828Z</time></trkpt><trkpt lat="45.2026621" lon="9.1023672"><ele>75.0</ele><time>2026-05-04T14:12:25.816Z</time></trkpt><trkpt lat="45.2027477" lon="9.1022463"><ele>75.0</ele><time>2026-05-04T14:12:27.817Z</time></trkpt><trkpt lat="45.2027916" lon="9.1021801"><ele>75.0</ele><time>2026-05-04T14:12:28.827Z</time></trkpt><trkpt lat="45.202836" lon="9.1021134"><ele>75.0</ele><time>2026-05-04T14:12:29.814Z</time></trkpt><trkpt lat="45.2028805" lon="9.1020428"><ele>75.0</ele><time>2026-05-04T14:12:30.821Z</time></trkpt><trkpt lat="45.2029229" lon="9.1019725"><ele>75.0</ele><time>2026-05-04T14:12:31.814Z</time></trkpt><trkpt lat="45.202999" lon="9.1018397"><ele>75.0</ele><time>2026-05-04T14:12:33.819Z</time></trkpt><trkpt lat="45.2030643" lon="9.1017056"><ele>75.0</ele><time>2026-05-04T14:12:35.822Z</time></trkpt><trkpt lat="45.2031279" lon="9.1015738"><ele>75.0</ele><time>2026-05-04T14:12:37.818Z</time></trkpt><trkpt lat="45.203183" lon="9.1014364"><ele>75.0</ele><time>2026-05-04T14:12:39.821Z</time></trkpt><trkpt lat="45.2032389" lon="9.1013111"><ele>75.0</ele><time>2026-05-04T14:12:41.901Z</time></trkpt><trkpt lat="45.2032923" lon="9.1011695"><ele>75.0</ele><time>2026-05-04T14:12:43.818Z</time></trkpt><trkpt lat="45.2033529" lon="9.1010415"><ele>75.0</ele><time>2026-05-04T14:12:45.821Z</time></trkpt><trkpt lat="45.2034233" lon="9.100927"><ele>75.0</ele><time>2026-05-04T14:12:47.825Z</time></trkpt><trkpt lat="45.2034823" lon="9.1008193"><ele>73.6</ele><time>2026-05-04T14:12:49.823Z</time></trkpt><trkpt lat="45.2035441" lon="9.1006955"><ele>72.2</ele><time>2026-05-04T14:12:51.838Z</time></trkpt><trkpt lat="45.2036069" lon="9.1005751"><ele>70.8</ele><time>2026-05-04T14:12:53.818Z</time></trkpt><trkpt lat="45.2036752" lon="9.1004505"><ele>69.4</ele><time>2026-05-04T14:12:55.817Z</time></trkpt><trkpt lat="45.2037358" lon="9.1003355"><ele>68.0</ele><time>2026-05-04T14:12:57.821Z</time></trkpt><trkpt lat="45.2038036" lon="9.1002154"><ele>68.0</ele><time>2026-05-04T14:12:59.831Z</time></trkpt><trkpt lat="45.203867" lon="9.1000955"><ele>68.0</ele><time>2026-05-04T14:13:01.817Z</time></trkpt><trkpt lat="45.2039263" lon="9.099979"><ele>68.0</ele><time>2026-05-04T14:13:03.821Z</time></trkpt><trkpt lat="45.2039878" lon="9.0998642"><ele>68.0</ele><time>2026-05-04T14:13:05.82Z</time></trkpt><trkpt lat="45.2040387" lon="9.0997482"><ele>68.0</ele><time>2026-05-04T14:13:07.823Z</time></trkpt><trkpt lat="45.2040723" lon="9.0996162"><ele>69.5</ele><time>2026-05-04T14:13:09.821Z</time></trkpt><trkpt lat="45.2041259" lon="9.0995045"><ele>71.0</ele><time>2026-05-04T14:13:11.812Z</time></trkpt><trkpt lat="45.2041827" lon="9.0994032"><ele>72.5</ele><time>2026-05-04T14:13:13.81Z</time></trkpt><trkpt lat="45.2042317" lon="9.0993155"><ele>74.0</ele><time>2026-05-04T14:13:15.818Z</time></trkpt><trkpt lat="45.2042917" lon="9.0992348"><ele>75.5</ele><time>2026-05-04T14:13:17.809Z</time></trkpt><trkpt lat="45.2043336" lon="9.0991637"><ele>77.0</ele><time>2026-05-04T14:13:19.897Z</time></trkpt><trkpt lat="45.2042823" lon="9.0990668"><ele>77.0</ele><time>2026-05-04T14:13:23.817Z</time></trkpt><trkpt lat="45.2041767" lon="9.0990078"><ele>77.0</ele><time>2026-05-04T14:13:25.813Z</time></trkpt><trkpt lat="45.2040998" lon="9.0989871"><ele>77.0</ele><time>2026-05-04T14:13:27.813Z</time></trkpt><trkpt lat="45.2040227" lon="9.098942"><ele>77.0</ele><time>2026-05-04T14:13:29.818Z</time></trkpt><trkpt lat="45.2039512" lon="9.098912"><ele>77.0</ele><time>2026-05-04T14:13:31.834Z</time></trkpt><trkpt lat="45.2038793" lon="9.0988427"><ele>77.0</ele><time>2026-05-04T14:13:33.829Z</time></trkpt><trkpt lat="45.2038177" lon="9.0987454"><ele>75.6</ele><time>2026-05-04T14:13:35.824Z</time></trkpt><trkpt lat="45.2038142" lon="9.098602"><ele>74.2</ele><time>2026-05-04T14:13:37.818Z</time></trkpt><trkpt lat="45.2038619" lon="9.0984427"><ele>72.8</ele><time>2026-05-04T14:13:39.821Z</time></trkpt><trkpt lat="45.203908" lon="9.0982813"><ele>71.4</ele><time>2026-05-04T14:13:41.818Z</time></trkpt><trkpt lat="45.2039374" lon="9.0981989"><ele>70.0</ele><time>2026-05-04T14:13:42.819Z</time></trkpt><trkpt lat="45.2040006" lon="9.0980602"><ele>70.0</ele><time>2026-05-04T14:13:44.822Z</time></trkpt><trkpt lat="45.204064" lon="9.0979627"><ele>70.0</ele><time>2026-05-04T14:13:46.812Z</time></trkpt><trkpt lat="45.2041218" lon="9.09788"><ele>70.0</ele><time>2026-05-04T14:13:48.817Z</time></trkpt><trkpt lat="45.2042097" lon="9.0977536"><ele>70.0</ele><time>2026-05-04T14:13:51.814Z</time></trkpt><trkpt lat="45.2042754" lon="9.0976377"><ele>70.0</ele><time>2026-05-04T14:13:53.822Z</time></trkpt><trkpt lat="45.2043428" lon="9.0975291"><ele>68.25</ele><time>2026-05-04T14:13:55.815Z</time></trkpt><trkpt lat="45.2044142" lon="9.0974063"><ele>66.5</ele><time>2026-05-04T14:13:57.897Z</time></trkpt><trkpt lat="45.2044713" lon="9.0972714"><ele>64.75</ele><time>2026-05-04T14:13:59.828Z</time></trkpt><trkpt lat="45.2045313" lon="9.097133"><ele>63.0</ele><time>2026-05-04T14:14:01.81Z</time></trkpt><trkpt lat="45.2045951" lon="9.0969896"><ele>63.0</ele><time>2026-05-04T14:14:03.82Z</time></trkpt><trkpt lat="45.2046599" lon="9.0968535"><ele>63.0</ele><time>2026-05-04T14:14:05.829Z</time></trkpt><trkpt lat="45.2047366" lon="9.0967223"><ele>63.0</ele><time>2026-05-04T14:14:07.819Z</time></trkpt><trkpt lat="45.2048184" lon="9.0966042"><ele>63.0</ele><time>2026-05-04T14:14:09.82Z</time></trkpt><trkpt lat="45.2048873" lon="9.096503"><ele>64.66666666666667</ele><time>2026-05-04T14:14:11.812Z</time></trkpt><trkpt lat="45.2049538" lon="9.0963809"><ele>66.33333333333333</ele><time>2026-05-04T14:14:13.886Z</time></trkpt><trkpt lat="45.2050216" lon="9.0962862"><ele>68.0</ele><time>2026-05-04T14:14:15.816Z</time></trkpt><trkpt lat="45.2050692" lon="9.0962152"><ele>69.66666666666666</ele><time>2026-05-04T14:14:17.823Z</time></trkpt><trkpt lat="45.2051017" lon="9.0961353"><ele>71.33333333333333</ele><time>2026-05-04T14:14:19.818Z</time></trkpt><trkpt lat="45.2051374" lon="9.0960554"><ele>73.0</ele><time>2026-05-04T14:14:21.818Z</time></trkpt><trkpt lat="45.2051838" lon="9.0959604"><ele>73.0</ele><time>2026-05-04T14:14:23.822Z</time></trkpt><trkpt lat="45.2051915" lon="9.0958248"><ele>73.0</ele><time>2026-05-04T14:14:25.821Z</time></trkpt><trkpt lat="45.2051851" lon="9.0957097"><ele>73.0</ele><time>2026-05-04T14:14:27.814Z</time></trkpt><trkpt lat="45.2051668" lon="9.0956186"><ele>73.0</ele><time>2026-05-04T14:14:29.807Z</time></trkpt><trkpt lat="45.2051396" lon="9.0955153"><ele>73.0</ele><time>2026-05-04T14:14:31.813Z</time></trkpt><trkpt lat="45.2050983" lon="9.0954152"><ele>73.0</ele><time>2026-05-04T14:14:33.816Z</time></trkpt><trkpt lat="45.2050474" lon="9.0953129"><ele>73.16666666666666</ele><time>2026-05-04T14:14:35.814Z</time></trkpt><trkpt lat="45.205012" lon="9.0952195"><ele>73.33333333333333</ele><time>2026-05-04T14:14:37.831Z</time></trkpt><trkpt lat="45.2049686" lon="9.095129"><ele>73.5</ele><time>2026-05-04T14:14:39.819Z</time></trkpt><trkpt lat="45.2049047" lon="9.0950334"><ele>73.66666666666667</ele><time>2026-05-04T14:14:41.895Z</time></trkpt><trkpt lat="45.2048439" lon="9.0949619"><ele>73.83333333333334</ele><time>2026-05-04T14:14:43.819Z</time></trkpt><trkpt lat="45.2047769" lon="9.0948845"><ele>74.0</ele><time>2026-05-04T14:14:45.813Z</time></trkpt><trkpt lat="45.2047129" lon="9.0947969"><ele>72.66666666666667</ele><time>2026-05-04T14:14:47.816Z</time></trkpt><trkpt lat="45.2046673" lon="9.0947042"><ele>71.33333333333334</ele><time>2026-05-04T14:14:49.821Z</time></trkpt><trkpt lat="45.204659" lon="9.0946039"><ele>70.0</ele><time>2026-05-04T14:14:51.817Z</time></trkpt><trkpt lat="45.204688" lon="9.0944992"><ele>68.66666666666667</ele><time>2026-05-04T14:14:53.815Z</time></trkpt><trkpt lat="45.2047155" lon="9.0943508"><ele>67.33333333333333</ele><time>2026-05-04T14:14:55.82Z</time></trkpt><trkpt lat="45.2047174" lon="9.0942371"><ele>66.0</ele><time>2026-05-04T14:14:57.827Z</time></trkpt><trkpt lat="45.2046819" lon="9.0940909"><ele>66.0</ele><time>2026-05-04T14:14:59.814Z</time></trkpt><trkpt lat="45.2046806" lon="9.093965"><ele>66.0</ele><time>2026-05-04T14:15:01.822Z</time></trkpt><trkpt lat="45.2046972" lon="9.093831"><ele>66.0</ele><time>2026-05-04T14:15:03.823Z</time></trkpt><trkpt lat="45.2046771" lon="9.0937078"><ele>66.0</ele><time>2026-05-04T14:15:05.813Z</time></trkpt><trkpt lat="45.2046234" lon="9.0936041"><ele>66.0</ele><time>2026-05-04T14:15:07.814Z</time></trkpt><trkpt lat="45.2045658" lon="9.0935335"><ele>66.0</ele><time>2026-05-04T14:15:09.817Z</time></trkpt><trkpt lat="45.2045123" lon="9.0934369"><ele>66.0</ele><time>2026-05-04T14:15:11.811Z</time></trkpt><trkpt lat="45.2044846" lon="9.093327"><ele>66.0</ele><time>2026-05-04T14:15:13.818Z</time></trkpt><trkpt lat="45.2044512" lon="9.0931854"><ele>66.0</ele><time>2026-05-04T14:15:15.821Z</time></trkpt><trkpt lat="45.2044283" lon="9.0930654"><ele>66.0</ele><time>2026-05-04T14:15:17.814Z</time></trkpt><trkpt lat="45.2044375" lon="9.0929273"><ele>66.0</ele><time>2026-05-04T14:15:19.812Z</time></trkpt><trkpt lat="45.2044591" lon="9.0928103"><ele>66.83333333333333</ele><time>2026-05-04T14:15:21.82Z</time></trkpt><trkpt lat="45.2044649" lon="9.0926854"><ele>67.66666666666667</ele><time>2026-05-04T14:15:23.819Z</time></trkpt><trkpt lat="45.2044659" lon="9.0925655"><ele>68.5</ele><time>2026-05-04T14:15:25.811Z</time></trkpt><trkpt lat="45.2044678" lon="9.0924415"><ele>69.33333333333334</ele><time>2026-05-04T14:15:27.813Z</time></trkpt><trkpt lat="45.2044703" lon="9.0923329"><ele>70.16666666666667</ele><time>2026-05-04T14:15:29.814Z</time></trkpt><trkpt lat="45.204487" lon="9.0922163"><ele>71.0</ele><time>2026-05-04T14:15:31.813Z</time></trkpt><trkpt lat="45.204516" lon="9.0921121"><ele>72.0</ele><time>2026-05-04T14:15:33.82Z</time></trkpt><trkpt lat="45.2045739" lon="9.0920005"><ele>73.0</ele><time>2026-05-04T14:15:36.817Z</time></trkpt><trkpt lat="45.2046539" lon="9.0918852"><ele>74.0</ele><time>2026-05-04T14:15:39.82Z</time></trkpt><trkpt lat="45.2047171" lon="9.0917945"><ele>75.0</ele><time>2026-05-04T14:15:41.821Z</time></trkpt><trkpt lat="45.2047792" lon="9.0916935"><ele>76.0</ele><time>2026-05-04T14:15:43.814Z</time></trkpt><trkpt lat="45.2048421" lon="9.0915979"><ele>76.6</ele><time>2026-05-04T14:15:45.819Z</time></trkpt><trkpt lat="45.2049075" lon="9.0915092"><ele>77.19999999999999</ele><time>2026-05-04T14:15:47.815Z</time></trkpt><trkpt lat="45.2049783" lon="9.0914112"><ele>77.80000000000001</ele><time>2026-05-04T14:15:49.813Z</time></trkpt><trkpt lat="45.2050433" lon="9.0913107"><ele>78.4</ele><time>2026-05-04T14:15:51.818Z</time></trkpt><trkpt lat="45.2051083" lon="9.09121"><ele>79.0</ele><time>2026-05-04T14:15:53.82Z</time></trkpt><trkpt lat="45.2051588" lon="9.0911058"><ele>79.0</ele><time>2026-05-04T14:15:55.82Z</time></trkpt><trkpt lat="45.2052265" lon="9.091005"><ele>79.0</ele><time>2026-05-04T14:15:57.811Z</time></trkpt><trkpt lat="45.2053015" lon="9.0909009"><ele>79.0</ele><time>2026-05-04T14:15:59.81Z</time></trkpt><trkpt lat="45.2053659" lon="9.0908073"><ele>79.0</ele><time>2026-05-04T14:16:01.816Z</time></trkpt><trkpt lat="45.2054338" lon="9.0907072"><ele>79.0</ele><time>2026-05-04T14:16:03.815Z</time></trkpt><trkpt lat="45.2055014" lon="9.0905943"><ele>79.0</ele><time>2026-05-04T14:16:05.815Z</time></trkpt><trkpt lat="45.2055341" lon="9.0904684"><ele>79.0</ele><time>2026-05-04T14:16:07.813Z</time></trkpt><trkpt lat="45.205567" lon="9.0903354"><ele>79.0</ele><time>2026-05-04T14:16:09.831Z</time></trkpt><trkpt lat="45.2056221" lon="9.0902393"><ele>79.0</ele><time>2026-05-04T14:16:11.886Z</time></trkpt><trkpt lat="45.2056898" lon="9.0901512"><ele>79.0</ele><time>2026-05-04T14:16:13.813Z</time></trkpt><trkpt lat="45.2057566" lon="9.0900554"><ele>79.4</ele><time>2026-05-04T14:16:15.824Z</time></trkpt><trkpt lat="45.2058269" lon="9.08996"><ele>79.80000000000001</ele><time>2026-05-04T14:16:17.825Z</time></trkpt><trkpt lat="45.2059055" lon="9.0898629"><ele>80.19999999999999</ele><time>2026-05-04T14:16:19.825Z</time></trkpt><trkpt lat="45.2059804" lon="9.0897726"><ele>80.6</ele><time>2026-05-04T14:16:21.808Z</time></trkpt><trkpt lat="45.2060548" lon="9.0896785"><ele>81.0</ele><time>2026-05-04T14:16:23.81Z</time></trkpt><trkpt lat="45.2061289" lon="9.0895779"><ele>81.8</ele><time>2026-05-04T14:16:25.894Z</time></trkpt><trkpt lat="45.2062036" lon="9.0894832"><ele>82.6</ele><time>2026-05-04T14:16:27.826Z</time></trkpt><trkpt lat="45.2062831" lon="9.0893836"><ele>83.4</ele><time>2026-05-04T14:16:29.815Z</time></trkpt><trkpt lat="45.2063561" lon="9.0892876"><ele>84.2</ele><time>2026-05-04T14:16:31.812Z</time></trkpt><trkpt lat="45.206441" lon="9.0892034"><ele>85.0</ele><time>2026-05-04T14:16:33.822Z</time></trkpt><trkpt lat="45.2065124" lon="9.0891029"><ele>83.4</ele><time>2026-05-04T14:16:35.821Z</time></trkpt><trkpt lat="45.2065841" lon="9.0890075"><ele>81.8</ele><time>2026-05-04T14:16:37.815Z</time></trkpt><trkpt lat="45.2066602" lon="9.0889131"><ele>80.2</ele><time>2026-05-04T14:16:39.813Z</time></trkpt><trkpt lat="45.2067369" lon="9.0888233"><ele>78.6</ele><time>2026-05-04T14:16:41.813Z</time></trkpt><trkpt lat="45.20682" lon="9.0887269"><ele>77.0</ele><time>2026-05-04T14:16:43.824Z</time></trkpt><trkpt lat="45.2069002" lon="9.0886286"><ele>77.0</ele><time>2026-05-04T14:16:45.815Z</time></trkpt><trkpt lat="45.2069778" lon="9.088529"><ele>77.0</ele><time>2026-05-04T14:16:47.818Z</time></trkpt><trkpt lat="45.2070541" lon="9.0884286"><ele>77.0</ele><time>2026-05-04T14:16:49.819Z</time></trkpt><trkpt lat="45.2071319" lon="9.088324"><ele>77.0</ele><time>2026-05-04T14:16:51.817Z</time></trkpt><trkpt lat="45.2072092" lon="9.0882231"><ele>77.0</ele><time>2026-05-04T14:16:53.81Z</time></trkpt><trkpt lat="45.2072869" lon="9.0881208"><ele>77.4</ele><time>2026-05-04T14:16:55.817Z</time></trkpt><trkpt lat="45.2073649" lon="9.0880246"><ele>77.80000000000001</ele><time>2026-05-04T14:16:57.814Z</time></trkpt><trkpt lat="45.2074474" lon="9.0879469"><ele>78.2</ele><time>2026-05-04T14:16:59.842Z</time></trkpt><trkpt lat="45.2075384" lon="9.0878949"><ele>78.60000000000001</ele><time>2026-05-04T14:17:01.814Z</time></trkpt><trkpt lat="45.2076346" lon="9.0878851"><ele>79.0</ele><time>2026-05-04T14:17:03.815Z</time></trkpt><trkpt lat="45.2077312" lon="9.0878885"><ele>79.0</ele><time>2026-05-04T14:17:05.82Z</time></trkpt><trkpt lat="45.2078358" lon="9.0878863"><ele>79.0</ele><time>2026-05-04T14:17:07.816Z</time></trkpt><trkpt lat="45.2079424" lon="9.0878931"><ele>79.0</ele><time>2026-05-04T14:17:09.81Z</time></trkpt><trkpt lat="45.208048" lon="9.0879137"><ele>79.0</ele><time>2026-05-04T14:17:11.821Z</time></trkpt><trkpt lat="45.2081569" lon="9.0879549"><ele>79.0</ele><time>2026-05-04T14:17:13.823Z</time></trkpt><trkpt lat="45.2082613" lon="9.0879801"><ele>78.60000000000001</ele><time>2026-05-04T14:17:15.91Z</time></trkpt><trkpt lat="45.208356" lon="9.0879602"><ele>78.2</ele><time>2026-05-04T14:17:17.891Z</time></trkpt><trkpt lat="45.2084501" lon="9.0879167"><ele>77.80000000000001</ele><time>2026-05-04T14:17:19.82Z</time></trkpt><trkpt lat="45.2085231" lon="9.0878259"><ele>77.4</ele><time>2026-05-04T14:17:21.809Z</time></trkpt><trkpt lat="45.2085841" lon="9.0877094"><ele>77.0</ele><time>2026-05-04T14:17:23.817Z</time></trkpt><trkpt lat="45.2086448" lon="9.0875882"><ele>77.0</ele><time>2026-05-04T14:17:25.82Z</time></trkpt><trkpt lat="45.2087172" lon="9.0874773"><ele>77.0</ele><time>2026-05-04T14:17:27.816Z</time></trkpt><trkpt lat="45.2088174" lon="9.0874283"><ele>77.0</ele><time>2026-05-04T14:17:29.817Z</time></trkpt><trkpt lat="45.2089215" lon="9.0874642"><ele>77.0</ele><time>2026-05-04T14:17:31.82Z</time></trkpt><trkpt lat="45.209008" lon="9.0875522"><ele>77.0</ele><time>2026-05-04T14:17:33.815Z</time></trkpt><trkpt lat="45.2090969" lon="9.0876271"><ele>77.4</ele><time>2026-05-04T14:17:35.836Z</time></trkpt><trkpt lat="45.2091872" lon="9.0877126"><ele>77.80000000000001</ele><time>2026-05-04T14:17:37.818Z</time></trkpt><trkpt lat="45.2092687" lon="9.0877919"><ele>78.2</ele><time>2026-05-04T14:17:39.808Z</time></trkpt><trkpt lat="45.2093539" lon="9.0878785"><ele>78.60000000000001</ele><time>2026-05-04T14:17:41.811Z</time></trkpt><trkpt lat="45.2094415" lon="9.0879618"><ele>79.0</ele><time>2026-05-04T14:17:43.816Z</time></trkpt><trkpt lat="45.2095318" lon="9.0880426"><ele>79.0</ele><time>2026-05-04T14:17:45.823Z</time></trkpt><trkpt lat="45.2096251" lon="9.0881256"><ele>79.0</ele><time>2026-05-04T14:17:47.823Z</time></trkpt><trkpt lat="45.2097117" lon="9.0882042"><ele>79.0</ele><time>2026-05-04T14:17:49.814Z</time></trkpt><trkpt lat="45.2097988" lon="9.0882896"><ele>79.0</ele><time>2026-05-04T14:17:51.823Z</time></trkpt><trkpt lat="45.2098863" lon="9.0883807"><ele>79.0</ele><time>2026-05-04T14:17:53.827Z</time></trkpt><trkpt lat="45.2099759" lon="9.0884629"><ele>79.0</ele><time>2026-05-04T14:17:55.814Z</time></trkpt><trkpt lat="45.2100585" lon="9.0885527"><ele>79.0</ele><time>2026-05-04T14:17:57.817Z</time></trkpt><trkpt lat="45.2101325" lon="9.0886335"><ele>79.0</ele><time>2026-05-04T14:17:59.807Z</time></trkpt><trkpt lat="45.2102039" lon="9.0887032"><ele>79.0</ele><time>2026-05-04T14:18:01.816Z</time></trkpt><trkpt lat="45.2102683" lon="9.0887598"><ele>79.0</ele><time>2026-05-04T14:18:03.821Z</time></trkpt><trkpt lat="45.2103399" lon="9.0887073"><ele>79.0</ele><time>2026-05-04T14:18:06.895Z</time></trkpt><trkpt lat="45.2103859" lon="9.0886105"><ele>79.0</ele><time>2026-05-04T14:18:08.809Z</time></trkpt><trkpt lat="45.2104386" lon="9.0885213"><ele>79.0</ele><time>2026-05-04T14:18:10.818Z</time></trkpt><trkpt lat="45.2104949" lon="9.088426"><ele>79.0</ele><time>2026-05-04T14:18:12.813Z</time></trkpt><trkpt lat="45.21055" lon="9.0883274"><ele>79.0</ele><time>2026-05-04T14:18:14.821Z</time></trkpt><trkpt lat="45.2106012" lon="9.0882165"><ele>79.0</ele><time>2026-05-04T14:18:16.82Z</time></trkpt><trkpt lat="45.2106621" lon="9.0881138"><ele>79.0</ele><time>2026-05-04T14:18:18.832Z</time></trkpt><trkpt lat="45.2107189" lon="9.088009"><ele>79.0</ele><time>2026-05-04T14:18:20.811Z</time></trkpt><trkpt lat="45.2107826" lon="9.087897"><ele>79.0</ele><time>2026-05-04T14:18:22.811Z</time></trkpt><trkpt lat="45.2108499" lon="9.087784"><ele>79.0</ele><time>2026-05-04T14:18:24.827Z</time></trkpt><trkpt lat="45.2109112" lon="9.0876678"><ele>79.0</ele><time>2026-05-04T14:18:26.818Z</time></trkpt><trkpt lat="45.2109772" lon="9.0875541"><ele>79.0</ele><time>2026-05-04T14:18:28.816Z</time></trkpt><trkpt lat="45.211042" lon="9.0874423"><ele>78.8</ele><time>2026-05-04T14:18:30.815Z</time></trkpt><trkpt lat="45.2111077" lon="9.0873287"><ele>78.60000000000001</ele><time>2026-05-04T14:18:32.817Z</time></trkpt><trkpt lat="45.2111755" lon="9.0872086"><ele>78.4</ele><time>2026-05-04T14:18:34.826Z</time></trkpt><trkpt lat="45.2112396" lon="9.0870926"><ele>78.2</ele><time>2026-05-04T14:18:36.807Z</time></trkpt><trkpt lat="45.2113078" lon="9.0869768"><ele>78.0</ele><time>2026-05-04T14:18:38.818Z</time></trkpt><trkpt lat="45.2113709" lon="9.0868574"><ele>78.0</ele><time>2026-05-04T14:18:40.829Z</time></trkpt><trkpt lat="45.2114359" lon="9.0867441"><ele>78.0</ele><time>2026-05-04T14:18:42.839Z</time></trkpt><trkpt lat="45.211505" lon="9.0866366"><ele>78.0</ele><time>2026-05-04T14:18:44.812Z</time></trkpt><trkpt lat="45.2115757" lon="9.08652"><ele>78.0</ele><time>2026-05-04T14:18:46.819Z</time></trkpt><trkpt lat="45.2116428" lon="9.0864005"><ele>78.0</ele><time>2026-05-04T14:18:48.823Z</time></trkpt><trkpt lat="45.2117024" lon="9.0862855"><ele>78.2</ele><time>2026-05-04T14:18:50.816Z</time></trkpt><trkpt lat="45.2117625" lon="9.0861706"><ele>78.4</ele><time>2026-05-04T14:18:52.823Z</time></trkpt><trkpt lat="45.2118305" lon="9.0860679"><ele>78.60000000000001</ele><time>2026-05-04T14:18:54.825Z</time></trkpt><trkpt lat="45.2118956" lon="9.0859572"><ele>78.8</ele><time>2026-05-04T14:18:56.819Z</time></trkpt><trkpt lat="45.2119523" lon="9.0858462"><ele>79.0</ele><time>2026-05-04T14:18:58.811Z</time></trkpt><trkpt lat="45.2120182" lon="9.0857426"><ele>79.0</ele><time>2026-05-04T14:19:00.815Z</time></trkpt><trkpt lat="45.2120855" lon="9.0856312"><ele>79.0</ele><time>2026-05-04T14:19:02.811Z</time></trkpt><trkpt lat="45.2121534" lon="9.0855145"><ele>79.0</ele><time>2026-05-04T14:19:04.813Z</time></trkpt><trkpt lat="45.2122115" lon="9.0854064"><ele>79.0</ele><time>2026-05-04T14:19:06.813Z</time></trkpt><trkpt lat="45.2122709" lon="9.0852915"><ele>79.0</ele><time>2026-05-04T14:19:08.829Z</time></trkpt><trkpt lat="45.2123315" lon="9.0851721"><ele>79.4</ele><time>2026-05-04T14:19:10.822Z</time></trkpt><trkpt lat="45.2123975" lon="9.0850586"><ele>79.80000000000001</ele><time>2026-05-04T14:19:12.82Z</time></trkpt><trkpt lat="45.2124641" lon="9.08495"><ele>80.19999999999999</ele><time>2026-05-04T14:19:14.816Z</time></trkpt><trkpt lat="45.2125306" lon="9.0848387"><ele>80.6</ele><time>2026-05-04T14:19:16.829Z</time></trkpt><trkpt lat="45.2125987" lon="9.0847255"><ele>81.0</ele><time>2026-05-04T14:19:18.823Z</time></trkpt><trkpt lat="45.2126729" lon="9.0846236"><ele>81.0</ele><time>2026-05-04T14:19:20.813Z</time></trkpt><trkpt lat="45.2127408" lon="9.0844983"><ele>81.0</ele><time>2026-05-04T14:19:22.815Z</time></trkpt><trkpt lat="45.2128051" lon="9.0843754"><ele>81.0</ele><time>2026-05-04T14:19:24.819Z</time></trkpt><trkpt lat="45.2128676" lon="9.084256"><ele>81.0</ele><time>2026-05-04T14:19:26.822Z</time></trkpt><trkpt lat="45.2129377" lon="9.0841424"><ele>81.0</ele><time>2026-05-04T14:19:28.815Z</time></trkpt><trkpt lat="45.2129981" lon="9.0840225"><ele>81.19999999999999</ele><time>2026-05-04T14:19:30.812Z</time></trkpt><trkpt lat="45.2130665" lon="9.0839018"><ele>81.39999999999999</ele><time>2026-05-04T14:19:32.81Z</time></trkpt><trkpt lat="45.2131337" lon="9.0837715"><ele>81.6</ele><time>2026-05-04T14:19:34.809Z</time></trkpt><trkpt lat="45.2131935" lon="9.0836478"><ele>81.8</ele><time>2026-05-04T14:19:36.813Z</time></trkpt><trkpt lat="45.2132658" lon="9.0835284"><ele>82.0</ele><time>2026-05-04T14:19:38.823Z</time></trkpt><trkpt lat="45.2133408" lon="9.0834165"><ele>81.8</ele><time>2026-05-04T14:19:40.82Z</time></trkpt><trkpt lat="45.2133994" lon="9.0833158"><ele>81.6</ele><time>2026-05-04T14:19:42.813Z</time></trkpt><trkpt lat="45.2134622" lon="9.0832"><ele>81.39999999999999</ele><time>2026-05-04T14:19:44.816Z</time></trkpt><trkpt lat="45.2135316" lon="9.0830825"><ele>81.19999999999999</ele><time>2026-05-04T14:19:46.814Z</time></trkpt><trkpt lat="45.2135974" lon="9.0829691"><ele>81.0</ele><time>2026-05-04T14:19:48.891Z</time></trkpt><trkpt lat="45.2136638" lon="9.082863"><ele>81.0</ele><time>2026-05-04T14:19:50.825Z</time></trkpt><trkpt lat="45.2137349" lon="9.0827579"><ele>81.0</ele><time>2026-05-04T14:19:52.817Z</time></trkpt><trkpt lat="45.2138048" lon="9.0826467"><ele>81.0</ele><time>2026-05-04T14:19:54.822Z</time></trkpt><trkpt lat="45.2138709" lon="9.0825206"><ele>81.0</ele><time>2026-05-04T14:19:56.816Z</time></trkpt><trkpt lat="45.2139295" lon="9.0823982"><ele>81.0</ele><time>2026-05-04T14:19:58.813Z</time></trkpt><trkpt lat="45.2139959" lon="9.0822794"><ele>80.8</ele><time>2026-05-04T14:20:00.81Z</time></trkpt><trkpt lat="45.2140612" lon="9.0821501"><ele>80.6</ele><time>2026-05-04T14:20:02.809Z</time></trkpt><trkpt lat="45.2141248" lon="9.0820279"><ele>80.4</ele><time>2026-05-04T14:20:04.807Z</time></trkpt><trkpt lat="45.214184" lon="9.0819013"><ele>80.2</ele><time>2026-05-04T14:20:06.822Z</time></trkpt><trkpt lat="45.2142461" lon="9.0817782"><ele>80.0</ele><time>2026-05-04T14:20:08.818Z</time></trkpt><trkpt lat="45.2143071" lon="9.0816555"><ele>80.2</ele><time>2026-05-04T14:20:10.899Z</time></trkpt><trkpt lat="45.2143714" lon="9.0815321"><ele>80.4</ele><time>2026-05-04T14:20:12.817Z</time></trkpt><trkpt lat="45.2144332" lon="9.0814028"><ele>80.6</ele><time>2026-05-04T14:20:14.811Z</time></trkpt><trkpt lat="45.214491" lon="9.0812779"><ele>80.8</ele><time>2026-05-04T14:20:16.818Z</time></trkpt><trkpt lat="45.2145509" lon="9.0811636"><ele>81.0</ele><time>2026-05-04T14:20:18.833Z</time></trkpt><trkpt lat="45.2146135" lon="9.0810349"><ele>81.0</ele><time>2026-05-04T14:20:20.816Z</time></trkpt><trkpt lat="45.2146711" lon="9.0809103"><ele>81.0</ele><time>2026-05-04T14:20:22.815Z</time></trkpt><trkpt lat="45.2147278" lon="9.0807837"><ele>81.0</ele><time>2026-05-04T14:20:24.809Z</time></trkpt><trkpt lat="45.2147752" lon="9.0806789"><ele>81.0</ele><time>2026-05-04T14:20:26.808Z</time></trkpt><trkpt lat="45.2148182" lon="9.0805812"><ele>81.0</ele><time>2026-05-04T14:20:28.9Z</time></trkpt><trkpt lat="45.2148591" lon="9.0804811"><ele>81.0</ele><time>2026-05-04T14:20:30.82Z</time></trkpt><trkpt lat="45.2148918" lon="9.0803891"><ele>81.0</ele><time>2026-05-04T14:20:32.809Z</time></trkpt><trkpt lat="45.2149335" lon="9.0802814"><ele>81.0</ele><time>2026-05-04T14:20:35.9Z</time></trkpt><trkpt lat="45.2148734" lon="9.0801892"><ele>81.0</ele><time>2026-05-04T14:20:38.817Z</time></trkpt><trkpt lat="45.2148074" lon="9.0801474"><ele>81.0</ele><time>2026-05-04T14:20:40.819Z</time></trkpt><trkpt lat="45.2147386" lon="9.0800684"><ele>81.0</ele><time>2026-05-04T14:20:42.817Z</time></trkpt><trkpt lat="45.2146523" lon="9.079996"><ele>81.0</ele><time>2026-05-04T14:20:44.812Z</time></trkpt><trkpt lat="45.2145737" lon="9.0799095"><ele>81.0</ele><time>2026-05-04T14:20:46.81Z</time></trkpt><trkpt lat="45.2144884" lon="9.0798249"><ele>81.0</ele><time>2026-05-04T14:20:48.828Z</time></trkpt><trkpt lat="45.2144104" lon="9.0797375"><ele>81.0</ele><time>2026-05-04T14:20:50.816Z</time></trkpt><trkpt lat="45.2143302" lon="9.0796473"><ele>81.0</ele><time>2026-05-04T14:20:52.814Z</time></trkpt><trkpt lat="45.2142399" lon="9.0795618"><ele>81.0</ele><time>2026-05-04T14:20:54.824Z</time></trkpt><trkpt lat="45.2141462" lon="9.0794671"><ele>81.0</ele><time>2026-05-04T14:20:56.813Z</time></trkpt><trkpt lat="45.2140472" lon="9.0793744"><ele>81.0</ele><time>2026-05-04T14:20:58.817Z</time></trkpt><trkpt lat="45.2139531" lon="9.0792748"><ele>81.0</ele><time>2026-05-04T14:21:00.817Z</time></trkpt><trkpt lat="45.2138539" lon="9.0791731"><ele>79.25</ele><time>2026-05-04T14:21:02.809Z</time></trkpt><trkpt lat="45.2137579" lon="9.0790629"><ele>77.5</ele><time>2026-05-04T14:21:04.813Z</time></trkpt><trkpt lat="45.2136628" lon="9.0789489"><ele>75.75</ele><time>2026-05-04T14:21:06.815Z</time></trkpt><trkpt lat="45.2135651" lon="9.0788554"><ele>74.0</ele><time>2026-05-04T14:21:08.811Z</time></trkpt><trkpt lat="45.2134704" lon="9.0787563"><ele>74.0</ele><time>2026-05-04T14:21:10.817Z</time></trkpt><trkpt lat="45.2133809" lon="9.0786606"><ele>74.0</ele><time>2026-05-04T14:21:12.814Z</time></trkpt><trkpt lat="45.2132921" lon="9.0785699"><ele>74.0</ele><time>2026-05-04T14:21:14.901Z</time></trkpt><trkpt lat="45.2132101" lon="9.0785078"><ele>74.0</ele><time>2026-05-04T14:21:16.827Z</time></trkpt><trkpt lat="45.2131415" lon="9.0784215"><ele>74.0</ele><time>2026-05-04T14:21:18.814Z</time></trkpt><trkpt lat="45.213121" lon="9.0783269"><ele>74.60000000000001</ele><time>2026-05-04T14:21:20.816Z</time></trkpt><trkpt lat="45.2131367" lon="9.0782221"><ele>75.2</ele><time>2026-05-04T14:21:22.816Z</time></trkpt><trkpt lat="45.2131459" lon="9.0780938"><ele>75.80000000000001</ele><time>2026-05-04T14:21:24.816Z</time></trkpt><trkpt lat="45.21315" lon="9.0779562"><ele>76.4</ele><time>2026-05-04T14:21:26.815Z</time></trkpt><trkpt lat="45.2131539" lon="9.0778134"><ele>77.0</ele><time>2026-05-04T14:21:28.815Z</time></trkpt><trkpt lat="45.2131562" lon="9.0776731"><ele>77.16666666666667</ele><time>2026-05-04T14:21:30.816Z</time></trkpt><trkpt lat="45.2131541" lon="9.0775369"><ele>77.33333333333334</ele><time>2026-05-04T14:21:32.813Z</time></trkpt><trkpt lat="45.2131565" lon="9.0774168"><ele>77.5</ele><time>2026-05-04T14:21:34.815Z</time></trkpt><trkpt lat="45.2131568" lon="9.0772942"><ele>77.66666666666667</ele><time>2026-05-04T14:21:36.813Z</time></trkpt><trkpt lat="45.2131605" lon="9.0771746"><ele>77.83333333333333</ele><time>2026-05-04T14:21:38.805Z</time></trkpt><trkpt lat="45.213168" lon="9.0770794"><ele>78.0</ele><time>2026-05-04T14:21:40.818Z</time></trkpt><trkpt lat="45.2131801" lon="9.0769597"><ele>77.5</ele><time>2026-05-04T14:21:43.815Z</time></trkpt><trkpt lat="45.2132001" lon="9.0768638"><ele>77.0</ele><time>2026-05-04T14:21:45.82Z</time></trkpt><trkpt lat="45.2132355" lon="9.0767483"><ele>76.5</ele><time>2026-05-04T14:21:47.826Z</time></trkpt><trkpt lat="45.2132742" lon="9.0766271"><ele>76.0</ele><time>2026-05-04T14:21:49.807Z</time></trkpt><trkpt lat="45.2133158" lon="9.0765012"><ele>75.5</ele><time>2026-05-04T14:21:51.812Z</time></trkpt><trkpt lat="45.2133568" lon="9.0763867"><ele>75.0</ele><time>2026-05-04T14:21:53.913Z</time></trkpt><trkpt lat="45.2133987" lon="9.0762704"><ele>74.4</ele><time>2026-05-04T14:21:55.821Z</time></trkpt><trkpt lat="45.213443" lon="9.0761434"><ele>73.8</ele><time>2026-05-04T14:21:57.815Z</time></trkpt><trkpt lat="45.213488" lon="9.0760088"><ele>73.2</ele><time>2026-05-04T14:21:59.828Z</time></trkpt><trkpt lat="45.2135377" lon="9.0758794"><ele>72.6</ele><time>2026-05-04T14:22:01.823Z</time></trkpt><trkpt lat="45.2135849" lon="9.0757502"><ele>72.0</ele><time>2026-05-04T14:22:03.814Z</time></trkpt><trkpt lat="45.2136442" lon="9.0756219"><ele>71.2</ele><time>2026-05-04T14:22:05.81Z</time></trkpt><trkpt lat="45.2137068" lon="9.0754984"><ele>70.4</ele><time>2026-05-04T14:22:07.823Z</time></trkpt><trkpt lat="45.2137752" lon="9.0753804"><ele>69.6</ele><time>2026-05-04T14:22:09.813Z</time></trkpt><trkpt lat="45.2138442" lon="9.0752686"><ele>68.8</ele><time>2026-05-04T14:22:11.815Z</time></trkpt><trkpt lat="45.2139143" lon="9.0751582"><ele>68.0</ele><time>2026-05-04T14:22:13.814Z</time></trkpt><trkpt lat="45.2139803" lon="9.0750329"><ele>69.4</ele><time>2026-05-04T14:22:15.822Z</time></trkpt><trkpt lat="45.2140355" lon="9.074916"><ele>70.8</ele><time>2026-05-04T14:22:17.816Z</time></trkpt><trkpt lat="45.2141029" lon="9.0747919"><ele>72.2</ele><time>2026-05-04T14:22:19.896Z</time></trkpt><trkpt lat="45.2141743" lon="9.0746716"><ele>73.6</ele><time>2026-05-04T14:22:21.924Z</time></trkpt><trkpt lat="45.2142467" lon="9.0745634"><ele>75.0</ele><time>2026-05-04T14:22:23.812Z</time></trkpt><trkpt lat="45.2143249" lon="9.0744686"><ele>75.0</ele><time>2026-05-04T14:22:25.811Z</time></trkpt><trkpt lat="45.2144081" lon="9.0743834"><ele>75.0</ele><time>2026-05-04T14:22:27.821Z</time></trkpt><trkpt lat="45.2145083" lon="9.074306"><ele>75.0</ele><time>2026-05-04T14:22:29.818Z</time></trkpt><trkpt lat="45.2146082" lon="9.0742529"><ele>75.0</ele><time>2026-05-04T14:22:31.815Z</time></trkpt><trkpt lat="45.2147096" lon="9.0741988"><ele>75.0</ele><time>2026-05-04T14:22:33.811Z</time></trkpt><trkpt lat="45.2148021" lon="9.0741231"><ele>74.6</ele><time>2026-05-04T14:22:35.814Z</time></trkpt><trkpt lat="45.2148832" lon="9.0740275"><ele>74.2</ele><time>2026-05-04T14:22:37.814Z</time></trkpt><trkpt lat="45.2149602" lon="9.0739227"><ele>73.8</ele><time>2026-05-04T14:22:39.809Z</time></trkpt><trkpt lat="45.215034" lon="9.0738115"><ele>73.4</ele><time>2026-05-04T14:22:41.823Z</time></trkpt><trkpt lat="45.2151138" lon="9.0736992"><ele>73.0</ele><time>2026-05-04T14:22:43.821Z</time></trkpt><trkpt lat="45.2151847" lon="9.073591"><ele>73.0</ele><time>2026-05-04T14:22:45.812Z</time></trkpt><trkpt lat="45.215258" lon="9.0734833"><ele>73.0</ele><time>2026-05-04T14:22:47.814Z</time></trkpt><trkpt lat="45.2153314" lon="9.0733783"><ele>73.0</ele><time>2026-05-04T14:22:49.814Z</time></trkpt><trkpt lat="45.2154098" lon="9.0732918"><ele>73.0</ele><time>2026-05-04T14:22:51.819Z</time></trkpt><trkpt lat="45.2154845" lon="9.0731876"><ele>73.0</ele><time>2026-05-04T14:22:53.815Z</time></trkpt><trkpt lat="45.2155554" lon="9.0730724"><ele>73.25</ele><time>2026-05-04T14:22:55.823Z</time></trkpt><trkpt lat="45.2156392" lon="9.0729624"><ele>73.5</ele><time>2026-05-04T14:22:57.816Z</time></trkpt><trkpt lat="45.2157209" lon="9.0728516"><ele>73.75</ele><time>2026-05-04T14:22:59.822Z</time></trkpt><trkpt lat="45.2158029" lon="9.0727447"><ele>74.0</ele><time>2026-05-04T14:23:01.819Z</time></trkpt><trkpt lat="45.2158854" lon="9.0726273"><ele>74.0</ele><time>2026-05-04T14:23:03.816Z</time></trkpt><trkpt lat="45.2159615" lon="9.0725122"><ele>74.0</ele><time>2026-05-04T14:23:05.819Z</time></trkpt><trkpt lat="45.2160379" lon="9.0724098"><ele>74.0</ele><time>2026-05-04T14:23:07.822Z</time></trkpt><trkpt lat="45.2161149" lon="9.0723054"><ele>74.0</ele><time>2026-05-04T14:23:09.815Z</time></trkpt><trkpt lat="45.2161959" lon="9.0721935"><ele>74.0</ele><time>2026-05-04T14:23:11.816Z</time></trkpt><trkpt lat="45.2162738" lon="9.0720849"><ele>73.8</ele><time>2026-05-04T14:23:13.809Z</time></trkpt><trkpt lat="45.2163407" lon="9.0719577"><ele>73.60000000000001</ele><time>2026-05-04T14:23:15.812Z</time></trkpt><trkpt lat="45.2164084" lon="9.0718379"><ele>73.4</ele><time>2026-05-04T14:23:17.814Z</time></trkpt><trkpt lat="45.2164808" lon="9.0717276"><ele>73.2</ele><time>2026-05-04T14:23:19.805Z</time></trkpt><trkpt lat="45.2165556" lon="9.0716201"><ele>73.0</ele><time>2026-05-04T14:23:21.805Z</time></trkpt><trkpt lat="45.2166289" lon="9.0715139"><ele>73.0</ele><time>2026-05-04T14:23:23.814Z</time></trkpt><trkpt lat="45.2167157" lon="9.0714068"><ele>73.0</ele><time>2026-05-04T14:23:25.816Z</time></trkpt><trkpt lat="45.21681" lon="9.0713404"><ele>73.0</ele><time>2026-05-04T14:23:27.814Z</time></trkpt><trkpt lat="45.2169098" lon="9.0712808"><ele>73.0</ele><time>2026-05-04T14:23:29.82Z</time></trkpt><trkpt lat="45.2170072" lon="9.0712319"><ele>73.0</ele><time>2026-05-04T14:23:31.815Z</time></trkpt><trkpt lat="45.2171014" lon="9.0711792"><ele>73.0</ele><time>2026-05-04T14:23:33.816Z</time></trkpt><trkpt lat="45.2172019" lon="9.0711272"><ele>73.0</ele><time>2026-05-04T14:23:35.814Z</time></trkpt><trkpt lat="45.2173008" lon="9.0710704"><ele>73.0</ele><time>2026-05-04T14:23:37.816Z</time></trkpt><trkpt lat="45.2174019" lon="9.0710133"><ele>73.0</ele><time>2026-05-04T14:23:39.821Z</time></trkpt><trkpt lat="45.2174961" lon="9.0709622"><ele>73.0</ele><time>2026-05-04T14:23:41.824Z</time></trkpt><trkpt lat="45.2175858" lon="9.0709186"><ele>73.4</ele><time>2026-05-04T14:23:43.81Z</time></trkpt><trkpt lat="45.2176745" lon="9.0708485"><ele>73.8</ele><time>2026-05-04T14:23:45.813Z</time></trkpt><trkpt lat="45.2177351" lon="9.0707324"><ele>74.2</ele><time>2026-05-04T14:23:47.806Z</time></trkpt><trkpt lat="45.2177956" lon="9.0705974"><ele>74.6</ele><time>2026-05-04T14:23:49.816Z</time></trkpt><trkpt lat="45.2178791" lon="9.0704952"><ele>75.0</ele><time>2026-05-04T14:23:51.814Z</time></trkpt><trkpt lat="45.2179501" lon="9.0703746"><ele>75.0</ele><time>2026-05-04T14:23:53.813Z</time></trkpt><trkpt lat="45.217992" lon="9.0702295"><ele>75.0</ele><time>2026-05-04T14:23:55.821Z</time></trkpt><trkpt lat="45.2179955" lon="9.0700961"><ele>75.0</ele><time>2026-05-04T14:23:57.816Z</time></trkpt><trkpt lat="45.2179885" lon="9.0699461"><ele>75.0</ele><time>2026-05-04T14:23:59.808Z</time></trkpt><trkpt lat="45.2179672" lon="9.0697869"><ele>75.0</ele><time>2026-05-04T14:24:01.806Z</time></trkpt><trkpt lat="45.2179308" lon="9.0696284"><ele>74.75</ele><time>2026-05-04T14:24:03.884Z</time></trkpt><trkpt lat="45.2178874" lon="9.0694807"><ele>74.5</ele><time>2026-05-04T14:24:05.816Z</time></trkpt><trkpt lat="45.217843" lon="9.0693175"><ele>74.25</ele><time>2026-05-04T14:24:07.821Z</time></trkpt><trkpt lat="45.2177956" lon="9.0691715"><ele>74.0</ele><time>2026-05-04T14:24:09.826Z</time></trkpt><trkpt lat="45.2177393" lon="9.0690374"><ele>73.8</ele><time>2026-05-04T14:24:11.821Z</time></trkpt><trkpt lat="45.2176752" lon="9.0689076"><ele>73.60000000000001</ele><time>2026-05-04T14:24:13.812Z</time></trkpt><trkpt lat="45.2176203" lon="9.0687659"><ele>73.4</ele><time>2026-05-04T14:24:15.812Z</time></trkpt><trkpt lat="45.2175644" lon="9.0686225"><ele>73.2</ele><time>2026-05-04T14:24:17.816Z</time></trkpt><trkpt lat="45.2175239" lon="9.0684871"><ele>73.0</ele><time>2026-05-04T14:24:19.82Z</time></trkpt><trkpt lat="45.2174868" lon="9.0683415"><ele>73.2</ele><time>2026-05-04T14:24:21.814Z</time></trkpt><trkpt lat="45.2174604" lon="9.0681933"><ele>73.4</ele><time>2026-05-04T14:24:23.823Z</time></trkpt><trkpt lat="45.217438" lon="9.0680486"><ele>73.60000000000001</ele><time>2026-05-04T14:24:25.82Z</time></trkpt><trkpt lat="45.2174187" lon="9.0679038"><ele>73.8</ele><time>2026-05-04T14:24:27.816Z</time></trkpt><trkpt lat="45.217398" lon="9.0677563"><ele>74.0</ele><time>2026-05-04T14:24:29.82Z</time></trkpt><trkpt lat="45.2173739" lon="9.0676041"><ele>74.0</ele><time>2026-05-04T14:24:31.813Z</time></trkpt><trkpt lat="45.2173562" lon="9.0674539"><ele>74.0</ele><time>2026-05-04T14:24:33.816Z</time></trkpt><trkpt lat="45.2173331" lon="9.0673035"><ele>74.0</ele><time>2026-05-04T14:24:35.815Z</time></trkpt><trkpt lat="45.2173102" lon="9.067155"><ele>74.0</ele><time>2026-05-04T14:24:37.821Z</time></trkpt><trkpt lat="45.217278" lon="9.067026"><ele>74.0</ele><time>2026-05-04T14:24:39.907Z</time></trkpt><trkpt lat="45.2172577" lon="9.0668957"><ele>74.4</ele><time>2026-05-04T14:24:41.827Z</time></trkpt><trkpt lat="45.217322" lon="9.0668138"><ele>74.80000000000001</ele><time>2026-05-04T14:24:43.821Z</time></trkpt><trkpt lat="45.2174055" lon="9.0667567"><ele>75.19999999999999</ele><time>2026-05-04T14:24:45.822Z</time></trkpt><trkpt lat="45.2174966" lon="9.0666818"><ele>75.6</ele><time>2026-05-04T14:24:47.813Z</time></trkpt><trkpt lat="45.2175874" lon="9.0666058"><ele>76.0</ele><time>2026-05-04T14:24:49.824Z</time></trkpt><trkpt lat="45.2176754" lon="9.0665347"><ele>76.0</ele><time>2026-05-04T14:24:51.818Z</time></trkpt><trkpt lat="45.2177672" lon="9.0664585"><ele>76.0</ele><time>2026-05-04T14:24:53.82Z</time></trkpt><trkpt lat="45.217856" lon="9.0663796"><ele>76.0</ele><time>2026-05-04T14:24:55.813Z</time></trkpt><trkpt lat="45.2179484" lon="9.0662994"><ele>76.0</ele><time>2026-05-04T14:24:57.819Z</time></trkpt><trkpt lat="45.2180377" lon="9.0662147"><ele>76.0</ele><time>2026-05-04T14:24:59.823Z</time></trkpt><trkpt lat="45.2181306" lon="9.0661405"><ele>76.0</ele><time>2026-05-04T14:25:01.812Z</time></trkpt><trkpt lat="45.2182296" lon="9.0660666"><ele>76.0</ele><time>2026-05-04T14:25:03.837Z</time></trkpt><trkpt lat="45.2183218" lon="9.065982"><ele>76.0</ele><time>2026-05-04T14:25:05.819Z</time></trkpt><trkpt lat="45.2184189" lon="9.0659013"><ele>76.0</ele><time>2026-05-04T14:25:07.814Z</time></trkpt><trkpt lat="45.2185137" lon="9.0658273"><ele>76.0</ele><time>2026-05-04T14:25:09.817Z</time></trkpt><trkpt lat="45.218614" lon="9.0657473"><ele>76.0</ele><time>2026-05-04T14:25:11.823Z</time></trkpt><trkpt lat="45.21871" lon="9.0656658"><ele>76.0</ele><time>2026-05-04T14:25:13.817Z</time></trkpt><trkpt lat="45.2188073" lon="9.0655934"><ele>76.0</ele><time>2026-05-04T14:25:15.806Z</time></trkpt><trkpt lat="45.2188977" lon="9.0655084"><ele>76.0</ele><time>2026-05-04T14:25:17.824Z</time></trkpt><trkpt lat="45.2189878" lon="9.0654242"><ele>76.0</ele><time>2026-05-04T14:25:19.817Z</time></trkpt><trkpt lat="45.2190817" lon="9.0653433"><ele>76.0</ele><time>2026-05-04T14:25:21.822Z</time></trkpt><trkpt lat="45.2191775" lon="9.0652643"><ele>76.0</ele><time>2026-05-04T14:25:23.821Z</time></trkpt><trkpt lat="45.2192753" lon="9.0651832"><ele>76.0</ele><time>2026-05-04T14:25:25.813Z</time></trkpt><trkpt lat="45.2193676" lon="9.0651075"><ele>76.0</ele><time>2026-05-04T14:25:27.816Z</time></trkpt><trkpt lat="45.2194615" lon="9.0650314"><ele>76.0</ele><time>2026-05-04T14:25:29.806Z</time></trkpt><trkpt lat="45.2195539" lon="9.0649553"><ele>76.0</ele><time>2026-05-04T14:25:31.818Z</time></trkpt><trkpt lat="45.21965" lon="9.0648821"><ele>76.0</ele><time>2026-05-04T14:25:33.899Z</time></trkpt><trkpt lat="45.2197461" lon="9.064801"><ele>76.0</ele><time>2026-05-04T14:25:35.82Z</time></trkpt><trkpt lat="45.2198364" lon="9.0647267"><ele>76.0</ele><time>2026-05-04T14:25:37.809Z</time></trkpt><trkpt lat="45.2199294" lon="9.0646472"><ele>76.0</ele><time>2026-05-04T14:25:39.81Z</time></trkpt><trkpt lat="45.2200216" lon="9.0645636"><ele>76.0</ele><time>2026-05-04T14:25:41.813Z</time></trkpt><trkpt lat="45.2201165" lon="9.0644824"><ele>76.0</ele><time>2026-05-04T14:25:43.814Z</time></trkpt><trkpt lat="45.2202053" lon="9.0644043"><ele>76.0</ele><time>2026-05-04T14:25:45.821Z</time></trkpt><trkpt lat="45.2202972" lon="9.0643209"><ele>76.0</ele><time>2026-05-04T14:25:47.901Z</time></trkpt><trkpt lat="45.2203909" lon="9.0642463"><ele>76.0</ele><time>2026-05-04T14:25:49.824Z</time></trkpt><trkpt lat="45.2204807" lon="9.0641793"><ele>76.0</ele><time>2026-05-04T14:25:51.815Z</time></trkpt><trkpt lat="45.2205699" lon="9.0640994"><ele>76.0</ele><time>2026-05-04T14:25:53.816Z</time></trkpt><trkpt lat="45.2206588" lon="9.0640169"><ele>76.0</ele><time>2026-05-04T14:25:55.807Z</time></trkpt><trkpt lat="45.2207395" lon="9.0639208"><ele>76.0</ele><time>2026-05-04T14:25:57.814Z</time></trkpt><trkpt lat="45.2208227" lon="9.0638266"><ele>76.0</ele><time>2026-05-04T14:25:59.819Z</time></trkpt><trkpt lat="45.2209049" lon="9.0637322"><ele>76.0</ele><time>2026-05-04T14:26:01.817Z</time></trkpt><trkpt lat="45.2209888" lon="9.063649"><ele>76.0</ele><time>2026-05-04T14:26:03.812Z</time></trkpt><trkpt lat="45.2210729" lon="9.0635578"><ele>76.0</ele><time>2026-05-04T14:26:05.817Z</time></trkpt><trkpt lat="45.2211512" lon="9.0634662"><ele>76.0</ele><time>2026-05-04T14:26:07.818Z</time></trkpt><trkpt lat="45.2212323" lon="9.0633677"><ele>76.0</ele><time>2026-05-04T14:26:09.893Z</time></trkpt><trkpt lat="45.2212974" lon="9.063268"><ele>76.33333333333333</ele><time>2026-05-04T14:26:11.817Z</time></trkpt><trkpt lat="45.2212954" lon="9.0631569"><ele>76.66666666666666</ele><time>2026-05-04T14:26:13.813Z</time></trkpt><trkpt lat="45.2212511" lon="9.0630582"><ele>77.0</ele><time>2026-05-04T14:26:15.816Z</time></trkpt><trkpt lat="45.221203" lon="9.0629581"><ele>77.33333333333333</ele><time>2026-05-04T14:26:17.824Z</time></trkpt><trkpt lat="45.2211515" lon="9.062842"><ele>77.66666666666667</ele><time>2026-05-04T14:26:19.807Z</time></trkpt><trkpt lat="45.2210951" lon="9.0627179"><ele>78.0</ele><time>2026-05-04T14:26:21.813Z</time></trkpt><trkpt lat="45.2210366" lon="9.062597"><ele>78.0</ele><time>2026-05-04T14:26:23.816Z</time></trkpt><trkpt lat="45.2209777" lon="9.0624709"><ele>78.0</ele><time>2026-05-04T14:26:25.815Z</time></trkpt><trkpt lat="45.2209105" lon="9.0623432"><ele>78.0</ele><time>2026-05-04T14:26:27.828Z</time></trkpt><trkpt lat="45.2208424" lon="9.0622154"><ele>78.0</ele><time>2026-05-04T14:26:29.817Z</time></trkpt><trkpt lat="45.2207777" lon="9.062088"><ele>78.0</ele><time>2026-05-04T14:26:31.814Z</time></trkpt><trkpt lat="45.2207188" lon="9.0619577"><ele>77.8</ele><time>2026-05-04T14:26:33.816Z</time></trkpt><trkpt lat="45.2206577" lon="9.0618422"><ele>77.6</ele><time>2026-05-04T14:26:35.813Z</time></trkpt><trkpt lat="45.2205985" lon="9.0617155"><ele>77.4</ele><time>2026-05-04T14:26:37.812Z</time></trkpt><trkpt lat="45.2205357" lon="9.0615868"><ele>77.2</ele><time>2026-05-04T14:26:39.815Z</time></trkpt><trkpt lat="45.2204731" lon="9.0614692"><ele>77.0</ele><time>2026-05-04T14:26:41.823Z</time></trkpt><trkpt lat="45.2204374" lon="9.0613536"><ele>77.0</ele><time>2026-05-04T14:26:43.808Z</time></trkpt><trkpt lat="45.2204678" lon="9.0612487"><ele>77.0</ele><time>2026-05-04T14:26:45.809Z</time></trkpt><trkpt lat="45.2205419" lon="9.0611454"><ele>77.0</ele><time>2026-05-04T14:26:47.826Z</time></trkpt><trkpt lat="45.2206225" lon="9.0610571"><ele>77.0</ele><time>2026-05-04T14:26:49.815Z</time></trkpt><trkpt lat="45.2206975" lon="9.0609818"><ele>77.0</ele><time>2026-05-04T14:26:51.813Z</time></trkpt><trkpt lat="45.2207689" lon="9.0608967"><ele>77.0</ele><time>2026-05-04T14:26:53.817Z</time></trkpt><trkpt lat="45.2208514" lon="9.0608112"><ele>77.0</ele><time>2026-05-04T14:26:55.817Z</time></trkpt><trkpt lat="45.2209357" lon="9.0607173"><ele>77.0</ele><time>2026-05-04T14:26:57.817Z</time></trkpt><trkpt lat="45.2210163" lon="9.060631"><ele>77.0</ele><time>2026-05-04T14:26:59.813Z</time></trkpt><trkpt lat="45.221098" lon="9.0605354"><ele>77.0</ele><time>2026-05-04T14:27:01.813Z</time></trkpt><trkpt lat="45.2211798" lon="9.0604438"><ele>76.8</ele><time>2026-05-04T14:27:03.816Z</time></trkpt><trkpt lat="45.2212686" lon="9.0603462"><ele>76.6</ele><time>2026-05-04T14:27:05.814Z</time></trkpt><trkpt lat="45.2213529" lon="9.0602538"><ele>76.39999999999999</ele><time>2026-05-04T14:27:07.808Z</time></trkpt><trkpt lat="45.2214351" lon="9.0601643"><ele>76.2</ele><time>2026-05-04T14:27:09.819Z</time></trkpt><trkpt lat="45.2215208" lon="9.0600702"><ele>76.0</ele><time>2026-05-04T14:27:11.814Z</time></trkpt><trkpt lat="45.2216002" lon="9.0599796"><ele>75.2</ele><time>2026-05-04T14:27:13.815Z</time></trkpt><trkpt lat="45.2216807" lon="9.0598821"><ele>74.39999999999999</ele><time>2026-05-04T14:27:15.824Z</time></trkpt><trkpt lat="45.2217624" lon="9.0597907"><ele>73.6</ele><time>2026-05-04T14:27:17.816Z</time></trkpt><trkpt lat="45.2218449" lon="9.0597048"><ele>72.8</ele><time>2026-05-04T14:27:19.819Z</time></trkpt><trkpt lat="45.2219265" lon="9.0596219"><ele>72.0</ele><time>2026-05-04T14:27:21.812Z</time></trkpt><trkpt lat="45.2220146" lon="9.0595271"><ele>72.0</ele><time>2026-05-04T14:27:23.818Z</time></trkpt><trkpt lat="45.2221015" lon="9.0594334"><ele>72.0</ele><time>2026-05-04T14:27:25.817Z</time></trkpt><trkpt lat="45.2221849" lon="9.0593346"><ele>72.0</ele><time>2026-05-04T14:27:27.899Z</time></trkpt><trkpt lat="45.2222643" lon="9.0592293"><ele>72.0</ele><time>2026-05-04T14:27:29.82Z</time></trkpt><trkpt lat="45.2223409" lon="9.0591247"><ele>72.0</ele><time>2026-05-04T14:27:31.81Z</time></trkpt><trkpt lat="45.2224154" lon="9.0590058"><ele>71.8</ele><time>2026-05-04T14:27:33.816Z</time></trkpt><trkpt lat="45.2225036" lon="9.0589111"><ele>71.6</ele><time>2026-05-04T14:27:35.832Z</time></trkpt><trkpt lat="45.2225867" lon="9.0588648"><ele>71.39999999999999</ele><time>2026-05-04T14:27:37.812Z</time></trkpt><trkpt lat="45.2226577" lon="9.0587884"><ele>71.2</ele><time>2026-05-04T14:27:39.815Z</time></trkpt><trkpt lat="45.2227158" lon="9.0586777"><ele>71.0</ele><time>2026-05-04T14:27:41.81Z</time></trkpt><trkpt lat="45.222768" lon="9.0585555"><ele>71.0</ele><time>2026-05-04T14:27:43.817Z</time></trkpt><trkpt lat="45.2228178" lon="9.0584368"><ele>71.0</ele><time>2026-05-04T14:27:45.816Z</time></trkpt><trkpt lat="45.2228626" lon="9.0583237"><ele>71.0</ele><time>2026-05-04T14:27:47.814Z</time></trkpt><trkpt lat="45.2229057" lon="9.0582227"><ele>71.0</ele><time>2026-05-04T14:27:49.818Z</time></trkpt><trkpt lat="45.2229434" lon="9.0581301"><ele>71.0</ele><time>2026-05-04T14:27:51.821Z</time></trkpt><trkpt lat="45.2230062" lon="9.0580579"><ele>71.0</ele><time>2026-05-04T14:27:53.819Z</time></trkpt><trkpt lat="45.223099" lon="9.0580562"><ele>70.6</ele><time>2026-05-04T14:27:55.811Z</time></trkpt><trkpt lat="45.2231942" lon="9.0580948"><ele>70.19999999999999</ele><time>2026-05-04T14:27:57.815Z</time></trkpt><trkpt lat="45.2232852" lon="9.0581379"><ele>69.80000000000001</ele><time>2026-05-04T14:27:59.808Z</time></trkpt><trkpt lat="45.2233802" lon="9.0581639"><ele>69.4</ele><time>2026-05-04T14:28:01.807Z</time></trkpt><trkpt lat="45.2234801" lon="9.0581938"><ele>69.0</ele><time>2026-05-04T14:28:03.816Z</time></trkpt><trkpt lat="45.2235777" lon="9.0582273"><ele>69.0</ele><time>2026-05-04T14:28:05.818Z</time></trkpt><trkpt lat="45.2236681" lon="9.0582467"><ele>69.0</ele><time>2026-05-04T14:28:07.811Z</time></trkpt><trkpt lat="45.2237717" lon="9.0582602"><ele>69.0</ele><time>2026-05-04T14:28:09.817Z</time></trkpt><trkpt lat="45.2238878" lon="9.0582949"><ele>69.0</ele><time>2026-05-04T14:28:11.819Z</time></trkpt><trkpt lat="45.2239519" lon="9.0583142"><ele>69.0</ele><time>2026-05-04T14:28:12.811Z</time></trkpt><trkpt lat="45.224023" lon="9.0583278"><ele>69.71428571428572</ele><time>2026-05-04T14:28:13.817Z</time></trkpt><trkpt lat="45.2240946" lon="9.0583327"><ele>70.42857142857143</ele><time>2026-05-04T14:28:14.813Z</time></trkpt><trkpt lat="45.2241722" lon="9.0583356"><ele>71.14285714285714</ele><time>2026-05-04T14:28:15.809Z</time></trkpt><trkpt lat="45.2242472" lon="9.0583414"><ele>71.85714285714286</ele><time>2026-05-04T14:28:16.813Z</time></trkpt><trkpt lat="45.2243196" lon="9.0583414"><ele>72.57142857142857</ele><time>2026-05-04T14:28:17.81Z</time></trkpt><trkpt lat="45.2243916" lon="9.0583463"><ele>73.28571428571429</ele><time>2026-05-04T14:28:18.808Z</time></trkpt><trkpt lat="45.2244651" lon="9.0583435"><ele>74.0</ele><time>2026-05-04T14:28:19.895Z</time></trkpt><trkpt lat="45.2245352" lon="9.0583296"><ele>74.0</ele><time>2026-05-04T14:28:20.816Z</time></trkpt><trkpt lat="45.2246036" lon="9.0583126"><ele>74.0</ele><time>2026-05-04T14:28:21.818Z</time></trkpt><trkpt lat="45.2247213" lon="9.0583389"><ele>74.0</ele><time>2026-05-04T14:28:23.82Z</time></trkpt><trkpt lat="45.2247905" lon="9.0584254"><ele>74.0</ele><time>2026-05-04T14:28:25.816Z</time></trkpt><trkpt lat="45.2247827" lon="9.0585621"><ele>74.0</ele><time>2026-05-04T14:28:27.817Z</time></trkpt><trkpt lat="45.2247746" lon="9.0586781"><ele>74.0</ele><time>2026-05-04T14:28:29.822Z</time></trkpt><trkpt lat="45.2247793" lon="9.0587837"><ele>74.0</ele><time>2026-05-04T14:28:31.822Z</time></trkpt><trkpt lat="45.2248637" lon="9.058755"><ele>74.0</ele><time>2026-05-04T14:28:36.83Z</time></trkpt><trkpt lat="45.2249243" lon="9.0586854"><ele>74.0</ele><time>2026-05-04T14:28:38.807Z</time></trkpt><trkpt lat="45.2249943" lon="9.0586074"><ele>74.0</ele><time>2026-05-04T14:28:40.818Z</time></trkpt><trkpt lat="45.2250677" lon="9.0585379"><ele>74.0</ele><time>2026-05-04T14:28:42.819Z</time></trkpt><trkpt lat="45.2251473" lon="9.058466"><ele>74.16666666666667</ele><time>2026-05-04T14:28:44.812Z</time></trkpt><trkpt lat="45.2252279" lon="9.0583635"><ele>74.33333333333334</ele><time>2026-05-04T14:28:46.813Z</time></trkpt><trkpt lat="45.2252935" lon="9.0582473"><ele>74.5</ele><time>2026-05-04T14:28:48.805Z</time></trkpt><trkpt lat="45.2253357" lon="9.058152"><ele>74.66666666666667</ele><time>2026-05-04T14:28:50.814Z</time></trkpt><trkpt lat="45.2253685" lon="9.0580684"><ele>74.83333333333333</ele><time>2026-05-04T14:28:52.82Z</time></trkpt><trkpt lat="45.2254032" lon="9.0579722"><ele>75.0</ele><time>2026-05-04T14:28:54.814Z</time></trkpt><trkpt lat="45.2254418" lon="9.0578655"><ele>75.0</ele><time>2026-05-04T14:28:56.828Z</time></trkpt><trkpt lat="45.2254701" lon="9.0577685"><ele>75.0</ele><time>2026-05-04T14:28:58.816Z</time></trkpt><trkpt lat="45.2255055" lon="9.0576484"><ele>75.0</ele><time>2026-05-04T14:29:01.816Z</time></trkpt><trkpt lat="45.2255427" lon="9.0575615"><ele>75.0</ele><time>2026-05-04T14:29:03.809Z</time></trkpt><trkpt lat="45.2255693" lon="9.0574665"><ele>75.0</ele><time>2026-05-04T14:29:05.812Z</time></trkpt><trkpt lat="45.2256128" lon="9.0573755"><ele>75.0</ele><time>2026-05-04T14:29:07.809Z</time></trkpt><trkpt lat="45.2256539" lon="9.0572763"><ele>75.33333333333333</ele><time>2026-05-04T14:29:09.814Z</time></trkpt><trkpt lat="45.2257005" lon="9.0571632"><ele>75.66666666666667</ele><time>2026-05-04T14:29:11.825Z</time></trkpt><trkpt lat="45.2257434" lon="9.0570877"><ele>76.0</ele><time>2026-05-04T14:29:13.806Z</time></trkpt><trkpt lat="45.2257933" lon="9.0569976"><ele>76.33333333333334</ele><time>2026-05-04T14:29:15.81Z</time></trkpt><trkpt lat="45.2258244" lon="9.0568988"><ele>76.66666666666667</ele><time>2026-05-04T14:29:17.816Z</time></trkpt><trkpt lat="45.2258891" lon="9.0568065"><ele>77.0</ele><time>2026-05-04T14:29:19.813Z</time></trkpt><trkpt lat="45.225964" lon="9.0567382"><ele>77.0</ele><time>2026-05-04T14:29:21.818Z</time></trkpt><trkpt lat="45.2260427" lon="9.0566842"><ele>77.0</ele><time>2026-05-04T14:29:23.817Z</time></trkpt><trkpt lat="45.2261238" lon="9.0566371"><ele>77.0</ele><time>2026-05-04T14:29:25.811Z</time></trkpt><trkpt lat="45.2261915" lon="9.0565779"><ele>77.0</ele><time>2026-05-04T14:29:27.809Z</time></trkpt><trkpt lat="45.2262414" lon="9.0564784"><ele>77.0</ele><time>2026-05-04T14:29:29.809Z</time></trkpt><trkpt lat="45.2262761" lon="9.0563713"><ele>77.0</ele><time>2026-05-04T14:29:31.822Z</time></trkpt><trkpt lat="45.2263211" lon="9.0562596"><ele>77.0</ele><time>2026-05-04T14:29:33.813Z</time></trkpt><trkpt lat="45.2263719" lon="9.0561534"><ele>77.0</ele><time>2026-05-04T14:29:35.812Z</time></trkpt><trkpt lat="45.2264171" lon="9.0560374"><ele>77.0</ele><time>2026-05-04T14:29:37.815Z</time></trkpt><trkpt lat="45.2264631" lon="9.0559306"><ele>77.0</ele><time>2026-05-04T14:29:39.817Z</time></trkpt><trkpt lat="45.2265093" lon="9.0558131"><ele>77.0</ele><time>2026-05-04T14:29:41.811Z</time></trkpt><trkpt lat="45.2265508" lon="9.0556863"><ele>76.8</ele><time>2026-05-04T14:29:43.811Z</time></trkpt><trkpt lat="45.2265953" lon="9.0555717"><ele>76.6</ele><time>2026-05-04T14:29:45.827Z</time></trkpt><trkpt lat="45.226636" lon="9.055447"><ele>76.39999999999999</ele><time>2026-05-04T14:29:47.815Z</time></trkpt><trkpt lat="45.2266803" lon="9.0553179"><ele>76.2</ele><time>2026-05-04T14:29:49.81Z</time></trkpt><trkpt lat="45.2267192" lon="9.055184"><ele>76.0</ele><time>2026-05-04T14:29:51.811Z</time></trkpt><trkpt lat="45.2267587" lon="9.0550443"><ele>75.8</ele><time>2026-05-04T14:29:53.819Z</time></trkpt><trkpt lat="45.2268124" lon="9.0549142"><ele>75.6</ele><time>2026-05-04T14:29:55.824Z</time></trkpt><trkpt lat="45.2268546" lon="9.05479"><ele>75.4</ele><time>2026-05-04T14:29:57.82Z</time></trkpt><trkpt lat="45.2269096" lon="9.0546495"><ele>75.2</ele><time>2026-05-04T14:29:59.811Z</time></trkpt><trkpt lat="45.2269456" lon="9.0545063"><ele>75.0</ele><time>2026-05-04T14:30:01.813Z</time></trkpt><trkpt lat="45.2269858" lon="9.0543774"><ele>75.0</ele><time>2026-05-04T14:30:03.817Z</time></trkpt><trkpt lat="45.2270286" lon="9.0542493"><ele>75.0</ele><time>2026-05-04T14:30:05.9Z</time></trkpt><trkpt lat="45.2270743" lon="9.0541144"><ele>75.0</ele><time>2026-05-04T14:30:07.813Z</time></trkpt><trkpt lat="45.2271225" lon="9.0539733"><ele>75.0</ele><time>2026-05-04T14:30:09.818Z</time></trkpt><trkpt lat="45.22718" lon="9.0538323"><ele>75.0</ele><time>2026-05-04T14:30:11.815Z</time></trkpt><trkpt lat="45.2272222" lon="9.0536953"><ele>75.4</ele><time>2026-05-04T14:30:13.818Z</time></trkpt><trkpt lat="45.2272828" lon="9.0535761"><ele>75.8</ele><time>2026-05-04T14:30:15.809Z</time></trkpt><trkpt lat="45.2273544" lon="9.0534875"><ele>76.2</ele><time>2026-05-04T14:30:17.823Z</time></trkpt><trkpt lat="45.2274621" lon="9.0534757"><ele>76.6</ele><time>2026-05-04T14:30:19.812Z</time></trkpt><trkpt lat="45.2275648" lon="9.0535246"><ele>77.0</ele><time>2026-05-04T14:30:21.814Z</time></trkpt><trkpt lat="45.2276789" lon="9.0535888"><ele>77.0</ele><time>2026-05-04T14:30:23.81Z</time></trkpt><trkpt lat="45.2277837" lon="9.0536472"><ele>77.0</ele><time>2026-05-04T14:30:25.81Z</time></trkpt><trkpt lat="45.2278805" lon="9.0537117"><ele>77.0</ele><time>2026-05-04T14:30:27.812Z</time></trkpt><trkpt lat="45.2279775" lon="9.0537705"><ele>77.0</ele><time>2026-05-04T14:30:29.811Z</time></trkpt><trkpt lat="45.228071" lon="9.0538228"><ele>77.0</ele><time>2026-05-04T14:30:31.817Z</time></trkpt><trkpt lat="45.2281743" lon="9.0538772"><ele>77.33333333333334</ele><time>2026-05-04T14:30:33.824Z</time></trkpt><trkpt lat="45.2282659" lon="9.0539342"><ele>77.66666666666667</ele><time>2026-05-04T14:30:35.807Z</time></trkpt><trkpt lat="45.2283496" lon="9.053949"><ele>78.0</ele><time>2026-05-04T14:30:37.807Z</time></trkpt><trkpt lat="45.2284175" lon="9.053907"><ele>78.33333333333333</ele><time>2026-05-04T14:30:39.815Z</time></trkpt><trkpt lat="45.2284789" lon="9.0538043"><ele>78.66666666666666</ele><time>2026-05-04T14:30:41.809Z</time></trkpt><trkpt lat="45.228519" lon="9.0536831"><ele>79.0</ele><time>2026-05-04T14:30:43.816Z</time></trkpt><trkpt lat="45.2285071" lon="9.0535808"><ele>79.0</ele><time>2026-05-04T14:30:46.819Z</time></trkpt><trkpt lat="45.228407" lon="9.0535742"><ele>79.0</ele><time>2026-05-04T14:30:49.806Z</time></trkpt><trkpt lat="45.2283016" lon="9.0536083"><ele>79.0</ele><time>2026-05-04T14:30:51.81Z</time></trkpt><trkpt lat="45.2282022" lon="9.0536113"><ele>79.0</ele><time>2026-05-04T14:30:53.815Z</time></trkpt><trkpt lat="45.2280751" lon="9.0535597"><ele>79.0</ele><time>2026-05-04T14:30:55.826Z</time></trkpt><trkpt lat="45.2280181" lon="9.0535104"><ele>78.66666666666666</ele><time>2026-05-04T14:30:56.812Z</time></trkpt><trkpt lat="45.227962" lon="9.0534504"><ele>78.33333333333333</ele><time>2026-05-04T14:30:57.803Z</time></trkpt><trkpt lat="45.2279095" lon="9.0533809"><ele>78.0</ele><time>2026-05-04T14:30:58.901Z</time></trkpt><trkpt lat="45.2278085" lon="9.0532732"><ele>77.66666666666667</ele><time>2026-05-04T14:31:00.812Z</time></trkpt><trkpt lat="45.227753" lon="9.0532248"><ele>77.33333333333334</ele><time>2026-05-04T14:31:01.809Z</time></trkpt><trkpt lat="45.2276944" lon="9.0531821"><ele>77.0</ele><time>2026-05-04T14:31:02.814Z</time></trkpt><trkpt lat="45.2275676" lon="9.0531318"><ele>76.14285714285714</ele><time>2026-05-04T14:31:04.815Z</time></trkpt><trkpt lat="45.2275034" lon="9.0531065"><ele>75.28571428571428</ele><time>2026-05-04T14:31:05.815Z</time></trkpt><trkpt lat="45.2274315" lon="9.0530789"><ele>74.42857142857143</ele><time>2026-05-04T14:31:06.807Z</time></trkpt><trkpt lat="45.2273593" lon="9.0530468"><ele>73.57142857142857</ele><time>2026-05-04T14:31:07.819Z</time></trkpt><trkpt lat="45.2272915" lon="9.0530069"><ele>72.71428571428571</ele><time>2026-05-04T14:31:08.806Z</time></trkpt><trkpt lat="45.2272233" lon="9.0529704"><ele>71.85714285714286</ele><time>2026-05-04T14:31:09.808Z</time></trkpt><trkpt lat="45.2271505" lon="9.052957"><ele>71.0</ele><time>2026-05-04T14:31:10.802Z</time></trkpt><trkpt lat="45.22707" lon="9.052965"><ele>70.16666666666667</ele><time>2026-05-04T14:31:11.816Z</time></trkpt><trkpt lat="45.2269941" lon="9.0529987"><ele>69.33333333333334</ele><time>2026-05-04T14:31:12.814Z</time></trkpt><trkpt lat="45.2269213" lon="9.0530422"><ele>68.5</ele><time>2026-05-04T14:31:13.802Z</time></trkpt><trkpt lat="45.2268534" lon="9.0530919"><ele>67.66666666666667</ele><time>2026-05-04T14:31:14.812Z</time></trkpt><trkpt lat="45.2267783" lon="9.0531429"><ele>66.83333333333333</ele><time>2026-05-04T14:31:15.816Z</time></trkpt><trkpt lat="45.2266991" lon="9.0531827"><ele>66.0</ele><time>2026-05-04T14:31:16.811Z</time></trkpt><trkpt lat="45.2266259" lon="9.0532125"><ele>66.0</ele><time>2026-05-04T14:31:17.815Z</time></trkpt><trkpt lat="45.2265526" lon="9.0532323"><ele>66.0</ele><time>2026-05-04T14:31:18.803Z</time></trkpt><trkpt lat="45.2264752" lon="9.0532449"><ele>66.0</ele><time>2026-05-04T14:31:19.815Z</time></trkpt><trkpt lat="45.2264047" lon="9.0532575"><ele>66.0</ele><time>2026-05-04T14:31:20.81Z</time></trkpt><trkpt lat="45.2263356" lon="9.0532658"><ele>66.0</ele><time>2026-05-04T14:31:21.812Z</time></trkpt><trkpt lat="45.2262626" lon="9.0532833"><ele>66.0</ele><time>2026-05-04T14:31:22.815Z</time></trkpt><trkpt lat="45.226194" lon="9.0532965"><ele>66.0</ele><time>2026-05-04T14:31:23.802Z</time></trkpt><trkpt lat="45.2261285" lon="9.0533098"><ele>65.2</ele><time>2026-05-04T14:31:24.829Z</time></trkpt><trkpt lat="45.2260108" lon="9.053333"><ele>64.39999999999999</ele><time>2026-05-04T14:31:26.806Z</time></trkpt><trkpt lat="45.2259135" lon="9.0533948"><ele>63.6</ele><time>2026-05-04T14:31:28.892Z</time></trkpt><trkpt lat="45.2258221" lon="9.0534775"><ele>62.8</ele><time>2026-05-04T14:31:30.813Z</time></trkpt><trkpt lat="45.2257435" lon="9.0535507"><ele>62.0</ele><time>2026-05-04T14:31:32.821Z</time></trkpt><trkpt lat="45.2256641" lon="9.0536255"><ele>61.833333333333336</ele><time>2026-05-04T14:31:34.813Z</time></trkpt><trkpt lat="45.2255955" lon="9.0536884"><ele>61.66666666666667</ele><time>2026-05-04T14:31:36.816Z</time></trkpt><trkpt lat="45.2255304" lon="9.0537436"><ele>61.5</ele><time>2026-05-04T14:31:38.813Z</time></trkpt><trkpt lat="45.2254759" lon="9.053801"><ele>61.33333333333333</ele><time>2026-05-04T14:31:40.812Z</time></trkpt><trkpt lat="45.2254177" lon="9.0538481"><ele>61.166666666666664</ele><time>2026-05-04T14:31:42.817Z</time></trkpt><trkpt lat="45.2253492" lon="9.0539129"><ele>61.0</ele><time>2026-05-04T14:31:44.813Z</time></trkpt><trkpt lat="45.2252743" lon="9.0539892"><ele>61.0</ele><time>2026-05-04T14:31:46.892Z</time></trkpt><trkpt lat="45.2251854" lon="9.054073"><ele>60.99999999999999</ele><time>2026-05-04T14:31:48.817Z</time></trkpt><trkpt lat="45.2250967" lon="9.054153"><ele>60.99999999999999</ele><time>2026-05-04T14:31:50.815Z</time></trkpt><trkpt lat="45.2250038" lon="9.0542379"><ele>61.0</ele><time>2026-05-04T14:31:52.819Z</time></trkpt><trkpt lat="45.2249104" lon="9.0543208"><ele>61.0</ele><time>2026-05-04T14:31:54.814Z</time></trkpt><trkpt lat="45.2248183" lon="9.0544084"><ele>61.0</ele><time>2026-05-04T14:31:56.891Z</time></trkpt><trkpt lat="45.2247309" lon="9.0544797"><ele>60.99999999999999</ele><time>2026-05-04T14:31:58.82Z</time></trkpt><trkpt lat="45.2246393" lon="9.0544903"><ele>60.99999999999999</ele><time>2026-05-04T14:32:00.811Z</time></trkpt><trkpt lat="45.2245781" lon="9.0544196"><ele>61.0</ele><time>2026-05-04T14:32:02.809Z</time></trkpt><trkpt lat="45.224547" lon="9.0542898"><ele>61.0</ele><time>2026-05-04T14:32:04.803Z</time></trkpt><trkpt lat="45.2245291" lon="9.054138"><ele>61.199999999999996</ele><time>2026-05-04T14:32:06.815Z</time></trkpt><trkpt lat="45.2245271" lon="9.0539866"><ele>61.39999999999999</ele><time>2026-05-04T14:32:08.812Z</time></trkpt><trkpt lat="45.2245287" lon="9.0538271"><ele>61.6</ele><time>2026-05-04T14:32:10.893Z</time></trkpt><trkpt lat="45.2245216" lon="9.0536679"><ele>61.8</ele><time>2026-05-04T14:32:12.821Z</time></trkpt><trkpt lat="45.2245111" lon="9.0535115"><ele>62.0</ele><time>2026-05-04T14:32:14.813Z</time></trkpt><trkpt lat="45.2245019" lon="9.0533497"><ele>62.0</ele><time>2026-05-04T14:32:16.822Z</time></trkpt><trkpt lat="45.2244965" lon="9.0531956"><ele>62.0</ele><time>2026-05-04T14:32:18.822Z</time></trkpt><trkpt lat="45.2244929" lon="9.0530411"><ele>62.0</ele><time>2026-05-04T14:32:20.821Z</time></trkpt><trkpt lat="45.2244737" lon="9.052892"><ele>62.0</ele><time>2026-05-04T14:32:22.814Z</time></trkpt><trkpt lat="45.2244527" lon="9.0527475"><ele>62.0</ele><time>2026-05-04T14:32:24.811Z</time></trkpt><trkpt lat="45.2244256" lon="9.0525993"><ele>62.400000000000006</ele><time>2026-05-04T14:32:26.815Z</time></trkpt><trkpt lat="45.2243944" lon="9.0524533"><ele>62.800000000000004</ele><time>2026-05-04T14:32:28.818Z</time></trkpt><trkpt lat="45.2243598" lon="9.0523057"><ele>63.2</ele><time>2026-05-04T14:32:30.812Z</time></trkpt><trkpt lat="45.2243287" lon="9.0521652"><ele>63.6</ele><time>2026-05-04T14:32:32.819Z</time></trkpt><trkpt lat="45.2243197" lon="9.0520134"><ele>64.0</ele><time>2026-05-04T14:32:34.815Z</time></trkpt><trkpt lat="45.2243041" lon="9.0518668"><ele>64.0</ele><time>2026-05-04T14:32:36.813Z</time></trkpt><trkpt lat="45.2242971" lon="9.0517762"><ele>63.99999999999999</ele><time>2026-05-04T14:32:38.888Z</time></trkpt><trkpt lat="45.2242894" lon="9.0516858"><ele>64.0</ele><time>2026-05-04T14:32:42.818Z</time></trkpt><trkpt lat="45.2242483" lon="9.0516087"><ele>64.0</ele><time>2026-05-04T14:32:45.809Z</time></trkpt><trkpt lat="45.2242548" lon="9.0515186"><ele>63.99999999999999</ele><time>2026-05-04T14:32:50.819Z</time></trkpt><trkpt lat="45.2242015" lon="9.0514462"><ele>64.0</ele><time>2026-05-04T14:32:55.813Z</time></trkpt><trkpt lat="45.2241258" lon="9.0514486"><ele>64.0</ele><time>2026-05-04T14:32:59.815Z</time></trkpt><trkpt lat="45.2240868" lon="9.0513505"><ele>64.33333333333333</ele><time>2026-05-04T14:33:26.81Z</time></trkpt><trkpt lat="45.2241267" lon="9.0512506"><ele>64.66666666666666</ele><time>2026-05-04T14:33:29.813Z</time></trkpt><trkpt lat="45.2242006" lon="9.0512085"><ele>65.0</ele><time>2026-05-04T14:33:32.805Z</time></trkpt><trkpt lat="45.224264" lon="9.0511512"><ele>65.33333333333333</ele><time>2026-05-04T14:33:36.811Z</time></trkpt><trkpt lat="45.2243064" lon="9.0510803"><ele>65.66666666666667</ele><time>2026-05-04T14:33:41.88Z</time></trkpt><trkpt lat="45.2243439" lon="9.0509916"><ele>66.0</ele><time>2026-05-04T14:33:45.814Z</time></trkpt><trkpt lat="45.2243698" lon="9.0508866"><ele>66.0</ele><time>2026-05-04T14:33:51.805Z</time></trkpt><trkpt lat="45.2243935" lon="9.0507962"><ele>66.0</ele><time>2026-05-04T14:33:55.813Z</time></trkpt><trkpt lat="45.2244176" lon="9.0506972"><ele>66.0</ele><time>2026-05-04T14:34:00.812Z</time></trkpt><trkpt lat="45.2244512" lon="9.0505959"><ele>66.0</ele><time>2026-05-04T14:34:12.81Z</time></trkpt><trkpt lat="45.2244738" lon="9.0505072"><ele>66.0</ele><time>2026-05-04T14:34:15.809Z</time></trkpt><trkpt lat="45.2244983" lon="9.0504095"><ele>66.0</ele><time>2026-05-04T14:34:18.809Z</time></trkpt><trkpt lat="45.2245233" lon="9.0503053"><ele>66.0</ele><time>2026-05-04T14:34:21.807Z</time></trkpt><trkpt lat="45.2245569" lon="9.0502236"><ele>65.83333333333333</ele><time>2026-05-04T14:34:23.816Z</time></trkpt><trkpt lat="45.2245907" lon="9.0501044"><ele>65.66666666666667</ele><time>2026-05-04T14:34:26.803Z</time></trkpt><trkpt lat="45.2246156" lon="9.0499896"><ele>65.5</ele><time>2026-05-04T14:34:29.819Z</time></trkpt><trkpt lat="45.2246318" lon="9.0498947"><ele>65.33333333333334</ele><time>2026-05-04T14:34:31.814Z</time></trkpt><trkpt lat="45.2246618" lon="9.0497919"><ele>65.16666666666667</ele><time>2026-05-04T14:34:33.808Z</time></trkpt><trkpt lat="45.2246879" lon="9.0496952"><ele>65.0</ele><time>2026-05-04T14:34:35.811Z</time></trkpt><trkpt lat="45.2246887" lon="9.0495849"><ele>65.0</ele><time>2026-05-04T14:34:37.815Z</time></trkpt><trkpt lat="45.2246969" lon="9.0494442"><ele>65.0</ele><time>2026-05-04T14:34:39.816Z</time></trkpt><trkpt lat="45.2247037" lon="9.0493229"><ele>65.0</ele><time>2026-05-04T14:34:41.807Z</time></trkpt><trkpt lat="45.2247002" lon="9.049156"><ele>65.0</ele><time>2026-05-04T14:34:43.821Z</time></trkpt><trkpt lat="45.2247005" lon="9.0490428"><ele>65.0</ele><time>2026-05-04T14:34:45.811Z</time></trkpt><trkpt lat="45.2246924" lon="9.0489267"><ele>65.0</ele><time>2026-05-04T14:34:47.815Z</time></trkpt><trkpt lat="45.224672" lon="9.048791"><ele>65.0</ele><time>2026-05-04T14:34:49.811Z</time></trkpt><trkpt lat="45.224658" lon="9.0486665"><ele>65.0</ele><time>2026-05-04T14:34:51.813Z</time></trkpt><trkpt lat="45.2246359" lon="9.0485634"><ele>65.0</ele><time>2026-05-04T14:34:53.82Z</time></trkpt><trkpt lat="45.2246125" lon="9.04846"><ele>65.0</ele><time>2026-05-04T14:34:55.81Z</time></trkpt><trkpt lat="45.2246083" lon="9.0483505"><ele>65.0</ele><time>2026-05-04T14:34:57.809Z</time></trkpt><trkpt lat="45.2246344" lon="9.0482577"><ele>65.14285714285715</ele><time>2026-05-04T14:34:59.808Z</time></trkpt><trkpt lat="45.2246731" lon="9.0481865"><ele>65.28571428571429</ele><time>2026-05-04T14:35:01.813Z</time></trkpt><trkpt lat="45.2247135" lon="9.0481127"><ele>65.42857142857143</ele><time>2026-05-04T14:35:03.814Z</time></trkpt><trkpt lat="45.2247705" lon="9.0480196"><ele>65.57142857142858</ele><time>2026-05-04T14:35:05.82Z</time></trkpt><trkpt lat="45.2248155" lon="9.0479507"><ele>65.71428571428572</ele><time>2026-05-04T14:35:07.808Z</time></trkpt><trkpt lat="45.2248545" lon="9.0478787"><ele>65.85714285714286</ele><time>2026-05-04T14:35:09.81Z</time></trkpt><trkpt lat="45.2248958" lon="9.0478053"><ele>66.0</ele><time>2026-05-04T14:35:11.816Z</time></trkpt><trkpt lat="45.2249442" lon="9.0477326"><ele>66.14285714285714</ele><time>2026-05-04T14:35:13.807Z</time></trkpt><trkpt lat="45.2249944" lon="9.0476544"><ele>66.28571428571429</ele><time>2026-05-04T14:35:15.808Z</time></trkpt><trkpt lat="45.2250372" lon="9.0475852"><ele>66.42857142857143</ele><time>2026-05-04T14:35:17.811Z</time></trkpt><trkpt lat="45.2250769" lon="9.0475156"><ele>66.57142857142857</ele><time>2026-05-04T14:35:19.811Z</time></trkpt><trkpt lat="45.2251217" lon="9.047418"><ele>66.71428571428571</ele><time>2026-05-04T14:35:21.808Z</time></trkpt><trkpt lat="45.2251675" lon="9.0473486"><ele>66.85714285714286</ele><time>2026-05-04T14:35:23.811Z</time></trkpt><trkpt lat="45.2252145" lon="9.0472746"><ele>67.0</ele><time>2026-05-04T14:35:25.81Z</time></trkpt><trkpt lat="45.2252654" lon="9.0471828"><ele>66.66666666666666</ele><time>2026-05-04T14:35:27.813Z</time></trkpt><trkpt lat="45.2253154" lon="9.0470862"><ele>66.33333333333333</ele><time>2026-05-04T14:35:29.813Z</time></trkpt><trkpt lat="45.2253834" lon="9.0469996"><ele>66.0</ele><time>2026-05-04T14:35:32.807Z</time></trkpt><trkpt lat="45.2254369" lon="9.046902"><ele>65.66666666666667</ele><time>2026-05-04T14:35:35.803Z</time></trkpt><trkpt lat="45.2254942" lon="9.0468506"><ele>65.33333333333334</ele><time>2026-05-04T14:35:37.811Z</time></trkpt><trkpt lat="45.2255639" lon="9.0468447"><ele>65.0</ele><time>2026-05-04T14:35:39.814Z</time></trkpt><trkpt lat="45.2256503" lon="9.0468312"><ele>64.83333333333334</ele><time>2026-05-04T14:35:41.815Z</time></trkpt><trkpt lat="45.2257321" lon="9.0468226"><ele>64.66666666666667</ele><time>2026-05-04T14:35:43.813Z</time></trkpt><trkpt lat="45.225817" lon="9.0468175"><ele>64.5</ele><time>2026-05-04T14:35:45.82Z</time></trkpt><trkpt lat="45.2259111" lon="9.046809"><ele>64.33333333333333</ele><time>2026-05-04T14:35:47.814Z</time></trkpt><trkpt lat="45.2260025" lon="9.0467936"><ele>64.16666666666666</ele><time>2026-05-04T14:35:49.809Z</time></trkpt><trkpt lat="45.2260972" lon="9.0467789"><ele>64.0</ele><time>2026-05-04T14:35:51.812Z</time></trkpt><trkpt lat="45.2261844" lon="9.0467624"><ele>63.99999999999999</ele><time>2026-05-04T14:35:53.808Z</time></trkpt><trkpt lat="45.2262757" lon="9.0467594"><ele>64.0</ele><time>2026-05-04T14:35:55.814Z</time></trkpt><trkpt lat="45.226362" lon="9.0467559"><ele>64.0</ele><time>2026-05-04T14:35:57.807Z</time></trkpt><trkpt lat="45.2264473" lon="9.0467529"><ele>64.0</ele><time>2026-05-04T14:35:59.817Z</time></trkpt><trkpt lat="45.2265297" lon="9.0467442"><ele>63.99999999999999</ele><time>2026-05-04T14:36:01.808Z</time></trkpt><trkpt lat="45.2265998" lon="9.0467391"><ele>64.0</ele><time>2026-05-04T14:36:03.81Z</time></trkpt><trkpt lat="45.226661" lon="9.0467141"><ele>65.0</ele><time>2026-05-04T14:36:05.806Z</time></trkpt><trkpt lat="45.2267307" lon="9.046666"><ele>66.0</ele><time>2026-05-04T14:36:08.803Z</time></trkpt><trkpt lat="45.2267866" lon="9.0466111"><ele>67.0</ele><time>2026-05-04T14:36:10.813Z</time></trkpt><trkpt lat="45.2268321" lon="9.0465354"><ele>68.0</ele><time>2026-05-04T14:36:12.826Z</time></trkpt><trkpt lat="45.2268506" lon="9.0464112"><ele>69.0</ele><time>2026-05-04T14:36:15.809Z</time></trkpt><trkpt lat="45.2268391" lon="9.0462832"><ele>70.0</ele><time>2026-05-04T14:36:18.906Z</time></trkpt><trkpt lat="45.2268183" lon="9.0461517"><ele>70.33333333333333</ele><time>2026-05-04T14:36:21.814Z</time></trkpt><trkpt lat="45.2267856" lon="9.0460351"><ele>70.66666666666666</ele><time>2026-05-04T14:36:24.814Z</time></trkpt><trkpt lat="45.2267851" lon="9.0459078"><ele>71.0</ele><time>2026-05-04T14:36:27.809Z</time></trkpt><trkpt lat="45.2268175" lon="9.0458063"><ele>71.33333333333333</ele><time>2026-05-04T14:36:30.808Z</time></trkpt><trkpt lat="45.2268609" lon="9.0457337"><ele>71.66666666666667</ele><time>2026-05-04T14:36:33.807Z</time></trkpt><trkpt lat="45.2269242" lon="9.0456736"><ele>72.0</ele><time>2026-05-04T14:36:36.814Z</time></trkpt><trkpt lat="45.2270068" lon="9.0456404"><ele>72.0</ele><time>2026-05-04T14:36:39.811Z</time></trkpt><trkpt lat="45.2270858" lon="9.0456425"><ele>72.0</ele><time>2026-05-04T14:36:42.815Z</time></trkpt><trkpt lat="45.2271516" lon="9.0456916"><ele>72.0</ele><time>2026-05-04T14:36:46.884Z</time></trkpt><trkpt lat="45.2271571" lon="9.0457971"><ele>72.0</ele><time>2026-05-04T14:37:10.896Z</time></trkpt><trkpt lat="45.2271699" lon="9.0459325"><ele>72.0</ele><time>2026-05-04T14:37:13.823Z</time></trkpt><trkpt lat="45.2271762" lon="9.0460558"><ele>72.0</ele><time>2026-05-04T14:37:15.812Z</time></trkpt><trkpt lat="45.2271808" lon="9.0461796"><ele>72.33333333333333</ele><time>2026-05-04T14:37:17.818Z</time></trkpt><trkpt lat="45.2271957" lon="9.0463055"><ele>72.66666666666667</ele><time>2026-05-04T14:37:19.82Z</time></trkpt><trkpt lat="45.2272213" lon="9.0464402"><ele>73.0</ele><time>2026-05-04T14:37:21.823Z</time></trkpt><trkpt lat="45.2272883" lon="9.046524"><ele>73.33333333333334</ele><time>2026-05-04T14:37:23.907Z</time></trkpt><trkpt lat="45.2273648" lon="9.0465774"><ele>73.66666666666667</ele><time>2026-05-04T14:37:25.818Z</time></trkpt><trkpt lat="45.2274447" lon="9.046608"><ele>74.0</ele><time>2026-05-04T14:37:27.807Z</time></trkpt><trkpt lat="45.2275321" lon="9.0466384"><ele>74.0</ele><time>2026-05-04T14:37:29.812Z</time></trkpt><trkpt lat="45.227618" lon="9.0466599"><ele>74.0</ele><time>2026-05-04T14:37:31.811Z</time></trkpt><trkpt lat="45.227712" lon="9.0466836"><ele>74.0</ele><time>2026-05-04T14:37:33.812Z</time></trkpt><trkpt lat="45.2278071" lon="9.0467101"><ele>74.0</ele><time>2026-05-04T14:37:35.817Z</time></trkpt><trkpt lat="45.2279028" lon="9.0467437"><ele>74.0</ele><time>2026-05-04T14:37:37.807Z</time></trkpt><trkpt lat="45.2279953" lon="9.0467676"><ele>74.0</ele><time>2026-05-04T14:37:39.815Z</time></trkpt><trkpt lat="45.2280961" lon="9.0467916"><ele>74.0</ele><time>2026-05-04T14:37:41.818Z</time></trkpt><trkpt lat="45.2281881" lon="9.0468225"><ele>74.0</ele><time>2026-05-04T14:37:43.814Z</time></trkpt><trkpt lat="45.2282772" lon="9.0468525"><ele>74.0</ele><time>2026-05-04T14:37:45.805Z</time></trkpt><trkpt lat="45.228366" lon="9.0468811"><ele>74.0</ele><time>2026-05-04T14:37:47.809Z</time></trkpt><trkpt lat="45.2284473" lon="9.0469038"><ele>74.14285714285714</ele><time>2026-05-04T14:37:49.887Z</time></trkpt><trkpt lat="45.2285096" lon="9.046858"><ele>74.28571428571428</ele><time>2026-05-04T14:37:51.818Z</time></trkpt><trkpt lat="45.2285248" lon="9.0467705"><ele>74.42857142857142</ele><time>2026-05-04T14:37:53.812Z</time></trkpt><trkpt lat="45.2285072" lon="9.0466695"><ele>74.57142857142857</ele><time>2026-05-04T14:37:55.816Z</time></trkpt><trkpt lat="45.2284968" lon="9.0465624"><ele>74.71428571428571</ele><time>2026-05-04T14:37:57.823Z</time></trkpt><trkpt lat="45.2284974" lon="9.0464495"><ele>74.85714285714285</ele><time>2026-05-04T14:37:59.809Z</time></trkpt><trkpt lat="45.2284937" lon="9.0463318"><ele>75.0</ele><time>2026-05-04T14:38:01.807Z</time></trkpt><trkpt lat="45.2284965" lon="9.0462152"><ele>75.6</ele><time>2026-05-04T14:38:03.81Z</time></trkpt><trkpt lat="45.228491" lon="9.0460877"><ele>76.2</ele><time>2026-05-04T14:38:05.81Z</time></trkpt><trkpt lat="45.228487" lon="9.0459683"><ele>76.8</ele><time>2026-05-04T14:38:07.807Z</time></trkpt><trkpt lat="45.2284799" lon="9.0458372"><ele>77.4</ele><time>2026-05-04T14:38:09.819Z</time></trkpt><trkpt lat="45.2284737" lon="9.0456981"><ele>78.0</ele><time>2026-05-04T14:38:11.816Z</time></trkpt><trkpt lat="45.2284708" lon="9.0455663"><ele>78.0</ele><time>2026-05-04T14:38:13.803Z</time></trkpt><trkpt lat="45.2284795" lon="9.0454295"><ele>78.0</ele><time>2026-05-04T14:38:15.81Z</time></trkpt><trkpt lat="45.2284862" lon="9.0452887"><ele>78.0</ele><time>2026-05-04T14:38:17.809Z</time></trkpt><trkpt lat="45.228506" lon="9.0451475"><ele>78.0</ele><time>2026-05-04T14:38:19.811Z</time></trkpt><trkpt lat="45.2285394" lon="9.0450198"><ele>78.0</ele><time>2026-05-04T14:38:21.816Z</time></trkpt><trkpt lat="45.2285871" lon="9.0448903"><ele>77.6</ele><time>2026-05-04T14:38:23.805Z</time></trkpt><trkpt lat="45.2286466" lon="9.0447825"><ele>77.19999999999999</ele><time>2026-05-04T14:38:25.814Z</time></trkpt><trkpt lat="45.2287109" lon="9.0446805"><ele>76.8</ele><time>2026-05-04T14:38:27.895Z</time></trkpt><trkpt lat="45.2287731" lon="9.0445835"><ele>76.39999999999999</ele><time>2026-05-04T14:38:29.81Z</time></trkpt><trkpt lat="45.228838" lon="9.0444799"><ele>76.0</ele><time>2026-05-04T14:38:31.808Z</time></trkpt><trkpt lat="45.2289005" lon="9.0443763"><ele>76.0</ele><time>2026-05-04T14:38:33.814Z</time></trkpt><trkpt lat="45.2289676" lon="9.0442819"><ele>76.0</ele><time>2026-05-04T14:38:35.813Z</time></trkpt><trkpt lat="45.229035" lon="9.0441843"><ele>76.0</ele><time>2026-05-04T14:38:37.818Z</time></trkpt><trkpt lat="45.2291037" lon="9.0440846"><ele>76.0</ele><time>2026-05-04T14:38:39.888Z</time></trkpt><trkpt lat="45.2291746" lon="9.0439808"><ele>76.0</ele><time>2026-05-04T14:38:41.808Z</time></trkpt><trkpt lat="45.2292468" lon="9.0438782"><ele>76.6</ele><time>2026-05-04T14:38:43.814Z</time></trkpt><trkpt lat="45.2293227" lon="9.0437755"><ele>77.19999999999999</ele><time>2026-05-04T14:38:45.824Z</time></trkpt><trkpt lat="45.2293987" lon="9.0436704"><ele>77.80000000000001</ele><time>2026-05-04T14:38:47.807Z</time></trkpt><trkpt lat="45.2294758" lon="9.0435671"><ele>78.4</ele><time>2026-05-04T14:38:49.815Z</time></trkpt><trkpt lat="45.2295496" lon="9.0434554"><ele>79.0</ele><time>2026-05-04T14:38:51.813Z</time></trkpt><trkpt lat="45.2296303" lon="9.0433474"><ele>79.0</ele><time>2026-05-04T14:38:53.805Z</time></trkpt><trkpt lat="45.2297101" lon="9.0432416"><ele>79.0</ele><time>2026-05-04T14:38:55.814Z</time></trkpt><trkpt lat="45.2297885" lon="9.0431249"><ele>79.0</ele><time>2026-05-04T14:38:57.812Z</time></trkpt><trkpt lat="45.2298672" lon="9.0430247"><ele>79.0</ele><time>2026-05-04T14:38:59.811Z</time></trkpt><trkpt lat="45.229954" lon="9.0429461"><ele>79.0</ele><time>2026-05-04T14:39:01.802Z</time></trkpt><trkpt lat="45.2300608" lon="9.0429395"><ele>79.0</ele><time>2026-05-04T14:39:03.817Z</time></trkpt><trkpt lat="45.2301638" lon="9.0429804"><ele>79.0</ele><time>2026-05-04T14:39:05.808Z</time></trkpt><trkpt lat="45.2302529" lon="9.043065"><ele>79.0</ele><time>2026-05-04T14:39:07.814Z</time></trkpt><trkpt lat="45.2303339" lon="9.0431606"><ele>79.0</ele><time>2026-05-04T14:39:09.811Z</time></trkpt><trkpt lat="45.2304143" lon="9.0432594"><ele>79.0</ele><time>2026-05-04T14:39:11.805Z</time></trkpt><trkpt lat="45.2304926" lon="9.0433572"><ele>79.0</ele><time>2026-05-04T14:39:13.823Z</time></trkpt><trkpt lat="45.2305731" lon="9.0434569"><ele>79.0</ele><time>2026-05-04T14:39:15.814Z</time></trkpt><trkpt lat="45.2306516" lon="9.0435595"><ele>79.0</ele><time>2026-05-04T14:39:17.9Z</time></trkpt><trkpt lat="45.2307305" lon="9.0436595"><ele>79.0</ele><time>2026-05-04T14:39:19.801Z</time></trkpt><trkpt lat="45.2308065" lon="9.0437561"><ele>79.0</ele><time>2026-05-04T14:39:21.802Z</time></trkpt><trkpt lat="45.2308789" lon="9.0438571"><ele>79.0</ele><time>2026-05-04T14:39:23.811Z</time></trkpt><trkpt lat="45.2309559" lon="9.0439638"><ele>79.0</ele><time>2026-05-04T14:39:25.821Z</time></trkpt><trkpt lat="45.2310281" lon="9.0440677"><ele>79.0</ele><time>2026-05-04T14:39:27.813Z</time></trkpt><trkpt lat="45.2311071" lon="9.044176"><ele>79.0</ele><time>2026-05-04T14:39:29.803Z</time></trkpt><trkpt lat="45.2311896" lon="9.044282"><ele>79.0</ele><time>2026-05-04T14:39:31.807Z</time></trkpt><trkpt lat="45.2312738" lon="9.0443887"><ele>79.0</ele><time>2026-05-04T14:39:33.803Z</time></trkpt><trkpt lat="45.231357" lon="9.0444933"><ele>79.0</ele><time>2026-05-04T14:39:35.813Z</time></trkpt><trkpt lat="45.2314427" lon="9.0446001"><ele>79.0</ele><time>2026-05-04T14:39:37.815Z</time></trkpt><trkpt lat="45.2315248" lon="9.0447077"><ele>79.0</ele><time>2026-05-04T14:39:39.827Z</time></trkpt><trkpt lat="45.2316107" lon="9.0448247"><ele>78.75</ele><time>2026-05-04T14:39:41.819Z</time></trkpt><trkpt lat="45.2316951" lon="9.0449378"><ele>78.5</ele><time>2026-05-04T14:39:43.819Z</time></trkpt><trkpt lat="45.2317774" lon="9.0450504"><ele>78.25</ele><time>2026-05-04T14:39:45.823Z</time></trkpt><trkpt lat="45.2318556" lon="9.0451657"><ele>78.0</ele><time>2026-05-04T14:39:47.813Z</time></trkpt><trkpt lat="45.231935" lon="9.0452679"><ele>77.75</ele><time>2026-05-04T14:39:49.819Z</time></trkpt><trkpt lat="45.2320177" lon="9.0453684"><ele>77.5</ele><time>2026-05-04T14:39:51.813Z</time></trkpt><trkpt lat="45.2321008" lon="9.0454782"><ele>77.25</ele><time>2026-05-04T14:39:53.804Z</time></trkpt><trkpt lat="45.2321848" lon="9.0455855"><ele>77.0</ele><time>2026-05-04T14:39:55.82Z</time></trkpt><trkpt lat="45.2322696" lon="9.0457025"><ele>78.0</ele><time>2026-05-04T14:39:57.813Z</time></trkpt><trkpt lat="45.232356" lon="9.045811"><ele>79.0</ele><time>2026-05-04T14:39:59.81Z</time></trkpt><trkpt lat="45.2324395" lon="9.0459185"><ele>80.0</ele><time>2026-05-04T14:40:01.81Z</time></trkpt><trkpt lat="45.2325184" lon="9.0460228"><ele>81.0</ele><time>2026-05-04T14:40:03.809Z</time></trkpt><trkpt lat="45.2325984" lon="9.0461387"><ele>81.0</ele><time>2026-05-04T14:40:05.812Z</time></trkpt><trkpt lat="45.2326745" lon="9.0462452"><ele>81.0</ele><time>2026-05-04T14:40:07.812Z</time></trkpt><trkpt lat="45.2327458" lon="9.0463375"><ele>81.0</ele><time>2026-05-04T14:40:09.814Z</time></trkpt><trkpt lat="45.2328174" lon="9.0463318"><ele>81.0</ele><time>2026-05-04T14:40:11.811Z</time></trkpt><trkpt lat="45.2328743" lon="9.0462417"><ele>81.0</ele><time>2026-05-04T14:40:13.813Z</time></trkpt><trkpt lat="45.232929" lon="9.0461403"><ele>81.0</ele><time>2026-05-04T14:40:15.811Z</time></trkpt><trkpt lat="45.2329835" lon="9.0460274"><ele>81.0</ele><time>2026-05-04T14:40:17.82Z</time></trkpt><trkpt lat="45.2330411" lon="9.0459198"><ele>81.0</ele><time>2026-05-04T14:40:19.816Z</time></trkpt><trkpt lat="45.2331043" lon="9.0458003"><ele>81.0</ele><time>2026-05-04T14:40:21.89Z</time></trkpt><trkpt lat="45.2331742" lon="9.0456944"><ele>81.0</ele><time>2026-05-04T14:40:23.822Z</time></trkpt><trkpt lat="45.2332664" lon="9.045646"><ele>80.8</ele><time>2026-05-04T14:40:25.807Z</time></trkpt><trkpt lat="45.2333659" lon="9.0456935"><ele>80.6</ele><time>2026-05-04T14:40:27.818Z</time></trkpt><trkpt lat="45.2334509" lon="9.0457919"><ele>80.4</ele><time>2026-05-04T14:40:29.813Z</time></trkpt><trkpt lat="45.2335278" lon="9.0458923"><ele>80.2</ele><time>2026-05-04T14:40:31.805Z</time></trkpt><trkpt lat="45.2336057" lon="9.0459821"><ele>80.0</ele><time>2026-05-04T14:40:33.81Z</time></trkpt><trkpt lat="45.2336855" lon="9.04607"><ele>79.8</ele><time>2026-05-04T14:40:35.879Z</time></trkpt><trkpt lat="45.2337725" lon="9.0461604"><ele>79.6</ele><time>2026-05-04T14:40:37.822Z</time></trkpt><trkpt lat="45.2338523" lon="9.046249"><ele>79.4</ele><time>2026-05-04T14:40:39.817Z</time></trkpt><trkpt lat="45.2339307" lon="9.0463294"><ele>79.2</ele><time>2026-05-04T14:40:41.807Z</time></trkpt><trkpt lat="45.234018" lon="9.0464049"><ele>79.0</ele><time>2026-05-04T14:40:43.814Z</time></trkpt><trkpt lat="45.2341098" lon="9.0464865"><ele>78.8</ele><time>2026-05-04T14:40:45.814Z</time></trkpt><trkpt lat="45.2342041" lon="9.0465568"><ele>78.60000000000001</ele><time>2026-05-04T14:40:47.816Z</time></trkpt><trkpt lat="45.2343014" lon="9.0466273"><ele>78.4</ele><time>2026-05-04T14:40:49.811Z</time></trkpt><trkpt lat="45.2343873" lon="9.046703"><ele>78.2</ele><time>2026-05-04T14:40:51.814Z</time></trkpt><trkpt lat="45.2344775" lon="9.0467789"><ele>78.0</ele><time>2026-05-04T14:40:53.811Z</time></trkpt><trkpt lat="45.2345673" lon="9.0468562"><ele>78.4</ele><time>2026-05-04T14:40:55.809Z</time></trkpt><trkpt lat="45.2346598" lon="9.046924"><ele>78.8</ele><time>2026-05-04T14:40:57.814Z</time></trkpt><trkpt lat="45.2347458" lon="9.0470025"><ele>79.2</ele><time>2026-05-04T14:40:59.816Z</time></trkpt><trkpt lat="45.2348453" lon="9.047081"><ele>79.6</ele><time>2026-05-04T14:41:01.806Z</time></trkpt><trkpt lat="45.2349235" lon="9.0471511"><ele>80.0</ele><time>2026-05-04T14:41:03.814Z</time></trkpt><trkpt lat="45.2350127" lon="9.0472067"><ele>80.8</ele><time>2026-05-04T14:41:05.808Z</time></trkpt><trkpt lat="45.2350864" lon="9.0472921"><ele>81.6</ele><time>2026-05-04T14:41:07.807Z</time></trkpt><trkpt lat="45.2351605" lon="9.0473485"><ele>82.4</ele><time>2026-05-04T14:41:09.818Z</time></trkpt><trkpt lat="45.2352525" lon="9.0473794"><ele>83.2</ele><time>2026-05-04T14:41:11.827Z</time></trkpt><trkpt lat="45.2353438" lon="9.047414"><ele>84.0</ele><time>2026-05-04T14:41:13.82Z</time></trkpt><trkpt lat="45.2354211" lon="9.0474508"><ele>83.66666666666667</ele><time>2026-05-04T14:41:15.812Z</time></trkpt><trkpt lat="45.2354931" lon="9.0474798"><ele>83.33333333333333</ele><time>2026-05-04T14:41:17.805Z</time></trkpt><trkpt lat="45.2355743" lon="9.0475141"><ele>83.0</ele><time>2026-05-04T14:41:19.814Z</time></trkpt><trkpt lat="45.2356562" lon="9.0475557"><ele>82.66666666666666</ele><time>2026-05-04T14:41:21.822Z</time></trkpt><trkpt lat="45.2357409" lon="9.0476045"><ele>82.33333333333333</ele><time>2026-05-04T14:41:23.812Z</time></trkpt><trkpt lat="45.2358214" lon="9.0476473"><ele>82.0</ele><time>2026-05-04T14:41:25.818Z</time></trkpt><trkpt lat="45.2358814" lon="9.0477124"><ele>82.83333333333333</ele><time>2026-05-04T14:41:27.818Z</time></trkpt><trkpt lat="45.2359463" lon="9.0477834"><ele>83.66666666666666</ele><time>2026-05-04T14:41:29.815Z</time></trkpt><trkpt lat="45.2360123" lon="9.047856"><ele>84.5</ele><time>2026-05-04T14:41:31.812Z</time></trkpt><trkpt lat="45.2360895" lon="9.0479295"><ele>85.33333333333333</ele><time>2026-05-04T14:41:33.817Z</time></trkpt><trkpt lat="45.2361588" lon="9.0480165"><ele>86.16666666666667</ele><time>2026-05-04T14:41:35.814Z</time></trkpt><trkpt lat="45.2362177" lon="9.0481059"><ele>87.0</ele><time>2026-05-04T14:41:37.81Z</time></trkpt><trkpt lat="45.2362773" lon="9.048194"><ele>87.0</ele><time>2026-05-04T14:41:39.892Z</time></trkpt><trkpt lat="45.2363424" lon="9.0482898"><ele>87.0</ele><time>2026-05-04T14:41:41.825Z</time></trkpt><trkpt lat="45.2364058" lon="9.0483877"><ele>87.0</ele><time>2026-05-04T14:41:43.819Z</time></trkpt><trkpt lat="45.236471" lon="9.0484805"><ele>87.0</ele><time>2026-05-04T14:41:45.811Z</time></trkpt><trkpt lat="45.2365384" lon="9.0485544"><ele>87.0</ele><time>2026-05-04T14:41:47.814Z</time></trkpt><trkpt lat="45.2366093" lon="9.048607"><ele>87.0</ele><time>2026-05-04T14:41:49.808Z</time></trkpt><trkpt lat="45.2366841" lon="9.0486557"><ele>87.0</ele><time>2026-05-04T14:41:51.818Z</time></trkpt><trkpt lat="45.2367521" lon="9.0487113"><ele>87.0</ele><time>2026-05-04T14:41:53.819Z</time></trkpt><trkpt lat="45.2368116" lon="9.0487474"><ele>87.0</ele><time>2026-05-04T14:41:55.812Z</time></trkpt><trkpt lat="45.2368866" lon="9.048734"><ele>87.0</ele><time>2026-05-04T14:41:58.805Z</time></trkpt><trkpt lat="45.236918" lon="9.048637"><ele>87.0</ele><time>2026-05-04T14:42:01.814Z</time></trkpt><trkpt lat="45.2369317" lon="9.0485293"><ele>87.0</ele><time>2026-05-04T14:42:03.809Z</time></trkpt><trkpt lat="45.2369246" lon="9.0484108"><ele>87.0</ele><time>2026-05-04T14:42:05.806Z</time></trkpt><trkpt lat="45.2369036" lon="9.0482809"><ele>87.0</ele><time>2026-05-04T14:42:07.81Z</time></trkpt><trkpt lat="45.2369046" lon="9.048164"><ele>87.0</ele><time>2026-05-04T14:42:09.815Z</time></trkpt><trkpt lat="45.2369009" lon="9.0480336"><ele>87.0</ele><time>2026-05-04T14:42:11.81Z</time></trkpt><trkpt lat="45.236909" lon="9.0479153"><ele>87.0</ele><time>2026-05-04T14:42:13.811Z</time></trkpt><trkpt lat="45.2369067" lon="9.0477757"><ele>87.0</ele><time>2026-05-04T14:42:15.811Z</time></trkpt><trkpt lat="45.2369086" lon="9.0476246"><ele>87.0</ele><time>2026-05-04T14:42:17.805Z</time></trkpt><trkpt lat="45.2369072" lon="9.0474753"><ele>87.0</ele><time>2026-05-04T14:42:19.809Z</time></trkpt><trkpt lat="45.2369102" lon="9.047322"><ele>87.0</ele><time>2026-05-04T14:42:21.808Z</time></trkpt><trkpt lat="45.2369104" lon="9.0471718"><ele>87.0</ele><time>2026-05-04T14:42:23.819Z</time></trkpt><trkpt lat="45.2369093" lon="9.0470221"><ele>87.19999999999999</ele><time>2026-05-04T14:42:25.819Z</time></trkpt><trkpt lat="45.2369114" lon="9.0468662"><ele>87.4</ele><time>2026-05-04T14:42:27.821Z</time></trkpt><trkpt lat="45.2369142" lon="9.0467068"><ele>87.6</ele><time>2026-05-04T14:42:29.801Z</time></trkpt><trkpt lat="45.2369048" lon="9.0465537"><ele>87.80000000000001</ele><time>2026-05-04T14:42:31.816Z</time></trkpt><trkpt lat="45.236895" lon="9.0463959"><ele>88.0</ele><time>2026-05-04T14:42:33.811Z</time></trkpt><trkpt lat="45.2368927" lon="9.0462379"><ele>88.0</ele><time>2026-05-04T14:42:35.815Z</time></trkpt><trkpt lat="45.2369015" lon="9.046072"><ele>88.0</ele><time>2026-05-04T14:42:37.807Z</time></trkpt><trkpt lat="45.2368918" lon="9.0459066"><ele>88.0</ele><time>2026-05-04T14:42:39.807Z</time></trkpt><trkpt lat="45.2368831" lon="9.0457527"><ele>88.0</ele><time>2026-05-04T14:42:41.816Z</time></trkpt><trkpt lat="45.2368759" lon="9.0455892"><ele>88.2</ele><time>2026-05-04T14:42:43.816Z</time></trkpt><trkpt lat="45.2368747" lon="9.0454276"><ele>88.4</ele><time>2026-05-04T14:42:45.82Z</time></trkpt><trkpt lat="45.2368714" lon="9.045275"><ele>88.60000000000001</ele><time>2026-05-04T14:42:47.816Z</time></trkpt><trkpt lat="45.2368722" lon="9.0451242"><ele>88.80000000000001</ele><time>2026-05-04T14:42:49.815Z</time></trkpt><trkpt lat="45.2368828" lon="9.0449649"><ele>89.0</ele><time>2026-05-04T14:42:51.818Z</time></trkpt><trkpt lat="45.2368994" lon="9.044795"><ele>89.0</ele><time>2026-05-04T14:42:53.812Z</time></trkpt><trkpt lat="45.2369282" lon="9.0446401"><ele>89.0</ele><time>2026-05-04T14:42:55.811Z</time></trkpt><trkpt lat="45.2369476" lon="9.0445536"><ele>89.0</ele><time>2026-05-04T14:42:56.816Z</time></trkpt><trkpt lat="45.236976" lon="9.0443961"><ele>89.0</ele><time>2026-05-04T14:42:58.816Z</time></trkpt><trkpt lat="45.2370111" lon="9.0442459"><ele>89.0</ele><time>2026-05-04T14:43:00.814Z</time></trkpt><trkpt lat="45.2370567" lon="9.0440939"><ele>88.75</ele><time>2026-05-04T14:43:02.809Z</time></trkpt><trkpt lat="45.2371024" lon="9.0439346"><ele>88.5</ele><time>2026-05-04T14:43:04.817Z</time></trkpt><trkpt lat="45.2371424" lon="9.0437782"><ele>88.25</ele><time>2026-05-04T14:43:06.818Z</time></trkpt><trkpt lat="45.2371817" lon="9.0436336"><ele>88.0</ele><time>2026-05-04T14:43:08.805Z</time></trkpt><trkpt lat="45.2372243" lon="9.0434778"><ele>88.0</ele><time>2026-05-04T14:43:10.809Z</time></trkpt><trkpt lat="45.2372701" lon="9.0433382"><ele>88.0</ele><time>2026-05-04T14:43:12.814Z</time></trkpt><trkpt lat="45.2373144" lon="9.0431915"><ele>88.0</ele><time>2026-05-04T14:43:14.815Z</time></trkpt><trkpt lat="45.2373517" lon="9.043041"><ele>88.0</ele><time>2026-05-04T14:43:16.816Z</time></trkpt><trkpt lat="45.237405" lon="9.0428869"><ele>87.5</ele><time>2026-05-04T14:43:18.814Z</time></trkpt><trkpt lat="45.2374717" lon="9.0427556"><ele>87.0</ele><time>2026-05-04T14:43:20.813Z</time></trkpt><trkpt lat="45.2375515" lon="9.0426338"><ele>86.5</ele><time>2026-05-04T14:43:22.898Z</time></trkpt><trkpt lat="45.237635" lon="9.0425199"><ele>86.0</ele><time>2026-05-04T14:43:24.811Z</time></trkpt><trkpt lat="45.2377142" lon="9.0424071"><ele>86.0</ele><time>2026-05-04T14:43:26.818Z</time></trkpt><trkpt lat="45.2377961" lon="9.0422931"><ele>86.0</ele><time>2026-05-04T14:43:28.805Z</time></trkpt><trkpt lat="45.2378802" lon="9.042176"><ele>86.0</ele><time>2026-05-04T14:43:30.815Z</time></trkpt><trkpt lat="45.2379664" lon="9.042061"><ele>86.0</ele><time>2026-05-04T14:43:32.81Z</time></trkpt><trkpt lat="45.2380503" lon="9.0419562"><ele>86.19999999999999</ele><time>2026-05-04T14:43:34.817Z</time></trkpt><trkpt lat="45.2381385" lon="9.0418573"><ele>86.39999999999999</ele><time>2026-05-04T14:43:36.822Z</time></trkpt><trkpt lat="45.2382197" lon="9.0417534"><ele>86.6</ele><time>2026-05-04T14:43:38.819Z</time></trkpt><trkpt lat="45.2382967" lon="9.0416498"><ele>86.8</ele><time>2026-05-04T14:43:40.828Z</time></trkpt><trkpt lat="45.2383731" lon="9.0415407"><ele>87.0</ele><time>2026-05-04T14:43:42.814Z</time></trkpt><trkpt lat="45.2384532" lon="9.0414281"><ele>86.6</ele><time>2026-05-04T14:43:44.811Z</time></trkpt><trkpt lat="45.2385336" lon="9.041315"><ele>86.19999999999999</ele><time>2026-05-04T14:43:46.807Z</time></trkpt><trkpt lat="45.2386071" lon="9.041201"><ele>85.8</ele><time>2026-05-04T14:43:48.818Z</time></trkpt><trkpt lat="45.2386888" lon="9.0410953"><ele>85.4</ele><time>2026-05-04T14:43:50.813Z</time></trkpt><trkpt lat="45.2387746" lon="9.040985"><ele>85.0</ele><time>2026-05-04T14:43:52.815Z</time></trkpt><trkpt lat="45.2388583" lon="9.040879"><ele>84.75</ele><time>2026-05-04T14:43:54.817Z</time></trkpt><trkpt lat="45.238943" lon="9.0407706"><ele>84.5</ele><time>2026-05-04T14:43:56.826Z</time></trkpt><trkpt lat="45.2390303" lon="9.0406628"><ele>84.25</ele><time>2026-05-04T14:43:58.816Z</time></trkpt><trkpt lat="45.2391085" lon="9.0405527"><ele>84.0</ele><time>2026-05-04T14:44:00.814Z</time></trkpt><trkpt lat="45.2391901" lon="9.040447"><ele>84.6</ele><time>2026-05-04T14:44:02.815Z</time></trkpt><trkpt lat="45.2392703" lon="9.0403468"><ele>85.2</ele><time>2026-05-04T14:44:04.809Z</time></trkpt><trkpt lat="45.2393504" lon="9.0402452"><ele>85.8</ele><time>2026-05-04T14:44:06.807Z</time></trkpt><trkpt lat="45.2394335" lon="9.0401432"><ele>86.39999999999999</ele><time>2026-05-04T14:44:08.811Z</time></trkpt><trkpt lat="45.2395156" lon="9.0400425"><ele>87.0</ele><time>2026-05-04T14:44:10.814Z</time></trkpt><trkpt lat="45.2395945" lon="9.0399394"><ele>87.0</ele><time>2026-05-04T14:44:12.811Z</time></trkpt><trkpt lat="45.2396702" lon="9.0398319"><ele>87.0</ele><time>2026-05-04T14:44:14.817Z</time></trkpt><trkpt lat="45.2397474" lon="9.0397314"><ele>87.0</ele><time>2026-05-04T14:44:16.808Z</time></trkpt><trkpt lat="45.2398239" lon="9.0396308"><ele>87.0</ele><time>2026-05-04T14:44:18.807Z</time></trkpt><trkpt lat="45.2398993" lon="9.0395366"><ele>87.0</ele><time>2026-05-04T14:44:20.814Z</time></trkpt><trkpt lat="45.2399482" lon="9.0394582"><ele>87.0</ele><time>2026-05-04T14:44:22.812Z</time></trkpt><trkpt lat="45.2399514" lon="9.0393284"><ele>87.0</ele><time>2026-05-04T14:44:25.816Z</time></trkpt><trkpt lat="45.2399171" lon="9.0392472"><ele>87.0</ele><time>2026-05-04T14:44:28.817Z</time></trkpt><trkpt lat="45.2398562" lon="9.0391489"><ele>87.0</ele><time>2026-05-04T14:44:31.81Z</time></trkpt><trkpt lat="45.2398202" lon="9.0390666"><ele>87.0</ele><time>2026-05-04T14:44:33.817Z</time></trkpt><trkpt lat="45.2397814" lon="9.0389772"><ele>87.0</ele><time>2026-05-04T14:44:35.802Z</time></trkpt><trkpt lat="45.2397342" lon="9.0388715"><ele>87.0</ele><time>2026-05-04T14:44:37.81Z</time></trkpt><trkpt lat="45.2396947" lon="9.0387675"><ele>87.0</ele><time>2026-05-04T14:44:39.812Z</time></trkpt><trkpt lat="45.2396529" lon="9.0386539"><ele>87.0</ele><time>2026-05-04T14:44:41.819Z</time></trkpt><trkpt lat="45.2396106" lon="9.0385405"><ele>87.0</ele><time>2026-05-04T14:44:43.81Z</time></trkpt><trkpt lat="45.2395553" lon="9.0384042"><ele>87.0</ele><time>2026-05-04T14:44:45.812Z</time></trkpt><trkpt lat="45.239516" lon="9.0382671"><ele>86.0</ele><time>2026-05-04T14:44:47.815Z</time></trkpt><trkpt lat="45.2395101" lon="9.0381206"><ele>85.0</ele><time>2026-05-04T14:44:49.811Z</time></trkpt><trkpt lat="45.2395305" lon="9.0380349"><ele>84.0</ele><time>2026-05-04T14:44:50.82Z</time></trkpt><trkpt lat="45.2395678" lon="9.0379531"><ele>83.0</ele><time>2026-05-04T14:44:51.808Z</time></trkpt><trkpt lat="45.2396088" lon="9.0378593"><ele>82.0</ele><time>2026-05-04T14:44:52.814Z</time></trkpt><trkpt lat="45.2396456" lon="9.0377688"><ele>81.0</ele><time>2026-05-04T14:44:53.818Z</time></trkpt><trkpt lat="45.2396329" lon="9.0375925"><ele>81.0</ele><time>2026-05-04T14:44:55.819Z</time></trkpt><trkpt lat="45.2395813" lon="9.0375231"><ele>81.0</ele><time>2026-05-04T14:44:57.808Z</time></trkpt><trkpt lat="45.2395013" lon="9.0374358"><ele>81.0</ele><time>2026-05-04T14:44:59.805Z</time></trkpt><trkpt lat="45.2394381" lon="9.037381"><ele>81.0</ele><time>2026-05-04T14:45:00.818Z</time></trkpt><trkpt lat="45.2393772" lon="9.0373403"><ele>81.0</ele><time>2026-05-04T14:45:01.814Z</time></trkpt><trkpt lat="45.2392805" lon="9.0372475"><ele>81.0</ele><time>2026-05-04T14:45:03.811Z</time></trkpt><trkpt lat="45.2392264" lon="9.0372004"><ele>80.6</ele><time>2026-05-04T14:45:04.812Z</time></trkpt><trkpt lat="45.2391228" lon="9.0371048"><ele>80.19999999999999</ele><time>2026-05-04T14:45:06.896Z</time></trkpt><trkpt lat="45.2390167" lon="9.036992"><ele>79.80000000000001</ele><time>2026-05-04T14:45:08.824Z</time></trkpt><trkpt lat="45.238964" lon="9.0369414"><ele>79.4</ele><time>2026-05-04T14:45:09.807Z</time></trkpt><trkpt lat="45.2388998" lon="9.0368922"><ele>79.0</ele><time>2026-05-04T14:45:10.809Z</time></trkpt><trkpt lat="45.2388335" lon="9.036844"><ele>77.83333333333333</ele><time>2026-05-04T14:45:11.821Z</time></trkpt><trkpt lat="45.2387738" lon="9.0367969"><ele>76.66666666666666</ele><time>2026-05-04T14:45:12.808Z</time></trkpt><trkpt lat="45.2387087" lon="9.0367317"><ele>75.5</ele><time>2026-05-04T14:45:13.816Z</time></trkpt><trkpt lat="45.2386389" lon="9.0366721"><ele>74.33333333333333</ele><time>2026-05-04T14:45:14.818Z</time></trkpt><trkpt lat="45.238559" lon="9.0366111"><ele>73.16666666666667</ele><time>2026-05-04T14:45:15.826Z</time></trkpt><trkpt lat="45.2384673" lon="9.0365683"><ele>72.0</ele><time>2026-05-04T14:45:16.809Z</time></trkpt><trkpt lat="45.2383638" lon="9.0365503"><ele>72.0</ele><time>2026-05-04T14:45:17.815Z</time></trkpt><trkpt lat="45.2382634" lon="9.036529"><ele>72.0</ele><time>2026-05-04T14:45:18.808Z</time></trkpt><trkpt lat="45.2381744" lon="9.0365005"><ele>72.0</ele><time>2026-05-04T14:45:19.81Z</time></trkpt><trkpt lat="45.2380984" lon="9.0364685"><ele>72.0</ele><time>2026-05-04T14:45:20.881Z</time></trkpt><trkpt lat="45.2380226" lon="9.0364172"><ele>72.0</ele><time>2026-05-04T14:45:21.814Z</time></trkpt><trkpt lat="45.2379521" lon="9.0363485"><ele>72.0</ele><time>2026-05-04T14:45:22.82Z</time></trkpt><trkpt lat="45.2378783" lon="9.0362825"><ele>71.33333333333333</ele><time>2026-05-04T14:45:23.814Z</time></trkpt><trkpt lat="45.2378031" lon="9.0362175"><ele>70.66666666666667</ele><time>2026-05-04T14:45:24.814Z</time></trkpt><trkpt lat="45.2377249" lon="9.0361485"><ele>70.0</ele><time>2026-05-04T14:45:25.816Z</time></trkpt><trkpt lat="45.2376578" lon="9.0360792"><ele>69.33333333333334</ele><time>2026-05-04T14:45:26.811Z</time></trkpt><trkpt lat="45.237592" lon="9.0360118"><ele>68.66666666666667</ele><time>2026-05-04T14:45:27.81Z</time></trkpt><trkpt lat="45.2375233" lon="9.0359417"><ele>68.0</ele><time>2026-05-04T14:45:28.817Z</time></trkpt><trkpt lat="45.2374502" lon="9.0358827"><ele>68.0</ele><time>2026-05-04T14:45:29.818Z</time></trkpt><trkpt lat="45.2373874" lon="9.0358218"><ele>68.0</ele><time>2026-05-04T14:45:30.807Z</time></trkpt><trkpt lat="45.2373251" lon="9.0357645"><ele>68.0</ele><time>2026-05-04T14:45:31.81Z</time></trkpt><trkpt lat="45.23726" lon="9.0357165"><ele>68.0</ele><time>2026-05-04T14:45:32.805Z</time></trkpt><trkpt lat="45.2371924" lon="9.0356718"><ele>68.0</ele><time>2026-05-04T14:45:33.832Z</time></trkpt><trkpt lat="45.2370819" lon="9.035582"><ele>68.0</ele><time>2026-05-04T14:45:35.813Z</time></trkpt><trkpt lat="45.2370263" lon="9.03554"><ele>68.2</ele><time>2026-05-04T14:45:36.817Z</time></trkpt><trkpt lat="45.2369266" lon="9.0354592"><ele>68.4</ele><time>2026-05-04T14:45:38.819Z</time></trkpt><trkpt lat="45.2368331" lon="9.0353832"><ele>68.60000000000001</ele><time>2026-05-04T14:45:40.808Z</time></trkpt><trkpt lat="45.2367396" lon="9.0353022"><ele>68.8</ele><time>2026-05-04T14:45:42.817Z</time></trkpt><trkpt lat="45.2366808" lon="9.0352669"><ele>69.0</ele><time>2026-05-04T14:45:43.815Z</time></trkpt><trkpt lat="45.2366085" lon="9.0352279"><ele>69.0</ele><time>2026-05-04T14:45:45.804Z</time></trkpt><trkpt lat="45.2365486" lon="9.0351927"><ele>69.0</ele><time>2026-05-04T14:45:48.813Z</time></trkpt><trkpt lat="45.2365428" lon="9.0350908"><ele>69.0</ele><time>2026-05-04T14:46:17.82Z</time></trkpt><trkpt lat="45.2364929" lon="9.0350047"><ele>69.0</ele><time>2026-05-04T14:46:21.811Z</time></trkpt><trkpt lat="45.2364605" lon="9.0348984"><ele>69.0</ele><time>2026-05-04T14:46:33.812Z</time></trkpt><trkpt lat="45.2364168" lon="9.0347758"><ele>69.0</ele><time>2026-05-04T14:46:50.816Z</time></trkpt><trkpt lat="45.236349" lon="9.0347224"><ele>68.66666666666667</ele><time>2026-05-04T14:46:53.818Z</time></trkpt><trkpt lat="45.2362867" lon="9.0346518"><ele>68.33333333333333</ele><time>2026-05-04T14:46:56.809Z</time></trkpt><trkpt lat="45.2362159" lon="9.0346047"><ele>68.0</ele><time>2026-05-04T14:46:59.812Z</time></trkpt><trkpt lat="45.2361161" lon="9.0345554"><ele>67.66666666666666</ele><time>2026-05-04T14:47:02.811Z</time></trkpt><trkpt lat="45.2360585" lon="9.0345104"><ele>67.33333333333333</ele><time>2026-05-04T14:47:04.808Z</time></trkpt><trkpt lat="45.2359721" lon="9.0344337"><ele>67.0</ele><time>2026-05-04T14:47:06.815Z</time></trkpt><trkpt lat="45.2358653" lon="9.0343542"><ele>67.0</ele><time>2026-05-04T14:47:08.816Z</time></trkpt><trkpt lat="45.2357666" lon="9.0342699"><ele>67.0</ele><time>2026-05-04T14:47:10.807Z</time></trkpt><trkpt lat="45.2356679" lon="9.0341932"><ele>67.0</ele><time>2026-05-04T14:47:12.808Z</time></trkpt><trkpt lat="45.2355731" lon="9.0341086"><ele>67.0</ele><time>2026-05-04T14:47:14.812Z</time></trkpt><trkpt lat="45.2354822" lon="9.0340198"><ele>66.8</ele><time>2026-05-04T14:47:16.885Z</time></trkpt><trkpt lat="45.2353823" lon="9.0339351"><ele>66.6</ele><time>2026-05-04T14:47:18.819Z</time></trkpt><trkpt lat="45.2352765" lon="9.0338474"><ele>66.39999999999999</ele><time>2026-05-04T14:47:20.811Z</time></trkpt><trkpt lat="45.2352195" lon="9.0338059"><ele>66.2</ele><time>2026-05-04T14:47:21.811Z</time></trkpt><trkpt lat="45.2351071" lon="9.0337303"><ele>66.0</ele><time>2026-05-04T14:47:23.809Z</time></trkpt><trkpt lat="45.2350044" lon="9.0336496"><ele>66.0</ele><time>2026-05-04T14:47:25.812Z</time></trkpt><trkpt lat="45.2349004" lon="9.0335526"><ele>66.0</ele><time>2026-05-04T14:47:27.824Z</time></trkpt><trkpt lat="45.2348431" lon="9.03351"><ele>66.0</ele><time>2026-05-04T14:47:28.803Z</time></trkpt><trkpt lat="45.2347333" lon="9.0334335"><ele>66.0</ele><time>2026-05-04T14:47:30.812Z</time></trkpt><trkpt lat="45.2346303" lon="9.0333523"><ele>66.0</ele><time>2026-05-04T14:47:32.809Z</time></trkpt><trkpt lat="45.2345323" lon="9.0332785"><ele>66.2</ele><time>2026-05-04T14:47:34.809Z</time></trkpt><trkpt lat="45.2344345" lon="9.0332357"><ele>66.39999999999999</ele><time>2026-05-04T14:47:36.826Z</time></trkpt><trkpt lat="45.234333" lon="9.0332421"><ele>66.6</ele><time>2026-05-04T14:47:38.811Z</time></trkpt><trkpt lat="45.2342381" lon="9.0332585"><ele>66.8</ele><time>2026-05-04T14:47:40.811Z</time></trkpt><trkpt lat="45.2341535" lon="9.0333121"><ele>67.0</ele><time>2026-05-04T14:47:42.807Z</time></trkpt><trkpt lat="45.2340764" lon="9.0333949"><ele>66.2</ele><time>2026-05-04T14:47:44.815Z</time></trkpt><trkpt lat="45.233995" lon="9.0335079"><ele>65.4</ele><time>2026-05-04T14:47:46.808Z</time></trkpt><trkpt lat="45.233916" lon="9.0336211"><ele>64.6</ele><time>2026-05-04T14:47:48.812Z</time></trkpt><trkpt lat="45.2338299" lon="9.0337168"><ele>63.8</ele><time>2026-05-04T14:47:50.808Z</time></trkpt><trkpt lat="45.2337422" lon="9.033808"><ele>63.0</ele><time>2026-05-04T14:47:52.807Z</time></trkpt><trkpt lat="45.233651" lon="9.0338919"><ele>63.0</ele><time>2026-05-04T14:47:54.812Z</time></trkpt><trkpt lat="45.2335628" lon="9.0339824"><ele>63.0</ele><time>2026-05-04T14:47:56.814Z</time></trkpt><trkpt lat="45.2334767" lon="9.0340742"><ele>63.0</ele><time>2026-05-04T14:47:58.81Z</time></trkpt><trkpt lat="45.2333893" lon="9.0341742"><ele>63.0</ele><time>2026-05-04T14:48:00.81Z</time></trkpt><trkpt lat="45.2333227" lon="9.0342667"><ele>63.0</ele><time>2026-05-04T14:48:02.812Z</time></trkpt><trkpt lat="45.2332629" lon="9.0343633"><ele>63.4</ele><time>2026-05-04T14:48:04.809Z</time></trkpt><trkpt lat="45.2332051" lon="9.0344772"><ele>63.8</ele><time>2026-05-04T14:48:06.808Z</time></trkpt><trkpt lat="45.2331414" lon="9.034601"><ele>64.2</ele><time>2026-05-04T14:48:08.816Z</time></trkpt><trkpt lat="45.2330873" lon="9.0347166"><ele>64.6</ele><time>2026-05-04T14:48:10.807Z</time></trkpt><trkpt lat="45.2330415" lon="9.0348378"><ele>65.0</ele><time>2026-05-04T14:48:12.814Z</time></trkpt><trkpt lat="45.2329865" lon="9.0349559"><ele>65.0</ele><time>2026-05-04T14:48:14.806Z</time></trkpt><trkpt lat="45.2329408" lon="9.0350815"><ele>65.0</ele><time>2026-05-04T14:48:16.808Z</time></trkpt><trkpt lat="45.2329038" lon="9.0352262"><ele>65.0</ele><time>2026-05-04T14:48:18.813Z</time></trkpt><trkpt lat="45.2328714" lon="9.0353571"><ele>65.0</ele><time>2026-05-04T14:48:20.817Z</time></trkpt><trkpt lat="45.2328342" lon="9.0354867"><ele>65.0</ele><time>2026-05-04T14:48:22.804Z</time></trkpt><trkpt lat="45.2327936" lon="9.0356223"><ele>65.0</ele><time>2026-05-04T14:48:24.819Z</time></trkpt><trkpt lat="45.232743" lon="9.0357773"><ele>65.0</ele><time>2026-05-04T14:48:26.815Z</time></trkpt><trkpt lat="45.2327148" lon="9.0358583"><ele>65.0</ele><time>2026-05-04T14:48:27.815Z</time></trkpt><trkpt lat="45.2326513" lon="9.0360073"><ele>65.0</ele><time>2026-05-04T14:48:29.818Z</time></trkpt><trkpt lat="45.2325927" lon="9.0361399"><ele>65.0</ele><time>2026-05-04T14:48:31.807Z</time></trkpt><trkpt lat="45.2325293" lon="9.036251"><ele>65.0</ele><time>2026-05-04T14:48:33.815Z</time></trkpt><trkpt lat="45.2324819" lon="9.0363386"><ele>65.0</ele><time>2026-05-04T14:48:35.815Z</time></trkpt><trkpt lat="45.2324249" lon="9.0364336"><ele>65.0</ele><time>2026-05-04T14:48:37.82Z</time></trkpt><trkpt lat="45.2323786" lon="9.0365235"><ele>65.0</ele><time>2026-05-04T14:48:39.81Z</time></trkpt><trkpt lat="45.2323259" lon="9.0366329"><ele>65.0</ele><time>2026-05-04T14:48:41.806Z</time></trkpt><trkpt lat="45.2322828" lon="9.0367494"><ele>65.0</ele><time>2026-05-04T14:48:43.813Z</time></trkpt><trkpt lat="45.2322439" lon="9.0368683"><ele>65.0</ele><time>2026-05-04T14:48:45.813Z</time></trkpt><trkpt lat="45.232204" lon="9.036992"><ele>65.0</ele><time>2026-05-04T14:48:47.817Z</time></trkpt><trkpt lat="45.2321782" lon="9.0371156"><ele>65.0</ele><time>2026-05-04T14:48:49.813Z</time></trkpt><trkpt lat="45.2321577" lon="9.0372575"><ele>65.0</ele><time>2026-05-04T14:48:51.812Z</time></trkpt><trkpt lat="45.2321491" lon="9.0374005"><ele>65.0</ele><time>2026-05-04T14:48:53.809Z</time></trkpt><trkpt lat="45.2321514" lon="9.0375487"><ele>65.0</ele><time>2026-05-04T14:48:55.81Z</time></trkpt><trkpt lat="45.2321602" lon="9.0376881"><ele>65.0</ele><time>2026-05-04T14:48:57.82Z</time></trkpt><trkpt lat="45.2321846" lon="9.0378134"><ele>65.0</ele><time>2026-05-04T14:48:59.826Z</time></trkpt><trkpt lat="45.2322309" lon="9.0378977"><ele>65.0</ele><time>2026-05-04T14:49:01.809Z</time></trkpt><trkpt lat="45.232293" lon="9.0379855"><ele>65.0</ele><time>2026-05-04T14:49:03.81Z</time></trkpt><trkpt lat="45.2323464" lon="9.0380867"><ele>65.0</ele><time>2026-05-04T14:49:05.809Z</time></trkpt><trkpt lat="45.232373" lon="9.0382105"><ele>64.8</ele><time>2026-05-04T14:49:07.809Z</time></trkpt><trkpt lat="45.2323741" lon="9.0383473"><ele>64.6</ele><time>2026-05-04T14:49:09.805Z</time></trkpt><trkpt lat="45.2323464" lon="9.038482"><ele>64.4</ele><time>2026-05-04T14:49:11.812Z</time></trkpt><trkpt lat="45.2323187" lon="9.0386049"><ele>64.2</ele><time>2026-05-04T14:49:13.823Z</time></trkpt><trkpt lat="45.2322915" lon="9.0387525"><ele>64.0</ele><time>2026-05-04T14:49:15.803Z</time></trkpt><trkpt lat="45.232263" lon="9.0388954"><ele>63.6</ele><time>2026-05-04T14:49:17.81Z</time></trkpt><trkpt lat="45.2322442" lon="9.0390249"><ele>63.2</ele><time>2026-05-04T14:49:19.806Z</time></trkpt><trkpt lat="45.2322319" lon="9.0391615"><ele>62.800000000000004</ele><time>2026-05-04T14:49:21.811Z</time></trkpt><trkpt lat="45.2322165" lon="9.0392953"><ele>62.400000000000006</ele><time>2026-05-04T14:49:23.815Z</time></trkpt><trkpt lat="45.2321744" lon="9.0394165"><ele>62.0</ele><time>2026-05-04T14:49:25.814Z</time></trkpt><trkpt lat="45.2321151" lon="9.0395218"><ele>62.0</ele><time>2026-05-04T14:49:27.8Z</time></trkpt><trkpt lat="45.232041" lon="9.0396252"><ele>62.0</ele><time>2026-05-04T14:49:29.81Z</time></trkpt><trkpt lat="45.2319632" lon="9.0397031"><ele>62.0</ele><time>2026-05-04T14:49:31.807Z</time></trkpt><trkpt lat="45.2318836" lon="9.0397385"><ele>62.0</ele><time>2026-05-04T14:49:33.799Z</time></trkpt><trkpt lat="45.2317868" lon="9.0397169"><ele>62.0</ele><time>2026-05-04T14:49:35.811Z</time></trkpt><trkpt lat="45.2316918" lon="9.0396836"><ele>62.0</ele><time>2026-05-04T14:49:37.817Z</time></trkpt><trkpt lat="45.2316036" lon="9.0396358"><ele>62.0</ele><time>2026-05-04T14:49:39.818Z</time></trkpt><trkpt lat="45.2315171" lon="9.0395768"><ele>62.0</ele><time>2026-05-04T14:49:41.811Z</time></trkpt><trkpt lat="45.2314127" lon="9.0395455"><ele>62.0</ele><time>2026-05-04T14:49:43.811Z</time></trkpt><trkpt lat="45.2313111" lon="9.0395274"><ele>62.0</ele><time>2026-05-04T14:49:45.807Z</time></trkpt><trkpt lat="45.2312187" lon="9.0395429"><ele>62.16666666666667</ele><time>2026-05-04T14:49:47.808Z</time></trkpt><trkpt lat="45.2311311" lon="9.0395381"><ele>62.333333333333336</ele><time>2026-05-04T14:49:49.808Z</time></trkpt><trkpt lat="45.231044" lon="9.0395099"><ele>62.5</ele><time>2026-05-04T14:49:51.812Z</time></trkpt><trkpt lat="45.2309633" lon="9.0394805"><ele>62.66666666666667</ele><time>2026-05-04T14:49:53.815Z</time></trkpt><trkpt lat="45.2308815" lon="9.0394537"><ele>62.833333333333336</ele><time>2026-05-04T14:49:55.81Z</time></trkpt><trkpt lat="45.2308048" lon="9.0394301"><ele>63.0</ele><time>2026-05-04T14:49:58.814Z</time></trkpt><trkpt lat="45.2307427" lon="9.0394042"><ele>63.0</ele><time>2026-05-04T14:50:01.82Z</time></trkpt><trkpt lat="45.2306733" lon="9.0393781"><ele>63.0</ele><time>2026-05-04T14:50:03.807Z</time></trkpt><trkpt lat="45.2306004" lon="9.0393455"><ele>63.0</ele><time>2026-05-04T14:50:05.808Z</time></trkpt><trkpt lat="45.2305285" lon="9.0393299"><ele>63.0</ele><time>2026-05-04T14:50:07.814Z</time></trkpt><trkpt lat="45.2304541" lon="9.0393098"><ele>63.0</ele><time>2026-05-04T14:50:09.806Z</time></trkpt><trkpt lat="45.2303741" lon="9.0392892"><ele>63.0</ele><time>2026-05-04T14:50:11.813Z</time></trkpt><trkpt lat="45.2302953" lon="9.0392486"><ele>63.714285714285715</ele><time>2026-05-04T14:50:13.811Z</time></trkpt><trkpt lat="45.2302237" lon="9.0392277"><ele>64.42857142857143</ele><time>2026-05-04T14:50:15.813Z</time></trkpt><trkpt lat="45.230135" lon="9.0392026"><ele>65.14285714285714</ele><time>2026-05-04T14:50:18.812Z</time></trkpt><trkpt lat="45.2300721" lon="9.0391691"><ele>65.85714285714286</ele><time>2026-05-04T14:50:20.807Z</time></trkpt><trkpt lat="45.2300016" lon="9.0391651"><ele>66.57142857142857</ele><time>2026-05-04T14:50:22.893Z</time></trkpt><trkpt lat="45.2299487" lon="9.0392178"><ele>67.28571428571428</ele><time>2026-05-04T14:50:24.817Z</time></trkpt><trkpt lat="45.2299039" lon="9.0392845"><ele>68.0</ele><time>2026-05-04T14:50:26.809Z</time></trkpt><trkpt lat="45.2298444" lon="9.0393693"><ele>68.16666666666667</ele><time>2026-05-04T14:50:29.82Z</time></trkpt><trkpt lat="45.2297787" lon="9.0394471"><ele>68.33333333333334</ele><time>2026-05-04T14:50:32.804Z</time></trkpt><trkpt lat="45.2297135" lon="9.0395133"><ele>68.5</ele><time>2026-05-04T14:50:35.888Z</time></trkpt><trkpt lat="45.2296448" lon="9.0395658"><ele>68.66666666666667</ele><time>2026-05-04T14:50:38.812Z</time></trkpt><trkpt lat="45.22958" lon="9.0396283"><ele>68.83333333333333</ele><time>2026-05-04T14:50:40.808Z</time></trkpt><trkpt lat="45.2294975" lon="9.0396842"><ele>69.0</ele><time>2026-05-04T14:50:42.808Z</time></trkpt><trkpt lat="45.2294293" lon="9.0397278"><ele>69.0</ele><time>2026-05-04T14:50:44.813Z</time></trkpt><trkpt lat="45.2293577" lon="9.0397592"><ele>69.0</ele><time>2026-05-04T14:50:46.808Z</time></trkpt><trkpt lat="45.2292718" lon="9.0397078"><ele>69.0</ele><time>2026-05-04T14:50:49.81Z</time></trkpt><trkpt lat="45.2291975" lon="9.0396339"><ele>69.0</ele><time>2026-05-04T14:50:52.802Z</time></trkpt><trkpt lat="45.2291699" lon="9.0395358"><ele>69.0</ele><time>2026-05-04T14:50:54.806Z</time></trkpt><trkpt lat="45.229142" lon="9.0394468"><ele>69.0</ele><time>2026-05-04T14:50:56.805Z</time></trkpt><trkpt lat="45.2290932" lon="9.0393658"><ele>69.0</ele><time>2026-05-04T14:50:58.818Z</time></trkpt><trkpt lat="45.2290193" lon="9.0393243"><ele>69.0</ele><time>2026-05-04T14:51:00.805Z</time></trkpt><trkpt lat="45.2289416" lon="9.0392989"><ele>69.0</ele><time>2026-05-04T14:51:02.815Z</time></trkpt><trkpt lat="45.228855" lon="9.0392851"><ele>69.0</ele><time>2026-05-04T14:51:04.888Z</time></trkpt><trkpt lat="45.2287626" lon="9.0392753"><ele>69.0</ele><time>2026-05-04T14:51:06.82Z</time></trkpt><trkpt lat="45.2286841" lon="9.0392657"><ele>69.0</ele><time>2026-05-04T14:51:08.812Z</time></trkpt><trkpt lat="45.2286069" lon="9.0392472"><ele>69.0</ele><time>2026-05-04T14:51:10.808Z</time></trkpt><trkpt lat="45.2285147" lon="9.0392097"><ele>69.0</ele><time>2026-05-04T14:51:12.813Z</time></trkpt><trkpt lat="45.2284263" lon="9.0391832"><ele>69.0</ele><time>2026-05-04T14:51:14.885Z</time></trkpt><trkpt lat="45.2283407" lon="9.0391693"><ele>69.0</ele><time>2026-05-04T14:51:16.889Z</time></trkpt><trkpt lat="45.2282534" lon="9.0391484"><ele>69.0</ele><time>2026-05-04T14:51:18.808Z</time></trkpt><trkpt lat="45.2281759" lon="9.0391207"><ele>69.0</ele><time>2026-05-04T14:51:20.803Z</time></trkpt><trkpt lat="45.2280956" lon="9.0390953"><ele>69.0</ele><time>2026-05-04T14:51:22.807Z</time></trkpt><trkpt lat="45.2280127" lon="9.0390645"><ele>69.0</ele><time>2026-05-04T14:51:24.815Z</time></trkpt><trkpt lat="45.2279326" lon="9.0390452"><ele>69.0</ele><time>2026-05-04T14:51:26.812Z</time></trkpt><trkpt lat="45.2278495" lon="9.0390354"><ele>69.0</ele><time>2026-05-04T14:51:28.817Z</time></trkpt><trkpt lat="45.2277588" lon="9.0390067"><ele>69.0</ele><time>2026-05-04T14:51:30.886Z</time></trkpt><trkpt lat="45.2276715" lon="9.0389833"><ele>69.0</ele><time>2026-05-04T14:51:32.812Z</time></trkpt><trkpt lat="45.2275876" lon="9.0389727"><ele>69.0</ele><time>2026-05-04T14:51:34.818Z</time></trkpt><trkpt lat="45.2274976" lon="9.0389591"><ele>69.0</ele><time>2026-05-04T14:51:36.811Z</time></trkpt><trkpt lat="45.2274162" lon="9.0389481"><ele>69.0</ele><time>2026-05-04T14:51:38.807Z</time></trkpt><trkpt lat="45.227343" lon="9.0389278"><ele>69.0</ele><time>2026-05-04T14:51:40.814Z</time></trkpt><trkpt lat="45.227281" lon="9.0388804"><ele>69.0</ele><time>2026-05-04T14:51:42.898Z</time></trkpt><trkpt lat="45.2272563" lon="9.0387893"><ele>69.0</ele><time>2026-05-04T14:51:44.811Z</time></trkpt><trkpt lat="45.2272828" lon="9.0386802"><ele>69.0</ele><time>2026-05-04T14:51:46.801Z</time></trkpt><trkpt lat="45.2273006" lon="9.0385493"><ele>69.0</ele><time>2026-05-04T14:51:49.811Z</time></trkpt><trkpt lat="45.2273214" lon="9.0384628"><ele>69.0</ele><time>2026-05-04T14:51:51.816Z</time></trkpt><trkpt lat="45.2273388" lon="9.038361"><ele>69.0</ele><time>2026-05-04T14:51:53.812Z</time></trkpt><trkpt lat="45.2273406" lon="9.0382451"><ele>69.0</ele><time>2026-05-04T14:51:55.901Z</time></trkpt><trkpt lat="45.2273172" lon="9.0381537"><ele>69.0</ele><time>2026-05-04T14:51:57.814Z</time></trkpt><trkpt lat="45.2272593" lon="9.0380982"><ele>68.5</ele><time>2026-05-04T14:51:59.81Z</time></trkpt><trkpt lat="45.227211" lon="9.038032"><ele>68.0</ele><time>2026-05-04T14:52:01.809Z</time></trkpt><trkpt lat="45.2271694" lon="9.0379485"><ele>67.5</ele><time>2026-05-04T14:52:03.804Z</time></trkpt><trkpt lat="45.2271417" lon="9.0378391"><ele>67.0</ele><time>2026-05-04T14:52:05.807Z</time></trkpt><trkpt lat="45.227118" lon="9.0377403"><ele>66.5</ele><time>2026-05-04T14:52:07.813Z</time></trkpt><trkpt lat="45.2270674" lon="9.0376475"><ele>66.0</ele><time>2026-05-04T14:52:09.807Z</time></trkpt><trkpt lat="45.2270096" lon="9.0375632"><ele>66.0</ele><time>2026-05-04T14:52:11.805Z</time></trkpt><trkpt lat="45.2269591" lon="9.0374782"><ele>66.0</ele><time>2026-05-04T14:52:13.809Z</time></trkpt><trkpt lat="45.2269161" lon="9.0373599"><ele>66.0</ele><time>2026-05-04T14:52:15.815Z</time></trkpt><trkpt lat="45.2268718" lon="9.0372355"><ele>66.0</ele><time>2026-05-04T14:52:17.817Z</time></trkpt><trkpt lat="45.2268262" lon="9.0371281"><ele>66.0</ele><time>2026-05-04T14:52:19.808Z</time></trkpt><trkpt lat="45.2267965" lon="9.0370461"><ele>66.0</ele><time>2026-05-04T14:52:21.819Z</time></trkpt><trkpt lat="45.2267667" lon="9.0369476"><ele>65.5</ele><time>2026-05-04T14:52:23.806Z</time></trkpt><trkpt lat="45.226737" lon="9.0368405"><ele>65.0</ele><time>2026-05-04T14:52:25.813Z</time></trkpt><trkpt lat="45.2267275" lon="9.0367029"><ele>64.5</ele><time>2026-05-04T14:52:27.808Z</time></trkpt><trkpt lat="45.2267554" lon="9.0365849"><ele>64.0</ele><time>2026-05-04T14:52:29.807Z</time></trkpt><trkpt lat="45.2267937" lon="9.0364896"><ele>63.5</ele><time>2026-05-04T14:52:31.812Z</time></trkpt><trkpt lat="45.2268372" lon="9.0363891"><ele>63.0</ele><time>2026-05-04T14:52:33.821Z</time></trkpt><trkpt lat="45.226881" lon="9.036294"><ele>62.833333333333336</ele><time>2026-05-04T14:52:35.806Z</time></trkpt><trkpt lat="45.2269328" lon="9.0361962"><ele>62.66666666666667</ele><time>2026-05-04T14:52:37.819Z</time></trkpt><trkpt lat="45.2269725" lon="9.0361028"><ele>62.5</ele><time>2026-05-04T14:52:39.82Z</time></trkpt><trkpt lat="45.2270002" lon="9.0359981"><ele>62.333333333333336</ele><time>2026-05-04T14:52:41.815Z</time></trkpt><trkpt lat="45.2270224" lon="9.0358852"><ele>62.16666666666667</ele><time>2026-05-04T14:52:43.805Z</time></trkpt><trkpt lat="45.227049" lon="9.0357792"><ele>62.0</ele><time>2026-05-04T14:52:45.804Z</time></trkpt><trkpt lat="45.2270751" lon="9.0356386"><ele>61.833333333333336</ele><time>2026-05-04T14:52:47.811Z</time></trkpt><trkpt lat="45.2270896" lon="9.0355137"><ele>61.66666666666667</ele><time>2026-05-04T14:52:49.821Z</time></trkpt><trkpt lat="45.2271096" lon="9.0354199"><ele>61.5</ele><time>2026-05-04T14:52:51.808Z</time></trkpt><trkpt lat="45.2271526" lon="9.0353335"><ele>61.33333333333333</ele><time>2026-05-04T14:52:53.816Z</time></trkpt><trkpt lat="45.2272064" lon="9.0352556"><ele>61.166666666666664</ele><time>2026-05-04T14:52:55.804Z</time></trkpt><trkpt lat="45.2272656" lon="9.0351843"><ele>61.0</ele><time>2026-05-04T14:52:57.809Z</time></trkpt><trkpt lat="45.2273478" lon="9.0350941"><ele>61.166666666666664</ele><time>2026-05-04T14:52:59.816Z</time></trkpt><trkpt lat="45.2274195" lon="9.0350218"><ele>61.33333333333333</ele><time>2026-05-04T14:53:01.807Z</time></trkpt><trkpt lat="45.227513" lon="9.0349673"><ele>61.5</ele><time>2026-05-04T14:53:03.816Z</time></trkpt><trkpt lat="45.2275902" lon="9.034915"><ele>61.66666666666667</ele><time>2026-05-04T14:53:05.809Z</time></trkpt><trkpt lat="45.2276726" lon="9.0348838"><ele>61.833333333333336</ele><time>2026-05-04T14:53:07.805Z</time></trkpt><trkpt lat="45.2277558" lon="9.0348642"><ele>62.0</ele><time>2026-05-04T14:53:09.802Z</time></trkpt><trkpt lat="45.2278319" lon="9.0348196"><ele>62.00000000000001</ele><time>2026-05-04T14:53:11.817Z</time></trkpt><trkpt lat="45.2278959" lon="9.0347734"><ele>62.0</ele><time>2026-05-04T14:53:13.819Z</time></trkpt><trkpt lat="45.2279647" lon="9.0347041"><ele>62.0</ele><time>2026-05-04T14:53:15.815Z</time></trkpt><trkpt lat="45.2280246" lon="9.0346388"><ele>62.0</ele><time>2026-05-04T14:53:17.804Z</time></trkpt><trkpt lat="45.2280887" lon="9.0345606"><ele>62.00000000000001</ele><time>2026-05-04T14:53:19.815Z</time></trkpt><trkpt lat="45.2281488" lon="9.0344785"><ele>62.0</ele><time>2026-05-04T14:53:21.818Z</time></trkpt><trkpt lat="45.2282064" lon="9.0344148"><ele>62.333333333333336</ele><time>2026-05-04T14:53:23.805Z</time></trkpt><trkpt lat="45.2282622" lon="9.0343423"><ele>62.66666666666667</ele><time>2026-05-04T14:53:25.812Z</time></trkpt><trkpt lat="45.2283176" lon="9.0342596"><ele>63.0</ele><time>2026-05-04T14:53:27.817Z</time></trkpt><trkpt lat="45.2283822" lon="9.0341818"><ele>63.33333333333333</ele><time>2026-05-04T14:53:29.812Z</time></trkpt><trkpt lat="45.2284352" lon="9.03409"><ele>63.666666666666664</ele><time>2026-05-04T14:53:31.805Z</time></trkpt><trkpt lat="45.2285001" lon="9.0340043"><ele>64.0</ele><time>2026-05-04T14:53:33.813Z</time></trkpt><trkpt lat="45.2285603" lon="9.0339333"><ele>64.16666666666666</ele><time>2026-05-04T14:53:35.811Z</time></trkpt><trkpt lat="45.2286109" lon="9.0338607"><ele>64.33333333333333</ele><time>2026-05-04T14:53:37.813Z</time></trkpt><trkpt lat="45.2286725" lon="9.0338161"><ele>64.5</ele><time>2026-05-04T14:53:39.901Z</time></trkpt><trkpt lat="45.2287362" lon="9.0337528"><ele>64.66666666666667</ele><time>2026-05-04T14:53:41.809Z</time></trkpt><trkpt lat="45.2287925" lon="9.0336538"><ele>64.83333333333334</ele><time>2026-05-04T14:53:43.8Z</time></trkpt><trkpt lat="45.22886" lon="9.0335615"><ele>65.0</ele><time>2026-05-04T14:53:45.813Z</time></trkpt><trkpt lat="45.2289085" lon="9.0334629"><ele>65.0</ele><time>2026-05-04T14:53:47.814Z</time></trkpt><trkpt lat="45.228962" lon="9.0333687"><ele>65.0</ele><time>2026-05-04T14:53:49.811Z</time></trkpt><trkpt lat="45.2290255" lon="9.0332691"><ele>65.0</ele><time>2026-05-04T14:53:51.807Z</time></trkpt><trkpt lat="45.2290788" lon="9.0331828"><ele>65.0</ele><time>2026-05-04T14:53:53.81Z</time></trkpt><trkpt lat="45.2291516" lon="9.0331182"><ele>65.0</ele><time>2026-05-04T14:53:55.811Z</time></trkpt><trkpt lat="45.2292259" lon="9.0330707"><ele>65.0</ele><time>2026-05-04T14:53:57.813Z</time></trkpt><trkpt lat="45.2292818" lon="9.0330034"><ele>65.0</ele><time>2026-05-04T14:53:59.801Z</time></trkpt><trkpt lat="45.2293382" lon="9.0329277"><ele>65.0</ele><time>2026-05-04T14:54:01.811Z</time></trkpt><trkpt lat="45.2293879" lon="9.0328242"><ele>65.0</ele><time>2026-05-04T14:54:03.806Z</time></trkpt><trkpt lat="45.2294453" lon="9.0327281"><ele>65.0</ele><time>2026-05-04T14:54:05.807Z</time></trkpt><trkpt lat="45.2295085" lon="9.0326436"><ele>65.0</ele><time>2026-05-04T14:54:07.805Z</time></trkpt><trkpt lat="45.2295667" lon="9.0325663"><ele>65.0</ele><time>2026-05-04T14:54:09.798Z</time></trkpt><trkpt lat="45.229632" lon="9.0324774"><ele>64.83333333333334</ele><time>2026-05-04T14:54:11.81Z</time></trkpt><trkpt lat="45.2296967" lon="9.0323986"><ele>64.66666666666667</ele><time>2026-05-04T14:54:13.807Z</time></trkpt><trkpt lat="45.2297738" lon="9.0323403"><ele>64.5</ele><time>2026-05-04T14:54:15.808Z</time></trkpt><trkpt lat="45.22986" lon="9.0323085"><ele>64.33333333333333</ele><time>2026-05-04T14:54:17.802Z</time></trkpt><trkpt lat="45.2299573" lon="9.0322798"><ele>64.16666666666666</ele><time>2026-05-04T14:54:19.807Z</time></trkpt><trkpt lat="45.2300358" lon="9.0322343"><ele>64.0</ele><time>2026-05-04T14:54:21.809Z</time></trkpt><trkpt lat="45.2301157" lon="9.032186"><ele>64.33333333333333</ele><time>2026-05-04T14:54:23.804Z</time></trkpt><trkpt lat="45.2302004" lon="9.0321509"><ele>64.66666666666666</ele><time>2026-05-04T14:54:25.815Z</time></trkpt><trkpt lat="45.2302868" lon="9.03211"><ele>65.0</ele><time>2026-05-04T14:54:27.8Z</time></trkpt><trkpt lat="45.2303655" lon="9.0320549"><ele>65.33333333333333</ele><time>2026-05-04T14:54:29.81Z</time></trkpt><trkpt lat="45.2304445" lon="9.031996"><ele>65.66666666666667</ele><time>2026-05-04T14:54:31.81Z</time></trkpt><trkpt lat="45.2305164" lon="9.0319329"><ele>66.0</ele><time>2026-05-04T14:54:33.81Z</time></trkpt><trkpt lat="45.2305825" lon="9.03187"><ele>66.16666666666667</ele><time>2026-05-04T14:54:35.816Z</time></trkpt><trkpt lat="45.2306622" lon="9.031826"><ele>66.33333333333333</ele><time>2026-05-04T14:54:37.813Z</time></trkpt><trkpt lat="45.2307371" lon="9.0317768"><ele>66.5</ele><time>2026-05-04T14:54:39.815Z</time></trkpt><trkpt lat="45.2307963" lon="9.0317079"><ele>66.66666666666666</ele><time>2026-05-04T14:54:41.817Z</time></trkpt><trkpt lat="45.2308311" lon="9.0316237"><ele>66.83333333333333</ele><time>2026-05-04T14:54:43.805Z</time></trkpt><trkpt lat="45.2308412" lon="9.0314956"><ele>67.0</ele><time>2026-05-04T14:54:45.812Z</time></trkpt><trkpt lat="45.2308726" lon="9.0314038"><ele>67.0</ele><time>2026-05-04T14:54:47.807Z</time></trkpt><trkpt lat="45.2309089" lon="9.0313127"><ele>67.0</ele><time>2026-05-04T14:54:49.804Z</time></trkpt><trkpt lat="45.2309577" lon="9.0312288"><ele>67.0</ele><time>2026-05-04T14:54:52.809Z</time></trkpt><trkpt lat="45.2310134" lon="9.0311625"><ele>67.0</ele><time>2026-05-04T14:54:55.805Z</time></trkpt><trkpt lat="45.231062" lon="9.0310947"><ele>67.0</ele><time>2026-05-04T14:54:58.807Z</time></trkpt><trkpt lat="45.2311112" lon="9.0310094"><ele>67.0</ele><time>2026-05-04T14:55:02.813Z</time></trkpt><trkpt lat="45.2311649" lon="9.0309341"><ele>67.0</ele><time>2026-05-04T14:55:06.804Z</time></trkpt><trkpt lat="45.2312262" lon="9.0308758"><ele>67.0</ele><time>2026-05-04T14:55:11.804Z</time></trkpt><trkpt lat="45.2312954" lon="9.0308792"><ele>67.0</ele><time>2026-05-04T14:55:16.813Z</time></trkpt><trkpt lat="45.2313703" lon="9.0309076"><ele>67.0</ele><time>2026-05-04T14:55:54.799Z</time></trkpt><trkpt lat="45.2314504" lon="9.0309369"><ele>67.0</ele><time>2026-05-04T14:55:57.814Z</time></trkpt><trkpt lat="45.231512" lon="9.0309667"><ele>67.0</ele><time>2026-05-04T14:55:59.809Z</time></trkpt><trkpt lat="45.2315857" lon="9.0309898"><ele>67.0</ele><time>2026-05-04T14:56:01.877Z</time></trkpt><trkpt lat="45.231665" lon="9.03101"><ele>66.66666666666666</ele><time>2026-05-04T14:56:03.818Z</time></trkpt><trkpt lat="45.2317487" lon="9.0310364"><ele>66.33333333333333</ele><time>2026-05-04T14:56:05.807Z</time></trkpt><trkpt lat="45.2318271" lon="9.0310532"><ele>66.0</ele><time>2026-05-04T14:56:07.804Z</time></trkpt><trkpt lat="45.2319104" lon="9.0310763"><ele>65.66666666666667</ele><time>2026-05-04T14:56:09.811Z</time></trkpt><trkpt lat="45.2319963" lon="9.0311055"><ele>65.33333333333334</ele><time>2026-05-04T14:56:11.815Z</time></trkpt><trkpt lat="45.2320833" lon="9.031144"><ele>65.0</ele><time>2026-05-04T14:56:13.885Z</time></trkpt><trkpt lat="45.232174" lon="9.0311888"><ele>65.0</ele><time>2026-05-04T14:56:15.812Z</time></trkpt><trkpt lat="45.2322622" lon="9.0312402"><ele>65.0</ele><time>2026-05-04T14:56:17.809Z</time></trkpt><trkpt lat="45.2323454" lon="9.0313064"><ele>65.0</ele><time>2026-05-04T14:56:19.815Z</time></trkpt><trkpt lat="45.2324259" lon="9.0313644"><ele>65.0</ele><time>2026-05-04T14:56:21.823Z</time></trkpt><trkpt lat="45.2325103" lon="9.0314288"><ele>65.0</ele><time>2026-05-04T14:56:23.803Z</time></trkpt><trkpt lat="45.232598" lon="9.0315022"><ele>65.0</ele><time>2026-05-04T14:56:25.817Z</time></trkpt><trkpt lat="45.2326837" lon="9.0315822"><ele>65.0</ele><time>2026-05-04T14:56:27.803Z</time></trkpt><trkpt lat="45.2327676" lon="9.0316534"><ele>65.0</ele><time>2026-05-04T14:56:29.811Z</time></trkpt><trkpt lat="45.232845" lon="9.0317289"><ele>65.0</ele><time>2026-05-04T14:56:31.815Z</time></trkpt><trkpt lat="45.232936" lon="9.0317982"><ele>65.0</ele><time>2026-05-04T14:56:33.81Z</time></trkpt><trkpt lat="45.233028" lon="9.0318734"><ele>65.0</ele><time>2026-05-04T14:56:35.812Z</time></trkpt><trkpt lat="45.2331202" lon="9.0319504"><ele>65.0</ele><time>2026-05-04T14:56:37.809Z</time></trkpt><trkpt lat="45.2332059" lon="9.0320251"><ele>65.0</ele><time>2026-05-04T14:56:39.805Z</time></trkpt><trkpt lat="45.2332881" lon="9.032098"><ele>65.0</ele><time>2026-05-04T14:56:41.804Z</time></trkpt><trkpt lat="45.2333784" lon="9.032175"><ele>65.0</ele><time>2026-05-04T14:56:43.809Z</time></trkpt><trkpt lat="45.2334667" lon="9.0322678"><ele>65.0</ele><time>2026-05-04T14:56:45.806Z</time></trkpt><trkpt lat="45.23356" lon="9.0323409"><ele>65.0</ele><time>2026-05-04T14:56:47.809Z</time></trkpt><trkpt lat="45.2336507" lon="9.0324221"><ele>65.0</ele><time>2026-05-04T14:56:49.815Z</time></trkpt><trkpt lat="45.2337502" lon="9.0325003"><ele>65.0</ele><time>2026-05-04T14:56:51.803Z</time></trkpt><trkpt lat="45.2338377" lon="9.0325777"><ele>65.0</ele><time>2026-05-04T14:56:53.813Z</time></trkpt><trkpt lat="45.2339284" lon="9.0326559"><ele>65.4</ele><time>2026-05-04T14:56:55.827Z</time></trkpt><trkpt lat="45.234018" lon="9.0327262"><ele>65.8</ele><time>2026-05-04T14:56:57.805Z</time></trkpt><trkpt lat="45.2341073" lon="9.0328065"><ele>66.2</ele><time>2026-05-04T14:56:59.803Z</time></trkpt><trkpt lat="45.2341957" lon="9.0328898"><ele>66.6</ele><time>2026-05-04T14:57:01.81Z</time></trkpt><trkpt lat="45.2342841" lon="9.0329775"><ele>67.0</ele><time>2026-05-04T14:57:03.812Z</time></trkpt><trkpt lat="45.234371" lon="9.0330641"><ele>67.0</ele><time>2026-05-04T14:57:05.814Z</time></trkpt><trkpt lat="45.2344615" lon="9.0331574"><ele>67.0</ele><time>2026-05-04T14:57:07.809Z</time></trkpt><trkpt lat="45.2345517" lon="9.0332351"><ele>67.0</ele><time>2026-05-04T14:57:09.804Z</time></trkpt><trkpt lat="45.2346398" lon="9.0333107"><ele>67.0</ele><time>2026-05-04T14:57:11.808Z</time></trkpt><trkpt lat="45.2347308" lon="9.0333785"><ele>67.0</ele><time>2026-05-04T14:57:13.804Z</time></trkpt><trkpt lat="45.2348181" lon="9.033453"><ele>66.8</ele><time>2026-05-04T14:57:15.806Z</time></trkpt><trkpt lat="45.2349052" lon="9.0335383"><ele>66.6</ele><time>2026-05-04T14:57:17.816Z</time></trkpt><trkpt lat="45.2349995" lon="9.0336069"><ele>66.39999999999999</ele><time>2026-05-04T14:57:19.823Z</time></trkpt><trkpt lat="45.2350898" lon="9.0336836"><ele>66.2</ele><time>2026-05-04T14:57:21.807Z</time></trkpt><trkpt lat="45.2351795" lon="9.0337435"><ele>66.0</ele><time>2026-05-04T14:57:23.81Z</time></trkpt><trkpt lat="45.2352722" lon="9.0337905"><ele>66.0</ele><time>2026-05-04T14:57:25.817Z</time></trkpt><trkpt lat="45.2353646" lon="9.0338531"><ele>66.0</ele><time>2026-05-04T14:57:27.816Z</time></trkpt><trkpt lat="45.2354554" lon="9.0339237"><ele>66.0</ele><time>2026-05-04T14:57:29.81Z</time></trkpt><trkpt lat="45.2355375" lon="9.0339955"><ele>66.0</ele><time>2026-05-04T14:57:31.813Z</time></trkpt><trkpt lat="45.2356184" lon="9.034067"><ele>66.0</ele><time>2026-05-04T14:57:33.809Z</time></trkpt><trkpt lat="45.2356977" lon="9.0341459"><ele>66.2</ele><time>2026-05-04T14:57:35.811Z</time></trkpt><trkpt lat="45.2357687" lon="9.0342159"><ele>66.39999999999999</ele><time>2026-05-04T14:57:37.815Z</time></trkpt><trkpt lat="45.2358484" lon="9.0342897"><ele>66.6</ele><time>2026-05-04T14:57:39.805Z</time></trkpt><trkpt lat="45.2359352" lon="9.0343654"><ele>66.8</ele><time>2026-05-04T14:57:41.809Z</time></trkpt><trkpt lat="45.236017" lon="9.0344333"><ele>67.0</ele><time>2026-05-04T14:57:43.812Z</time></trkpt><trkpt lat="45.2360962" lon="9.0345128"><ele>67.0</ele><time>2026-05-04T14:57:45.805Z</time></trkpt><trkpt lat="45.2361778" lon="9.0345946"><ele>67.0</ele><time>2026-05-04T14:57:47.812Z</time></trkpt><trkpt lat="45.236255" lon="9.0346632"><ele>67.0</ele><time>2026-05-04T14:57:49.807Z</time></trkpt><trkpt lat="45.2363384" lon="9.0347298"><ele>67.0</ele><time>2026-05-04T14:57:51.808Z</time></trkpt><trkpt lat="45.2364414" lon="9.0347822"><ele>67.0</ele><time>2026-05-04T14:57:53.809Z</time></trkpt><trkpt lat="45.2365428" lon="9.0347904"><ele>67.33333333333333</ele><time>2026-05-04T14:57:55.81Z</time></trkpt><trkpt lat="45.2366189" lon="9.0347186"><ele>67.66666666666666</ele><time>2026-05-04T14:57:58.803Z</time></trkpt><trkpt lat="45.2366384" lon="9.0346256"><ele>68.0</ele><time>2026-05-04T14:58:02.801Z</time></trkpt><trkpt lat="45.2366754" lon="9.0345468"><ele>68.33333333333333</ele><time>2026-05-04T14:58:05.803Z</time></trkpt><trkpt lat="45.2367502" lon="9.0344061"><ele>68.66666666666667</ele><time>2026-05-04T14:58:08.809Z</time></trkpt><trkpt lat="45.23677" lon="9.0343177"><ele>69.0</ele><time>2026-05-04T14:58:09.799Z</time></trkpt><trkpt lat="45.2368052" lon="9.0341832"><ele>69.0</ele><time>2026-05-04T14:58:11.802Z</time></trkpt><trkpt lat="45.2369133" lon="9.0341224"><ele>69.0</ele><time>2026-05-04T14:58:13.808Z</time></trkpt><trkpt lat="45.2370451" lon="9.0341357"><ele>69.0</ele><time>2026-05-04T14:58:15.804Z</time></trkpt><trkpt lat="45.2371458" lon="9.0341929"><ele>69.0</ele><time>2026-05-04T14:58:17.809Z</time></trkpt><trkpt lat="45.2372434" lon="9.0342673"><ele>69.0</ele><time>2026-05-04T14:58:19.834Z</time></trkpt><trkpt lat="45.2373296" lon="9.0343279"><ele>69.0</ele><time>2026-05-04T14:58:21.805Z</time></trkpt><trkpt lat="45.2374093" lon="9.0343703"><ele>69.0</ele><time>2026-05-04T14:58:23.807Z</time></trkpt><trkpt lat="45.237479" lon="9.0343959"><ele>69.0</ele><time>2026-05-04T14:58:25.818Z</time></trkpt><trkpt lat="45.2375523" lon="9.0344122"><ele>69.0</ele><time>2026-05-04T14:58:27.811Z</time></trkpt><trkpt lat="45.2376242" lon="9.0344225"><ele>69.0</ele><time>2026-05-04T14:58:29.815Z</time></trkpt><trkpt lat="45.2377044" lon="9.0344435"><ele>69.0</ele><time>2026-05-04T14:58:31.808Z</time></trkpt><trkpt lat="45.2377825" lon="9.0344703"><ele>69.0</ele><time>2026-05-04T14:58:33.807Z</time></trkpt><trkpt lat="45.237856" lon="9.0344982"><ele>69.0</ele><time>2026-05-04T14:58:35.81Z</time></trkpt><trkpt lat="45.2379263" lon="9.0345296"><ele>69.0</ele><time>2026-05-04T14:58:37.805Z</time></trkpt><trkpt lat="45.2380023" lon="9.0345579"><ele>69.0</ele><time>2026-05-04T14:58:39.808Z</time></trkpt><trkpt lat="45.238083" lon="9.0345941"><ele>69.0</ele><time>2026-05-04T14:58:41.828Z</time></trkpt><trkpt lat="45.2381666" lon="9.0346271"><ele>69.57142857142857</ele><time>2026-05-04T14:58:43.802Z</time></trkpt><trkpt lat="45.2382332" lon="9.0346634"><ele>70.14285714285715</ele><time>2026-05-04T14:58:45.8Z</time></trkpt><trkpt lat="45.2383053" lon="9.0346855"><ele>70.71428571428572</ele><time>2026-05-04T14:58:47.811Z</time></trkpt><trkpt lat="45.238375" lon="9.0347232"><ele>71.28571428571429</ele><time>2026-05-04T14:58:49.81Z</time></trkpt><trkpt lat="45.2384395" lon="9.0347539"><ele>71.85714285714286</ele><time>2026-05-04T14:58:51.814Z</time></trkpt><trkpt lat="45.2385073" lon="9.0347285"><ele>72.42857142857143</ele><time>2026-05-04T14:58:55.818Z</time></trkpt><trkpt lat="45.2385602" lon="9.0346782"><ele>73.0</ele><time>2026-05-04T14:58:59.801Z</time></trkpt><trkpt lat="45.2385501" lon="9.034573"><ele>73.0</ele><time>2026-05-04T14:59:03.803Z</time></trkpt><trkpt lat="45.2385391" lon="9.0344701"><ele>73.0</ele><time>2026-05-04T14:59:07.804Z</time></trkpt><trkpt lat="45.2385417" lon="9.0343671"><ele>73.0</ele><time>2026-05-04T14:59:10.805Z</time></trkpt><trkpt lat="45.2385498" lon="9.0342769"><ele>73.0</ele><time>2026-05-04T14:59:14.802Z</time></trkpt><trkpt lat="45.2385574" lon="9.0341839"><ele>73.0</ele><time>2026-05-04T14:59:19.81Z</time></trkpt><trkpt lat="45.2385696" lon="9.0340923"><ele>73.0</ele><time>2026-05-04T14:59:23.806Z</time></trkpt><trkpt lat="45.2385858" lon="9.0339795"><ele>73.0</ele><time>2026-05-04T14:59:27.806Z</time></trkpt><trkpt lat="45.238586" lon="9.0338837"><ele>73.0</ele><time>2026-05-04T14:59:30.806Z</time></trkpt><trkpt lat="45.2385705" lon="9.0337768"><ele>73.0</ele><time>2026-05-04T14:59:33.804Z</time></trkpt><trkpt lat="45.238541" lon="9.0336499"><ele>73.0</ele><time>2026-05-04T14:59:36.81Z</time></trkpt><trkpt lat="45.2385071" lon="9.0335083"><ele>73.0</ele><time>2026-05-04T14:59:38.885Z</time></trkpt><trkpt lat="45.2384729" lon="9.0333646"><ele>73.0</ele><time>2026-05-04T14:59:40.811Z</time></trkpt><trkpt lat="45.2384548" lon="9.0332285"><ele>73.0</ele><time>2026-05-04T14:59:42.82Z</time></trkpt><trkpt lat="45.2384269" lon="9.0330962"><ele>73.0</ele><time>2026-05-04T14:59:44.807Z</time></trkpt><trkpt lat="45.2384094" lon="9.0329585"><ele>73.0</ele><time>2026-05-04T14:59:46.808Z</time></trkpt><trkpt lat="45.2383821" lon="9.0328248"><ele>73.0</ele><time>2026-05-04T14:59:48.818Z</time></trkpt><trkpt lat="45.2383532" lon="9.0326959"><ele>73.0</ele><time>2026-05-04T14:59:50.892Z</time></trkpt><trkpt lat="45.2383248" lon="9.0325606"><ele>73.33333333333333</ele><time>2026-05-04T14:59:52.815Z</time></trkpt><trkpt lat="45.2383134" lon="9.0324241"><ele>73.66666666666666</ele><time>2026-05-04T14:59:54.811Z</time></trkpt><trkpt lat="45.2383012" lon="9.0323163"><ele>74.0</ele><time>2026-05-04T14:59:56.802Z</time></trkpt><trkpt lat="45.2382766" lon="9.0321804"><ele>74.33333333333333</ele><time>2026-05-04T14:59:59.815Z</time></trkpt><trkpt lat="45.2382562" lon="9.0320704"><ele>74.66666666666667</ele><time>2026-05-04T15:00:01.807Z</time></trkpt><trkpt lat="45.2382337" lon="9.0319706"><ele>75.0</ele><time>2026-05-04T15:00:03.799Z</time></trkpt><trkpt lat="45.2382152" lon="9.0318594"><ele>75.0</ele><time>2026-05-04T15:00:05.795Z</time></trkpt><trkpt lat="45.2381948" lon="9.0317323"><ele>75.0</ele><time>2026-05-04T15:00:07.807Z</time></trkpt><trkpt lat="45.2381737" lon="9.0315976"><ele>75.0</ele><time>2026-05-04T15:00:09.803Z</time></trkpt><trkpt lat="45.2381553" lon="9.0314802"><ele>75.0</ele><time>2026-05-04T15:00:11.808Z</time></trkpt><trkpt lat="45.2381427" lon="9.0313725"><ele>75.0</ele><time>2026-05-04T15:00:13.888Z</time></trkpt><trkpt lat="45.2381225" lon="9.031249"><ele>75.0</ele><time>2026-05-04T15:00:16.809Z</time></trkpt><trkpt lat="45.2381069" lon="9.0311547"><ele>73.83333333333333</ele><time>2026-05-04T15:00:18.804Z</time></trkpt><trkpt lat="45.2380943" lon="9.0310643"><ele>72.66666666666667</ele><time>2026-05-04T15:00:20.817Z</time></trkpt><trkpt lat="45.2380585" lon="9.0309549"><ele>71.5</ele><time>2026-05-04T15:00:23.807Z</time></trkpt><trkpt lat="45.2380031" lon="9.0308874"><ele>70.33333333333334</ele><time>2026-05-04T15:00:26.813Z</time></trkpt><trkpt lat="45.2379011" lon="9.0308538"><ele>69.16666666666667</ele><time>2026-05-04T15:00:29.806Z</time></trkpt><trkpt lat="45.2377998" lon="9.0308385"><ele>68.0</ele><time>2026-05-04T15:00:31.806Z</time></trkpt><trkpt lat="45.2377148" lon="9.0308084"><ele>68.5</ele><time>2026-05-04T15:00:33.799Z</time></trkpt><trkpt lat="45.2376471" lon="9.0307755"><ele>69.0</ele><time>2026-05-04T15:00:35.814Z</time></trkpt><trkpt lat="45.2375773" lon="9.0306692"><ele>69.5</ele><time>2026-05-04T15:00:38.809Z</time></trkpt><trkpt lat="45.2375415" lon="9.0305417"><ele>70.0</ele><time>2026-05-04T15:00:40.803Z</time></trkpt><trkpt lat="45.2375113" lon="9.0304305"><ele>70.5</ele><time>2026-05-04T15:00:42.801Z</time></trkpt><trkpt lat="45.2374981" lon="9.0303295"><ele>71.0</ele><time>2026-05-04T15:00:44.816Z</time></trkpt><trkpt lat="45.2374821" lon="9.0302328"><ele>71.0</ele><time>2026-05-04T15:00:46.805Z</time></trkpt><trkpt lat="45.2374738" lon="9.0301297"><ele>71.0</ele><time>2026-05-04T15:00:48.808Z</time></trkpt><trkpt lat="45.2374579" lon="9.0300194"><ele>71.0</ele><time>2026-05-04T15:00:50.808Z</time></trkpt><trkpt lat="45.2374596" lon="9.0299146"><ele>71.0</ele><time>2026-05-04T15:00:52.804Z</time></trkpt><trkpt lat="45.2374612" lon="9.0298226"><ele>71.0</ele><time>2026-05-04T15:00:54.807Z</time></trkpt><trkpt lat="45.2374674" lon="9.0297309"><ele>71.0</ele><time>2026-05-04T15:00:56.805Z</time></trkpt><trkpt lat="45.2374928" lon="9.0296146"><ele>71.0</ele><time>2026-05-04T15:00:59.813Z</time></trkpt><trkpt lat="45.2375652" lon="9.0295377"><ele>70.66666666666667</ele><time>2026-05-04T15:01:02.807Z</time></trkpt><trkpt lat="45.2376329" lon="9.0295188"><ele>70.33333333333334</ele><time>2026-05-04T15:01:04.805Z</time></trkpt><trkpt lat="45.2376962" lon="9.029515"><ele>70.0</ele><time>2026-05-04T15:01:06.81Z</time></trkpt><trkpt lat="45.2377692" lon="9.0295115"><ele>69.66666666666667</ele><time>2026-05-04T15:01:08.81Z</time></trkpt><trkpt lat="45.2378588" lon="9.0294981"><ele>69.33333333333333</ele><time>2026-05-04T15:01:10.806Z</time></trkpt><trkpt lat="45.2379663" lon="9.0294975"><ele>69.0</ele><time>2026-05-04T15:01:12.806Z</time></trkpt><trkpt lat="45.2380551" lon="9.0294779"><ele>68.66666666666667</ele><time>2026-05-04T15:01:14.81Z</time></trkpt><trkpt lat="45.2381525" lon="9.0294624"><ele>68.33333333333333</ele><time>2026-05-04T15:01:16.805Z</time></trkpt><trkpt lat="45.2382486" lon="9.0294483"><ele>68.0</ele><time>2026-05-04T15:01:18.811Z</time></trkpt><trkpt lat="45.238335" lon="9.0294152"><ele>67.66666666666666</ele><time>2026-05-04T15:01:20.893Z</time></trkpt><trkpt lat="45.2384208" lon="9.0293785"><ele>67.33333333333333</ele><time>2026-05-04T15:01:22.805Z</time></trkpt><trkpt lat="45.2384834" lon="9.02936"><ele>67.0</ele><time>2026-05-04T15:01:24.808Z</time></trkpt><trkpt lat="45.2385591" lon="9.0293374"><ele>67.0</ele><time>2026-05-04T15:01:26.818Z</time></trkpt><trkpt lat="45.2386282" lon="9.0292857"><ele>67.0</ele><time>2026-05-04T15:01:28.809Z</time></trkpt><trkpt lat="45.2387262" lon="9.0292253"><ele>67.0</ele><time>2026-05-04T15:01:30.818Z</time></trkpt><trkpt lat="45.238805" lon="9.0292033"><ele>67.0</ele><time>2026-05-04T15:01:32.809Z</time></trkpt><trkpt lat="45.2388789" lon="9.02917"><ele>67.0</ele><time>2026-05-04T15:01:34.805Z</time></trkpt><trkpt lat="45.2389476" lon="9.0291353"><ele>67.0</ele><time>2026-05-04T15:01:36.813Z</time></trkpt><trkpt lat="45.2390136" lon="9.0291053"><ele>66.85714285714286</ele><time>2026-05-04T15:01:38.804Z</time></trkpt><trkpt lat="45.2390799" lon="9.0290711"><ele>66.71428571428571</ele><time>2026-05-04T15:01:40.812Z</time></trkpt><trkpt lat="45.2391559" lon="9.0290436"><ele>66.57142857142857</ele><time>2026-05-04T15:01:42.808Z</time></trkpt><trkpt lat="45.2392261" lon="9.0290713"><ele>66.42857142857143</ele><time>2026-05-04T15:01:44.802Z</time></trkpt><trkpt lat="45.2392803" lon="9.0291331"><ele>66.28571428571429</ele><time>2026-05-04T15:01:46.801Z</time></trkpt><trkpt lat="45.2393211" lon="9.0292358"><ele>66.14285714285714</ele><time>2026-05-04T15:01:49.801Z</time></trkpt><trkpt lat="45.2393522" lon="9.0293254"><ele>66.0</ele><time>2026-05-04T15:01:52.809Z</time></trkpt><trkpt lat="45.2393699" lon="9.0294283"><ele>66.28571428571428</ele><time>2026-05-04T15:01:55.804Z</time></trkpt><trkpt lat="45.2393933" lon="9.02953"><ele>66.57142857142857</ele><time>2026-05-04T15:01:58.806Z</time></trkpt><trkpt lat="45.2394105" lon="9.0296221"><ele>66.85714285714286</ele><time>2026-05-04T15:02:01.811Z</time></trkpt><trkpt lat="45.2394303" lon="9.0297168"><ele>67.14285714285714</ele><time>2026-05-04T15:02:04.798Z</time></trkpt><trkpt lat="45.2394483" lon="9.0298392"><ele>67.42857142857143</ele><time>2026-05-04T15:02:08.805Z</time></trkpt><trkpt lat="45.2394647" lon="9.0299303"><ele>67.71428571428571</ele><time>2026-05-04T15:02:11.802Z</time></trkpt><trkpt lat="45.2394763" lon="9.0300223"><ele>68.0</ele><time>2026-05-04T15:02:14.804Z</time></trkpt><trkpt lat="45.2394933" lon="9.0301111"><ele>69.14285714285714</ele><time>2026-05-04T15:02:17.803Z</time></trkpt><trkpt lat="45.2395117" lon="9.0302317"><ele>70.28571428571428</ele><time>2026-05-04T15:02:21.883Z</time></trkpt><trkpt lat="45.239527" lon="9.0303372"><ele>71.42857142857142</ele><time>2026-05-04T15:02:24.802Z</time></trkpt><trkpt lat="45.2395471" lon="9.0304265"><ele>72.57142857142857</ele><time>2026-05-04T15:02:27.804Z</time></trkpt><trkpt lat="45.2395661" lon="9.0305234"><ele>73.71428571428572</ele><time>2026-05-04T15:02:30.811Z</time></trkpt><trkpt lat="45.2395854" lon="9.0306226"><ele>74.85714285714285</ele><time>2026-05-04T15:02:33.817Z</time></trkpt><trkpt lat="45.2396014" lon="9.0307286"><ele>76.0</ele><time>2026-05-04T15:02:36.814Z</time></trkpt><trkpt lat="45.2396203" lon="9.0308262"><ele>76.85714285714285</ele><time>2026-05-04T15:02:39.802Z</time></trkpt><trkpt lat="45.2396572" lon="9.0309304"><ele>77.71428571428572</ele><time>2026-05-04T15:02:43.796Z</time></trkpt><trkpt lat="45.2397135" lon="9.0309817"><ele>78.57142857142857</ele><time>2026-05-04T15:02:47.817Z</time></trkpt><trkpt lat="45.2397796" lon="9.0310435"><ele>79.42857142857142</ele><time>2026-05-04T15:02:51.807Z</time></trkpt><trkpt lat="45.2398301" lon="9.0310996"><ele>80.28571428571428</ele><time>2026-05-04T15:02:54.804Z</time></trkpt><trkpt lat="45.23988" lon="9.0311619"><ele>81.14285714285714</ele><time>2026-05-04T15:02:57.816Z</time></trkpt><trkpt lat="45.2399506" lon="9.0312208"><ele>82.0</ele><time>2026-05-04T15:03:01.804Z</time></trkpt><trkpt lat="45.2400202" lon="9.0312835"><ele>81.99999999999999</ele><time>2026-05-04T15:03:05.808Z</time></trkpt><trkpt lat="45.2400675" lon="9.0313638"><ele>82.0</ele><time>2026-05-04T15:03:09.803Z</time></trkpt><trkpt lat="45.240109" lon="9.0314349"><ele>82.0</ele><time>2026-05-04T15:03:12.882Z</time></trkpt><trkpt lat="45.2401666" lon="9.0315184"><ele>82.0</ele><time>2026-05-04T15:03:16.799Z</time></trkpt><trkpt lat="45.2402159" lon="9.031584"><ele>82.0</ele><time>2026-05-04T15:03:19.806Z</time></trkpt><trkpt lat="45.2402698" lon="9.0316388"><ele>81.99999999999999</ele><time>2026-05-04T15:03:22.804Z</time></trkpt><trkpt lat="45.2402711" lon="9.0317344"><ele>82.0</ele><time>2026-05-04T15:03:27.814Z</time></trkpt><trkpt lat="45.2401965" lon="9.031692"><ele>81.99999999999999</ele><time>2026-05-04T15:03:32.804Z</time></trkpt><trkpt lat="45.240129" lon="9.0316711"><ele>82.0</ele><time>2026-05-04T15:03:37.886Z</time></trkpt><trkpt lat="45.2400662" lon="9.0316515"><ele>82.0</ele><time>2026-05-04T15:03:41.795Z</time></trkpt><trkpt lat="45.2399891" lon="9.0316155"><ele>82.0</ele><time>2026-05-04T15:03:45.804Z</time></trkpt><trkpt lat="45.2399109" lon="9.0315883"><ele>82.0</ele><time>2026-05-04T15:03:49.803Z</time></trkpt><trkpt lat="45.2398399" lon="9.0315377"><ele>81.99999999999999</ele><time>2026-05-04T15:03:53.802Z</time></trkpt><trkpt lat="45.2397798" lon="9.0314853"><ele>82.0</ele><time>2026-05-04T15:03:56.805Z</time></trkpt><trkpt lat="45.2397198" lon="9.0314139"><ele>82.16666666666666</ele><time>2026-05-04T15:03:59.803Z</time></trkpt><trkpt lat="45.2396543" lon="9.0313456"><ele>82.33333333333333</ele><time>2026-05-04T15:04:02.887Z</time></trkpt><trkpt lat="45.2395996" lon="9.031286"><ele>82.5</ele><time>2026-05-04T15:04:04.816Z</time></trkpt><trkpt lat="45.2395312" lon="9.0312153"><ele>82.66666666666667</ele><time>2026-05-04T15:04:06.804Z</time></trkpt><trkpt lat="45.2394667" lon="9.03114"><ele>82.83333333333334</ele><time>2026-05-04T15:04:08.807Z</time></trkpt><trkpt lat="45.2393985" lon="9.0310618"><ele>83.0</ele><time>2026-05-04T15:04:10.807Z</time></trkpt><trkpt lat="45.2393411" lon="9.0309864"><ele>83.0</ele><time>2026-05-04T15:04:12.797Z</time></trkpt><trkpt lat="45.2392735" lon="9.0309477"><ele>83.0</ele><time>2026-05-04T15:04:14.798Z</time></trkpt><trkpt lat="45.239199" lon="9.0310258"><ele>83.0</ele><time>2026-05-04T15:04:17.794Z</time></trkpt><trkpt lat="45.2391472" lon="9.0311092"><ele>83.0</ele><time>2026-05-04T15:04:19.8Z</time></trkpt><trkpt lat="45.2390875" lon="9.0311965"><ele>83.0</ele><time>2026-05-04T15:04:21.811Z</time></trkpt><trkpt lat="45.239026" lon="9.0312935"><ele>83.0</ele><time>2026-05-04T15:04:23.806Z</time></trkpt><trkpt lat="45.2389674" lon="9.0313795"><ele>81.66666666666667</ele><time>2026-05-04T15:04:25.811Z</time></trkpt><trkpt lat="45.2389118" lon="9.0314692"><ele>80.33333333333334</ele><time>2026-05-04T15:04:27.882Z</time></trkpt><trkpt lat="45.2388519" lon="9.0315614"><ele>79.0</ele><time>2026-05-04T15:04:29.804Z</time></trkpt><trkpt lat="45.2387928" lon="9.0316453"><ele>77.66666666666667</ele><time>2026-05-04T15:04:31.799Z</time></trkpt><trkpt lat="45.2387316" lon="9.0317428"><ele>76.33333333333333</ele><time>2026-05-04T15:04:33.797Z</time></trkpt><trkpt lat="45.2386751" lon="9.0318387"><ele>75.0</ele><time>2026-05-04T15:04:35.8Z</time></trkpt><trkpt lat="45.2386337" lon="9.0319545"><ele>75.0</ele><time>2026-05-04T15:04:37.805Z</time></trkpt><trkpt lat="45.238626" lon="9.0320821"><ele>75.0</ele><time>2026-05-04T15:04:39.806Z</time></trkpt><trkpt lat="45.2386197" lon="9.0322296"><ele>75.0</ele><time>2026-05-04T15:04:41.811Z</time></trkpt><trkpt lat="45.2386158" lon="9.0323732"><ele>75.0</ele><time>2026-05-04T15:04:43.807Z</time></trkpt><trkpt lat="45.2386161" lon="9.0325047"><ele>75.0</ele><time>2026-05-04T15:04:45.794Z</time></trkpt><trkpt lat="45.2386405" lon="9.0326358"><ele>74.6</ele><time>2026-05-04T15:04:47.799Z</time></trkpt><trkpt lat="45.2386767" lon="9.0327631"><ele>74.2</ele><time>2026-05-04T15:04:49.801Z</time></trkpt><trkpt lat="45.2387323" lon="9.0328596"><ele>73.8</ele><time>2026-05-04T15:04:51.804Z</time></trkpt><trkpt lat="45.238818" lon="9.032901"><ele>73.4</ele><time>2026-05-04T15:04:53.815Z</time></trkpt><trkpt lat="45.2389231" lon="9.0328921"><ele>73.0</ele><time>2026-05-04T15:04:55.805Z</time></trkpt><trkpt lat="45.2390289" lon="9.0328872"><ele>74.83333333333333</ele><time>2026-05-04T15:04:57.805Z</time></trkpt><trkpt lat="45.2391235" lon="9.0329338"><ele>76.66666666666666</ele><time>2026-05-04T15:04:59.826Z</time></trkpt><trkpt lat="45.2391565" lon="9.0330548"><ele>78.5</ele><time>2026-05-04T15:05:01.804Z</time></trkpt><trkpt lat="45.2391568" lon="9.0331773"><ele>80.33333333333333</ele><time>2026-05-04T15:05:03.801Z</time></trkpt><trkpt lat="45.2391431" lon="9.0332812"><ele>82.16666666666667</ele><time>2026-05-04T15:05:05.808Z</time></trkpt><trkpt lat="45.2391007" lon="9.0333847"><ele>84.0</ele><time>2026-05-04T15:05:07.887Z</time></trkpt><trkpt lat="45.2390375" lon="9.0334753"><ele>84.0</ele><time>2026-05-04T15:05:09.807Z</time></trkpt><trkpt lat="45.2389688" lon="9.0335602"><ele>84.0</ele><time>2026-05-04T15:05:11.808Z</time></trkpt><trkpt lat="45.2389128" lon="9.033669"><ele>84.0</ele><time>2026-05-04T15:05:13.803Z</time></trkpt><trkpt lat="45.2388974" lon="9.0337875"><ele>84.0</ele><time>2026-05-04T15:05:15.801Z</time></trkpt><trkpt lat="45.2388839" lon="9.0339089"><ele>84.0</ele><time>2026-05-04T15:05:17.797Z</time></trkpt><trkpt lat="45.238879" lon="9.0340363"><ele>84.0</ele><time>2026-05-04T15:05:19.803Z</time></trkpt><trkpt lat="45.2388996" lon="9.0341679"><ele>83.80000000000001</ele><time>2026-05-04T15:05:21.808Z</time></trkpt><trkpt lat="45.2389505" lon="9.0342705"><ele>83.60000000000001</ele><time>2026-05-04T15:05:23.802Z</time></trkpt><trkpt lat="45.2390194" lon="9.0343661"><ele>83.4</ele><time>2026-05-04T15:05:25.814Z</time></trkpt><trkpt lat="45.2390917" lon="9.0344664"><ele>83.2</ele><time>2026-05-04T15:05:27.803Z</time></trkpt><trkpt lat="45.2391611" lon="9.0345723"><ele>83.0</ele><time>2026-05-04T15:05:29.806Z</time></trkpt><trkpt lat="45.2392346" lon="9.0346855"><ele>83.0</ele><time>2026-05-04T15:05:31.812Z</time></trkpt><trkpt lat="45.2393138" lon="9.0347861"><ele>83.0</ele><time>2026-05-04T15:05:33.802Z</time></trkpt><trkpt lat="45.2393877" lon="9.0348685"><ele>83.0</ele><time>2026-05-04T15:05:35.804Z</time></trkpt><trkpt lat="45.2394857" lon="9.0349326"><ele>83.0</ele><time>2026-05-04T15:05:37.809Z</time></trkpt><trkpt lat="45.239586" lon="9.0349853"><ele>83.0</ele><time>2026-05-04T15:05:39.806Z</time></trkpt><trkpt lat="45.239684" lon="9.0350373"><ele>82.60000000000001</ele><time>2026-05-04T15:05:41.805Z</time></trkpt><trkpt lat="45.2397725" lon="9.0350784"><ele>82.2</ele><time>2026-05-04T15:05:43.798Z</time></trkpt><trkpt lat="45.2398699" lon="9.0351471"><ele>81.8</ele><time>2026-05-04T15:05:45.884Z</time></trkpt><trkpt lat="45.2399643" lon="9.0352051"><ele>81.4</ele><time>2026-05-04T15:05:47.883Z</time></trkpt><trkpt lat="45.2400529" lon="9.0352398"><ele>81.0</ele><time>2026-05-04T15:05:49.806Z</time></trkpt><trkpt lat="45.2401448" lon="9.0352792"><ele>81.0</ele><time>2026-05-04T15:05:51.798Z</time></trkpt><trkpt lat="45.24022" lon="9.0353395"><ele>81.0</ele><time>2026-05-04T15:05:53.81Z</time></trkpt><trkpt lat="45.2402608" lon="9.0354397"><ele>81.0</ele><time>2026-05-04T15:05:55.81Z</time></trkpt><trkpt lat="45.2402534" lon="9.0355633"><ele>81.0</ele><time>2026-05-04T15:05:57.802Z</time></trkpt><trkpt lat="45.2402372" lon="9.0356903"><ele>81.0</ele><time>2026-05-04T15:05:59.811Z</time></trkpt><trkpt lat="45.2402271" lon="9.0358068"><ele>81.0</ele><time>2026-05-04T15:06:01.806Z</time></trkpt><trkpt lat="45.2402087" lon="9.0359209"><ele>81.33333333333333</ele><time>2026-05-04T15:06:03.804Z</time></trkpt><trkpt lat="45.2402063" lon="9.0360296"><ele>81.66666666666667</ele><time>2026-05-04T15:06:05.81Z</time></trkpt><trkpt lat="45.2401907" lon="9.0361506"><ele>82.0</ele><time>2026-05-04T15:06:07.803Z</time></trkpt><trkpt lat="45.2401844" lon="9.0362637"><ele>82.33333333333334</ele><time>2026-05-04T15:06:09.804Z</time></trkpt><trkpt lat="45.2401893" lon="9.036368"><ele>82.66666666666667</ele><time>2026-05-04T15:06:11.887Z</time></trkpt><trkpt lat="45.2402103" lon="9.0364766"><ele>83.0</ele><time>2026-05-04T15:06:14.801Z</time></trkpt><trkpt lat="45.2402371" lon="9.0365888"><ele>82.83333333333334</ele><time>2026-05-04T15:06:17.811Z</time></trkpt><trkpt lat="45.2402602" lon="9.0367122"><ele>82.66666666666667</ele><time>2026-05-04T15:06:20.807Z</time></trkpt><trkpt lat="45.2402922" lon="9.0368331"><ele>82.5</ele><time>2026-05-04T15:06:23.81Z</time></trkpt><trkpt lat="45.2403419" lon="9.0369373"><ele>82.33333333333333</ele><time>2026-05-04T15:06:26.806Z</time></trkpt><trkpt lat="45.2403942" lon="9.0369917"><ele>82.16666666666666</ele><time>2026-05-04T15:06:28.813Z</time></trkpt><trkpt lat="45.2404506" lon="9.0370454"><ele>82.0</ele><time>2026-05-04T15:06:30.81Z</time></trkpt><trkpt lat="45.240529" lon="9.0371162"><ele>82.0</ele><time>2026-05-04T15:06:33.811Z</time></trkpt><trkpt lat="45.2406004" lon="9.0371867"><ele>82.0</ele><time>2026-05-04T15:06:36.799Z</time></trkpt><trkpt lat="45.2406729" lon="9.0372581"><ele>82.0</ele><time>2026-05-04T15:06:39.805Z</time></trkpt><trkpt lat="45.2407407" lon="9.0373222"><ele>82.0</ele><time>2026-05-04T15:06:42.808Z</time></trkpt><trkpt lat="45.2408157" lon="9.0373864"><ele>82.0</ele><time>2026-05-04T15:06:45.81Z</time></trkpt><trkpt lat="45.240878" lon="9.037432"><ele>82.0</ele><time>2026-05-04T15:06:47.812Z</time></trkpt><trkpt lat="45.2409413" lon="9.0374894"><ele>82.0</ele><time>2026-05-04T15:06:49.811Z</time></trkpt><trkpt lat="45.2410102" lon="9.0375214"><ele>82.0</ele><time>2026-05-04T15:06:51.809Z</time></trkpt><trkpt lat="45.2410971" lon="9.0375439"><ele>82.0</ele><time>2026-05-04T15:06:53.81Z</time></trkpt><trkpt lat="45.24118" lon="9.037562"><ele>82.0</ele><time>2026-05-04T15:06:55.808Z</time></trkpt><trkpt lat="45.2412596" lon="9.0375667"><ele>82.0</ele><time>2026-05-04T15:06:57.801Z</time></trkpt><trkpt lat="45.2413296" lon="9.0375722"><ele>82.0</ele><time>2026-05-04T15:06:59.811Z</time></trkpt><trkpt lat="45.2413941" lon="9.0375921"><ele>81.99999999999999</ele><time>2026-05-04T15:07:01.806Z</time></trkpt><trkpt lat="45.2414603" lon="9.0376229"><ele>82.0</ele><time>2026-05-04T15:07:03.798Z</time></trkpt><trkpt lat="45.2415174" lon="9.0376668"><ele>82.0</ele><time>2026-05-04T15:07:05.801Z</time></trkpt><trkpt lat="45.2415774" lon="9.0377148"><ele>82.0</ele><time>2026-05-04T15:07:07.808Z</time></trkpt><trkpt lat="45.2416344" lon="9.0377688"><ele>82.0</ele><time>2026-05-04T15:07:09.806Z</time></trkpt><trkpt lat="45.2416882" lon="9.0378153"><ele>81.99999999999999</ele><time>2026-05-04T15:07:11.809Z</time></trkpt><trkpt lat="45.2417407" lon="9.0378764"><ele>82.0</ele><time>2026-05-04T15:07:13.803Z</time></trkpt><trkpt lat="45.2417737" lon="9.0379588"><ele>82.5</ele><time>2026-05-04T15:07:15.807Z</time></trkpt><trkpt lat="45.2417749" lon="9.0380809"><ele>83.0</ele><time>2026-05-04T15:07:18.807Z</time></trkpt><trkpt lat="45.2417281" lon="9.0381807"><ele>83.5</ele><time>2026-05-04T15:07:20.802Z</time></trkpt><trkpt lat="45.2416873" lon="9.0382981"><ele>84.0</ele><time>2026-05-04T15:07:22.807Z</time></trkpt><trkpt lat="45.2416384" lon="9.0384022"><ele>84.5</ele><time>2026-05-04T15:07:24.803Z</time></trkpt><trkpt lat="45.2415923" lon="9.0385041"><ele>85.0</ele><time>2026-05-04T15:07:26.818Z</time></trkpt><trkpt lat="45.2415559" lon="9.0386027"><ele>85.0</ele><time>2026-05-04T15:07:28.818Z</time></trkpt><trkpt lat="45.2415061" lon="9.0387006"><ele>85.0</ele><time>2026-05-04T15:07:30.81Z</time></trkpt><trkpt lat="45.2414596" lon="9.0388137"><ele>85.0</ele><time>2026-05-04T15:07:32.803Z</time></trkpt><trkpt lat="45.2414193" lon="9.0389207"><ele>85.0</ele><time>2026-05-04T15:07:34.811Z</time></trkpt><trkpt lat="45.2413708" lon="9.0390217"><ele>85.0</ele><time>2026-05-04T15:07:36.802Z</time></trkpt><trkpt lat="45.2413202" lon="9.0391237"><ele>85.0</ele><time>2026-05-04T15:07:38.808Z</time></trkpt><trkpt lat="45.2412747" lon="9.0392241"><ele>85.83333333333333</ele><time>2026-05-04T15:07:40.799Z</time></trkpt><trkpt lat="45.241232" lon="9.0393128"><ele>86.66666666666666</ele><time>2026-05-04T15:07:42.795Z</time></trkpt><trkpt lat="45.241188" lon="9.0393981"><ele>87.5</ele><time>2026-05-04T15:07:44.799Z</time></trkpt><trkpt lat="45.2411311" lon="9.0394721"><ele>88.33333333333333</ele><time>2026-05-04T15:07:46.806Z</time></trkpt><trkpt lat="45.2410487" lon="9.0395455"><ele>89.16666666666667</ele><time>2026-05-04T15:07:48.803Z</time></trkpt><trkpt lat="45.2409394" lon="9.0395785"><ele>90.0</ele><time>2026-05-04T15:07:50.803Z</time></trkpt><trkpt lat="45.2408192" lon="9.0395899"><ele>90.0</ele><time>2026-05-04T15:07:52.817Z</time></trkpt><trkpt lat="45.240701" lon="9.0395779"><ele>90.0</ele><time>2026-05-04T15:07:54.806Z</time></trkpt><trkpt lat="45.2405848" lon="9.0395703"><ele>90.0</ele><time>2026-05-04T15:07:56.812Z</time></trkpt><trkpt lat="45.2404714" lon="9.039552"><ele>90.0</ele><time>2026-05-04T15:07:58.809Z</time></trkpt><trkpt lat="45.2403608" lon="9.0395377"><ele>89.8</ele><time>2026-05-04T15:08:00.792Z</time></trkpt><trkpt lat="45.2402498" lon="9.0395301"><ele>89.6</ele><time>2026-05-04T15:08:02.813Z</time></trkpt><trkpt lat="45.24014" lon="9.0395213"><ele>89.4</ele><time>2026-05-04T15:08:04.801Z</time></trkpt><trkpt lat="45.2400325" lon="9.039519"><ele>89.2</ele><time>2026-05-04T15:08:06.815Z</time></trkpt><trkpt lat="45.2399235" lon="9.0395495"><ele>89.0</ele><time>2026-05-04T15:08:08.805Z</time></trkpt><trkpt lat="45.2398309" lon="9.0396169"><ele>88.6</ele><time>2026-05-04T15:08:10.81Z</time></trkpt><trkpt lat="45.2397492" lon="9.0397211"><ele>88.2</ele><time>2026-05-04T15:08:12.813Z</time></trkpt><trkpt lat="45.2396688" lon="9.0398216"><ele>87.8</ele><time>2026-05-04T15:08:14.801Z</time></trkpt><trkpt lat="45.2395957" lon="9.0399153"><ele>87.39999999999999</ele><time>2026-05-04T15:08:16.88Z</time></trkpt><trkpt lat="45.2395153" lon="9.0400218"><ele>87.0</ele><time>2026-05-04T15:08:18.806Z</time></trkpt><trkpt lat="45.239441" lon="9.040122"><ele>87.0</ele><time>2026-05-04T15:08:20.798Z</time></trkpt><trkpt lat="45.2393633" lon="9.0402297"><ele>87.0</ele><time>2026-05-04T15:08:22.806Z</time></trkpt><trkpt lat="45.2392827" lon="9.0403313"><ele>87.0</ele><time>2026-05-04T15:08:24.818Z</time></trkpt><trkpt lat="45.2392016" lon="9.0404363"><ele>87.0</ele><time>2026-05-04T15:08:26.811Z</time></trkpt><trkpt lat="45.2391161" lon="9.0405407"><ele>87.0</ele><time>2026-05-04T15:08:28.804Z</time></trkpt><trkpt lat="45.2390288" lon="9.0406487"><ele>86.5</ele><time>2026-05-04T15:08:30.813Z</time></trkpt><trkpt lat="45.2389445" lon="9.040759"><ele>86.0</ele><time>2026-05-04T15:08:32.806Z</time></trkpt><trkpt lat="45.2388518" lon="9.0408694"><ele>85.5</ele><time>2026-05-04T15:08:34.805Z</time></trkpt><trkpt lat="45.238771" lon="9.0409813"><ele>85.0</ele><time>2026-05-04T15:08:36.806Z</time></trkpt><trkpt lat="45.2386905" lon="9.0410927"><ele>85.0</ele><time>2026-05-04T15:08:38.806Z</time></trkpt><trkpt lat="45.2386084" lon="9.0412098"><ele>85.0</ele><time>2026-05-04T15:08:40.798Z</time></trkpt><trkpt lat="45.2385263" lon="9.0413204"><ele>85.0</ele><time>2026-05-04T15:08:42.803Z</time></trkpt><trkpt lat="45.238449" lon="9.0414248"><ele>85.0</ele><time>2026-05-04T15:08:44.809Z</time></trkpt><trkpt lat="45.238363" lon="9.0415297"><ele>85.2</ele><time>2026-05-04T15:08:46.805Z</time></trkpt><trkpt lat="45.2382822" lon="9.0416364"><ele>85.4</ele><time>2026-05-04T15:08:48.815Z</time></trkpt><trkpt lat="45.2382002" lon="9.0417395"><ele>85.6</ele><time>2026-05-04T15:08:50.808Z</time></trkpt><trkpt lat="45.2381137" lon="9.0418461"><ele>85.8</ele><time>2026-05-04T15:08:52.808Z</time></trkpt><trkpt lat="45.2380356" lon="9.0419533"><ele>86.0</ele><time>2026-05-04T15:08:54.8Z</time></trkpt><trkpt lat="45.237952" lon="9.0420578"><ele>86.0</ele><time>2026-05-04T15:08:56.879Z</time></trkpt><trkpt lat="45.2378668" lon="9.0421677"><ele>86.0</ele><time>2026-05-04T15:08:58.809Z</time></trkpt><trkpt lat="45.2377888" lon="9.0422819"><ele>86.0</ele><time>2026-05-04T15:09:00.813Z</time></trkpt><trkpt lat="45.2377096" lon="9.0423963"><ele>86.0</ele><time>2026-05-04T15:09:02.81Z</time></trkpt><trkpt lat="45.2376288" lon="9.0425045"><ele>86.0</ele><time>2026-05-04T15:09:04.812Z</time></trkpt><trkpt lat="45.2375472" lon="9.0426173"><ele>86.0</ele><time>2026-05-04T15:09:06.812Z</time></trkpt><trkpt lat="45.2374777" lon="9.0427357"><ele>86.0</ele><time>2026-05-04T15:09:08.804Z</time></trkpt><trkpt lat="45.2374094" lon="9.0428689"><ele>86.0</ele><time>2026-05-04T15:09:10.798Z</time></trkpt><trkpt lat="45.237358" lon="9.0430123"><ele>86.0</ele><time>2026-05-04T15:09:12.809Z</time></trkpt><trkpt lat="45.2373153" lon="9.0431643"><ele>86.0</ele><time>2026-05-04T15:09:14.801Z</time></trkpt><trkpt lat="45.237276" lon="9.0433155"><ele>86.0</ele><time>2026-05-04T15:09:16.797Z</time></trkpt><trkpt lat="45.2372312" lon="9.0434712"><ele>86.0</ele><time>2026-05-04T15:09:18.813Z</time></trkpt><trkpt lat="45.2371868" lon="9.0436224"><ele>86.5</ele><time>2026-05-04T15:09:20.813Z</time></trkpt><trkpt lat="45.2371431" lon="9.0437779"><ele>87.0</ele><time>2026-05-04T15:09:22.802Z</time></trkpt><trkpt lat="45.2370999" lon="9.0439324"><ele>87.5</ele><time>2026-05-04T15:09:24.809Z</time></trkpt><trkpt lat="45.2370499" lon="9.0440906"><ele>88.0</ele><time>2026-05-04T15:09:26.812Z</time></trkpt><trkpt lat="45.2370061" lon="9.0442489"><ele>88.25</ele><time>2026-05-04T15:09:28.807Z</time></trkpt><trkpt lat="45.236969" lon="9.0444051"><ele>88.5</ele><time>2026-05-04T15:09:30.806Z</time></trkpt><trkpt lat="45.2369348" lon="9.0445697"><ele>88.75</ele><time>2026-05-04T15:09:32.806Z</time></trkpt><trkpt lat="45.2369067" lon="9.0447214"><ele>89.0</ele><time>2026-05-04T15:09:34.806Z</time></trkpt><trkpt lat="45.2368834" lon="9.0448784"><ele>89.0</ele><time>2026-05-04T15:09:36.806Z</time></trkpt><trkpt lat="45.2368734" lon="9.0450345"><ele>89.0</ele><time>2026-05-04T15:09:38.818Z</time></trkpt><trkpt lat="45.2368711" lon="9.0451932"><ele>89.0</ele><time>2026-05-04T15:09:40.805Z</time></trkpt><trkpt lat="45.2368769" lon="9.0453459"><ele>89.0</ele><time>2026-05-04T15:09:42.884Z</time></trkpt><trkpt lat="45.2368826" lon="9.0455109"><ele>89.0</ele><time>2026-05-04T15:09:44.807Z</time></trkpt><trkpt lat="45.2368867" lon="9.0456721"><ele>88.75</ele><time>2026-05-04T15:09:46.8Z</time></trkpt><trkpt lat="45.2368959" lon="9.0458388"><ele>88.5</ele><time>2026-05-04T15:09:48.796Z</time></trkpt><trkpt lat="45.2368966" lon="9.0460062"><ele>88.25</ele><time>2026-05-04T15:09:50.809Z</time></trkpt><trkpt lat="45.2369015" lon="9.0461784"><ele>88.0</ele><time>2026-05-04T15:09:52.814Z</time></trkpt><trkpt lat="45.2369056" lon="9.0463516"><ele>88.0</ele><time>2026-05-04T15:09:54.89Z</time></trkpt><trkpt lat="45.23691" lon="9.0465179"><ele>88.0</ele><time>2026-05-04T15:09:56.811Z</time></trkpt><trkpt lat="45.2369148" lon="9.0466933"><ele>88.0</ele><time>2026-05-04T15:09:58.805Z</time></trkpt><trkpt lat="45.2369213" lon="9.0468637"><ele>88.0</ele><time>2026-05-04T15:10:00.797Z</time></trkpt><trkpt lat="45.2369207" lon="9.0470363"><ele>88.2</ele><time>2026-05-04T15:10:02.812Z</time></trkpt><trkpt lat="45.2369171" lon="9.0472105"><ele>88.4</ele><time>2026-05-04T15:10:04.808Z</time></trkpt><trkpt lat="45.2369181" lon="9.0473835"><ele>88.60000000000001</ele><time>2026-05-04T15:10:06.805Z</time></trkpt><trkpt lat="45.236917" lon="9.0475564"><ele>88.80000000000001</ele><time>2026-05-04T15:10:08.812Z</time></trkpt><trkpt lat="45.2369198" lon="9.0476461"><ele>89.0</ele><time>2026-05-04T15:10:09.808Z</time></trkpt><trkpt lat="45.2369183" lon="9.0477361"><ele>88.5</ele><time>2026-05-04T15:10:10.814Z</time></trkpt><trkpt lat="45.236922" lon="9.0479118"><ele>88.0</ele><time>2026-05-04T15:10:12.813Z</time></trkpt><trkpt lat="45.2369224" lon="9.0480864"><ele>87.5</ele><time>2026-05-04T15:10:14.807Z</time></trkpt><trkpt lat="45.2369248" lon="9.0482665"><ele>87.0</ele><time>2026-05-04T15:10:16.811Z</time></trkpt><trkpt lat="45.2369297" lon="9.0484275"><ele>87.0</ele><time>2026-05-04T15:10:18.808Z</time></trkpt><trkpt lat="45.2369242" lon="9.0485697"><ele>87.0</ele><time>2026-05-04T15:10:20.881Z</time></trkpt><trkpt lat="45.2368943" lon="9.0486981"><ele>87.0</ele><time>2026-05-04T15:10:22.805Z</time></trkpt><trkpt lat="45.2368189" lon="9.0487704"><ele>87.0</ele><time>2026-05-04T15:10:24.804Z</time></trkpt><trkpt lat="45.2367246" lon="9.0487335"><ele>87.0</ele><time>2026-05-04T15:10:26.803Z</time></trkpt><trkpt lat="45.236625" lon="9.0486434"><ele>87.0</ele><time>2026-05-04T15:10:28.804Z</time></trkpt><trkpt lat="45.2365332" lon="9.0485569"><ele>87.0</ele><time>2026-05-04T15:10:30.809Z</time></trkpt><trkpt lat="45.2364372" lon="9.048462"><ele>87.0</ele><time>2026-05-04T15:10:32.799Z</time></trkpt><trkpt lat="45.2363546" lon="9.0483463"><ele>87.0</ele><time>2026-05-04T15:10:34.807Z</time></trkpt><trkpt lat="45.2363057" lon="9.0482861"><ele>87.0</ele><time>2026-05-04T15:10:35.81Z</time></trkpt><trkpt lat="45.2362232" lon="9.0481625"><ele>87.0</ele><time>2026-05-04T15:10:37.807Z</time></trkpt><trkpt lat="45.23614" lon="9.0480443"><ele>87.0</ele><time>2026-05-04T15:10:39.813Z</time></trkpt><trkpt lat="45.2360631" lon="9.0479357"><ele>87.0</ele><time>2026-05-04T15:10:41.805Z</time></trkpt><trkpt lat="45.2359675" lon="9.0478383"><ele>87.0</ele><time>2026-05-04T15:10:43.815Z</time></trkpt><trkpt lat="45.2359145" lon="9.0477832"><ele>87.0</ele><time>2026-05-04T15:10:44.88Z</time></trkpt><trkpt lat="45.2358226" lon="9.0476739"><ele>87.0</ele><time>2026-05-04T15:10:46.815Z</time></trkpt><trkpt lat="45.2357715" lon="9.0476147"><ele>87.0</ele><time>2026-05-04T15:10:47.806Z</time></trkpt><trkpt lat="45.2356622" lon="9.0475452"><ele>87.0</ele><time>2026-05-04T15:10:49.808Z</time></trkpt><trkpt lat="45.2355488" lon="9.047482"><ele>87.0</ele><time>2026-05-04T15:10:51.809Z</time></trkpt><trkpt lat="45.2354891" lon="9.0474457"><ele>87.0</ele><time>2026-05-04T15:10:52.809Z</time></trkpt><trkpt lat="45.2354196" lon="9.0474162"><ele>87.0</ele><time>2026-05-04T15:10:53.813Z</time></trkpt><trkpt lat="45.2353498" lon="9.0473875"><ele>86.5</ele><time>2026-05-04T15:10:54.816Z</time></trkpt><trkpt lat="45.2352864" lon="9.0473586"><ele>86.0</ele><time>2026-05-04T15:10:55.805Z</time></trkpt><trkpt lat="45.2352152" lon="9.0473374"><ele>85.5</ele><time>2026-05-04T15:10:56.795Z</time></trkpt><trkpt lat="45.2351489" lon="9.0473207"><ele>85.0</ele><time>2026-05-04T15:10:57.816Z</time></trkpt><trkpt lat="45.2350828" lon="9.047296"><ele>84.5</ele><time>2026-05-04T15:10:58.803Z</time></trkpt><trkpt lat="45.2349873" lon="9.0471873"><ele>84.0</ele><time>2026-05-04T15:11:00.804Z</time></trkpt><trkpt lat="45.2348822" lon="9.0471296"><ele>83.2</ele><time>2026-05-04T15:11:02.805Z</time></trkpt><trkpt lat="45.2347914" lon="9.0470669"><ele>82.4</ele><time>2026-05-04T15:11:04.816Z</time></trkpt><trkpt lat="45.2347102" lon="9.0469981"><ele>81.6</ele><time>2026-05-04T15:11:06.8Z</time></trkpt><trkpt lat="45.2346287" lon="9.0469324"><ele>80.8</ele><time>2026-05-04T15:11:08.797Z</time></trkpt><trkpt lat="45.2345365" lon="9.0468501"><ele>80.0</ele><time>2026-05-04T15:11:10.877Z</time></trkpt><trkpt lat="45.2344351" lon="9.0467651"><ele>80.0</ele><time>2026-05-04T15:11:12.81Z</time></trkpt><trkpt lat="45.2343354" lon="9.0466856"><ele>80.0</ele><time>2026-05-04T15:11:14.805Z</time></trkpt><trkpt lat="45.2342333" lon="9.046602"><ele>80.0</ele><time>2026-05-04T15:11:16.806Z</time></trkpt><trkpt lat="45.2341366" lon="9.0465248"><ele>80.0</ele><time>2026-05-04T15:11:18.809Z</time></trkpt><trkpt lat="45.2340345" lon="9.0464368"><ele>79.75</ele><time>2026-05-04T15:11:20.801Z</time></trkpt><trkpt lat="45.233932" lon="9.0463511"><ele>79.5</ele><time>2026-05-04T15:11:22.803Z</time></trkpt><trkpt lat="45.2338354" lon="9.0462599"><ele>79.25</ele><time>2026-05-04T15:11:24.799Z</time></trkpt><trkpt lat="45.2337439" lon="9.0461611"><ele>79.0</ele><time>2026-05-04T15:11:26.797Z</time></trkpt><trkpt lat="45.2336505" lon="9.046062"><ele>79.0</ele><time>2026-05-04T15:11:28.809Z</time></trkpt><trkpt lat="45.2335637" lon="9.0459625"><ele>79.0</ele><time>2026-05-04T15:11:30.811Z</time></trkpt><trkpt lat="45.233478" lon="9.0458567"><ele>79.0</ele><time>2026-05-04T15:11:32.809Z</time></trkpt><trkpt lat="45.2333905" lon="9.0457549"><ele>79.0</ele><time>2026-05-04T15:11:34.798Z</time></trkpt><trkpt lat="45.233304" lon="9.0456863"><ele>79.0</ele><time>2026-05-04T15:11:36.809Z</time></trkpt><trkpt lat="45.2332107" lon="9.0457077"><ele>79.0</ele><time>2026-05-04T15:11:38.81Z</time></trkpt><trkpt lat="45.2331465" lon="9.0458134"><ele>79.0</ele><time>2026-05-04T15:11:40.802Z</time></trkpt><trkpt lat="45.2330798" lon="9.0459405"><ele>79.0</ele><time>2026-05-04T15:11:42.804Z</time></trkpt><trkpt lat="45.2330064" lon="9.0460609"><ele>79.0</ele><time>2026-05-04T15:11:44.805Z</time></trkpt><trkpt lat="45.2329415" lon="9.0461834"><ele>79.0</ele><time>2026-05-04T15:11:46.795Z</time></trkpt><trkpt lat="45.2328718" lon="9.0462942"><ele>79.4</ele><time>2026-05-04T15:11:48.799Z</time></trkpt><trkpt lat="45.2327951" lon="9.0463727"><ele>79.80000000000001</ele><time>2026-05-04T15:11:50.801Z</time></trkpt><trkpt lat="45.2327146" lon="9.0463537"><ele>80.19999999999999</ele><time>2026-05-04T15:11:52.8Z</time></trkpt><trkpt lat="45.232655" lon="9.0462554"><ele>80.6</ele><time>2026-05-04T15:11:54.801Z</time></trkpt><trkpt lat="45.232589" lon="9.0461568"><ele>81.0</ele><time>2026-05-04T15:11:56.811Z</time></trkpt><trkpt lat="45.2325168" lon="9.0460605"><ele>81.0</ele><time>2026-05-04T15:11:58.806Z</time></trkpt><trkpt lat="45.2324474" lon="9.0459635"><ele>81.0</ele><time>2026-05-04T15:12:00.808Z</time></trkpt><trkpt lat="45.2323682" lon="9.0458665"><ele>81.0</ele><time>2026-05-04T15:12:02.804Z</time></trkpt><trkpt lat="45.2322934" lon="9.0457675"><ele>81.0</ele><time>2026-05-04T15:12:04.799Z</time></trkpt><trkpt lat="45.2322152" lon="9.0456643"><ele>81.0</ele><time>2026-05-04T15:12:06.801Z</time></trkpt><trkpt lat="45.2321328" lon="9.045562"><ele>80.2</ele><time>2026-05-04T15:12:08.791Z</time></trkpt><trkpt lat="45.2320557" lon="9.0454621"><ele>79.39999999999999</ele><time>2026-05-04T15:12:10.804Z</time></trkpt><trkpt lat="45.2319825" lon="9.0453522"><ele>78.6</ele><time>2026-05-04T15:12:12.79Z</time></trkpt><trkpt lat="45.2319059" lon="9.0452462"><ele>77.8</ele><time>2026-05-04T15:12:14.802Z</time></trkpt><trkpt lat="45.2318273" lon="9.0451396"><ele>77.0</ele><time>2026-05-04T15:12:16.792Z</time></trkpt><trkpt lat="45.2317424" lon="9.0450347"><ele>77.2</ele><time>2026-05-04T15:12:18.794Z</time></trkpt><trkpt lat="45.2316659" lon="9.0449292"><ele>77.4</ele><time>2026-05-04T15:12:20.797Z</time></trkpt><trkpt lat="45.2315849" lon="9.044815"><ele>77.6</ele><time>2026-05-04T15:12:22.814Z</time></trkpt><trkpt lat="45.2315047" lon="9.04471"><ele>77.8</ele><time>2026-05-04T15:12:24.877Z</time></trkpt><trkpt lat="45.2314245" lon="9.0446003"><ele>78.0</ele><time>2026-05-04T15:12:26.805Z</time></trkpt><trkpt lat="45.2313447" lon="9.0444899"><ele>78.2</ele><time>2026-05-04T15:12:28.798Z</time></trkpt><trkpt lat="45.2312615" lon="9.0443852"><ele>78.4</ele><time>2026-05-04T15:12:30.804Z</time></trkpt><trkpt lat="45.2311763" lon="9.0442821"><ele>78.60000000000001</ele><time>2026-05-04T15:12:32.804Z</time></trkpt><trkpt lat="45.2310978" lon="9.0441739"><ele>78.8</ele><time>2026-05-04T15:12:34.795Z</time></trkpt><trkpt lat="45.2310239" lon="9.0440708"><ele>79.0</ele><time>2026-05-04T15:12:36.866Z</time></trkpt><trkpt lat="45.230941" lon="9.0439687"><ele>79.0</ele><time>2026-05-04T15:12:38.801Z</time></trkpt><trkpt lat="45.2308606" lon="9.0438573"><ele>79.0</ele><time>2026-05-04T15:12:40.796Z</time></trkpt><trkpt lat="45.2307789" lon="9.04375"><ele>79.0</ele><time>2026-05-04T15:12:42.797Z</time></trkpt><trkpt lat="45.2306998" lon="9.0436414"><ele>79.0</ele><time>2026-05-04T15:12:44.797Z</time></trkpt><trkpt lat="45.2306152" lon="9.043538"><ele>79.0</ele><time>2026-05-04T15:12:46.798Z</time></trkpt><trkpt lat="45.2305293" lon="9.0434337"><ele>79.0</ele><time>2026-05-04T15:12:48.798Z</time></trkpt><trkpt lat="45.2304518" lon="9.0433296"><ele>79.0</ele><time>2026-05-04T15:12:50.802Z</time></trkpt><trkpt lat="45.2303684" lon="9.0432191"><ele>79.0</ele><time>2026-05-04T15:12:52.796Z</time></trkpt><trkpt lat="45.2302872" lon="9.043128"><ele>79.0</ele><time>2026-05-04T15:12:54.804Z</time></trkpt><trkpt lat="45.2301996" lon="9.0430342"><ele>79.0</ele><time>2026-05-04T15:12:56.807Z</time></trkpt><trkpt lat="45.2301078" lon="9.0429729"><ele>79.0</ele><time>2026-05-04T15:12:58.803Z</time></trkpt><trkpt lat="45.2299975" lon="9.0429666"><ele>79.0</ele><time>2026-05-04T15:13:00.803Z</time></trkpt><trkpt lat="45.2298983" lon="9.0430342"><ele>79.0</ele><time>2026-05-04T15:13:02.807Z</time></trkpt><trkpt lat="45.2298129" lon="9.0431415"><ele>79.0</ele><time>2026-05-04T15:13:04.812Z</time></trkpt><trkpt lat="45.2297344" lon="9.0432534"><ele>79.0</ele><time>2026-05-04T15:13:06.807Z</time></trkpt><trkpt lat="45.2296515" lon="9.0433689"><ele>79.0</ele><time>2026-05-04T15:13:08.803Z</time></trkpt><trkpt lat="45.2295722" lon="9.043477"><ele>79.0</ele><time>2026-05-04T15:13:10.819Z</time></trkpt><trkpt lat="45.2294939" lon="9.0435865"><ele>79.0</ele><time>2026-05-04T15:13:12.799Z</time></trkpt><trkpt lat="45.2294153" lon="9.0437031"><ele>79.0</ele><time>2026-05-04T15:13:14.804Z</time></trkpt><trkpt lat="45.2293352" lon="9.0438016"><ele>79.0</ele><time>2026-05-04T15:13:16.799Z</time></trkpt><trkpt lat="45.2292583" lon="9.0439049"><ele>79.0</ele><time>2026-05-04T15:13:18.805Z</time></trkpt><trkpt lat="45.2291742" lon="9.0440226"><ele>79.0</ele><time>2026-05-04T15:13:20.804Z</time></trkpt><trkpt lat="45.2290913" lon="9.0441458"><ele>79.0</ele><time>2026-05-04T15:13:22.81Z</time></trkpt><trkpt lat="45.2290187" lon="9.0442535"><ele>79.0</ele><time>2026-05-04T15:13:24.82Z</time></trkpt><trkpt lat="45.2289361" lon="9.0443724"><ele>78.4</ele><time>2026-05-04T15:13:26.807Z</time></trkpt><trkpt lat="45.228861" lon="9.0444979"><ele>77.80000000000001</ele><time>2026-05-04T15:13:28.799Z</time></trkpt><trkpt lat="45.2287802" lon="9.0446279"><ele>77.19999999999999</ele><time>2026-05-04T15:13:30.807Z</time></trkpt><trkpt lat="45.2287024" lon="9.044758"><ele>76.6</ele><time>2026-05-04T15:13:32.812Z</time></trkpt><trkpt lat="45.2286651" lon="9.0448307"><ele>76.0</ele><time>2026-05-04T15:13:33.795Z</time></trkpt><trkpt lat="45.2286279" lon="9.0449038"><ele>76.39999999999999</ele><time>2026-05-04T15:13:34.798Z</time></trkpt><trkpt lat="45.2285923" lon="9.044982"><ele>76.8</ele><time>2026-05-04T15:13:35.807Z</time></trkpt><trkpt lat="45.2285406" lon="9.0451345"><ele>77.19999999999999</ele><time>2026-05-04T15:13:37.893Z</time></trkpt><trkpt lat="45.2285144" lon="9.0452913"><ele>77.6</ele><time>2026-05-04T15:13:39.81Z</time></trkpt><trkpt lat="45.2285017" lon="9.0454362"><ele>78.0</ele><time>2026-05-04T15:13:41.81Z</time></trkpt><trkpt lat="45.2285074" lon="9.0456002"><ele>78.0</ele><time>2026-05-04T15:13:43.799Z</time></trkpt><trkpt lat="45.2285123" lon="9.0457723"><ele>78.0</ele><time>2026-05-04T15:13:45.812Z</time></trkpt><trkpt lat="45.2285157" lon="9.0459331"><ele>78.0</ele><time>2026-05-04T15:13:47.809Z</time></trkpt><trkpt lat="45.2285223" lon="9.0460941"><ele>78.0</ele><time>2026-05-04T15:13:49.802Z</time></trkpt><trkpt lat="45.2285246" lon="9.0462615"><ele>78.0</ele><time>2026-05-04T15:13:51.807Z</time></trkpt><trkpt lat="45.2285255" lon="9.0464311"><ele>78.0</ele><time>2026-05-04T15:13:53.806Z</time></trkpt><trkpt lat="45.2285272" lon="9.0465924"><ele>78.0</ele><time>2026-05-04T15:13:55.793Z</time></trkpt><trkpt lat="45.2285445" lon="9.0467435"><ele>78.0</ele><time>2026-05-04T15:13:57.807Z</time></trkpt><trkpt lat="45.2286023" lon="9.0468625"><ele>78.0</ele><time>2026-05-04T15:13:59.801Z</time></trkpt><trkpt lat="45.2286647" lon="9.046952"><ele>77.6</ele><time>2026-05-04T15:14:01.879Z</time></trkpt><trkpt lat="45.2286885" lon="9.0470471"><ele>77.19999999999999</ele><time>2026-05-04T15:14:03.804Z</time></trkpt><trkpt lat="45.2286884" lon="9.047183"><ele>76.8</ele><time>2026-05-04T15:14:05.806Z</time></trkpt><trkpt lat="45.2286767" lon="9.0473224"><ele>76.39999999999999</ele><time>2026-05-04T15:14:07.799Z</time></trkpt><trkpt lat="45.2286617" lon="9.0474682"><ele>76.0</ele><time>2026-05-04T15:14:09.812Z</time></trkpt><trkpt lat="45.2286464" lon="9.0476223"><ele>76.0</ele><time>2026-05-04T15:14:11.805Z</time></trkpt><trkpt lat="45.2286224" lon="9.0477865"><ele>76.0</ele><time>2026-05-04T15:14:13.808Z</time></trkpt><trkpt lat="45.2286057" lon="9.0479444"><ele>76.0</ele><time>2026-05-04T15:14:15.808Z</time></trkpt><trkpt lat="45.2285865" lon="9.0480999"><ele>76.0</ele><time>2026-05-04T15:14:17.806Z</time></trkpt><trkpt lat="45.2285694" lon="9.0482602"><ele>76.75</ele><time>2026-05-04T15:14:19.805Z</time></trkpt><trkpt lat="45.2285571" lon="9.0484147"><ele>77.5</ele><time>2026-05-04T15:14:21.805Z</time></trkpt><trkpt lat="45.2285431" lon="9.0485764"><ele>78.25</ele><time>2026-05-04T15:14:23.8Z</time></trkpt><trkpt lat="45.2285233" lon="9.0487365"><ele>79.0</ele><time>2026-05-04T15:14:25.813Z</time></trkpt><trkpt lat="45.228505" lon="9.0488951"><ele>79.0</ele><time>2026-05-04T15:14:27.801Z</time></trkpt><trkpt lat="45.2284876" lon="9.0490419"><ele>79.0</ele><time>2026-05-04T15:14:29.794Z</time></trkpt><trkpt lat="45.2284673" lon="9.0491961"><ele>79.0</ele><time>2026-05-04T15:14:31.794Z</time></trkpt><trkpt lat="45.2284503" lon="9.0493609"><ele>79.0</ele><time>2026-05-04T15:14:33.798Z</time></trkpt><trkpt lat="45.2284343" lon="9.0495234"><ele>79.0</ele><time>2026-05-04T15:14:35.794Z</time></trkpt><trkpt lat="45.2284154" lon="9.0496803"><ele>79.0</ele><time>2026-05-04T15:14:37.8Z</time></trkpt><trkpt lat="45.2283986" lon="9.0498321"><ele>79.0</ele><time>2026-05-04T15:14:39.807Z</time></trkpt><trkpt lat="45.228412" lon="9.0499562"><ele>79.0</ele><time>2026-05-04T15:14:41.809Z</time></trkpt><trkpt lat="45.2284735" lon="9.0500103"><ele>79.0</ele><time>2026-05-04T15:14:43.805Z</time></trkpt><trkpt lat="45.2285573" lon="9.0500312"><ele>79.0</ele><time>2026-05-04T15:14:45.799Z</time></trkpt><trkpt lat="45.2286222" lon="9.050058"><ele>79.0</ele><time>2026-05-04T15:14:47.809Z</time></trkpt><trkpt lat="45.2287056" lon="9.0501035"><ele>79.0</ele><time>2026-05-04T15:14:50.888Z</time></trkpt><trkpt lat="45.2287553" lon="9.0501872"><ele>79.0</ele><time>2026-05-04T15:14:52.805Z</time></trkpt><trkpt lat="45.2287545" lon="9.0502923"><ele>79.0</ele><time>2026-05-04T15:14:54.803Z</time></trkpt><trkpt lat="45.2287238" lon="9.0504051"><ele>79.0</ele><time>2026-05-04T15:14:56.802Z</time></trkpt><trkpt lat="45.2286934" lon="9.0505181"><ele>79.0</ele><time>2026-05-04T15:14:58.803Z</time></trkpt><trkpt lat="45.2286674" lon="9.0506475"><ele>79.0</ele><time>2026-05-04T15:15:00.801Z</time></trkpt><trkpt lat="45.2286367" lon="9.0507816"><ele>79.0</ele><time>2026-05-04T15:15:02.803Z</time></trkpt><trkpt lat="45.2286077" lon="9.050914"><ele>79.0</ele><time>2026-05-04T15:15:04.796Z</time></trkpt><trkpt lat="45.2285797" lon="9.0510562"><ele>79.0</ele><time>2026-05-04T15:15:06.805Z</time></trkpt><trkpt lat="45.2285563" lon="9.0511872"><ele>79.0</ele><time>2026-05-04T15:15:08.806Z</time></trkpt><trkpt lat="45.2285369" lon="9.0513161"><ele>79.0</ele><time>2026-05-04T15:15:10.799Z</time></trkpt><trkpt lat="45.2285413" lon="9.0514304"><ele>79.0</ele><time>2026-05-04T15:15:12.816Z</time></trkpt><trkpt lat="45.2286211" lon="9.051487"><ele>79.0</ele><time>2026-05-04T15:15:14.803Z</time></trkpt><trkpt lat="45.2287109" lon="9.0514983"><ele>79.0</ele><time>2026-05-04T15:15:16.871Z</time></trkpt><trkpt lat="45.2287801" lon="9.0515581"><ele>79.0</ele><time>2026-05-04T15:15:18.796Z</time></trkpt><trkpt lat="45.2287989" lon="9.0516722"><ele>79.0</ele><time>2026-05-04T15:15:20.799Z</time></trkpt><trkpt lat="45.2287966" lon="9.0517887"><ele>79.0</ele><time>2026-05-04T15:15:22.795Z</time></trkpt><trkpt lat="45.2287875" lon="9.0518984"><ele>78.4</ele><time>2026-05-04T15:15:24.799Z</time></trkpt><trkpt lat="45.2287769" lon="9.0520206"><ele>77.80000000000001</ele><time>2026-05-04T15:15:26.877Z</time></trkpt><trkpt lat="45.2287693" lon="9.0521465"><ele>77.19999999999999</ele><time>2026-05-04T15:15:28.817Z</time></trkpt><trkpt lat="45.2287582" lon="9.0522693"><ele>76.6</ele><time>2026-05-04T15:15:30.802Z</time></trkpt><trkpt lat="45.2287488" lon="9.052394"><ele>76.0</ele><time>2026-05-04T15:15:32.808Z</time></trkpt><trkpt lat="45.2287342" lon="9.0525351"><ele>76.0</ele><time>2026-05-04T15:15:34.8Z</time></trkpt><trkpt lat="45.228726" lon="9.0526786"><ele>76.0</ele><time>2026-05-04T15:15:36.798Z</time></trkpt><trkpt lat="45.2287154" lon="9.0528174"><ele>76.0</ele><time>2026-05-04T15:15:38.802Z</time></trkpt><trkpt lat="45.2287015" lon="9.0529741"><ele>76.0</ele><time>2026-05-04T15:15:40.802Z</time></trkpt><trkpt lat="45.2286842" lon="9.0531282"><ele>76.0</ele><time>2026-05-04T15:15:42.803Z</time></trkpt><trkpt lat="45.2286687" lon="9.0532766"><ele>76.6</ele><time>2026-05-04T15:15:44.802Z</time></trkpt><trkpt lat="45.228641" lon="9.0534232"><ele>77.19999999999999</ele><time>2026-05-04T15:15:46.801Z</time></trkpt><trkpt lat="45.2285867" lon="9.0535592"><ele>77.80000000000001</ele><time>2026-05-04T15:15:48.867Z</time></trkpt><trkpt lat="45.2285325" lon="9.0536594"><ele>78.4</ele><time>2026-05-04T15:15:50.811Z</time></trkpt><trkpt lat="45.2284916" lon="9.0537676"><ele>79.0</ele><time>2026-05-04T15:15:52.799Z</time></trkpt><trkpt lat="45.2284437" lon="9.0538577"><ele>79.0</ele><time>2026-05-04T15:15:54.801Z</time></trkpt><trkpt lat="45.2283855" lon="9.0539446"><ele>79.0</ele><time>2026-05-04T15:15:56.795Z</time></trkpt><trkpt lat="45.2282968" lon="9.053972"><ele>79.0</ele><time>2026-05-04T15:15:58.802Z</time></trkpt><trkpt lat="45.2281984" lon="9.0539207"><ele>79.0</ele><time>2026-05-04T15:16:00.797Z</time></trkpt><trkpt lat="45.2280982" lon="9.0538753"><ele>79.0</ele><time>2026-05-04T15:16:02.802Z</time></trkpt><trkpt lat="45.2280153" lon="9.0538296"><ele>78.60000000000001</ele><time>2026-05-04T15:16:04.797Z</time></trkpt><trkpt lat="45.2279251" lon="9.0537687"><ele>78.2</ele><time>2026-05-04T15:16:06.804Z</time></trkpt><trkpt lat="45.227826" lon="9.0537118"><ele>77.80000000000001</ele><time>2026-05-04T15:16:08.798Z</time></trkpt><trkpt lat="45.227727" lon="9.053656"><ele>77.4</ele><time>2026-05-04T15:16:10.81Z</time></trkpt><trkpt lat="45.2276317" lon="9.0535963"><ele>77.0</ele><time>2026-05-04T15:16:12.805Z</time></trkpt><trkpt lat="45.227535" lon="9.0535369"><ele>77.0</ele><time>2026-05-04T15:16:14.807Z</time></trkpt><trkpt lat="45.2274323" lon="9.0535171"><ele>77.0</ele><time>2026-05-04T15:16:16.802Z</time></trkpt><trkpt lat="45.2273436" lon="9.0535726"><ele>77.0</ele><time>2026-05-04T15:16:18.802Z</time></trkpt><trkpt lat="45.2272867" lon="9.0536772"><ele>77.0</ele><time>2026-05-04T15:16:20.797Z</time></trkpt><trkpt lat="45.2272359" lon="9.0537985"><ele>77.0</ele><time>2026-05-04T15:16:22.811Z</time></trkpt><trkpt lat="45.2271847" lon="9.0539288"><ele>76.6</ele><time>2026-05-04T15:16:24.803Z</time></trkpt><trkpt lat="45.227138" lon="9.0540596"><ele>76.2</ele><time>2026-05-04T15:16:26.806Z</time></trkpt><trkpt lat="45.2270872" lon="9.0542069"><ele>75.8</ele><time>2026-05-04T15:16:28.874Z</time></trkpt><trkpt lat="45.2270386" lon="9.0543493"><ele>75.4</ele><time>2026-05-04T15:16:30.794Z</time></trkpt><trkpt lat="45.2269912" lon="9.0544854"><ele>75.0</ele><time>2026-05-04T15:16:32.801Z</time></trkpt><trkpt lat="45.2269453" lon="9.0546281"><ele>75.0</ele><time>2026-05-04T15:16:34.807Z</time></trkpt><trkpt lat="45.2269024" lon="9.0547532"><ele>75.0</ele><time>2026-05-04T15:16:36.819Z</time></trkpt><trkpt lat="45.2268534" lon="9.0549"><ele>75.0</ele><time>2026-05-04T15:16:38.802Z</time></trkpt><trkpt lat="45.2268015" lon="9.055048"><ele>75.0</ele><time>2026-05-04T15:16:40.806Z</time></trkpt><trkpt lat="45.2267472" lon="9.0551988"><ele>75.0</ele><time>2026-05-04T15:16:42.801Z</time></trkpt><trkpt lat="45.2266944" lon="9.0553463"><ele>75.25</ele><time>2026-05-04T15:16:44.802Z</time></trkpt><trkpt lat="45.2266452" lon="9.0554893"><ele>75.5</ele><time>2026-05-04T15:16:46.797Z</time></trkpt><trkpt lat="45.2265924" lon="9.0556369"><ele>75.75</ele><time>2026-05-04T15:16:48.802Z</time></trkpt><trkpt lat="45.2265385" lon="9.0557813"><ele>76.0</ele><time>2026-05-04T15:16:50.795Z</time></trkpt><trkpt lat="45.2264834" lon="9.0559289"><ele>75.5</ele><time>2026-05-04T15:16:52.798Z</time></trkpt><trkpt lat="45.2264237" lon="9.0560712"><ele>75.0</ele><time>2026-05-04T15:16:54.807Z</time></trkpt><trkpt lat="45.2263624" lon="9.056224"><ele>74.5</ele><time>2026-05-04T15:16:56.808Z</time></trkpt><trkpt lat="45.2263035" lon="9.0563685"><ele>74.0</ele><time>2026-05-04T15:16:58.795Z</time></trkpt><trkpt lat="45.2262562" lon="9.0565002"><ele>74.60000000000001</ele><time>2026-05-04T15:17:00.805Z</time></trkpt><trkpt lat="45.2261861" lon="9.0566244"><ele>75.2</ele><time>2026-05-04T15:17:02.805Z</time></trkpt><trkpt lat="45.2260953" lon="9.0567033"><ele>75.80000000000001</ele><time>2026-05-04T15:17:04.805Z</time></trkpt><trkpt lat="45.2260062" lon="9.0567621"><ele>76.4</ele><time>2026-05-04T15:17:06.792Z</time></trkpt><trkpt lat="45.2259093" lon="9.0568468"><ele>77.0</ele><time>2026-05-04T15:17:08.805Z</time></trkpt><trkpt lat="45.2258373" lon="9.0569397"><ele>77.0</ele><time>2026-05-04T15:17:10.809Z</time></trkpt><trkpt lat="45.2257784" lon="9.0570751"><ele>77.0</ele><time>2026-05-04T15:17:12.807Z</time></trkpt><trkpt lat="45.2257068" lon="9.0572194"><ele>77.0</ele><time>2026-05-04T15:17:14.792Z</time></trkpt><trkpt lat="45.2256395" lon="9.0573471"><ele>77.0</ele><time>2026-05-04T15:17:16.801Z</time></trkpt><trkpt lat="45.2255819" lon="9.0574867"><ele>76.6</ele><time>2026-05-04T15:17:18.801Z</time></trkpt><trkpt lat="45.2255209" lon="9.0576188"><ele>76.2</ele><time>2026-05-04T15:17:20.808Z</time></trkpt><trkpt lat="45.2254658" lon="9.0577479"><ele>75.8</ele><time>2026-05-04T15:17:22.8Z</time></trkpt><trkpt lat="45.2254163" lon="9.057883"><ele>75.4</ele><time>2026-05-04T15:17:24.801Z</time></trkpt><trkpt lat="45.2253541" lon="9.0580074"><ele>75.0</ele><time>2026-05-04T15:17:26.803Z</time></trkpt><trkpt lat="45.2252853" lon="9.0581515"><ele>75.16666666666667</ele><time>2026-05-04T15:17:28.799Z</time></trkpt><trkpt lat="45.2252102" lon="9.0582927"><ele>75.33333333333333</ele><time>2026-05-04T15:17:30.805Z</time></trkpt><trkpt lat="45.2251629" lon="9.0583671"><ele>75.5</ele><time>2026-05-04T15:17:31.874Z</time></trkpt><trkpt lat="45.225119" lon="9.0584476"><ele>75.66666666666666</ele><time>2026-05-04T15:17:32.8Z</time></trkpt><trkpt lat="45.2250655" lon="9.0585291"><ele>75.83333333333333</ele><time>2026-05-04T15:17:33.801Z</time></trkpt><trkpt lat="45.2250017" lon="9.0585936"><ele>76.0</ele><time>2026-05-04T15:17:34.796Z</time></trkpt><trkpt lat="45.2249511" lon="9.0586552"><ele>76.0</ele><time>2026-05-04T15:17:35.803Z</time></trkpt><trkpt lat="45.2248974" lon="9.0587166"><ele>76.0</ele><time>2026-05-04T15:17:36.814Z</time></trkpt><trkpt lat="45.2248491" lon="9.0587805"><ele>76.0</ele><time>2026-05-04T15:17:37.801Z</time></trkpt><trkpt lat="45.2247729" lon="9.0588924"><ele>76.0</ele><time>2026-05-04T15:17:39.797Z</time></trkpt><trkpt lat="45.2247296" lon="9.0590129"><ele>76.0</ele><time>2026-05-04T15:17:41.797Z</time></trkpt><trkpt lat="45.2247034" lon="9.0591267"><ele>76.0</ele><time>2026-05-04T15:17:44.878Z</time></trkpt><trkpt lat="45.2246968" lon="9.0592243"><ele>76.16666666666666</ele><time>2026-05-04T15:17:47.798Z</time></trkpt><trkpt lat="45.2247276" lon="9.0593532"><ele>76.33333333333333</ele><time>2026-05-04T15:17:50.798Z</time></trkpt><trkpt lat="45.2247597" lon="9.0594614"><ele>76.5</ele><time>2026-05-04T15:17:52.8Z</time></trkpt><trkpt lat="45.2247827" lon="9.0595639"><ele>76.66666666666667</ele><time>2026-05-04T15:17:54.809Z</time></trkpt><trkpt lat="45.2248006" lon="9.0596553"><ele>76.83333333333334</ele><time>2026-05-04T15:17:56.801Z</time></trkpt><trkpt lat="45.2248223" lon="9.0597737"><ele>77.0</ele><time>2026-05-04T15:17:58.791Z</time></trkpt><trkpt lat="45.2248266" lon="9.059897"><ele>76.8</ele><time>2026-05-04T15:18:00.809Z</time></trkpt><trkpt lat="45.2248289" lon="9.0600222"><ele>76.6</ele><time>2026-05-04T15:18:02.798Z</time></trkpt><trkpt lat="45.2248287" lon="9.0601599"><ele>76.39999999999999</ele><time>2026-05-04T15:18:04.798Z</time></trkpt><trkpt lat="45.2248273" lon="9.0602908"><ele>76.2</ele><time>2026-05-04T15:18:06.803Z</time></trkpt><trkpt lat="45.2248174" lon="9.0604265"><ele>76.0</ele><time>2026-05-04T15:18:08.868Z</time></trkpt><trkpt lat="45.2247969" lon="9.0605412"><ele>76.0</ele><time>2026-05-04T15:18:10.798Z</time></trkpt><trkpt lat="45.2247549" lon="9.0606176"><ele>76.0</ele><time>2026-05-04T15:18:12.796Z</time></trkpt><trkpt lat="45.2247074" lon="9.0606866"><ele>76.0</ele><time>2026-05-04T15:18:14.81Z</time></trkpt><trkpt lat="45.2246609" lon="9.0607689"><ele>76.0</ele><time>2026-05-04T15:18:16.812Z</time></trkpt><trkpt lat="45.2246187" lon="9.0608766"><ele>76.0</ele><time>2026-05-04T15:18:18.794Z</time></trkpt><trkpt lat="45.2245563" lon="9.0609569"><ele>76.0</ele><time>2026-05-04T15:18:20.794Z</time></trkpt><trkpt lat="45.2244627" lon="9.0609668"><ele>76.0</ele><time>2026-05-04T15:18:22.802Z</time></trkpt><trkpt lat="45.2243843" lon="9.0609044"><ele>76.0</ele><time>2026-05-04T15:18:24.795Z</time></trkpt><trkpt lat="45.2243251" lon="9.0608021"><ele>76.0</ele><time>2026-05-04T15:18:26.802Z</time></trkpt><trkpt lat="45.2242632" lon="9.0606972"><ele>76.0</ele><time>2026-05-04T15:18:28.799Z</time></trkpt><trkpt lat="45.2241931" lon="9.0606019"><ele>76.0</ele><time>2026-05-04T15:18:30.797Z</time></trkpt><trkpt lat="45.224108" lon="9.0605305"><ele>76.0</ele><time>2026-05-04T15:18:32.804Z</time></trkpt><trkpt lat="45.2240124" lon="9.0604744"><ele>76.0</ele><time>2026-05-04T15:18:34.805Z</time></trkpt><trkpt lat="45.223914" lon="9.0604223"><ele>76.0</ele><time>2026-05-04T15:18:36.807Z</time></trkpt><trkpt lat="45.2238282" lon="9.0603476"><ele>76.0</ele><time>2026-05-04T15:18:38.797Z</time></trkpt><trkpt lat="45.2237531" lon="9.0602867"><ele>76.0</ele><time>2026-05-04T15:18:40.805Z</time></trkpt><trkpt lat="45.2236781" lon="9.0602278"><ele>76.2</ele><time>2026-05-04T15:18:42.794Z</time></trkpt><trkpt lat="45.2235937" lon="9.0601513"><ele>76.39999999999999</ele><time>2026-05-04T15:18:44.797Z</time></trkpt><trkpt lat="45.2235111" lon="9.060064"><ele>76.6</ele><time>2026-05-04T15:18:46.804Z</time></trkpt><trkpt lat="45.2234325" lon="9.0599659"><ele>76.8</ele><time>2026-05-04T15:18:48.807Z</time></trkpt><trkpt lat="45.2233574" lon="9.0598631"><ele>77.0</ele><time>2026-05-04T15:18:50.797Z</time></trkpt><trkpt lat="45.2232875" lon="9.0597731"><ele>77.0</ele><time>2026-05-04T15:18:52.801Z</time></trkpt><trkpt lat="45.2232258" lon="9.0597023"><ele>77.0</ele><time>2026-05-04T15:18:54.81Z</time></trkpt><trkpt lat="45.223164" lon="9.0596277"><ele>77.0</ele><time>2026-05-04T15:18:56.796Z</time></trkpt><trkpt lat="45.2231147" lon="9.0595602"><ele>77.0</ele><time>2026-05-04T15:18:58.797Z</time></trkpt><trkpt lat="45.2230616" lon="9.0595054"><ele>77.0</ele><time>2026-05-04T15:19:00.792Z</time></trkpt><trkpt lat="45.223002" lon="9.0594216"><ele>77.0</ele><time>2026-05-04T15:19:02.8Z</time></trkpt><trkpt lat="45.2229345" lon="9.0593292"><ele>76.83333333333334</ele><time>2026-05-04T15:19:04.795Z</time></trkpt><trkpt lat="45.2228656" lon="9.0592424"><ele>76.66666666666667</ele><time>2026-05-04T15:19:06.802Z</time></trkpt><trkpt lat="45.2227969" lon="9.0591521"><ele>76.5</ele><time>2026-05-04T15:19:08.801Z</time></trkpt><trkpt lat="45.2227291" lon="9.0590773"><ele>76.33333333333333</ele><time>2026-05-04T15:19:10.798Z</time></trkpt><trkpt lat="45.2226701" lon="9.059005"><ele>76.16666666666666</ele><time>2026-05-04T15:19:12.793Z</time></trkpt><trkpt lat="45.2226081" lon="9.0589392"><ele>76.0</ele><time>2026-05-04T15:19:14.797Z</time></trkpt><trkpt lat="45.222543" lon="9.0589193"><ele>76.0</ele><time>2026-05-04T15:19:16.791Z</time></trkpt><trkpt lat="45.222466" lon="9.0589859"><ele>76.0</ele><time>2026-05-04T15:19:18.796Z</time></trkpt><trkpt lat="45.2223966" lon="9.0590756"><ele>76.0</ele><time>2026-05-04T15:19:20.792Z</time></trkpt><trkpt lat="45.222336" lon="9.0591788"><ele>76.0</ele><time>2026-05-04T15:19:22.806Z</time></trkpt><trkpt lat="45.2222627" lon="9.0592842"><ele>76.0</ele><time>2026-05-04T15:19:24.802Z</time></trkpt><trkpt lat="45.2221836" lon="9.0593853"><ele>75.2</ele><time>2026-05-04T15:19:26.795Z</time></trkpt><trkpt lat="45.2221052" lon="9.0594755"><ele>74.39999999999999</ele><time>2026-05-04T15:19:28.801Z</time></trkpt><trkpt lat="45.2220182" lon="9.0595634"><ele>73.6</ele><time>2026-05-04T15:19:30.81Z</time></trkpt><trkpt lat="45.2219321" lon="9.0596541"><ele>72.8</ele><time>2026-05-04T15:19:32.798Z</time></trkpt><trkpt lat="45.2218499" lon="9.0597352"><ele>72.0</ele><time>2026-05-04T15:19:34.796Z</time></trkpt><trkpt lat="45.2217705" lon="9.0598208"><ele>72.0</ele><time>2026-05-04T15:19:36.794Z</time></trkpt><trkpt lat="45.2216811" lon="9.0599214"><ele>72.0</ele><time>2026-05-04T15:19:38.877Z</time></trkpt><trkpt lat="45.2215945" lon="9.0600122"><ele>72.0</ele><time>2026-05-04T15:19:40.808Z</time></trkpt><trkpt lat="45.2215216" lon="9.0601012"><ele>72.0</ele><time>2026-05-04T15:19:42.798Z</time></trkpt><trkpt lat="45.2214449" lon="9.0601871"><ele>72.0</ele><time>2026-05-04T15:19:44.801Z</time></trkpt><trkpt lat="45.2213612" lon="9.0602777"><ele>72.8</ele><time>2026-05-04T15:19:46.798Z</time></trkpt><trkpt lat="45.2212734" lon="9.0603752"><ele>73.6</ele><time>2026-05-04T15:19:48.8Z</time></trkpt><trkpt lat="45.22119" lon="9.0604684"><ele>74.39999999999999</ele><time>2026-05-04T15:19:50.797Z</time></trkpt><trkpt lat="45.2211106" lon="9.0605578"><ele>75.2</ele><time>2026-05-04T15:19:52.806Z</time></trkpt><trkpt lat="45.2210297" lon="9.0606478"><ele>76.0</ele><time>2026-05-04T15:19:54.806Z</time></trkpt><trkpt lat="45.2209457" lon="9.0607455"><ele>76.2</ele><time>2026-05-04T15:19:56.801Z</time></trkpt><trkpt lat="45.2208647" lon="9.0608392"><ele>76.39999999999999</ele><time>2026-05-04T15:19:58.799Z</time></trkpt><trkpt lat="45.2207883" lon="9.0609285"><ele>76.6</ele><time>2026-05-04T15:20:00.804Z</time></trkpt><trkpt lat="45.2207122" lon="9.0609998"><ele>76.8</ele><time>2026-05-04T15:20:02.793Z</time></trkpt><trkpt lat="45.2206323" lon="9.0610783"><ele>77.0</ele><time>2026-05-04T15:20:04.802Z</time></trkpt><trkpt lat="45.2205571" lon="9.0611602"><ele>77.0</ele><time>2026-05-04T15:20:06.805Z</time></trkpt><trkpt lat="45.2204897" lon="9.0612516"><ele>77.0</ele><time>2026-05-04T15:20:08.802Z</time></trkpt><trkpt lat="45.2204554" lon="9.0613346"><ele>77.0</ele><time>2026-05-04T15:20:10.81Z</time></trkpt><trkpt lat="45.2204712" lon="9.0614319"><ele>77.0</ele><time>2026-05-04T15:20:13.795Z</time></trkpt><trkpt lat="45.2205033" lon="9.0615125"><ele>77.0</ele><time>2026-05-04T15:20:15.794Z</time></trkpt><trkpt lat="45.220543" lon="9.061592"><ele>77.0</ele><time>2026-05-04T15:20:17.798Z</time></trkpt><trkpt lat="45.2205796" lon="9.0616667"><ele>77.0</ele><time>2026-05-04T15:20:19.804Z</time></trkpt><trkpt lat="45.2206209" lon="9.0617444"><ele>77.0</ele><time>2026-05-04T15:20:21.804Z</time></trkpt><trkpt lat="45.2206645" lon="9.0618302"><ele>77.0</ele><time>2026-05-04T15:20:23.797Z</time></trkpt><trkpt lat="45.2207124" lon="9.0619262"><ele>77.0</ele><time>2026-05-04T15:20:25.872Z</time></trkpt><trkpt lat="45.2207624" lon="9.0620257"><ele>77.0</ele><time>2026-05-04T15:20:27.802Z</time></trkpt><trkpt lat="45.2208165" lon="9.0621296"><ele>77.0</ele><time>2026-05-04T15:20:29.798Z</time></trkpt><trkpt lat="45.220867" lon="9.0622322"><ele>77.0</ele><time>2026-05-04T15:20:31.794Z</time></trkpt><trkpt lat="45.2209198" lon="9.0623471"><ele>77.2</ele><time>2026-05-04T15:20:33.798Z</time></trkpt><trkpt lat="45.2209768" lon="9.0624524"><ele>77.4</ele><time>2026-05-04T15:20:35.795Z</time></trkpt><trkpt lat="45.2210292" lon="9.0625646"><ele>77.6</ele><time>2026-05-04T15:20:37.797Z</time></trkpt><trkpt lat="45.2210848" lon="9.0626785"><ele>77.8</ele><time>2026-05-04T15:20:39.796Z</time></trkpt><trkpt lat="45.2211392" lon="9.0627993"><ele>78.0</ele><time>2026-05-04T15:20:41.806Z</time></trkpt><trkpt lat="45.2211975" lon="9.0629163"><ele>78.0</ele><time>2026-05-04T15:20:43.793Z</time></trkpt><trkpt lat="45.2212536" lon="9.0630321"><ele>78.0</ele><time>2026-05-04T15:20:45.799Z</time></trkpt><trkpt lat="45.2213007" lon="9.0631387"><ele>78.0</ele><time>2026-05-04T15:20:47.798Z</time></trkpt><trkpt lat="45.2213167" lon="9.0632495"><ele>78.0</ele><time>2026-05-04T15:20:49.799Z</time></trkpt><trkpt lat="45.2212777" lon="9.0633592"><ele>78.0</ele><time>2026-05-04T15:20:51.795Z</time></trkpt><trkpt lat="45.2212217" lon="9.0634376"><ele>78.0</ele><time>2026-05-04T15:20:53.793Z</time></trkpt><trkpt lat="45.221165" lon="9.0635059"><ele>77.6</ele><time>2026-05-04T15:20:55.793Z</time></trkpt><trkpt lat="45.2210985" lon="9.0635745"><ele>77.19999999999999</ele><time>2026-05-04T15:20:57.795Z</time></trkpt><trkpt lat="45.221027" lon="9.0636518"><ele>76.8</ele><time>2026-05-04T15:20:59.796Z</time></trkpt><trkpt lat="45.2209469" lon="9.0637341"><ele>76.39999999999999</ele><time>2026-05-04T15:21:01.787Z</time></trkpt><trkpt lat="45.2208708" lon="9.063824"><ele>76.0</ele><time>2026-05-04T15:21:03.793Z</time></trkpt><trkpt lat="45.2207956" lon="9.0638974"><ele>76.0</ele><time>2026-05-04T15:21:05.803Z</time></trkpt><trkpt lat="45.2207124" lon="9.0639917"><ele>76.0</ele><time>2026-05-04T15:21:07.8Z</time></trkpt><trkpt lat="45.2206232" lon="9.0640814"><ele>76.0</ele><time>2026-05-04T15:21:09.794Z</time></trkpt><trkpt lat="45.2205374" lon="9.0641603"><ele>76.0</ele><time>2026-05-04T15:21:11.797Z</time></trkpt><trkpt lat="45.2204429" lon="9.0642338"><ele>76.0</ele><time>2026-05-04T15:21:13.798Z</time></trkpt><trkpt lat="45.2203496" lon="9.064311"><ele>76.0</ele><time>2026-05-04T15:21:15.8Z</time></trkpt><trkpt lat="45.2202535" lon="9.0643927"><ele>76.0</ele><time>2026-05-04T15:21:17.8Z</time></trkpt><trkpt lat="45.2201583" lon="9.0644829"><ele>76.0</ele><time>2026-05-04T15:21:19.8Z</time></trkpt><trkpt lat="45.2200625" lon="9.064556"><ele>76.0</ele><time>2026-05-04T15:21:21.798Z</time></trkpt><trkpt lat="45.2199717" lon="9.0646319"><ele>76.0</ele><time>2026-05-04T15:21:23.799Z</time></trkpt><trkpt lat="45.2198805" lon="9.0647117"><ele>76.0</ele><time>2026-05-04T15:21:25.804Z</time></trkpt><trkpt lat="45.2197849" lon="9.0647971"><ele>76.0</ele><time>2026-05-04T15:21:27.885Z</time></trkpt><trkpt lat="45.219692" lon="9.0648775"><ele>76.0</ele><time>2026-05-04T15:21:29.807Z</time></trkpt><trkpt lat="45.2195946" lon="9.064957"><ele>76.0</ele><time>2026-05-04T15:21:31.799Z</time></trkpt><trkpt lat="45.2194967" lon="9.0650394"><ele>76.0</ele><time>2026-05-04T15:21:33.791Z</time></trkpt><trkpt lat="45.2194015" lon="9.0651205"><ele>76.0</ele><time>2026-05-04T15:21:35.794Z</time></trkpt><trkpt lat="45.2193082" lon="9.0651962"><ele>76.0</ele><time>2026-05-04T15:21:37.797Z</time></trkpt><trkpt lat="45.2192165" lon="9.0652761"><ele>76.0</ele><time>2026-05-04T15:21:39.805Z</time></trkpt><trkpt lat="45.2191213" lon="9.0653589"><ele>76.0</ele><time>2026-05-04T15:21:41.797Z</time></trkpt><trkpt lat="45.2190274" lon="9.0654292"><ele>76.0</ele><time>2026-05-04T15:21:43.803Z</time></trkpt><trkpt lat="45.2189299" lon="9.0655182"><ele>76.0</ele><time>2026-05-04T15:21:45.797Z</time></trkpt><trkpt lat="45.218832" lon="9.0656039"><ele>76.0</ele><time>2026-05-04T15:21:47.813Z</time></trkpt><trkpt lat="45.2187355" lon="9.0656853"><ele>76.0</ele><time>2026-05-04T15:21:49.792Z</time></trkpt><trkpt lat="45.2186439" lon="9.065765"><ele>76.0</ele><time>2026-05-04T15:21:51.799Z</time></trkpt><trkpt lat="45.2185507" lon="9.0658429"><ele>76.0</ele><time>2026-05-04T15:21:53.795Z</time></trkpt><trkpt lat="45.2184587" lon="9.0659189"><ele>76.0</ele><time>2026-05-04T15:21:55.799Z</time></trkpt><trkpt lat="45.2183688" lon="9.0659938"><ele>76.0</ele><time>2026-05-04T15:21:57.804Z</time></trkpt><trkpt lat="45.2182752" lon="9.0660691"><ele>76.0</ele><time>2026-05-04T15:21:59.799Z</time></trkpt><trkpt lat="45.2181809" lon="9.0661474"><ele>76.0</ele><time>2026-05-04T15:22:01.793Z</time></trkpt><trkpt lat="45.2180827" lon="9.0662219"><ele>76.0</ele><time>2026-05-04T15:22:03.797Z</time></trkpt><trkpt lat="45.2179873" lon="9.0662975"><ele>76.0</ele><time>2026-05-04T15:22:05.801Z</time></trkpt><trkpt lat="45.2178952" lon="9.0663843"><ele>76.0</ele><time>2026-05-04T15:22:07.801Z</time></trkpt><trkpt lat="45.2177973" lon="9.0664637"><ele>76.0</ele><time>2026-05-04T15:22:09.802Z</time></trkpt><trkpt lat="45.2177034" lon="9.0665487"><ele>76.0</ele><time>2026-05-04T15:22:11.792Z</time></trkpt><trkpt lat="45.217619" lon="9.0666224"><ele>76.0</ele><time>2026-05-04T15:22:13.792Z</time></trkpt><trkpt lat="45.2175268" lon="9.066687"><ele>76.0</ele><time>2026-05-04T15:22:15.793Z</time></trkpt><trkpt lat="45.2174324" lon="9.0667647"><ele>76.0</ele><time>2026-05-04T15:22:17.869Z</time></trkpt><trkpt lat="45.217346" lon="9.0668346"><ele>76.0</ele><time>2026-05-04T15:22:19.816Z</time></trkpt><trkpt lat="45.2172772" lon="9.0669211"><ele>76.0</ele><time>2026-05-04T15:22:21.799Z</time></trkpt><trkpt lat="45.2172857" lon="9.0670373"><ele>76.0</ele><time>2026-05-04T15:22:23.799Z</time></trkpt><trkpt lat="45.2173168" lon="9.0671376"><ele>76.0</ele><time>2026-05-04T15:22:25.8Z</time></trkpt><trkpt lat="45.2173417" lon="9.0672475"><ele>76.0</ele><time>2026-05-04T15:22:27.804Z</time></trkpt><trkpt lat="45.2173633" lon="9.0673646"><ele>76.0</ele><time>2026-05-04T15:22:29.799Z</time></trkpt><trkpt lat="45.2173722" lon="9.0674926"><ele>76.0</ele><time>2026-05-04T15:22:31.799Z</time></trkpt><trkpt lat="45.2173966" lon="9.0676334"><ele>76.0</ele><time>2026-05-04T15:22:33.802Z</time></trkpt><trkpt lat="45.2174186" lon="9.0677868"><ele>75.6</ele><time>2026-05-04T15:22:35.795Z</time></trkpt><trkpt lat="45.2174437" lon="9.0679454"><ele>75.19999999999999</ele><time>2026-05-04T15:22:37.791Z</time></trkpt><trkpt lat="45.2174658" lon="9.0680942"><ele>74.80000000000001</ele><time>2026-05-04T15:22:39.799Z</time></trkpt><trkpt lat="45.2174822" lon="9.0682441"><ele>74.4</ele><time>2026-05-04T15:22:41.803Z</time></trkpt><trkpt lat="45.2175045" lon="9.0683826"><ele>74.0</ele><time>2026-05-04T15:22:43.799Z</time></trkpt><trkpt lat="45.2175414" lon="9.0685358"><ele>74.0</ele><time>2026-05-04T15:22:45.804Z</time></trkpt><trkpt lat="45.2175979" lon="9.0686837"><ele>74.0</ele><time>2026-05-04T15:22:47.803Z</time></trkpt><trkpt lat="45.2176641" lon="9.0688244"><ele>74.0</ele><time>2026-05-04T15:22:49.793Z</time></trkpt><trkpt lat="45.2177276" lon="9.0689722"><ele>74.0</ele><time>2026-05-04T15:22:51.799Z</time></trkpt><trkpt lat="45.2177869" lon="9.0691145"><ele>74.0</ele><time>2026-05-04T15:22:53.792Z</time></trkpt><trkpt lat="45.2178353" lon="9.069247"><ele>74.0</ele><time>2026-05-04T15:22:55.794Z</time></trkpt><trkpt lat="45.2178738" lon="9.0693672"><ele>74.0</ele><time>2026-05-04T15:22:57.875Z</time></trkpt><trkpt lat="45.2179115" lon="9.0695029"><ele>74.0</ele><time>2026-05-04T15:22:59.795Z</time></trkpt><trkpt lat="45.2179442" lon="9.0696461"><ele>74.0</ele><time>2026-05-04T15:23:01.797Z</time></trkpt><trkpt lat="45.2179724" lon="9.0698097"><ele>74.25</ele><time>2026-05-04T15:23:03.809Z</time></trkpt><trkpt lat="45.2179928" lon="9.0699703"><ele>74.5</ele><time>2026-05-04T15:23:05.794Z</time></trkpt><trkpt lat="45.2180064" lon="9.0701325"><ele>74.75</ele><time>2026-05-04T15:23:07.802Z</time></trkpt><trkpt lat="45.2179987" lon="9.0702912"><ele>75.0</ele><time>2026-05-04T15:23:09.867Z</time></trkpt><trkpt lat="45.2179742" lon="9.0704437"><ele>75.0</ele><time>2026-05-04T15:23:11.801Z</time></trkpt><trkpt lat="45.2179008" lon="9.0705667"><ele>75.0</ele><time>2026-05-04T15:23:13.794Z</time></trkpt><trkpt lat="45.2178192" lon="9.0706751"><ele>75.0</ele><time>2026-05-04T15:23:15.795Z</time></trkpt><trkpt lat="45.217744" lon="9.0707944"><ele>75.0</ele><time>2026-05-04T15:23:17.8Z</time></trkpt><trkpt lat="45.2176705" lon="9.0709011"><ele>75.0</ele><time>2026-05-04T15:23:19.789Z</time></trkpt><trkpt lat="45.2175822" lon="9.0709538"><ele>75.33333333333333</ele><time>2026-05-04T15:23:21.791Z</time></trkpt><trkpt lat="45.2174994" lon="9.0709861"><ele>75.66666666666667</ele><time>2026-05-04T15:23:23.803Z</time></trkpt><trkpt lat="45.2174298" lon="9.0710276"><ele>76.0</ele><time>2026-05-04T15:23:25.795Z</time></trkpt><trkpt lat="45.2173557" lon="9.071074"><ele>76.33333333333334</ele><time>2026-05-04T15:23:27.786Z</time></trkpt><trkpt lat="45.2172737" lon="9.0711303"><ele>76.66666666666667</ele><time>2026-05-04T15:23:29.794Z</time></trkpt><trkpt lat="45.2171878" lon="9.071181"><ele>77.0</ele><time>2026-05-04T15:23:31.795Z</time></trkpt><trkpt lat="45.2170954" lon="9.071228"><ele>76.2</ele><time>2026-05-04T15:23:33.789Z</time></trkpt><trkpt lat="45.2169948" lon="9.0712767"><ele>75.4</ele><time>2026-05-04T15:23:35.788Z</time></trkpt><trkpt lat="45.2169029" lon="9.0713233"><ele>74.6</ele><time>2026-05-04T15:23:37.797Z</time></trkpt><trkpt lat="45.2168013" lon="9.0713787"><ele>73.8</ele><time>2026-05-04T15:23:39.808Z</time></trkpt><trkpt lat="45.2167123" lon="9.0714582"><ele>73.0</ele><time>2026-05-04T15:23:41.787Z</time></trkpt><trkpt lat="45.2166365" lon="9.0715649"><ele>72.8</ele><time>2026-05-04T15:23:43.796Z</time></trkpt><trkpt lat="45.2165574" lon="9.0716784"><ele>72.6</ele><time>2026-05-04T15:23:45.792Z</time></trkpt><trkpt lat="45.2164828" lon="9.0717869"><ele>72.4</ele><time>2026-05-04T15:23:47.8Z</time></trkpt><trkpt lat="45.2164055" lon="9.0719053"><ele>72.2</ele><time>2026-05-04T15:23:49.799Z</time></trkpt><trkpt lat="45.2163442" lon="9.0720257"><ele>72.0</ele><time>2026-05-04T15:23:51.802Z</time></trkpt><trkpt lat="45.2162753" lon="9.0721467"><ele>72.0</ele><time>2026-05-04T15:23:53.794Z</time></trkpt><trkpt lat="45.2162005" lon="9.0722505"><ele>72.0</ele><time>2026-05-04T15:23:55.796Z</time></trkpt><trkpt lat="45.2161171" lon="9.0723579"><ele>72.0</ele><time>2026-05-04T15:23:57.801Z</time></trkpt><trkpt lat="45.2160258" lon="9.0724738"><ele>72.0</ele><time>2026-05-04T15:23:59.795Z</time></trkpt><trkpt lat="45.2159436" lon="9.0725839"><ele>71.8</ele><time>2026-05-04T15:24:01.794Z</time></trkpt><trkpt lat="45.21586" lon="9.0726987"><ele>71.6</ele><time>2026-05-04T15:24:03.796Z</time></trkpt><trkpt lat="45.2157802" lon="9.0727971"><ele>71.39999999999999</ele><time>2026-05-04T15:24:05.795Z</time></trkpt><trkpt lat="45.2157056" lon="9.0728985"><ele>71.2</ele><time>2026-05-04T15:24:07.791Z</time></trkpt><trkpt lat="45.2156281" lon="9.0730115"><ele>71.0</ele><time>2026-05-04T15:24:09.793Z</time></trkpt><trkpt lat="45.2155526" lon="9.07313"><ele>71.0</ele><time>2026-05-04T15:24:11.798Z</time></trkpt><trkpt lat="45.2154793" lon="9.0732563"><ele>71.0</ele><time>2026-05-04T15:24:13.802Z</time></trkpt><trkpt lat="45.2154067" lon="9.0733543"><ele>71.0</ele><time>2026-05-04T15:24:15.797Z</time></trkpt><trkpt lat="45.2153299" lon="9.0734421"><ele>71.0</ele><time>2026-05-04T15:24:17.798Z</time></trkpt><trkpt lat="45.215254" lon="9.0735443"><ele>71.0</ele><time>2026-05-04T15:24:19.808Z</time></trkpt><trkpt lat="45.2151818" lon="9.0736479"><ele>71.39999999999999</ele><time>2026-05-04T15:24:21.792Z</time></trkpt><trkpt lat="45.2151069" lon="9.0737594"><ele>71.8</ele><time>2026-05-04T15:24:23.805Z</time></trkpt><trkpt lat="45.2150262" lon="9.0738584"><ele>72.19999999999999</ele><time>2026-05-04T15:24:25.802Z</time></trkpt><trkpt lat="45.214946" lon="9.0739684"><ele>72.6</ele><time>2026-05-04T15:24:27.793Z</time></trkpt><trkpt lat="45.2148635" lon="9.0740849"><ele>73.0</ele><time>2026-05-04T15:24:29.796Z</time></trkpt><trkpt lat="45.2147795" lon="9.0741738"><ele>73.4</ele><time>2026-05-04T15:24:31.804Z</time></trkpt><trkpt lat="45.2146855" lon="9.0742521"><ele>73.8</ele><time>2026-05-04T15:24:33.8Z</time></trkpt><trkpt lat="45.214627" lon="9.0742864"><ele>74.2</ele><time>2026-05-04T15:24:34.795Z</time></trkpt><trkpt lat="45.2145087" lon="9.0743476"><ele>74.6</ele><time>2026-05-04T15:24:36.799Z</time></trkpt><trkpt lat="45.2143965" lon="9.0744268"><ele>75.0</ele><time>2026-05-04T15:24:38.797Z</time></trkpt><trkpt lat="45.2142993" lon="9.0745248"><ele>75.0</ele><time>2026-05-04T15:24:40.8Z</time></trkpt><trkpt lat="45.2142134" lon="9.0746295"><ele>75.0</ele><time>2026-05-04T15:24:42.792Z</time></trkpt><trkpt lat="45.2141471" lon="9.0747424"><ele>75.0</ele><time>2026-05-04T15:24:44.795Z</time></trkpt><trkpt lat="45.2140824" lon="9.0748495"><ele>75.0</ele><time>2026-05-04T15:24:46.806Z</time></trkpt><trkpt lat="45.2140104" lon="9.0749733"><ele>75.0</ele><time>2026-05-04T15:24:48.8Z</time></trkpt><trkpt lat="45.2139596" lon="9.0751066"><ele>73.6</ele><time>2026-05-04T15:24:50.802Z</time></trkpt><trkpt lat="45.2138947" lon="9.0752268"><ele>72.2</ele><time>2026-05-04T15:24:52.874Z</time></trkpt><trkpt lat="45.2138219" lon="9.0753498"><ele>70.8</ele><time>2026-05-04T15:24:54.805Z</time></trkpt><trkpt lat="45.2137545" lon="9.0754596"><ele>69.4</ele><time>2026-05-04T15:24:56.796Z</time></trkpt><trkpt lat="45.2136897" lon="9.075571"><ele>68.0</ele><time>2026-05-04T15:24:58.79Z</time></trkpt><trkpt lat="45.2136266" lon="9.0756976"><ele>69.0</ele><time>2026-05-04T15:25:00.79Z</time></trkpt><trkpt lat="45.2135701" lon="9.0758395"><ele>70.0</ele><time>2026-05-04T15:25:02.792Z</time></trkpt><trkpt lat="45.2135144" lon="9.0759865"><ele>71.0</ele><time>2026-05-04T15:25:04.796Z</time></trkpt><trkpt lat="45.2134612" lon="9.0761263"><ele>72.0</ele><time>2026-05-04T15:25:06.797Z</time></trkpt><trkpt lat="45.2134074" lon="9.0762651"><ele>72.0</ele><time>2026-05-04T15:25:08.805Z</time></trkpt><trkpt lat="45.213359" lon="9.0764148"><ele>72.0</ele><time>2026-05-04T15:25:10.793Z</time></trkpt><trkpt lat="45.2133146" lon="9.0765666"><ele>72.0</ele><time>2026-05-04T15:25:12.797Z</time></trkpt><trkpt lat="45.2132694" lon="9.0767108"><ele>72.0</ele><time>2026-05-04T15:25:14.792Z</time></trkpt><trkpt lat="45.2132344" lon="9.0768393"><ele>72.0</ele><time>2026-05-04T15:25:16.791Z</time></trkpt><trkpt lat="45.2131914" lon="9.0769613"><ele>72.4</ele><time>2026-05-04T15:25:18.801Z</time></trkpt><trkpt lat="45.2131554" lon="9.0770804"><ele>72.80000000000001</ele><time>2026-05-04T15:25:20.795Z</time></trkpt><trkpt lat="45.2131474" lon="9.0772139"><ele>73.2</ele><time>2026-05-04T15:25:22.804Z</time></trkpt><trkpt lat="45.2131427" lon="9.0773542"><ele>73.60000000000001</ele><time>2026-05-04T15:25:24.803Z</time></trkpt><trkpt lat="45.2131443" lon="9.077492"><ele>74.0</ele><time>2026-05-04T15:25:26.796Z</time></trkpt><trkpt lat="45.213146" lon="9.077632"><ele>74.8</ele><time>2026-05-04T15:25:28.8Z</time></trkpt><trkpt lat="45.2131482" lon="9.077779"><ele>75.60000000000001</ele><time>2026-05-04T15:25:30.792Z</time></trkpt><trkpt lat="45.2131473" lon="9.0779237"><ele>76.4</ele><time>2026-05-04T15:25:32.806Z</time></trkpt><trkpt lat="45.2131461" lon="9.0780608"><ele>77.2</ele><time>2026-05-04T15:25:34.802Z</time></trkpt><trkpt lat="45.2131376" lon="9.0781799"><ele>78.0</ele><time>2026-05-04T15:25:36.796Z</time></trkpt><trkpt lat="45.2131204" lon="9.0782897"><ele>78.0</ele><time>2026-05-04T15:25:38.791Z</time></trkpt><trkpt lat="45.213115" lon="9.0783789"><ele>78.0</ele><time>2026-05-04T15:25:40.791Z</time></trkpt><trkpt lat="45.2131681" lon="9.0784292"><ele>78.0</ele><time>2026-05-04T15:25:43.801Z</time></trkpt><trkpt lat="45.2132379" lon="9.0784861"><ele>78.0</ele><time>2026-05-04T15:25:46.809Z</time></trkpt><trkpt lat="45.2133229" lon="9.0785564"><ele>78.0</ele><time>2026-05-04T15:25:49.795Z</time></trkpt><trkpt lat="45.2133861" lon="9.0786092"><ele>78.0</ele><time>2026-05-04T15:25:51.799Z</time></trkpt><trkpt lat="45.2134445" lon="9.0786818"><ele>78.0</ele><time>2026-05-04T15:25:53.794Z</time></trkpt><trkpt lat="45.2135097" lon="9.0787531"><ele>78.0</ele><time>2026-05-04T15:25:55.801Z</time></trkpt><trkpt lat="45.2135709" lon="9.0788267"><ele>78.0</ele><time>2026-05-04T15:25:57.801Z</time></trkpt><trkpt lat="45.2136374" lon="9.0788998"><ele>78.0</ele><time>2026-05-04T15:25:59.792Z</time></trkpt><trkpt lat="45.2137014" lon="9.0789715"><ele>78.0</ele><time>2026-05-04T15:26:01.801Z</time></trkpt><trkpt lat="45.2137627" lon="9.0790525"><ele>78.0</ele><time>2026-05-04T15:26:03.798Z</time></trkpt><trkpt lat="45.2138331" lon="9.0791201"><ele>78.0</ele><time>2026-05-04T15:26:05.801Z</time></trkpt><trkpt lat="45.2139052" lon="9.0791984"><ele>78.0</ele><time>2026-05-04T15:26:07.798Z</time></trkpt><trkpt lat="45.2139726" lon="9.0792704"><ele>78.0</ele><time>2026-05-04T15:26:09.799Z</time></trkpt><trkpt lat="45.2140339" lon="9.0793353"><ele>78.0</ele><time>2026-05-04T15:26:11.797Z</time></trkpt><trkpt lat="45.2140962" lon="9.0794022"><ele>78.0</ele><time>2026-05-04T15:26:13.793Z</time></trkpt><trkpt lat="45.2141608" lon="9.0794699"><ele>78.0</ele><time>2026-05-04T15:26:15.799Z</time></trkpt><trkpt lat="45.2142234" lon="9.079529"><ele>78.5</ele><time>2026-05-04T15:26:17.798Z</time></trkpt><trkpt lat="45.2142882" lon="9.0795978"><ele>79.0</ele><time>2026-05-04T15:26:19.806Z</time></trkpt><trkpt lat="45.2143482" lon="9.0796587"><ele>79.5</ele><time>2026-05-04T15:26:21.799Z</time></trkpt><trkpt lat="45.2144155" lon="9.0797295"><ele>80.0</ele><time>2026-05-04T15:26:23.878Z</time></trkpt><trkpt lat="45.2144854" lon="9.0798041"><ele>80.5</ele><time>2026-05-04T15:26:25.787Z</time></trkpt><trkpt lat="45.2145477" lon="9.0798735"><ele>81.0</ele><time>2026-05-04T15:26:27.803Z</time></trkpt><trkpt lat="45.2146156" lon="9.0799321"><ele>81.0</ele><time>2026-05-04T15:26:29.793Z</time></trkpt><trkpt lat="45.214689" lon="9.0799994"><ele>81.0</ele><time>2026-05-04T15:26:31.797Z</time></trkpt><trkpt lat="45.2147493" lon="9.0800597"><ele>81.0</ele><time>2026-05-04T15:26:33.792Z</time></trkpt><trkpt lat="45.2148112" lon="9.0801173"><ele>81.0</ele><time>2026-05-04T15:26:35.795Z</time></trkpt><trkpt lat="45.2148695" lon="9.0801759"><ele>81.0</ele><time>2026-05-04T15:26:37.876Z</time></trkpt><trkpt lat="45.2149201" lon="9.0802337"><ele>81.0</ele><time>2026-05-04T15:26:39.802Z</time></trkpt><trkpt lat="45.2149576" lon="9.0803331"><ele>81.0</ele><time>2026-05-04T15:26:42.798Z</time></trkpt><trkpt lat="45.214909" lon="9.0804352"><ele>81.0</ele><time>2026-05-04T15:26:45.793Z</time></trkpt><trkpt lat="45.2148586" lon="9.0805209"><ele>81.0</ele><time>2026-05-04T15:26:47.795Z</time></trkpt><trkpt lat="45.214806" lon="9.0806265"><ele>81.0</ele><time>2026-05-04T15:26:49.812Z</time></trkpt><trkpt lat="45.2147642" lon="9.0807195"><ele>81.0</ele><time>2026-05-04T15:26:51.808Z</time></trkpt><trkpt lat="45.2147149" lon="9.0808323"><ele>81.0</ele><time>2026-05-04T15:26:53.793Z</time></trkpt><trkpt lat="45.2146564" lon="9.0809471"><ele>81.0</ele><time>2026-05-04T15:26:55.798Z</time></trkpt><trkpt lat="45.2146061" lon="9.081052"><ele>81.0</ele><time>2026-05-04T15:26:57.785Z</time></trkpt><trkpt lat="45.2145465" lon="9.0811665"><ele>81.0</ele><time>2026-05-04T15:26:59.796Z</time></trkpt><trkpt lat="45.2144849" lon="9.081288"><ele>81.0</ele><time>2026-05-04T15:27:01.87Z</time></trkpt><trkpt lat="45.2144209" lon="9.0814002"><ele>81.0</ele><time>2026-05-04T15:27:03.875Z</time></trkpt><trkpt lat="45.214363" lon="9.0815277"><ele>80.8</ele><time>2026-05-04T15:27:05.799Z</time></trkpt><trkpt lat="45.2143065" lon="9.0816446"><ele>80.6</ele><time>2026-05-04T15:27:07.795Z</time></trkpt><trkpt lat="45.2142478" lon="9.0817552"><ele>80.4</ele><time>2026-05-04T15:27:09.79Z</time></trkpt><trkpt lat="45.2141978" lon="9.081862"><ele>80.2</ele><time>2026-05-04T15:27:11.796Z</time></trkpt><trkpt lat="45.2141524" lon="9.0819742"><ele>80.0</ele><time>2026-05-04T15:27:13.79Z</time></trkpt><trkpt lat="45.214096" lon="9.082087"><ele>80.0</ele><time>2026-05-04T15:27:15.795Z</time></trkpt><trkpt lat="45.2140372" lon="9.0821932"><ele>80.0</ele><time>2026-05-04T15:27:17.796Z</time></trkpt><trkpt lat="45.2139689" lon="9.0823099"><ele>80.0</ele><time>2026-05-04T15:27:19.799Z</time></trkpt><trkpt lat="45.2139091" lon="9.0824211"><ele>80.0</ele><time>2026-05-04T15:27:21.802Z</time></trkpt><trkpt lat="45.213849" lon="9.0825343"><ele>80.0</ele><time>2026-05-04T15:27:23.799Z</time></trkpt><trkpt lat="45.2137888" lon="9.0826491"><ele>80.2</ele><time>2026-05-04T15:27:25.8Z</time></trkpt><trkpt lat="45.2137365" lon="9.0827608"><ele>80.4</ele><time>2026-05-04T15:27:27.876Z</time></trkpt><trkpt lat="45.2136659" lon="9.0828788"><ele>80.6</ele><time>2026-05-04T15:27:29.793Z</time></trkpt><trkpt lat="45.2135974" lon="9.082984"><ele>80.8</ele><time>2026-05-04T15:27:31.794Z</time></trkpt><trkpt lat="45.2135306" lon="9.0830923"><ele>81.0</ele><time>2026-05-04T15:27:33.795Z</time></trkpt><trkpt lat="45.213462" lon="9.0832134"><ele>80.8</ele><time>2026-05-04T15:27:35.794Z</time></trkpt><trkpt lat="45.2134005" lon="9.0833273"><ele>80.6</ele><time>2026-05-04T15:27:37.799Z</time></trkpt><trkpt lat="45.2133414" lon="9.0834282"><ele>80.4</ele><time>2026-05-04T15:27:39.802Z</time></trkpt><trkpt lat="45.2132778" lon="9.0835276"><ele>80.2</ele><time>2026-05-04T15:27:41.873Z</time></trkpt><trkpt lat="45.213206" lon="9.0836468"><ele>80.0</ele><time>2026-05-04T15:27:43.809Z</time></trkpt><trkpt lat="45.2131404" lon="9.0837586"><ele>80.2</ele><time>2026-05-04T15:27:45.796Z</time></trkpt><trkpt lat="45.2130852" lon="9.0838681"><ele>80.4</ele><time>2026-05-04T15:27:47.796Z</time></trkpt><trkpt lat="45.2130301" lon="9.0839848"><ele>80.6</ele><time>2026-05-04T15:27:49.804Z</time></trkpt><trkpt lat="45.212966" lon="9.084094"><ele>80.8</ele><time>2026-05-04T15:27:51.797Z</time></trkpt><trkpt lat="45.2128972" lon="9.084205"><ele>81.0</ele><time>2026-05-04T15:27:53.794Z</time></trkpt><trkpt lat="45.2128319" lon="9.084319"><ele>81.0</ele><time>2026-05-04T15:27:55.876Z</time></trkpt><trkpt lat="45.2127647" lon="9.0844322"><ele>81.0</ele><time>2026-05-04T15:27:57.809Z</time></trkpt><trkpt lat="45.2126965" lon="9.08455"><ele>81.0</ele><time>2026-05-04T15:27:59.798Z</time></trkpt><trkpt lat="45.2126336" lon="9.0846595"><ele>81.0</ele><time>2026-05-04T15:28:01.797Z</time></trkpt><trkpt lat="45.2125727" lon="9.0847764"><ele>81.0</ele><time>2026-05-04T15:28:03.791Z</time></trkpt><trkpt lat="45.2125017" lon="9.0848957"><ele>81.0</ele><time>2026-05-04T15:28:05.798Z</time></trkpt><trkpt lat="45.2124306" lon="9.0850128"><ele>81.0</ele><time>2026-05-04T15:28:07.797Z</time></trkpt><trkpt lat="45.2123628" lon="9.0851201"><ele>81.0</ele><time>2026-05-04T15:28:09.794Z</time></trkpt><trkpt lat="45.2122977" lon="9.0852394"><ele>81.0</ele><time>2026-05-04T15:28:11.796Z</time></trkpt><trkpt lat="45.2122394" lon="9.0853546"><ele>81.0</ele><time>2026-05-04T15:28:13.796Z</time></trkpt><trkpt lat="45.2121715" lon="9.085469"><ele>80.6</ele><time>2026-05-04T15:28:15.794Z</time></trkpt><trkpt lat="45.2121084" lon="9.0855769"><ele>80.19999999999999</ele><time>2026-05-04T15:28:17.799Z</time></trkpt><trkpt lat="45.2120426" lon="9.0856933"><ele>79.80000000000001</ele><time>2026-05-04T15:28:19.798Z</time></trkpt><trkpt lat="45.2119641" lon="9.0858208"><ele>79.4</ele><time>2026-05-04T15:28:21.8Z</time></trkpt><trkpt lat="45.2118896" lon="9.0859488"><ele>79.0</ele><time>2026-05-04T15:28:23.808Z</time></trkpt><trkpt lat="45.2118151" lon="9.0860758"><ele>79.0</ele><time>2026-05-04T15:28:25.791Z</time></trkpt><trkpt lat="45.2117445" lon="9.0862064"><ele>79.0</ele><time>2026-05-04T15:28:27.8Z</time></trkpt><trkpt lat="45.2116711" lon="9.0863352"><ele>79.0</ele><time>2026-05-04T15:28:29.796Z</time></trkpt><trkpt lat="45.2116017" lon="9.0864772"><ele>79.0</ele><time>2026-05-04T15:28:31.785Z</time></trkpt><trkpt lat="45.2115297" lon="9.0866099"><ele>78.75</ele><time>2026-05-04T15:28:33.797Z</time></trkpt><trkpt lat="45.2114587" lon="9.0867372"><ele>78.5</ele><time>2026-05-04T15:28:35.81Z</time></trkpt><trkpt lat="45.2113864" lon="9.0868645"><ele>78.25</ele><time>2026-05-04T15:28:37.864Z</time></trkpt><trkpt lat="45.2113134" lon="9.0869963"><ele>78.0</ele><time>2026-05-04T15:28:39.791Z</time></trkpt><trkpt lat="45.2112399" lon="9.0871348"><ele>78.0</ele><time>2026-05-04T15:28:41.791Z</time></trkpt><trkpt lat="45.211159" lon="9.087263"><ele>78.0</ele><time>2026-05-04T15:28:43.795Z</time></trkpt><trkpt lat="45.2110844" lon="9.0873929"><ele>78.0</ele><time>2026-05-04T15:28:45.793Z</time></trkpt><trkpt lat="45.2110112" lon="9.0875246"><ele>78.0</ele><time>2026-05-04T15:28:47.793Z</time></trkpt><trkpt lat="45.2109399" lon="9.0876506"><ele>78.25</ele><time>2026-05-04T15:28:49.799Z</time></trkpt><trkpt lat="45.2108622" lon="9.0877884"><ele>78.5</ele><time>2026-05-04T15:28:51.795Z</time></trkpt><trkpt lat="45.2107887" lon="9.0879234"><ele>78.75</ele><time>2026-05-04T15:28:53.802Z</time></trkpt><trkpt lat="45.2107127" lon="9.0880537"><ele>79.0</ele><time>2026-05-04T15:28:55.806Z</time></trkpt><trkpt lat="45.2106399" lon="9.0881819"><ele>79.0</ele><time>2026-05-04T15:28:57.798Z</time></trkpt><trkpt lat="45.2105622" lon="9.0883151"><ele>79.0</ele><time>2026-05-04T15:28:59.8Z</time></trkpt><trkpt lat="45.2104851" lon="9.0884448"><ele>79.0</ele><time>2026-05-04T15:29:01.878Z</time></trkpt><trkpt lat="45.2104226" lon="9.0885542"><ele>79.0</ele><time>2026-05-04T15:29:03.801Z</time></trkpt><trkpt lat="45.2103624" lon="9.0886632"><ele>79.0</ele><time>2026-05-04T15:29:05.801Z</time></trkpt><trkpt lat="45.2103126" lon="9.0887548"><ele>79.0</ele><time>2026-05-04T15:29:07.803Z</time></trkpt><trkpt lat="45.2102294" lon="9.0887884"><ele>79.0</ele><time>2026-05-04T15:29:10.796Z</time></trkpt><trkpt lat="45.2101755" lon="9.0887322"><ele>79.0</ele><time>2026-05-04T15:29:12.807Z</time></trkpt><trkpt lat="45.210115" lon="9.0886766"><ele>79.0</ele><time>2026-05-04T15:29:14.793Z</time></trkpt><trkpt lat="45.2100476" lon="9.0886002"><ele>79.0</ele><time>2026-05-04T15:29:16.797Z</time></trkpt><trkpt lat="45.2099779" lon="9.0885231"><ele>79.0</ele><time>2026-05-04T15:29:18.792Z</time></trkpt><trkpt lat="45.2099042" lon="9.0884503"><ele>79.0</ele><time>2026-05-04T15:29:20.803Z</time></trkpt><trkpt lat="45.2098287" lon="9.0883795"><ele>79.0</ele><time>2026-05-04T15:29:22.801Z</time></trkpt><trkpt lat="45.2097534" lon="9.0883056"><ele>79.0</ele><time>2026-05-04T15:29:24.794Z</time></trkpt><trkpt lat="45.2096819" lon="9.0882309"><ele>79.0</ele><time>2026-05-04T15:29:26.798Z</time></trkpt><trkpt lat="45.2096074" lon="9.0881565"><ele>79.0</ele><time>2026-05-04T15:29:28.796Z</time></trkpt><trkpt lat="45.209529" lon="9.0880801"><ele>79.0</ele><time>2026-05-04T15:29:30.802Z</time></trkpt><trkpt lat="45.209449" lon="9.0880067"><ele>79.0</ele><time>2026-05-04T15:29:32.794Z</time></trkpt><trkpt lat="45.2093705" lon="9.0879308"><ele>79.0</ele><time>2026-05-04T15:29:34.801Z</time></trkpt><trkpt lat="45.2092897" lon="9.0878455"><ele>79.0</ele><time>2026-05-04T15:29:36.793Z</time></trkpt><trkpt lat="45.209206" lon="9.0877614"><ele>79.0</ele><time>2026-05-04T15:29:38.799Z</time></trkpt><trkpt lat="45.2091263" lon="9.0876828"><ele>79.0</ele><time>2026-05-04T15:29:40.795Z</time></trkpt><trkpt lat="45.2090474" lon="9.0875994"><ele>79.0</ele><time>2026-05-04T15:29:42.791Z</time></trkpt><trkpt lat="45.2089639" lon="9.0875255"><ele>79.0</ele><time>2026-05-04T15:29:44.801Z</time></trkpt><trkpt lat="45.2088769" lon="9.0874669"><ele>79.0</ele><time>2026-05-04T15:29:46.79Z</time></trkpt><trkpt lat="45.2087943" lon="9.087466"><ele>79.0</ele><time>2026-05-04T15:29:48.801Z</time></trkpt><trkpt lat="45.2087163" lon="9.0875238"><ele>78.60000000000001</ele><time>2026-05-04T15:29:50.794Z</time></trkpt><trkpt lat="45.2086568" lon="9.0876225"><ele>78.2</ele><time>2026-05-04T15:29:52.801Z</time></trkpt><trkpt lat="45.208602" lon="9.0877268"><ele>77.80000000000001</ele><time>2026-05-04T15:29:54.882Z</time></trkpt><trkpt lat="45.2085367" lon="9.0878444"><ele>77.4</ele><time>2026-05-04T15:29:56.8Z</time></trkpt><trkpt lat="45.2084581" lon="9.0879384"><ele>77.0</ele><time>2026-05-04T15:29:58.795Z</time></trkpt><trkpt lat="45.2083608" lon="9.0879848"><ele>77.0</ele><time>2026-05-04T15:30:00.793Z</time></trkpt><trkpt lat="45.2082562" lon="9.0880024"><ele>77.0</ele><time>2026-05-04T15:30:02.794Z</time></trkpt><trkpt lat="45.2081545" lon="9.0879824"><ele>77.0</ele><time>2026-05-04T15:30:04.8Z</time></trkpt><trkpt lat="45.2080526" lon="9.0879421"><ele>77.0</ele><time>2026-05-04T15:30:06.8Z</time></trkpt><trkpt lat="45.2079573" lon="9.0879196"><ele>77.0</ele><time>2026-05-04T15:30:08.786Z</time></trkpt><trkpt lat="45.2078594" lon="9.0879096"><ele>77.4</ele><time>2026-05-04T15:30:10.796Z</time></trkpt><trkpt lat="45.2077603" lon="9.0879159"><ele>77.80000000000001</ele><time>2026-05-04T15:30:12.806Z</time></trkpt><trkpt lat="45.2076626" lon="9.0879134"><ele>78.2</ele><time>2026-05-04T15:30:14.799Z</time></trkpt><trkpt lat="45.2075663" lon="9.087923"><ele>78.60000000000001</ele><time>2026-05-04T15:30:16.793Z</time></trkpt><trkpt lat="45.2074817" lon="9.0879599"><ele>79.0</ele><time>2026-05-04T15:30:18.799Z</time></trkpt><trkpt lat="45.2074086" lon="9.0880173"><ele>79.0</ele><time>2026-05-04T15:30:20.795Z</time></trkpt><trkpt lat="45.2073317" lon="9.0881053"><ele>79.0</ele><time>2026-05-04T15:30:22.793Z</time></trkpt><trkpt lat="45.2072539" lon="9.0882113"><ele>79.0</ele><time>2026-05-04T15:30:24.804Z</time></trkpt><trkpt lat="45.2071735" lon="9.0883066"><ele>79.0</ele><time>2026-05-04T15:30:26.793Z</time></trkpt><trkpt lat="45.2070943" lon="9.088401"><ele>79.0</ele><time>2026-05-04T15:30:28.801Z</time></trkpt><trkpt lat="45.2070147" lon="9.0884971"><ele>78.60000000000001</ele><time>2026-05-04T15:30:30.797Z</time></trkpt><trkpt lat="45.2069315" lon="9.0886014"><ele>78.2</ele><time>2026-05-04T15:30:32.797Z</time></trkpt><trkpt lat="45.2068498" lon="9.0886998"><ele>77.80000000000001</ele><time>2026-05-04T15:30:34.794Z</time></trkpt><trkpt lat="45.2067698" lon="9.0888015"><ele>77.4</ele><time>2026-05-04T15:30:36.793Z</time></trkpt><trkpt lat="45.2066895" lon="9.0888995"><ele>77.0</ele><time>2026-05-04T15:30:38.798Z</time></trkpt><trkpt lat="45.2066122" lon="9.089005"><ele>76.8</ele><time>2026-05-04T15:30:40.798Z</time></trkpt><trkpt lat="45.2065373" lon="9.0891014"><ele>76.6</ele><time>2026-05-04T15:30:42.798Z</time></trkpt><trkpt lat="45.2064641" lon="9.0892012"><ele>76.39999999999999</ele><time>2026-05-04T15:30:44.801Z</time></trkpt><trkpt lat="45.2063889" lon="9.0892929"><ele>76.2</ele><time>2026-05-04T15:30:46.797Z</time></trkpt><trkpt lat="45.2063044" lon="9.0893877"><ele>76.0</ele><time>2026-05-04T15:30:48.809Z</time></trkpt><trkpt lat="45.2062271" lon="9.0894925"><ele>76.0</ele><time>2026-05-04T15:30:50.8Z</time></trkpt><trkpt lat="45.2061523" lon="9.0895846"><ele>76.0</ele><time>2026-05-04T15:30:52.798Z</time></trkpt><trkpt lat="45.2060869" lon="9.0896716"><ele>76.0</ele><time>2026-05-04T15:30:54.788Z</time></trkpt><trkpt lat="45.2060261" lon="9.0897487"><ele>76.0</ele><time>2026-05-04T15:30:56.801Z</time></trkpt><trkpt lat="45.2059614" lon="9.0898327"><ele>76.0</ele><time>2026-05-04T15:30:58.796Z</time></trkpt><trkpt lat="45.2058854" lon="9.0899306"><ele>76.5</ele><time>2026-05-04T15:31:00.795Z</time></trkpt><trkpt lat="45.2058094" lon="9.0900342"><ele>77.0</ele><time>2026-05-04T15:31:02.799Z</time></trkpt><trkpt lat="45.2057409" lon="9.0901249"><ele>77.5</ele><time>2026-05-04T15:31:04.804Z</time></trkpt><trkpt lat="45.2056824" lon="9.0902104"><ele>78.0</ele><time>2026-05-04T15:31:06.799Z</time></trkpt><trkpt lat="45.205623" lon="9.0902941"><ele>78.5</ele><time>2026-05-04T15:31:08.88Z</time></trkpt><trkpt lat="45.2055783" lon="9.0903893"><ele>79.0</ele><time>2026-05-04T15:31:10.805Z</time></trkpt><trkpt lat="45.2055484" lon="9.0904886"><ele>79.0</ele><time>2026-05-04T15:31:12.801Z</time></trkpt><trkpt lat="45.2055114" lon="9.0906008"><ele>79.0</ele><time>2026-05-04T15:31:14.796Z</time></trkpt><trkpt lat="45.2054546" lon="9.0907043"><ele>79.0</ele><time>2026-05-04T15:31:16.801Z</time></trkpt><trkpt lat="45.2053894" lon="9.0908031"><ele>79.0</ele><time>2026-05-04T15:31:18.79Z</time></trkpt><trkpt lat="45.20532" lon="9.0909099"><ele>79.0</ele><time>2026-05-04T15:31:20.791Z</time></trkpt><trkpt lat="45.2052433" lon="9.0910242"><ele>79.0</ele><time>2026-05-04T15:31:22.793Z</time></trkpt><trkpt lat="45.205166" lon="9.0911425"><ele>79.0</ele><time>2026-05-04T15:31:24.794Z</time></trkpt><trkpt lat="45.205088" lon="9.0912528"><ele>79.0</ele><time>2026-05-04T15:31:26.796Z</time></trkpt><trkpt lat="45.2050192" lon="9.0913634"><ele>79.0</ele><time>2026-05-04T15:31:28.795Z</time></trkpt><trkpt lat="45.2049559" lon="9.0914831"><ele>79.0</ele><time>2026-05-04T15:31:30.797Z</time></trkpt><trkpt lat="45.204873" lon="9.0916076"><ele>78.25</ele><time>2026-05-04T15:31:32.803Z</time></trkpt><trkpt lat="45.2047935" lon="9.091733"><ele>77.5</ele><time>2026-05-04T15:31:34.803Z</time></trkpt><trkpt lat="45.2047128" lon="9.0918574"><ele>76.75</ele><time>2026-05-04T15:31:36.796Z</time></trkpt><trkpt lat="45.2046259" lon="9.0919733"><ele>76.0</ele><time>2026-05-04T15:31:38.793Z</time></trkpt><trkpt lat="45.2045491" lon="9.0920885"><ele>76.0</ele><time>2026-05-04T15:31:40.798Z</time></trkpt><trkpt lat="45.2044816" lon="9.092214"><ele>76.0</ele><time>2026-05-04T15:31:42.805Z</time></trkpt><trkpt lat="45.2044692" lon="9.0923519"><ele>76.0</ele><time>2026-05-04T15:31:44.792Z</time></trkpt><trkpt lat="45.2044636" lon="9.0924837"><ele>76.0</ele><time>2026-05-04T15:31:46.797Z</time></trkpt><trkpt lat="45.2044675" lon="9.0926144"><ele>76.0</ele><time>2026-05-04T15:31:48.803Z</time></trkpt><trkpt lat="45.204472" lon="9.0927297"><ele>75.0</ele><time>2026-05-04T15:31:50.796Z</time></trkpt><trkpt lat="45.2044654" lon="9.0928508"><ele>74.0</ele><time>2026-05-04T15:31:52.799Z</time></trkpt><trkpt lat="45.2044511" lon="9.0929758"><ele>73.0</ele><time>2026-05-04T15:31:54.792Z</time></trkpt><trkpt lat="45.2044414" lon="9.0931071"><ele>72.0</ele><time>2026-05-04T15:31:56.793Z</time></trkpt><trkpt lat="45.2044677" lon="9.0932336"><ele>71.0</ele><time>2026-05-04T15:31:58.79Z</time></trkpt><trkpt lat="45.2045022" lon="9.0933566"><ele>70.0</ele><time>2026-05-04T15:32:00.797Z</time></trkpt><trkpt lat="45.2045415" lon="9.0934802"><ele>69.0</ele><time>2026-05-04T15:32:02.79Z</time></trkpt><trkpt lat="45.204607" lon="9.0935895"><ele>68.0</ele><time>2026-05-04T15:32:04.794Z</time></trkpt><trkpt lat="45.2046773" lon="9.0936919"><ele>67.0</ele><time>2026-05-04T15:32:06.795Z</time></trkpt><trkpt lat="45.2047215" lon="9.0938055"><ele>66.0</ele><time>2026-05-04T15:32:08.79Z</time></trkpt><trkpt lat="45.2047298" lon="9.0939388"><ele>66.0</ele><time>2026-05-04T15:32:10.791Z</time></trkpt><trkpt lat="45.2047044" lon="9.0940758"><ele>66.0</ele><time>2026-05-04T15:32:12.799Z</time></trkpt><trkpt lat="45.2047151" lon="9.0942179"><ele>66.0</ele><time>2026-05-04T15:32:14.804Z</time></trkpt><trkpt lat="45.2047308" lon="9.0943508"><ele>66.0</ele><time>2026-05-04T15:32:16.794Z</time></trkpt><trkpt lat="45.2047162" lon="9.0944957"><ele>66.0</ele><time>2026-05-04T15:32:18.796Z</time></trkpt><trkpt lat="45.2046806" lon="9.0946249"><ele>66.0</ele><time>2026-05-04T15:32:20.789Z</time></trkpt><trkpt lat="45.2046963" lon="9.0947224"><ele>66.0</ele><time>2026-05-04T15:32:22.8Z</time></trkpt><trkpt lat="45.2047159" lon="9.0948082"><ele>66.0</ele><time>2026-05-04T15:32:24.794Z</time></trkpt><trkpt lat="45.204773" lon="9.0949238"><ele>66.0</ele><time>2026-05-04T15:32:26.799Z</time></trkpt><trkpt lat="45.2048605" lon="9.0950399"><ele>66.0</ele><time>2026-05-04T15:32:28.794Z</time></trkpt><trkpt lat="45.2049416" lon="9.0951559"><ele>68.0</ele><time>2026-05-04T15:32:30.799Z</time></trkpt><trkpt lat="45.2050185" lon="9.0952804"><ele>70.0</ele><time>2026-05-04T15:32:32.8Z</time></trkpt><trkpt lat="45.205085" lon="9.0954144"><ele>72.0</ele><time>2026-05-04T15:32:34.792Z</time></trkpt><trkpt lat="45.205139" lon="9.0955602"><ele>74.0</ele><time>2026-05-04T15:32:36.794Z</time></trkpt><trkpt lat="45.2051774" lon="9.0957072"><ele>73.83333333333334</ele><time>2026-05-04T15:32:38.798Z</time></trkpt><trkpt lat="45.2051904" lon="9.0958511"><ele>73.66666666666667</ele><time>2026-05-04T15:32:40.801Z</time></trkpt><trkpt lat="45.2051761" lon="9.0959793"><ele>73.5</ele><time>2026-05-04T15:32:42.798Z</time></trkpt><trkpt lat="45.2051372" lon="9.0960831"><ele>73.33333333333333</ele><time>2026-05-04T15:32:44.798Z</time></trkpt><trkpt lat="45.2050957" lon="9.096167"><ele>73.16666666666666</ele><time>2026-05-04T15:32:46.796Z</time></trkpt><trkpt lat="45.2050535" lon="9.0962425"><ele>73.0</ele><time>2026-05-04T15:32:48.867Z</time></trkpt><trkpt lat="45.205004" lon="9.0963271"><ele>73.0</ele><time>2026-05-04T15:32:50.879Z</time></trkpt><trkpt lat="45.2049469" lon="9.0964178"><ele>73.0</ele><time>2026-05-04T15:32:52.794Z</time></trkpt><trkpt lat="45.2048911" lon="9.0965133"><ele>73.0</ele><time>2026-05-04T15:32:54.792Z</time></trkpt><trkpt lat="45.2048382" lon="9.0965913"><ele>73.0</ele><time>2026-05-04T15:32:56.793Z</time></trkpt><trkpt lat="45.2047924" lon="9.0966855"><ele>73.0</ele><time>2026-05-04T15:32:59.799Z</time></trkpt><trkpt lat="45.2047484" lon="9.0967531"><ele>73.0</ele><time>2026-05-04T15:33:01.795Z</time></trkpt><trkpt lat="45.2046791" lon="9.0968493"><ele>72.4</ele><time>2026-05-04T15:33:03.792Z</time></trkpt><trkpt lat="45.2046292" lon="9.0969559"><ele>71.8</ele><time>2026-05-04T15:33:05.79Z</time></trkpt><trkpt lat="45.2045731" lon="9.0970745"><ele>71.2</ele><time>2026-05-04T15:33:07.789Z</time></trkpt><trkpt lat="45.2045087" lon="9.0971947"><ele>70.6</ele><time>2026-05-04T15:33:09.783Z</time></trkpt><trkpt lat="45.2044506" lon="9.0973152"><ele>70.0</ele><time>2026-05-04T15:33:11.795Z</time></trkpt><trkpt lat="45.2043995" lon="9.0974522"><ele>70.0</ele><time>2026-05-04T15:33:13.79Z</time></trkpt><trkpt lat="45.2043423" lon="9.0975803"><ele>70.0</ele><time>2026-05-04T15:33:15.79Z</time></trkpt><trkpt lat="45.204279" lon="9.0976971"><ele>70.0</ele><time>2026-05-04T15:33:17.798Z</time></trkpt><trkpt lat="45.2042105" lon="9.0978364"><ele>70.0</ele><time>2026-05-04T15:33:19.798Z</time></trkpt><trkpt lat="45.2041395" lon="9.0979687"><ele>70.0</ele><time>2026-05-04T15:33:21.794Z</time></trkpt><trkpt lat="45.2040681" lon="9.0980956"><ele>68.2</ele><time>2026-05-04T15:33:23.792Z</time></trkpt><trkpt lat="45.2039932" lon="9.0982283"><ele>66.4</ele><time>2026-05-04T15:33:25.794Z</time></trkpt><trkpt lat="45.2039299" lon="9.0983576"><ele>64.6</ele><time>2026-05-04T15:33:27.802Z</time></trkpt><trkpt lat="45.2038846" lon="9.098474"><ele>62.8</ele><time>2026-05-04T15:33:29.791Z</time></trkpt><trkpt lat="45.2038509" lon="9.0986027"><ele>61.0</ele><time>2026-05-04T15:33:31.801Z</time></trkpt><trkpt lat="45.2038403" lon="9.0987287"><ele>60.99999999999999</ele><time>2026-05-04T15:33:33.79Z</time></trkpt><trkpt lat="45.2038889" lon="9.0988255"><ele>61.0</ele><time>2026-05-04T15:33:36.793Z</time></trkpt><trkpt lat="45.2039605" lon="9.0988668"><ele>61.0</ele><time>2026-05-04T15:33:39.786Z</time></trkpt><trkpt lat="45.2040301" lon="9.098928"><ele>61.0</ele><time>2026-05-04T15:33:42.794Z</time></trkpt><trkpt lat="45.2041133" lon="9.0989909"><ele>60.99999999999999</ele><time>2026-05-04T15:33:45.793Z</time></trkpt><trkpt lat="45.2041887" lon="9.09904"><ele>61.0</ele><time>2026-05-04T15:33:47.804Z</time></trkpt><trkpt lat="45.2042528" lon="9.0990834"><ele>63.99999999999999</ele><time>2026-05-04T15:33:49.793Z</time></trkpt><trkpt lat="45.2043184" lon="9.0991305"><ele>67.0</ele><time>2026-05-04T15:33:51.792Z</time></trkpt><trkpt lat="45.2043137" lon="9.0992381"><ele>70.0</ele><time>2026-05-04T15:33:54.794Z</time></trkpt><trkpt lat="45.2042703" lon="9.0993259"><ele>73.0</ele><time>2026-05-04T15:33:56.791Z</time></trkpt><trkpt lat="45.2042202" lon="9.0994013"><ele>76.0</ele><time>2026-05-04T15:33:58.802Z</time></trkpt><trkpt lat="45.2041665" lon="9.0994963"><ele>79.0</ele><time>2026-05-04T15:34:00.795Z</time></trkpt><trkpt lat="45.2041051" lon="9.0995994"><ele>79.0</ele><time>2026-05-04T15:34:02.798Z</time></trkpt><trkpt lat="45.2040444" lon="9.0997116"><ele>79.0</ele><time>2026-05-04T15:34:04.795Z</time></trkpt><trkpt lat="45.2039845" lon="9.0998257"><ele>79.0</ele><time>2026-05-04T15:34:06.799Z</time></trkpt><trkpt lat="45.2039261" lon="9.0999451"><ele>79.0</ele><time>2026-05-04T15:34:08.791Z</time></trkpt><trkpt lat="45.2038638" lon="9.1000575"><ele>79.0</ele><time>2026-05-04T15:34:10.799Z</time></trkpt><trkpt lat="45.2038017" lon="9.1001702"><ele>76.25</ele><time>2026-05-04T15:34:12.795Z</time></trkpt><trkpt lat="45.2037326" lon="9.1002948"><ele>73.5</ele><time>2026-05-04T15:34:14.861Z</time></trkpt><trkpt lat="45.2036628" lon="9.1004237"><ele>70.75</ele><time>2026-05-04T15:34:16.795Z</time></trkpt><trkpt lat="45.2035914" lon="9.1005493"><ele>68.0</ele><time>2026-05-04T15:34:18.797Z</time></trkpt><trkpt lat="45.2035187" lon="9.1006866"><ele>69.4</ele><time>2026-05-04T15:34:20.794Z</time></trkpt><trkpt lat="45.2034811" lon="9.1007597"><ele>70.8</ele><time>2026-05-04T15:34:21.798Z</time></trkpt><trkpt lat="45.2034074" lon="9.1008999"><ele>72.2</ele><time>2026-05-04T15:34:23.805Z</time></trkpt><trkpt lat="45.2033471" lon="9.101041"><ele>73.6</ele><time>2026-05-04T15:34:25.796Z</time></trkpt><trkpt lat="45.2033115" lon="9.1011162"><ele>75.0</ele><time>2026-05-04T15:34:26.792Z</time></trkpt><trkpt lat="45.2032404" lon="9.1012619"><ele>75.0</ele><time>2026-05-04T15:34:28.794Z</time></trkpt><trkpt lat="45.2031739" lon="9.1014119"><ele>75.0</ele><time>2026-05-04T15:34:30.804Z</time></trkpt><trkpt lat="45.2031416" lon="9.1014937"><ele>75.0</ele><time>2026-05-04T15:34:31.792Z</time></trkpt><trkpt lat="45.2031083" lon="9.1015752"><ele>75.0</ele><time>2026-05-04T15:34:32.796Z</time></trkpt><trkpt lat="45.2030733" lon="9.1016654"><ele>75.0</ele><time>2026-05-04T15:34:33.802Z</time></trkpt><trkpt lat="45.2030363" lon="9.1017476"><ele>75.0</ele><time>2026-05-04T15:34:34.798Z</time></trkpt><trkpt lat="45.202999" lon="9.1018288"><ele>74.2</ele><time>2026-05-04T15:34:35.798Z</time></trkpt><trkpt lat="45.202961" lon="9.1019048"><ele>73.4</ele><time>2026-05-04T15:34:36.794Z</time></trkpt><trkpt lat="45.2029168" lon="9.1019688"><ele>72.6</ele><time>2026-05-04T15:34:37.799Z</time></trkpt><trkpt lat="45.2028344" lon="9.1020999"><ele>71.8</ele><time>2026-05-04T15:34:39.807Z</time></trkpt><trkpt lat="45.2027475" lon="9.1022177"><ele>71.0</ele><time>2026-05-04T15:34:41.789Z</time></trkpt><trkpt lat="45.2026686" lon="9.1023412"><ele>71.0</ele><time>2026-05-04T15:34:43.799Z</time></trkpt><trkpt lat="45.2025846" lon="9.1024434"><ele>71.0</ele><time>2026-05-04T15:34:45.793Z</time></trkpt><trkpt lat="45.2025016" lon="9.1025344"><ele>71.0</ele><time>2026-05-04T15:34:47.794Z</time></trkpt><trkpt lat="45.2024228" lon="9.1026316"><ele>71.0</ele><time>2026-05-04T15:34:49.798Z</time></trkpt><trkpt lat="45.2023331" lon="9.1027232"><ele>71.0</ele><time>2026-05-04T15:34:51.802Z</time></trkpt><trkpt lat="45.2022391" lon="9.1028141"><ele>71.0</ele><time>2026-05-04T15:34:53.799Z</time></trkpt><trkpt lat="45.2021448" lon="9.1029065"><ele>71.0</ele><time>2026-05-04T15:34:55.802Z</time></trkpt><trkpt lat="45.2020505" lon="9.102997"><ele>71.0</ele><time>2026-05-04T15:34:57.797Z</time></trkpt><trkpt lat="45.201958" lon="9.1030902"><ele>71.0</ele><time>2026-05-04T15:34:59.794Z</time></trkpt><trkpt lat="45.2018728" lon="9.1031882"><ele>72.75</ele><time>2026-05-04T15:35:01.796Z</time></trkpt><trkpt lat="45.2017812" lon="9.103277"><ele>74.5</ele><time>2026-05-04T15:35:03.8Z</time></trkpt><trkpt lat="45.2016809" lon="9.1033644"><ele>76.25</ele><time>2026-05-04T15:35:05.791Z</time></trkpt><trkpt lat="45.201588" lon="9.1034618"><ele>78.0</ele><time>2026-05-04T15:35:07.793Z</time></trkpt><trkpt lat="45.2014953" lon="9.1035614"><ele>78.4</ele><time>2026-05-04T15:35:09.796Z</time></trkpt><trkpt lat="45.2013968" lon="9.1036497"><ele>78.8</ele><time>2026-05-04T15:35:11.79Z</time></trkpt><trkpt lat="45.2013014" lon="9.1037473"><ele>79.2</ele><time>2026-05-04T15:35:13.806Z</time></trkpt><trkpt lat="45.2012506" lon="9.1038009"><ele>79.6</ele><time>2026-05-04T15:35:14.787Z</time></trkpt><trkpt lat="45.2011977" lon="9.1038519"><ele>80.0</ele><time>2026-05-04T15:35:15.787Z</time></trkpt><trkpt lat="45.2011017" lon="9.1039429"><ele>80.0</ele><time>2026-05-04T15:35:17.795Z</time></trkpt><trkpt lat="45.2010029" lon="9.1040385"><ele>80.0</ele><time>2026-05-04T15:35:19.797Z</time></trkpt><trkpt lat="45.2009136" lon="9.1041459"><ele>80.0</ele><time>2026-05-04T15:35:21.798Z</time></trkpt><trkpt lat="45.2008145" lon="9.1042578"><ele>80.0</ele><time>2026-05-04T15:35:23.788Z</time></trkpt><trkpt lat="45.2007132" lon="9.104354"><ele>79.83333333333334</ele><time>2026-05-04T15:35:25.791Z</time></trkpt><trkpt lat="45.2006601" lon="9.1044052"><ele>79.66666666666667</ele><time>2026-05-04T15:35:26.805Z</time></trkpt><trkpt lat="45.2005625" lon="9.1045076"><ele>79.5</ele><time>2026-05-04T15:35:28.791Z</time></trkpt><trkpt lat="45.2004589" lon="9.1046034"><ele>79.33333333333333</ele><time>2026-05-04T15:35:30.875Z</time></trkpt><trkpt lat="45.200406" lon="9.1046555"><ele>79.16666666666666</ele><time>2026-05-04T15:35:31.783Z</time></trkpt><trkpt lat="45.2003541" lon="9.1047076"><ele>79.0</ele><time>2026-05-04T15:35:32.806Z</time></trkpt><trkpt lat="45.2002543" lon="9.1048166"><ele>78.83333333333333</ele><time>2026-05-04T15:35:34.787Z</time></trkpt><trkpt lat="45.2001524" lon="9.1049218"><ele>78.66666666666666</ele><time>2026-05-04T15:35:36.795Z</time></trkpt><trkpt lat="45.2000977" lon="9.1049699"><ele>78.5</ele><time>2026-05-04T15:35:37.793Z</time></trkpt><trkpt lat="45.2000461" lon="9.1050233"><ele>78.33333333333333</ele><time>2026-05-04T15:35:38.806Z</time></trkpt><trkpt lat="45.1999905" lon="9.1050754"><ele>78.16666666666667</ele><time>2026-05-04T15:35:39.796Z</time></trkpt><trkpt lat="45.1999351" lon="9.1051312"><ele>78.0</ele><time>2026-05-04T15:35:40.791Z</time></trkpt><trkpt lat="45.199876" lon="9.1051865"><ele>77.0</ele><time>2026-05-04T15:35:41.795Z</time></trkpt><trkpt lat="45.199823" lon="9.1052402"><ele>76.0</ele><time>2026-05-04T15:35:42.789Z</time></trkpt><trkpt lat="45.1997656" lon="9.1052984"><ele>75.0</ele><time>2026-05-04T15:35:43.794Z</time></trkpt><trkpt lat="45.1997087" lon="9.1053452"><ele>74.0</ele><time>2026-05-04T15:35:44.797Z</time></trkpt><trkpt lat="45.1996499" lon="9.1053976"><ele>73.0</ele><time>2026-05-04T15:35:45.789Z</time></trkpt><trkpt lat="45.199594" lon="9.1054431"><ele>72.0</ele><time>2026-05-04T15:35:46.803Z</time></trkpt><trkpt lat="45.1995323" lon="9.1054894"><ele>71.0</ele><time>2026-05-04T15:35:47.793Z</time></trkpt><trkpt lat="45.199473" lon="9.1055327"><ele>71.0</ele><time>2026-05-04T15:35:48.869Z</time></trkpt><trkpt lat="45.1994085" lon="9.1055788"><ele>71.0</ele><time>2026-05-04T15:35:49.789Z</time></trkpt><trkpt lat="45.1993522" lon="9.105622"><ele>71.0</ele><time>2026-05-04T15:35:50.796Z</time></trkpt><trkpt lat="45.1992399" lon="9.1057092"><ele>71.0</ele><time>2026-05-04T15:35:52.798Z</time></trkpt><trkpt lat="45.1991804" lon="9.1057543"><ele>71.0</ele><time>2026-05-04T15:35:53.793Z</time></trkpt><trkpt lat="45.199118" lon="9.1058084"><ele>71.0</ele><time>2026-05-04T15:35:54.798Z</time></trkpt><trkpt lat="45.1990526" lon="9.1058584"><ele>70.42857142857143</ele><time>2026-05-04T15:35:55.796Z</time></trkpt><trkpt lat="45.1989912" lon="9.1059108"><ele>69.85714285714285</ele><time>2026-05-04T15:35:56.796Z</time></trkpt><trkpt lat="45.1989271" lon="9.1059603"><ele>69.28571428571428</ele><time>2026-05-04T15:35:57.795Z</time></trkpt><trkpt lat="45.1988652" lon="9.1060181"><ele>68.71428571428571</ele><time>2026-05-04T15:35:58.787Z</time></trkpt><trkpt lat="45.1988112" lon="9.106085"><ele>68.14285714285714</ele><time>2026-05-04T15:35:59.795Z</time></trkpt><trkpt lat="45.1987534" lon="9.1061483"><ele>67.57142857142857</ele><time>2026-05-04T15:36:00.798Z</time></trkpt><trkpt lat="45.1986998" lon="9.1062229"><ele>67.0</ele><time>2026-05-04T15:36:01.798Z</time></trkpt><trkpt lat="45.1986455" lon="9.1062892"><ele>67.0</ele><time>2026-05-04T15:36:02.797Z</time></trkpt><trkpt lat="45.1985983" lon="9.1063693"><ele>67.0</ele><time>2026-05-04T15:36:03.791Z</time></trkpt><trkpt lat="45.1985087" lon="9.1064623"><ele>67.0</ele><time>2026-05-04T15:36:05.79Z</time></trkpt><trkpt lat="45.1983878" lon="9.1064749"><ele>67.0</ele><time>2026-05-04T15:36:07.798Z</time></trkpt><trkpt lat="45.1983091" lon="9.1065246"><ele>67.0</ele><time>2026-05-04T15:36:09.807Z</time></trkpt><trkpt lat="45.1982343" lon="9.1065961"><ele>66.66666666666666</ele><time>2026-05-04T15:36:11.791Z</time></trkpt><trkpt lat="45.1981451" lon="9.1067351"><ele>66.33333333333333</ele><time>2026-05-04T15:36:13.793Z</time></trkpt><trkpt lat="45.1980962" lon="9.1067988"><ele>66.0</ele><time>2026-05-04T15:36:14.796Z</time></trkpt><trkpt lat="45.1980469" lon="9.1068692"><ele>65.66666666666667</ele><time>2026-05-04T15:36:15.796Z</time></trkpt><trkpt lat="45.198007" lon="9.1069494"><ele>65.33333333333334</ele><time>2026-05-04T15:36:16.789Z</time></trkpt><trkpt lat="45.1979741" lon="9.1070348"><ele>65.0</ele><time>2026-05-04T15:36:17.795Z</time></trkpt><trkpt lat="45.1979412" lon="9.1071114"><ele>65.0</ele><time>2026-05-04T15:36:18.795Z</time></trkpt><trkpt lat="45.1978868" lon="9.1072537"><ele>65.0</ele><time>2026-05-04T15:36:20.798Z</time></trkpt><trkpt lat="45.1978329" lon="9.1073338"><ele>65.0</ele><time>2026-05-04T15:36:22.799Z</time></trkpt><trkpt lat="45.1977472" lon="9.1073698"><ele>65.0</ele><time>2026-05-04T15:36:25.79Z</time></trkpt><trkpt lat="45.1976887" lon="9.1073141"><ele>65.0</ele><time>2026-05-04T15:36:28.791Z</time></trkpt><trkpt lat="45.1976395" lon="9.1072393"><ele>65.0</ele><time>2026-05-04T15:36:31.798Z</time></trkpt><trkpt lat="45.1975738" lon="9.1071972"><ele>65.00000000000001</ele><time>2026-05-04T15:36:35.792Z</time></trkpt><trkpt lat="45.1975226" lon="9.107125"><ele>65.0</ele><time>2026-05-04T15:36:40.785Z</time></trkpt><trkpt lat="45.1974649" lon="9.1070639"><ele>65.0</ele><time>2026-05-04T15:36:43.799Z</time></trkpt><trkpt lat="45.1973976" lon="9.1070135"><ele>65.0</ele><time>2026-05-04T15:36:47.785Z</time></trkpt><trkpt lat="45.1973383" lon="9.106958"><ele>65.0</ele><time>2026-05-04T15:36:50.79Z</time></trkpt><trkpt lat="45.197288" lon="9.1068975"><ele>65.00000000000001</ele><time>2026-05-04T15:36:53.795Z</time></trkpt><trkpt lat="45.1972312" lon="9.1068495"><ele>65.0</ele><time>2026-05-04T15:36:56.803Z</time></trkpt><trkpt lat="45.1971743" lon="9.1067903"><ele>63.8</ele><time>2026-05-04T15:36:59.793Z</time></trkpt><trkpt lat="45.1971198" lon="9.1067122"><ele>62.6</ele><time>2026-05-04T15:37:01.796Z</time></trkpt><trkpt lat="45.1970569" lon="9.1066301"><ele>61.400000000000006</ele><time>2026-05-04T15:37:03.795Z</time></trkpt><trkpt lat="45.1969771" lon="9.1065376"><ele>60.2</ele><time>2026-05-04T15:37:05.792Z</time></trkpt><trkpt lat="45.1968824" lon="9.1064553"><ele>59.0</ele><time>2026-05-04T15:37:07.796Z</time></trkpt><trkpt lat="45.1967943" lon="9.1063631"><ele>58.75</ele><time>2026-05-04T15:37:09.791Z</time></trkpt><trkpt lat="45.1967039" lon="9.106267"><ele>58.5</ele><time>2026-05-04T15:37:11.79Z</time></trkpt><trkpt lat="45.1966087" lon="9.1061685"><ele>58.25</ele><time>2026-05-04T15:37:13.793Z</time></trkpt><trkpt lat="45.1965243" lon="9.106068"><ele>58.0</ele><time>2026-05-04T15:37:15.802Z</time></trkpt><trkpt lat="45.1964359" lon="9.1059772"><ele>58.599999999999994</ele><time>2026-05-04T15:37:17.786Z</time></trkpt><trkpt lat="45.1963441" lon="9.1058957"><ele>59.199999999999996</ele><time>2026-05-04T15:37:19.79Z</time></trkpt><trkpt lat="45.1962426" lon="9.1058263"><ele>59.8</ele><time>2026-05-04T15:37:21.792Z</time></trkpt><trkpt lat="45.1961411" lon="9.1057465"><ele>60.4</ele><time>2026-05-04T15:37:23.8Z</time></trkpt><trkpt lat="45.1960465" lon="9.1056919"><ele>61.0</ele><time>2026-05-04T15:37:25.794Z</time></trkpt><trkpt lat="45.1959534" lon="9.1056347"><ele>61.0</ele><time>2026-05-04T15:37:27.791Z</time></trkpt><trkpt lat="45.1958613" lon="9.1055869"><ele>60.99999999999999</ele><time>2026-05-04T15:37:29.794Z</time></trkpt><trkpt lat="45.1957578" lon="9.1055216"><ele>60.99999999999999</ele><time>2026-05-04T15:37:31.801Z</time></trkpt><trkpt lat="45.1956639" lon="9.1054603"><ele>61.0</ele><time>2026-05-04T15:37:33.794Z</time></trkpt><trkpt lat="45.1955618" lon="9.105397"><ele>61.0</ele><time>2026-05-04T15:37:35.795Z</time></trkpt><trkpt lat="45.1954712" lon="9.1053408"><ele>61.49999999999999</ele><time>2026-05-04T15:37:37.793Z</time></trkpt><trkpt lat="45.1953752" lon="9.1052776"><ele>62.0</ele><time>2026-05-04T15:37:39.799Z</time></trkpt><trkpt lat="45.195289" lon="9.1052136"><ele>62.5</ele><time>2026-05-04T15:37:41.793Z</time></trkpt><trkpt lat="45.1952183" lon="9.1051539"><ele>63.0</ele><time>2026-05-04T15:37:43.797Z</time></trkpt><trkpt lat="45.1951515" lon="9.1051632"><ele>63.49999999999999</ele><time>2026-05-04T15:37:46.794Z</time></trkpt><trkpt lat="45.1950961" lon="9.1052706"><ele>64.0</ele><time>2026-05-04T15:37:49.797Z</time></trkpt><trkpt lat="45.1950444" lon="9.105362"><ele>63.99999999999999</ele><time>2026-05-04T15:37:51.798Z</time></trkpt><trkpt lat="45.1950044" lon="9.105451"><ele>64.0</ele><time>2026-05-04T15:37:53.794Z</time></trkpt><trkpt lat="45.1949511" lon="9.1055618"><ele>64.0</ele><time>2026-05-04T15:37:56.79Z</time></trkpt><trkpt lat="45.1949035" lon="9.105651"><ele>64.0</ele><time>2026-05-04T15:37:58.794Z</time></trkpt><trkpt lat="45.1948532" lon="9.1057478"><ele>63.99999999999999</ele><time>2026-05-04T15:38:00.789Z</time></trkpt><trkpt lat="45.1948106" lon="9.1058412"><ele>64.0</ele><time>2026-05-04T15:38:02.79Z</time></trkpt><trkpt lat="45.194765" lon="9.105935"><ele>63.83333333333333</ele><time>2026-05-04T15:38:04.789Z</time></trkpt><trkpt lat="45.1947117" lon="9.1060512"><ele>63.666666666666664</ele><time>2026-05-04T15:38:06.797Z</time></trkpt><trkpt lat="45.1946538" lon="9.1061733"><ele>63.5</ele><time>2026-05-04T15:38:08.807Z</time></trkpt><trkpt lat="45.194601" lon="9.1062712"><ele>63.33333333333333</ele><time>2026-05-04T15:38:10.807Z</time></trkpt><trkpt lat="45.1945559" lon="9.1063579"><ele>63.166666666666664</ele><time>2026-05-04T15:38:12.798Z</time></trkpt><trkpt lat="45.1945138" lon="9.1064425"><ele>63.0</ele><time>2026-05-04T15:38:14.794Z</time></trkpt><trkpt lat="45.1944738" lon="9.106519"><ele>62.833333333333336</ele><time>2026-05-04T15:38:16.791Z</time></trkpt><trkpt lat="45.1944108" lon="9.106611"><ele>62.66666666666667</ele><time>2026-05-04T15:38:19.786Z</time></trkpt><trkpt lat="45.1943775" lon="9.1066877"><ele>62.5</ele><time>2026-05-04T15:38:22.802Z</time></trkpt><trkpt lat="45.1943302" lon="9.1067653"><ele>62.333333333333336</ele><time>2026-05-04T15:38:25.794Z</time></trkpt><trkpt lat="45.1942798" lon="9.1068572"><ele>62.16666666666667</ele><time>2026-05-04T15:38:28.798Z</time></trkpt><trkpt lat="45.1942385" lon="9.1069583"><ele>62.0</ele><time>2026-05-04T15:38:32.789Z</time></trkpt><trkpt lat="45.1942013" lon="9.1070313"><ele>62.0</ele><time>2026-05-04T15:38:35.796Z</time></trkpt><trkpt lat="45.1941765" lon="9.1071236"><ele>62.00000000000001</ele><time>2026-05-04T15:38:38.79Z</time></trkpt><trkpt lat="45.1941543" lon="9.1072324"><ele>62.0</ele><time>2026-05-04T15:38:41.792Z</time></trkpt><trkpt lat="45.1941356" lon="9.1073261"><ele>62.0</ele><time>2026-05-04T15:38:43.805Z</time></trkpt><trkpt lat="45.194119" lon="9.1074211"><ele>62.00000000000001</ele><time>2026-05-04T15:38:45.792Z</time></trkpt><trkpt lat="45.1941003" lon="9.107539"><ele>62.0</ele><time>2026-05-04T15:38:48.804Z</time></trkpt><trkpt lat="45.1940847" lon="9.1076309"><ele>62.0</ele><time>2026-05-04T15:38:51.798Z</time></trkpt><trkpt lat="45.1940633" lon="9.1077649"><ele>62.00000000000001</ele><time>2026-05-04T15:38:54.797Z</time></trkpt><trkpt lat="45.1940392" lon="9.1078659"><ele>62.0</ele><time>2026-05-04T15:38:56.857Z</time></trkpt><trkpt lat="45.1940262" lon="9.1079803"><ele>62.0</ele><time>2026-05-04T15:38:58.806Z</time></trkpt><trkpt lat="45.1940123" lon="9.1080844"><ele>62.0</ele><time>2026-05-04T15:39:00.789Z</time></trkpt><trkpt lat="45.1939969" lon="9.1081798"><ele>62.00000000000001</ele><time>2026-05-04T15:39:02.793Z</time></trkpt><trkpt lat="45.1940021" lon="9.1082926"><ele>62.0</ele><time>2026-05-04T15:39:04.792Z</time></trkpt><trkpt lat="45.1940106" lon="9.1084278"><ele>61.833333333333336</ele><time>2026-05-04T15:39:06.791Z</time></trkpt><trkpt lat="45.1940263" lon="9.1085308"><ele>61.66666666666667</ele><time>2026-05-04T15:39:08.796Z</time></trkpt><trkpt lat="45.1940447" lon="9.1086501"><ele>61.5</ele><time>2026-05-04T15:39:10.789Z</time></trkpt><trkpt lat="45.1940449" lon="9.1087872"><ele>61.33333333333333</ele><time>2026-05-04T15:39:12.794Z</time></trkpt><trkpt lat="45.1940609" lon="9.1089109"><ele>61.166666666666664</ele><time>2026-05-04T15:39:14.796Z</time></trkpt><trkpt lat="45.1940642" lon="9.1090163"><ele>61.0</ele><time>2026-05-04T15:39:16.791Z</time></trkpt><trkpt lat="45.1940676" lon="9.1091344"><ele>60.99999999999999</ele><time>2026-05-04T15:39:18.794Z</time></trkpt><trkpt lat="45.194081" lon="9.1092555"><ele>61.0</ele><time>2026-05-04T15:39:20.866Z</time></trkpt><trkpt lat="45.1941013" lon="9.1093779"><ele>61.0</ele><time>2026-05-04T15:39:22.788Z</time></trkpt><trkpt lat="45.1941163" lon="9.1094921"><ele>61.0</ele><time>2026-05-04T15:39:24.803Z</time></trkpt><trkpt lat="45.1941333" lon="9.109609"><ele>60.99999999999999</ele><time>2026-05-04T15:39:26.79Z</time></trkpt><trkpt lat="45.1941391" lon="9.1097249"><ele>61.0</ele><time>2026-05-04T15:39:28.796Z</time></trkpt><trkpt lat="45.1941527" lon="9.1098377"><ele>61.33333333333333</ele><time>2026-05-04T15:39:30.795Z</time></trkpt><trkpt lat="45.1941683" lon="9.1099396"><ele>61.666666666666664</ele><time>2026-05-04T15:39:32.806Z</time></trkpt><trkpt lat="45.1941992" lon="9.1100414"><ele>62.0</ele><time>2026-05-04T15:39:34.792Z</time></trkpt><trkpt lat="45.1942305" lon="9.1101293"><ele>62.33333333333333</ele><time>2026-05-04T15:39:36.874Z</time></trkpt><trkpt lat="45.1942545" lon="9.1102133"><ele>62.666666666666664</ele><time>2026-05-04T15:39:38.791Z</time></trkpt><trkpt lat="45.1942978" lon="9.1103269"><ele>63.0</ele><time>2026-05-04T15:39:41.787Z</time></trkpt><trkpt lat="45.1943499" lon="9.1104223"><ele>63.0</ele><time>2026-05-04T15:39:43.788Z</time></trkpt><trkpt lat="45.1944181" lon="9.1105392"><ele>63.0</ele><time>2026-05-04T15:39:45.792Z</time></trkpt><trkpt lat="45.194461" lon="9.1106666"><ele>63.0</ele><time>2026-05-04T15:39:47.796Z</time></trkpt><trkpt lat="45.194485" lon="9.1107947"><ele>63.0</ele><time>2026-05-04T15:39:49.809Z</time></trkpt><trkpt lat="45.1944905" lon="9.1108932"><ele>63.0</ele><time>2026-05-04T15:39:51.792Z</time></trkpt><trkpt lat="45.194483" lon="9.1109873"><ele>63.0</ele><time>2026-05-04T15:39:53.792Z</time></trkpt><trkpt lat="45.1943937" lon="9.1110044"><ele>63.0</ele><time>2026-05-04T15:39:56.795Z</time></trkpt><trkpt lat="45.194347" lon="9.1109428"><ele>63.0</ele><time>2026-05-04T15:39:58.79Z</time></trkpt><trkpt lat="45.1942853" lon="9.1108887"><ele>63.0</ele><time>2026-05-04T15:40:00.794Z</time></trkpt><trkpt lat="45.1942167" lon="9.1108056"><ele>63.0</ele><time>2026-05-04T15:40:03.787Z</time></trkpt><trkpt lat="45.1941649" lon="9.1107323"><ele>63.0</ele><time>2026-05-04T15:40:05.792Z</time></trkpt><trkpt lat="45.1941011" lon="9.1106767"><ele>63.0</ele><time>2026-05-04T15:40:07.799Z</time></trkpt><trkpt lat="45.1940261" lon="9.1106502"><ele>63.166666666666664</ele><time>2026-05-04T15:40:09.796Z</time></trkpt><trkpt lat="45.1939366" lon="9.110648"><ele>63.33333333333333</ele><time>2026-05-04T15:40:11.79Z</time></trkpt><trkpt lat="45.1938405" lon="9.1106444"><ele>63.5</ele><time>2026-05-04T15:40:13.796Z</time></trkpt><trkpt lat="45.1937547" lon="9.1106584"><ele>63.666666666666664</ele><time>2026-05-04T15:40:15.871Z</time></trkpt><trkpt lat="45.1936689" lon="9.1106748"><ele>63.83333333333333</ele><time>2026-05-04T15:40:17.793Z</time></trkpt><trkpt lat="45.1935864" lon="9.1106943"><ele>64.0</ele><time>2026-05-04T15:40:19.795Z</time></trkpt><trkpt lat="45.1935084" lon="9.1107161"><ele>63.99999999999999</ele><time>2026-05-04T15:40:21.801Z</time></trkpt><trkpt lat="45.1934323" lon="9.1107413"><ele>64.0</ele><time>2026-05-04T15:40:23.799Z</time></trkpt><trkpt lat="45.1933556" lon="9.1107585"><ele>64.0</ele><time>2026-05-04T15:40:25.793Z</time></trkpt><trkpt lat="45.1932723" lon="9.1107605"><ele>64.0</ele><time>2026-05-04T15:40:27.795Z</time></trkpt><trkpt lat="45.1931898" lon="9.1107486"><ele>63.99999999999999</ele><time>2026-05-04T15:40:29.797Z</time></trkpt><trkpt lat="45.1931152" lon="9.1107319"><ele>64.0</ele><time>2026-05-04T15:40:31.795Z</time></trkpt><trkpt lat="45.1930417" lon="9.1107239"><ele>64.0</ele><time>2026-05-04T15:40:34.799Z</time></trkpt><trkpt lat="45.1929782" lon="9.1107286"><ele>63.99999999999999</ele><time>2026-05-04T15:40:36.799Z</time></trkpt><trkpt lat="45.1929099" lon="9.1107299"><ele>64.0</ele><time>2026-05-04T15:40:38.793Z</time></trkpt><trkpt lat="45.1928327" lon="9.1107304"><ele>64.0</ele><time>2026-05-04T15:40:40.789Z</time></trkpt><trkpt lat="45.1927395" lon="9.1107414"><ele>63.99999999999999</ele><time>2026-05-04T15:40:42.792Z</time></trkpt><trkpt lat="45.1926759" lon="9.1107856"><ele>64.0</ele><time>2026-05-04T15:40:44.787Z</time></trkpt><trkpt lat="45.1926393" lon="9.1108677"><ele>64.0</ele><time>2026-05-04T15:40:46.796Z</time></trkpt><trkpt lat="45.1926138" lon="9.1109665"><ele>63.83333333333333</ele><time>2026-05-04T15:40:48.809Z</time></trkpt><trkpt lat="45.1926079" lon="9.1110786"><ele>63.666666666666664</ele><time>2026-05-04T15:40:50.794Z</time></trkpt><trkpt lat="45.1926095" lon="9.1111916"><ele>63.5</ele><time>2026-05-04T15:40:52.796Z</time></trkpt><trkpt lat="45.1926194" lon="9.1113142"><ele>63.33333333333333</ele><time>2026-05-04T15:40:54.789Z</time></trkpt><trkpt lat="45.1926107" lon="9.1114371"><ele>63.166666666666664</ele><time>2026-05-04T15:40:56.794Z</time></trkpt><trkpt lat="45.1925909" lon="9.1115789"><ele>63.0</ele><time>2026-05-04T15:40:58.797Z</time></trkpt><trkpt lat="45.1925842" lon="9.1117094"><ele>63.0</ele><time>2026-05-04T15:41:00.798Z</time></trkpt><trkpt lat="45.1925809" lon="9.1118498"><ele>63.0</ele><time>2026-05-04T15:41:02.795Z</time></trkpt><trkpt lat="45.1925757" lon="9.1119873"><ele>63.0</ele><time>2026-05-04T15:41:04.799Z</time></trkpt><trkpt lat="45.1925806" lon="9.1121197"><ele>63.0</ele><time>2026-05-04T15:41:06.791Z</time></trkpt><trkpt lat="45.1925969" lon="9.1122247"><ele>63.0</ele><time>2026-05-04T15:41:08.794Z</time></trkpt><trkpt lat="45.1926082" lon="9.1123268"><ele>63.0</ele><time>2026-05-04T15:41:10.802Z</time></trkpt><trkpt lat="45.192625" lon="9.1124345"><ele>63.0</ele><time>2026-05-04T15:41:12.799Z</time></trkpt><trkpt lat="45.1926458" lon="9.1125366"><ele>63.0</ele><time>2026-05-04T15:41:14.794Z</time></trkpt><trkpt lat="45.1926725" lon="9.1126389"><ele>63.0</ele><time>2026-05-04T15:41:16.783Z</time></trkpt><trkpt lat="45.1926949" lon="9.1127268"><ele>63.0</ele><time>2026-05-04T15:41:18.871Z</time></trkpt><trkpt lat="45.1927206" lon="9.1128203"><ele>63.0</ele><time>2026-05-04T15:41:20.798Z</time></trkpt><trkpt lat="45.1927432" lon="9.112917"><ele>63.0</ele><time>2026-05-04T15:41:22.792Z</time></trkpt><trkpt lat="45.1927817" lon="9.1130046"><ele>63.0</ele><time>2026-05-04T15:41:24.798Z</time></trkpt><trkpt lat="45.1928243" lon="9.1131007"><ele>63.0</ele><time>2026-05-04T15:41:26.791Z</time></trkpt><trkpt lat="45.1928678" lon="9.1132049"><ele>63.0</ele><time>2026-05-04T15:41:28.799Z</time></trkpt><trkpt lat="45.1929118" lon="9.1133174"><ele>63.0</ele><time>2026-05-04T15:41:30.797Z</time></trkpt><trkpt lat="45.1929752" lon="9.1134229"><ele>63.0</ele><time>2026-05-04T15:41:32.795Z</time></trkpt><trkpt lat="45.1930346" lon="9.1135349"><ele>63.0</ele><time>2026-05-04T15:41:34.791Z</time></trkpt><trkpt lat="45.1930974" lon="9.1136477"><ele>63.2</ele><time>2026-05-04T15:41:36.796Z</time></trkpt><trkpt lat="45.1931395" lon="9.1137767"><ele>63.4</ele><time>2026-05-04T15:41:38.785Z</time></trkpt><trkpt lat="45.1931908" lon="9.1138833"><ele>63.60000000000001</ele><time>2026-05-04T15:41:40.784Z</time></trkpt><trkpt lat="45.1932428" lon="9.1139845"><ele>63.800000000000004</ele><time>2026-05-04T15:41:42.793Z</time></trkpt><trkpt lat="45.1932934" lon="9.114082"><ele>64.0</ele><time>2026-05-04T15:41:44.795Z</time></trkpt><trkpt lat="45.1933467" lon="9.1141848"><ele>64.4</ele><time>2026-05-04T15:41:46.796Z</time></trkpt><trkpt lat="45.1933967" lon="9.1142798"><ele>64.80000000000001</ele><time>2026-05-04T15:41:48.798Z</time></trkpt><trkpt lat="45.193445" lon="9.1143855"><ele>65.19999999999999</ele><time>2026-05-04T15:41:50.787Z</time></trkpt><trkpt lat="45.1934934" lon="9.1145062"><ele>65.6</ele><time>2026-05-04T15:41:52.792Z</time></trkpt><trkpt lat="45.1935328" lon="9.1146274"><ele>66.0</ele><time>2026-05-04T15:41:54.799Z</time></trkpt><trkpt lat="45.193567" lon="9.1147579"><ele>66.0</ele><time>2026-05-04T15:41:56.804Z</time></trkpt><trkpt lat="45.1935778" lon="9.1148957"><ele>66.0</ele><time>2026-05-04T15:41:58.797Z</time></trkpt><trkpt lat="45.1935772" lon="9.1150238"><ele>66.0</ele><time>2026-05-04T15:42:00.791Z</time></trkpt><trkpt lat="45.1935501" lon="9.1151531"><ele>66.0</ele><time>2026-05-04T15:42:02.79Z</time></trkpt><trkpt lat="45.1935306" lon="9.1152715"><ele>66.0</ele><time>2026-05-04T15:42:04.785Z</time></trkpt><trkpt lat="45.1935385" lon="9.1154008"><ele>66.0</ele><time>2026-05-04T15:42:06.797Z</time></trkpt><trkpt lat="45.1935447" lon="9.1155166"><ele>66.0</ele><time>2026-05-04T15:42:08.793Z</time></trkpt><trkpt lat="45.1935624" lon="9.1156126"><ele>66.0</ele><time>2026-05-04T15:42:10.791Z</time></trkpt><trkpt lat="45.1935736" lon="9.1157237"><ele>66.0</ele><time>2026-05-04T15:42:12.785Z</time></trkpt><trkpt lat="45.1935849" lon="9.1158515"><ele>66.0</ele><time>2026-05-04T15:42:14.795Z</time></trkpt><trkpt lat="45.1936117" lon="9.1160013"><ele>66.0</ele><time>2026-05-04T15:42:16.791Z</time></trkpt><trkpt lat="45.1936285" lon="9.1161532"><ele>66.0</ele><time>2026-05-04T15:42:18.795Z</time></trkpt><trkpt lat="45.1936585" lon="9.1162875"><ele>66.0</ele><time>2026-05-04T15:42:20.882Z</time></trkpt><trkpt lat="45.1936852" lon="9.1164262"><ele>66.0</ele><time>2026-05-04T15:42:22.8Z</time></trkpt><trkpt lat="45.1937119" lon="9.1165554"><ele>66.0</ele><time>2026-05-04T15:42:24.796Z</time></trkpt><trkpt lat="45.1937314" lon="9.1166905"><ele>66.0</ele><time>2026-05-04T15:42:26.79Z</time></trkpt><trkpt lat="45.1937335" lon="9.1168089"><ele>65.83333333333333</ele><time>2026-05-04T15:42:28.793Z</time></trkpt><trkpt lat="45.1936921" lon="9.1169236"><ele>65.66666666666667</ele><time>2026-05-04T15:42:30.792Z</time></trkpt><trkpt lat="45.1936322" lon="9.1170176"><ele>65.5</ele><time>2026-05-04T15:42:32.789Z</time></trkpt><trkpt lat="45.193548" lon="9.1170826"><ele>65.33333333333334</ele><time>2026-05-04T15:42:34.793Z</time></trkpt><trkpt lat="45.193469" lon="9.1171405"><ele>65.16666666666667</ele><time>2026-05-04T15:42:36.798Z</time></trkpt><trkpt lat="45.1934074" lon="9.1172047"><ele>65.0</ele><time>2026-05-04T15:42:38.793Z</time></trkpt><trkpt lat="45.1933246" lon="9.1172481"><ele>65.00000000000001</ele><time>2026-05-04T15:42:41.798Z</time></trkpt><trkpt lat="45.1932631" lon="9.1172749"><ele>65.0</ele><time>2026-05-04T15:42:43.797Z</time></trkpt><trkpt lat="45.1931885" lon="9.1173346"><ele>65.0</ele><time>2026-05-04T15:42:46.789Z</time></trkpt><trkpt lat="45.193175" lon="9.1174285"><ele>65.0</ele><time>2026-05-04T15:42:48.794Z</time></trkpt><trkpt lat="45.1931793" lon="9.1175203"><ele>65.0</ele><time>2026-05-04T15:42:50.795Z</time></trkpt><trkpt lat="45.193202" lon="9.117632"><ele>65.00000000000001</ele><time>2026-05-04T15:42:52.802Z</time></trkpt><trkpt lat="45.1932325" lon="9.1177325"><ele>65.0</ele><time>2026-05-04T15:42:54.8Z</time></trkpt><trkpt lat="45.1932721" lon="9.117882"><ele>64.6</ele><time>2026-05-04T15:42:56.793Z</time></trkpt><trkpt lat="45.1933242" lon="9.1180192"><ele>64.2</ele><time>2026-05-04T15:42:58.79Z</time></trkpt><trkpt lat="45.1933658" lon="9.1181343"><ele>63.8</ele><time>2026-05-04T15:43:00.799Z</time></trkpt><trkpt lat="45.1933983" lon="9.1182576"><ele>63.4</ele><time>2026-05-04T15:43:02.793Z</time></trkpt><trkpt lat="45.1934266" lon="9.1183775"><ele>63.0</ele><time>2026-05-04T15:43:04.794Z</time></trkpt><trkpt lat="45.1934601" lon="9.1184783"><ele>62.666666666666664</ele><time>2026-05-04T15:43:06.812Z</time></trkpt><trkpt lat="45.1934924" lon="9.1185936"><ele>62.33333333333333</ele><time>2026-05-04T15:43:08.797Z</time></trkpt><trkpt lat="45.1935271" lon="9.1187023"><ele>62.0</ele><time>2026-05-04T15:43:10.792Z</time></trkpt><trkpt lat="45.1935703" lon="9.1188017"><ele>61.666666666666664</ele><time>2026-05-04T15:43:12.867Z</time></trkpt><trkpt lat="45.193591" lon="9.1189245"><ele>61.33333333333333</ele><time>2026-05-04T15:43:14.811Z</time></trkpt><trkpt lat="45.193615" lon="9.1190517"><ele>61.0</ele><time>2026-05-04T15:43:16.793Z</time></trkpt><trkpt lat="45.1936275" lon="9.1191572"><ele>60.71428571428571</ele><time>2026-05-04T15:43:18.785Z</time></trkpt><trkpt lat="45.1936456" lon="9.1192457"><ele>60.42857142857143</ele><time>2026-05-04T15:43:20.796Z</time></trkpt><trkpt lat="45.1936527" lon="9.119354"><ele>60.14285714285714</ele><time>2026-05-04T15:43:22.783Z</time></trkpt><trkpt lat="45.1936065" lon="9.1194588"><ele>59.857142857142854</ele><time>2026-05-04T15:43:24.797Z</time></trkpt><trkpt lat="45.1935515" lon="9.1195184"><ele>59.57142857142857</ele><time>2026-05-04T15:43:26.798Z</time></trkpt><trkpt lat="45.1934955" lon="9.1195755"><ele>59.285714285714285</ele><time>2026-05-04T15:43:28.79Z</time></trkpt><trkpt lat="45.1934468" lon="9.1196494"><ele>59.0</ele><time>2026-05-04T15:43:30.79Z</time></trkpt><trkpt lat="45.1934006" lon="9.119747"><ele>59.00000000000001</ele><time>2026-05-04T15:43:32.797Z</time></trkpt><trkpt lat="45.1933749" lon="9.1198524"><ele>59.0</ele><time>2026-05-04T15:43:34.788Z</time></trkpt><trkpt lat="45.1933551" lon="9.119957"><ele>59.0</ele><time>2026-05-04T15:43:36.791Z</time></trkpt><trkpt lat="45.1933379" lon="9.1200495"><ele>59.0</ele><time>2026-05-04T15:43:38.874Z</time></trkpt><trkpt lat="45.1933325" lon="9.1201521"><ele>59.00000000000001</ele><time>2026-05-04T15:43:40.793Z</time></trkpt><trkpt lat="45.1933248" lon="9.1202639"><ele>59.0</ele><time>2026-05-04T15:43:42.788Z</time></trkpt><trkpt lat="45.1933284" lon="9.1203737"><ele>58.833333333333336</ele><time>2026-05-04T15:43:44.798Z</time></trkpt><trkpt lat="45.1933405" lon="9.1204903"><ele>58.66666666666667</ele><time>2026-05-04T15:43:46.797Z</time></trkpt><trkpt lat="45.1933602" lon="9.120613"><ele>58.5</ele><time>2026-05-04T15:43:48.792Z</time></trkpt><trkpt lat="45.193384" lon="9.1207422"><ele>58.33333333333333</ele><time>2026-05-04T15:43:50.79Z</time></trkpt><trkpt lat="45.1934166" lon="9.1208548"><ele>58.166666666666664</ele><time>2026-05-04T15:43:52.795Z</time></trkpt><trkpt lat="45.1934671" lon="9.1209445"><ele>58.0</ele><time>2026-05-04T15:43:54.793Z</time></trkpt><trkpt lat="45.193509" lon="9.1210174"><ele>57.99999999999999</ele><time>2026-05-04T15:43:56.797Z</time></trkpt><trkpt lat="45.1935469" lon="9.1211063"><ele>58.0</ele><time>2026-05-04T15:43:58.801Z</time></trkpt><trkpt lat="45.1935721" lon="9.1211916"><ele>58.0</ele><time>2026-05-04T15:44:00.801Z</time></trkpt><trkpt lat="45.1936073" lon="9.1213112"><ele>58.0</ele><time>2026-05-04T15:44:03.801Z</time></trkpt><trkpt lat="45.193654" lon="9.1214008"><ele>57.99999999999999</ele><time>2026-05-04T15:44:06.785Z</time></trkpt><trkpt lat="45.1937116" lon="9.1214416"><ele>58.0</ele><time>2026-05-04T15:44:08.791Z</time></trkpt><trkpt lat="45.1937882" lon="9.1214838"><ele>57.99999999999999</ele><time>2026-05-04T15:44:11.794Z</time></trkpt><trkpt lat="45.1938288" lon="9.1215621"><ele>58.0</ele><time>2026-05-04T15:44:14.794Z</time></trkpt><trkpt lat="45.1938549" lon="9.1216643"><ele>58.0</ele><time>2026-05-04T15:44:17.805Z</time></trkpt><trkpt lat="45.1938725" lon="9.1217776"><ele>58.0</ele><time>2026-05-04T15:44:20.794Z</time></trkpt><trkpt lat="45.1938779" lon="9.1219056"><ele>57.99999999999999</ele><time>2026-05-04T15:44:23.795Z</time></trkpt><trkpt lat="45.1938943" lon="9.1220197"><ele>58.0</ele><time>2026-05-04T15:44:26.804Z</time></trkpt><trkpt lat="45.1939101" lon="9.1221356"><ele>57.83333333333333</ele><time>2026-05-04T15:44:29.801Z</time></trkpt><trkpt lat="45.193912" lon="9.1222276"><ele>57.666666666666664</ele><time>2026-05-04T15:44:31.801Z</time></trkpt><trkpt lat="45.1939021" lon="9.1223167"><ele>57.5</ele><time>2026-05-04T15:44:33.798Z</time></trkpt><trkpt lat="45.1938815" lon="9.1224052"><ele>57.33333333333333</ele><time>2026-05-04T15:44:35.801Z</time></trkpt><trkpt lat="45.1938442" lon="9.1225031"><ele>57.166666666666664</ele><time>2026-05-04T15:44:37.802Z</time></trkpt><trkpt lat="45.1938025" lon="9.1225997"><ele>57.0</ele><time>2026-05-04T15:44:39.799Z</time></trkpt><trkpt lat="45.1937777" lon="9.1227392"><ele>57.0</ele><time>2026-05-04T15:44:41.792Z</time></trkpt><trkpt lat="45.1937696" lon="9.1228849"><ele>57.0</ele><time>2026-05-04T15:44:43.8Z</time></trkpt><trkpt lat="45.1937683" lon="9.1230089"><ele>57.0</ele><time>2026-05-04T15:44:45.792Z</time></trkpt><trkpt lat="45.1937609" lon="9.1231241"><ele>57.0</ele><time>2026-05-04T15:44:47.798Z</time></trkpt><trkpt lat="45.1937406" lon="9.1232192"><ele>57.0</ele><time>2026-05-04T15:44:49.798Z</time></trkpt><trkpt lat="45.1937292" lon="9.1233185"><ele>57.0</ele><time>2026-05-04T15:44:51.797Z</time></trkpt><trkpt lat="45.1937158" lon="9.123427"><ele>57.0</ele><time>2026-05-04T15:44:53.799Z</time></trkpt><trkpt lat="45.1937026" lon="9.1235466"><ele>57.0</ele><time>2026-05-04T15:44:56.79Z</time></trkpt><trkpt lat="45.1937007" lon="9.1236455"><ele>57.0</ele><time>2026-05-04T15:44:59.8Z</time></trkpt><trkpt lat="45.1936686" lon="9.1237567"><ele>57.0</ele><time>2026-05-04T15:45:02.785Z</time></trkpt><trkpt lat="45.1936126" lon="9.1238174"><ele>57.0</ele><time>2026-05-04T15:45:05.798Z</time></trkpt><trkpt lat="45.193621" lon="9.1239089"><ele>57.0</ele><time>2026-05-04T15:46:28.792Z</time></trkpt><trkpt lat="45.1936362" lon="9.1240169"><ele>57.666666666666664</ele><time>2026-05-04T15:46:33.792Z</time></trkpt><trkpt lat="45.1936225" lon="9.1241334"><ele>58.33333333333333</ele><time>2026-05-04T15:46:36.789Z</time></trkpt><trkpt lat="45.1936265" lon="9.1242528"><ele>59.0</ele><time>2026-05-04T15:46:39.808Z</time></trkpt><trkpt lat="45.1936059" lon="9.1243521"><ele>59.666666666666664</ele><time>2026-05-04T15:46:42.802Z</time></trkpt><trkpt lat="45.1935864" lon="9.1244545"><ele>60.33333333333333</ele><time>2026-05-04T15:46:45.802Z</time></trkpt><trkpt lat="45.1935724" lon="9.1245837"><ele>61.0</ele><time>2026-05-04T15:46:49.8Z</time></trkpt><trkpt lat="45.1935638" lon="9.1246843"><ele>60.99999999999999</ele><time>2026-05-04T15:46:51.802Z</time></trkpt><trkpt lat="45.1935498" lon="9.1248151"><ele>61.0</ele><time>2026-05-04T15:46:53.797Z</time></trkpt><trkpt lat="45.1935331" lon="9.1249218"><ele>60.99999999999999</ele><time>2026-05-04T15:46:55.795Z</time></trkpt><trkpt lat="45.1935312" lon="9.1250229"><ele>60.99999999999999</ele><time>2026-05-04T15:46:57.798Z</time></trkpt><trkpt lat="45.1935258" lon="9.1251171"><ele>61.0</ele><time>2026-05-04T15:46:59.791Z</time></trkpt><trkpt lat="45.1935107" lon="9.1252124"><ele>60.99999999999999</ele><time>2026-05-04T15:47:01.799Z</time></trkpt><trkpt lat="45.1934994" lon="9.1253015"><ele>60.99999999999999</ele><time>2026-05-04T15:47:03.8Z</time></trkpt><trkpt lat="45.1934993" lon="9.125432"><ele>60.99999999999999</ele><time>2026-05-04T15:47:05.8Z</time></trkpt><trkpt lat="45.1934848" lon="9.1255512"><ele>61.0</ele><time>2026-05-04T15:47:07.796Z</time></trkpt><trkpt lat="45.193455" lon="9.1256641"><ele>61.0</ele><time>2026-05-04T15:47:09.796Z</time></trkpt><trkpt lat="45.1934226" lon="9.1257645"><ele>61.0</ele><time>2026-05-04T15:47:11.798Z</time></trkpt><trkpt lat="45.1933881" lon="9.1258807"><ele>60.99999999999999</ele><time>2026-05-04T15:47:13.787Z</time></trkpt><trkpt lat="45.1933558" lon="9.1259889"><ele>61.0</ele><time>2026-05-04T15:47:15.802Z</time></trkpt><trkpt lat="45.1933164" lon="9.1260587"><ele>60.83333333333333</ele><time>2026-05-04T15:47:17.799Z</time></trkpt><trkpt lat="45.1932823" lon="9.1261352"><ele>60.666666666666664</ele><time>2026-05-04T15:47:19.804Z</time></trkpt><trkpt lat="45.1932799" lon="9.1262427"><ele>60.5</ele><time>2026-05-04T15:47:23.786Z</time></trkpt><trkpt lat="45.1932498" lon="9.1263355"><ele>60.33333333333333</ele><time>2026-05-04T15:47:26.798Z</time></trkpt><trkpt lat="45.1931944" lon="9.1264207"><ele>60.166666666666664</ele><time>2026-05-04T15:47:29.795Z</time></trkpt><trkpt lat="45.1931309" lon="9.1265141"><ele>60.0</ele><time>2026-05-04T15:47:32.865Z</time></trkpt><trkpt lat="45.1930822" lon="9.1265836"><ele>59.0</ele><time>2026-05-04T15:47:34.789Z</time></trkpt><trkpt lat="45.1930303" lon="9.1266514"><ele>58.0</ele><time>2026-05-04T15:47:36.803Z</time></trkpt><trkpt lat="45.1929778" lon="9.1267328"><ele>57.0</ele><time>2026-05-04T15:47:38.789Z</time></trkpt><trkpt lat="45.1929225" lon="9.1268244"><ele>56.0</ele><time>2026-05-04T15:47:40.788Z</time></trkpt><trkpt lat="45.1928559" lon="9.1269208"><ele>55.0</ele><time>2026-05-04T15:47:42.798Z</time></trkpt><trkpt lat="45.1927749" lon="9.127044"><ele>54.0</ele><time>2026-05-04T15:47:44.795Z</time></trkpt><trkpt lat="45.1926834" lon="9.127145"><ele>54.0</ele><time>2026-05-04T15:47:46.797Z</time></trkpt><trkpt lat="45.1926187" lon="9.1272457"><ele>54.00000000000001</ele><time>2026-05-04T15:47:48.803Z</time></trkpt><trkpt lat="45.1925422" lon="9.1273633"><ele>54.00000000000001</ele><time>2026-05-04T15:47:50.804Z</time></trkpt><trkpt lat="45.1924762" lon="9.1274683"><ele>54.0</ele><time>2026-05-04T15:47:52.791Z</time></trkpt><trkpt lat="45.1923971" lon="9.1275693"><ele>54.0</ele><time>2026-05-04T15:47:54.798Z</time></trkpt><trkpt lat="45.1923233" lon="9.1276751"><ele>53.6</ele><time>2026-05-04T15:47:56.797Z</time></trkpt><trkpt lat="45.1922476" lon="9.1277766"><ele>53.2</ele><time>2026-05-04T15:47:58.797Z</time></trkpt><trkpt lat="45.1921734" lon="9.1278682"><ele>52.800000000000004</ele><time>2026-05-04T15:48:00.801Z</time></trkpt><trkpt lat="45.1920913" lon="9.1279657"><ele>52.400000000000006</ele><time>2026-05-04T15:48:02.797Z</time></trkpt><trkpt lat="45.1920053" lon="9.1280697"><ele>52.0</ele><time>2026-05-04T15:48:04.794Z</time></trkpt><trkpt lat="45.1919157" lon="9.1281508"><ele>53.0</ele><time>2026-05-04T15:48:06.803Z</time></trkpt><trkpt lat="45.1918153" lon="9.1282372"><ele>54.0</ele><time>2026-05-04T15:48:08.799Z</time></trkpt><trkpt lat="45.1917152" lon="9.1283186"><ele>55.0</ele><time>2026-05-04T15:48:10.796Z</time></trkpt><trkpt lat="45.1916066" lon="9.1283837"><ele>56.0</ele><time>2026-05-04T15:48:12.796Z</time></trkpt><trkpt lat="45.1914967" lon="9.1284419"><ele>57.75</ele><time>2026-05-04T15:48:14.801Z</time></trkpt><trkpt lat="45.1913803" lon="9.1284977"><ele>59.5</ele><time>2026-05-04T15:48:16.798Z</time></trkpt><trkpt lat="45.1912708" lon="9.1285605"><ele>61.25</ele><time>2026-05-04T15:48:18.806Z</time></trkpt><trkpt lat="45.1911685" lon="9.1286266"><ele>63.0</ele><time>2026-05-04T15:48:20.799Z</time></trkpt><trkpt lat="45.1910763" lon="9.1286863"><ele>63.0</ele><time>2026-05-04T15:48:22.792Z</time></trkpt><trkpt lat="45.1909736" lon="9.1287525"><ele>63.0</ele><time>2026-05-04T15:48:24.796Z</time></trkpt><trkpt lat="45.190868" lon="9.128806"><ele>63.0</ele><time>2026-05-04T15:48:26.792Z</time></trkpt><trkpt lat="45.1907754" lon="9.1288609"><ele>63.0</ele><time>2026-05-04T15:48:28.803Z</time></trkpt><trkpt lat="45.1906782" lon="9.1289369"><ele>63.0</ele><time>2026-05-04T15:48:30.795Z</time></trkpt><trkpt lat="45.1906255" lon="9.1289906"><ele>62.4</ele><time>2026-05-04T15:48:31.788Z</time></trkpt><trkpt lat="45.1905314" lon="9.1290701"><ele>61.8</ele><time>2026-05-04T15:48:33.793Z</time></trkpt><trkpt lat="45.1904417" lon="9.1291415"><ele>61.2</ele><time>2026-05-04T15:48:35.79Z</time></trkpt><trkpt lat="45.1903622" lon="9.1292145"><ele>60.6</ele><time>2026-05-04T15:48:37.801Z</time></trkpt><trkpt lat="45.1902773" lon="9.1292848"><ele>60.0</ele><time>2026-05-04T15:48:39.794Z</time></trkpt><trkpt lat="45.1901887" lon="9.1293624"><ele>60.0</ele><time>2026-05-04T15:48:41.791Z</time></trkpt><trkpt lat="45.1900939" lon="9.1294247"><ele>60.0</ele><time>2026-05-04T15:48:43.795Z</time></trkpt><trkpt lat="45.1899885" lon="9.1294864"><ele>60.0</ele><time>2026-05-04T15:48:45.79Z</time></trkpt><trkpt lat="45.189888" lon="9.1295361"><ele>60.0</ele><time>2026-05-04T15:48:47.794Z</time></trkpt><trkpt lat="45.1897849" lon="9.1296011"><ele>60.0</ele><time>2026-05-04T15:48:49.799Z</time></trkpt><trkpt lat="45.1896897" lon="9.1296507"><ele>60.0</ele><time>2026-05-04T15:48:51.799Z</time></trkpt><trkpt lat="45.1895867" lon="9.1297162"><ele>60.0</ele><time>2026-05-04T15:48:53.797Z</time></trkpt><trkpt lat="45.18949" lon="9.1297786"><ele>60.0</ele><time>2026-05-04T15:48:55.798Z</time></trkpt><trkpt lat="45.1893996" lon="9.1298451"><ele>60.0</ele><time>2026-05-04T15:48:57.796Z</time></trkpt><trkpt lat="45.1893121" lon="9.1298935"><ele>60.0</ele><time>2026-05-04T15:48:59.805Z</time></trkpt><trkpt lat="45.1892241" lon="9.1299492"><ele>60.6</ele><time>2026-05-04T15:49:01.793Z</time></trkpt><trkpt lat="45.1891316" lon="9.1300106"><ele>61.2</ele><time>2026-05-04T15:49:03.792Z</time></trkpt><trkpt lat="45.1890379" lon="9.1300675"><ele>61.8</ele><time>2026-05-04T15:49:05.794Z</time></trkpt><trkpt lat="45.1889454" lon="9.1301261"><ele>62.4</ele><time>2026-05-04T15:49:07.806Z</time></trkpt><trkpt lat="45.1888523" lon="9.1301891"><ele>63.0</ele><time>2026-05-04T15:49:09.799Z</time></trkpt><trkpt lat="45.1887651" lon="9.1302475"><ele>61.4</ele><time>2026-05-04T15:49:11.796Z</time></trkpt><trkpt lat="45.1886806" lon="9.130304"><ele>59.8</ele><time>2026-05-04T15:49:13.799Z</time></trkpt><trkpt lat="45.1885896" lon="9.130355"><ele>58.2</ele><time>2026-05-04T15:49:15.801Z</time></trkpt><trkpt lat="45.1885013" lon="9.1304039"><ele>56.6</ele><time>2026-05-04T15:49:17.804Z</time></trkpt><trkpt lat="45.1884162" lon="9.1304583"><ele>55.0</ele><time>2026-05-04T15:49:19.789Z</time></trkpt><trkpt lat="45.1883347" lon="9.1304867"><ele>54.99999999999999</ele><time>2026-05-04T15:49:21.861Z</time></trkpt><trkpt lat="45.1882684" lon="9.1305027"><ele>55.0</ele><time>2026-05-04T15:49:23.798Z</time></trkpt><trkpt lat="45.1881917" lon="9.1305432"><ele>55.0</ele><time>2026-05-04T15:49:25.786Z</time></trkpt><trkpt lat="45.1880988" lon="9.1305965"><ele>55.0</ele><time>2026-05-04T15:49:27.804Z</time></trkpt><trkpt lat="45.1880402" lon="9.1306313"><ele>54.99999999999999</ele><time>2026-05-04T15:49:28.8Z</time></trkpt><trkpt lat="45.1879365" lon="9.1306986"><ele>55.0</ele><time>2026-05-04T15:49:30.79Z</time></trkpt><trkpt lat="45.1878349" lon="9.1307486"><ele>55.2</ele><time>2026-05-04T15:49:32.788Z</time></trkpt><trkpt lat="45.1877379" lon="9.1307932"><ele>55.4</ele><time>2026-05-04T15:49:34.87Z</time></trkpt><trkpt lat="45.1876325" lon="9.1308473"><ele>55.599999999999994</ele><time>2026-05-04T15:49:36.868Z</time></trkpt><trkpt lat="45.187543" lon="9.1309126"><ele>55.8</ele><time>2026-05-04T15:49:38.798Z</time></trkpt><trkpt lat="45.1874515" lon="9.1309792"><ele>56.0</ele><time>2026-05-04T15:49:40.791Z</time></trkpt><trkpt lat="45.1873608" lon="9.1310374"><ele>57.0</ele><time>2026-05-04T15:49:42.797Z</time></trkpt><trkpt lat="45.1872617" lon="9.1310899"><ele>57.99999999999999</ele><time>2026-05-04T15:49:44.799Z</time></trkpt><trkpt lat="45.187158" lon="9.13114"><ele>58.99999999999999</ele><time>2026-05-04T15:49:46.789Z</time></trkpt><trkpt lat="45.1870645" lon="9.1311897"><ele>60.0</ele><time>2026-05-04T15:49:48.789Z</time></trkpt><trkpt lat="45.18699" lon="9.1312473"><ele>61.0</ele><time>2026-05-04T15:49:50.797Z</time></trkpt><trkpt lat="45.1869063" lon="9.1313136"><ele>60.99999999999999</ele><time>2026-05-04T15:49:52.785Z</time></trkpt><trkpt lat="45.1868214" lon="9.1313563"><ele>61.0</ele><time>2026-05-04T15:49:54.795Z</time></trkpt><trkpt lat="45.1867555" lon="9.1313976"><ele>61.0</ele><time>2026-05-04T15:49:56.808Z</time></trkpt><trkpt lat="45.186687" lon="9.1314358"><ele>61.0</ele><time>2026-05-04T15:49:58.795Z</time></trkpt><trkpt lat="45.1866154" lon="9.1314909"><ele>60.99999999999999</ele><time>2026-05-04T15:50:00.797Z</time></trkpt><trkpt lat="45.1865295" lon="9.1315468"><ele>61.0</ele><time>2026-05-04T15:50:02.788Z</time></trkpt><trkpt lat="45.186438" lon="9.1316334"><ele>60.49999999999999</ele><time>2026-05-04T15:50:04.803Z</time></trkpt><trkpt lat="45.1863673" lon="9.1317188"><ele>60.0</ele><time>2026-05-04T15:50:06.793Z</time></trkpt><trkpt lat="45.1862909" lon="9.131803"><ele>59.5</ele><time>2026-05-04T15:50:08.785Z</time></trkpt><trkpt lat="45.1862329" lon="9.1318881"><ele>59.0</ele><time>2026-05-04T15:50:10.785Z</time></trkpt><trkpt lat="45.1861843" lon="9.1319741"><ele>58.49999999999999</ele><time>2026-05-04T15:50:12.789Z</time></trkpt><trkpt lat="45.1861375" lon="9.132083"><ele>58.0</ele><time>2026-05-04T15:50:15.792Z</time></trkpt><trkpt lat="45.1860934" lon="9.1321779"><ele>58.0</ele><time>2026-05-04T15:50:17.789Z</time></trkpt><trkpt lat="45.1860485" lon="9.1322845"><ele>58.0</ele><time>2026-05-04T15:50:19.796Z</time></trkpt><trkpt lat="45.1859959" lon="9.1323879"><ele>58.0</ele><time>2026-05-04T15:50:21.79Z</time></trkpt><trkpt lat="45.1859443" lon="9.1324923"><ele>58.0</ele><time>2026-05-04T15:50:23.801Z</time></trkpt><trkpt lat="45.1858903" lon="9.1325912"><ele>58.0</ele><time>2026-05-04T15:50:25.874Z</time></trkpt><trkpt lat="45.1858357" lon="9.132713"><ele>58.0</ele><time>2026-05-04T15:50:27.791Z</time></trkpt><trkpt lat="45.1857658" lon="9.1328249"><ele>58.0</ele><time>2026-05-04T15:50:29.791Z</time></trkpt><trkpt lat="45.1856967" lon="9.1329258"><ele>58.0</ele><time>2026-05-04T15:50:31.793Z</time></trkpt><trkpt lat="45.1856284" lon="9.1330111"><ele>58.0</ele><time>2026-05-04T15:50:33.795Z</time></trkpt><trkpt lat="45.1855696" lon="9.1331032"><ele>58.0</ele><time>2026-05-04T15:50:35.793Z</time></trkpt><trkpt lat="45.185521" lon="9.1331963"><ele>57.83333333333333</ele><time>2026-05-04T15:50:37.793Z</time></trkpt><trkpt lat="45.1854734" lon="9.1332788"><ele>57.666666666666664</ele><time>2026-05-04T15:50:39.876Z</time></trkpt><trkpt lat="45.1854355" lon="9.1333515"><ele>57.5</ele><time>2026-05-04T15:50:41.79Z</time></trkpt><trkpt lat="45.1853921" lon="9.1334592"><ele>57.33333333333333</ele><time>2026-05-04T15:50:43.79Z</time></trkpt><trkpt lat="45.1853452" lon="9.1335624"><ele>57.166666666666664</ele><time>2026-05-04T15:50:45.792Z</time></trkpt><trkpt lat="45.1853041" lon="9.1336816"><ele>57.0</ele><time>2026-05-04T15:50:47.795Z</time></trkpt><trkpt lat="45.1852632" lon="9.1337966"><ele>57.0</ele><time>2026-05-04T15:50:49.799Z</time></trkpt><trkpt lat="45.1852221" lon="9.1338924"><ele>57.0</ele><time>2026-05-04T15:50:51.784Z</time></trkpt><trkpt lat="45.1851891" lon="9.1339685"><ele>57.0</ele><time>2026-05-04T15:50:53.793Z</time></trkpt><trkpt lat="45.1851483" lon="9.134062"><ele>57.0</ele><time>2026-05-04T15:50:55.782Z</time></trkpt><trkpt lat="45.1850885" lon="9.1341829"><ele>57.0</ele><time>2026-05-04T15:50:57.796Z</time></trkpt><trkpt lat="45.1850386" lon="9.1343202"><ele>57.0</ele><time>2026-05-04T15:50:59.794Z</time></trkpt><trkpt lat="45.1849871" lon="9.1344653"><ele>57.5</ele><time>2026-05-04T15:51:01.789Z</time></trkpt><trkpt lat="45.1849511" lon="9.1345964"><ele>58.0</ele><time>2026-05-04T15:51:03.799Z</time></trkpt><trkpt lat="45.184925" lon="9.1347201"><ele>58.5</ele><time>2026-05-04T15:51:05.804Z</time></trkpt><trkpt lat="45.1848934" lon="9.134829"><ele>59.0</ele><time>2026-05-04T15:51:07.794Z</time></trkpt><trkpt lat="45.1848727" lon="9.1349334"><ele>59.5</ele><time>2026-05-04T15:51:09.787Z</time></trkpt><trkpt lat="45.1848763" lon="9.1350512"><ele>60.0</ele><time>2026-05-04T15:51:12.797Z</time></trkpt><trkpt lat="45.1849" lon="9.1351756"><ele>60.0</ele><time>2026-05-04T15:51:15.859Z</time></trkpt><trkpt lat="45.1849148" lon="9.1353049"><ele>60.0</ele><time>2026-05-04T15:51:18.79Z</time></trkpt><trkpt lat="45.1849232" lon="9.1353939"><ele>60.0</ele><time>2026-05-04T15:51:20.795Z</time></trkpt><trkpt lat="45.1849367" lon="9.1355172"><ele>60.0</ele><time>2026-05-04T15:51:23.791Z</time></trkpt><trkpt lat="45.1849411" lon="9.1356517"><ele>60.0</ele><time>2026-05-04T15:51:26.811Z</time></trkpt><trkpt lat="45.1849466" lon="9.1357548"><ele>60.0</ele><time>2026-05-04T15:51:28.792Z</time></trkpt><trkpt lat="45.1849289" lon="9.1358822"><ele>60.0</ele><time>2026-05-04T15:51:30.87Z</time></trkpt><trkpt lat="45.1848727" lon="9.1359923"><ele>60.0</ele><time>2026-05-04T15:51:32.797Z</time></trkpt><trkpt lat="45.1848098" lon="9.1360547"><ele>60.0</ele><time>2026-05-04T15:51:34.789Z</time></trkpt><trkpt lat="45.1847423" lon="9.1361067"><ele>60.0</ele><time>2026-05-04T15:51:36.795Z</time></trkpt><trkpt lat="45.1846787" lon="9.1361498"><ele>60.0</ele><time>2026-05-04T15:51:38.803Z</time></trkpt><trkpt lat="45.1846153" lon="9.1361999"><ele>60.0</ele><time>2026-05-04T15:51:40.791Z</time></trkpt><trkpt lat="45.1845501" lon="9.1362564"><ele>60.333333333333336</ele><time>2026-05-04T15:51:42.793Z</time></trkpt><trkpt lat="45.1844757" lon="9.1363225"><ele>60.66666666666667</ele><time>2026-05-04T15:51:45.779Z</time></trkpt><trkpt lat="45.1843873" lon="9.1364214"><ele>61.0</ele><time>2026-05-04T15:51:48.789Z</time></trkpt><trkpt lat="45.1843537" lon="9.1364973"><ele>61.333333333333336</ele><time>2026-05-04T15:51:49.795Z</time></trkpt><trkpt lat="45.184309" lon="9.1365875"><ele>61.66666666666667</ele><time>2026-05-04T15:51:51.787Z</time></trkpt><trkpt lat="45.184312" lon="9.136699"><ele>62.0</ele><time>2026-05-04T15:51:54.794Z</time></trkpt><trkpt lat="45.1843792" lon="9.1368096"><ele>62.00000000000001</ele><time>2026-05-04T15:51:57.805Z</time></trkpt><trkpt lat="45.1844691" lon="9.1368734"><ele>62.0</ele><time>2026-05-04T15:51:59.795Z</time></trkpt><trkpt lat="45.1845416" lon="9.1369399"><ele>62.0</ele><time>2026-05-04T15:52:01.792Z</time></trkpt><trkpt lat="45.1846115" lon="9.1370056"><ele>62.0</ele><time>2026-05-04T15:52:03.806Z</time></trkpt><trkpt lat="45.1846778" lon="9.1370718"><ele>62.00000000000001</ele><time>2026-05-04T15:52:05.788Z</time></trkpt><trkpt lat="45.1847501" lon="9.1371263"><ele>62.0</ele><time>2026-05-04T15:52:07.792Z</time></trkpt><trkpt lat="45.1848052" lon="9.1371852"><ele>62.00000000000001</ele><time>2026-05-04T15:52:09.801Z</time></trkpt><trkpt lat="45.1847861" lon="9.1373065"><ele>62.0</ele><time>2026-05-04T15:52:12.789Z</time></trkpt><trkpt lat="45.1847254" lon="9.1373462"><ele>62.0</ele><time>2026-05-04T15:52:14.788Z</time></trkpt><trkpt lat="45.1846857" lon="9.1374594"><ele>62.0</ele><time>2026-05-04T15:52:16.8Z</time></trkpt><trkpt lat="45.1846395" lon="9.1375825"><ele>62.00000000000001</ele><time>2026-05-04T15:52:18.786Z</time></trkpt><trkpt lat="45.1845819" lon="9.1376995"><ele>62.0</ele><time>2026-05-04T15:52:20.861Z</time></trkpt><trkpt lat="45.1845353" lon="9.1378143"><ele>62.2</ele><time>2026-05-04T15:52:22.804Z</time></trkpt><trkpt lat="45.1844852" lon="9.1379186"><ele>62.400000000000006</ele><time>2026-05-04T15:52:24.799Z</time></trkpt><trkpt lat="45.1844346" lon="9.1380353"><ele>62.599999999999994</ele><time>2026-05-04T15:52:26.798Z</time></trkpt><trkpt lat="45.1843852" lon="9.1381512"><ele>62.8</ele><time>2026-05-04T15:52:28.795Z</time></trkpt><trkpt lat="45.184332" lon="9.1382621"><ele>63.0</ele><time>2026-05-04T15:52:30.797Z</time></trkpt><trkpt lat="45.1842839" lon="9.1383852"><ele>63.4</ele><time>2026-05-04T15:52:32.79Z</time></trkpt><trkpt lat="45.1842339" lon="9.1384981"><ele>63.8</ele><time>2026-05-04T15:52:34.797Z</time></trkpt><trkpt lat="45.1841816" lon="9.1386209"><ele>64.2</ele><time>2026-05-04T15:52:36.791Z</time></trkpt><trkpt lat="45.1841207" lon="9.1387534"><ele>64.6</ele><time>2026-05-04T15:52:38.798Z</time></trkpt><trkpt lat="45.1840606" lon="9.1388783"><ele>65.0</ele><time>2026-05-04T15:52:40.799Z</time></trkpt><trkpt lat="45.1840047" lon="9.139007"><ele>63.4</ele><time>2026-05-04T15:52:42.795Z</time></trkpt><trkpt lat="45.1839486" lon="9.1391303"><ele>61.8</ele><time>2026-05-04T15:52:44.799Z</time></trkpt><trkpt lat="45.1838905" lon="9.1392517"><ele>60.2</ele><time>2026-05-04T15:52:46.798Z</time></trkpt><trkpt lat="45.1838373" lon="9.1393824"><ele>58.6</ele><time>2026-05-04T15:52:48.795Z</time></trkpt><trkpt lat="45.1837892" lon="9.1395168"><ele>57.0</ele><time>2026-05-04T15:52:50.799Z</time></trkpt><trkpt lat="45.1837416" lon="9.1396546"><ele>57.0</ele><time>2026-05-04T15:52:52.8Z</time></trkpt><trkpt lat="45.1836977" lon="9.139793"><ele>57.0</ele><time>2026-05-04T15:52:54.787Z</time></trkpt><trkpt lat="45.1836591" lon="9.1399384"><ele>57.0</ele><time>2026-05-04T15:52:56.797Z</time></trkpt><trkpt lat="45.1836174" lon="9.1400734"><ele>57.0</ele><time>2026-05-04T15:52:58.795Z</time></trkpt><trkpt lat="45.1835778" lon="9.1402043"><ele>57.0</ele><time>2026-05-04T15:53:00.797Z</time></trkpt><trkpt lat="45.1835371" lon="9.1403315"><ele>57.2</ele><time>2026-05-04T15:53:02.793Z</time></trkpt><trkpt lat="45.1835006" lon="9.1404766"><ele>57.400000000000006</ele><time>2026-05-04T15:53:04.798Z</time></trkpt><trkpt lat="45.1834632" lon="9.1406244"><ele>57.599999999999994</ele><time>2026-05-04T15:53:06.799Z</time></trkpt><trkpt lat="45.18342" lon="9.1407695"><ele>57.8</ele><time>2026-05-04T15:53:08.801Z</time></trkpt><trkpt lat="45.1833829" lon="9.1409148"><ele>58.0</ele><time>2026-05-04T15:53:10.793Z</time></trkpt><trkpt lat="45.1833447" lon="9.1410591"><ele>59.5</ele><time>2026-05-04T15:53:12.804Z</time></trkpt><trkpt lat="45.1833046" lon="9.1412151"><ele>61.0</ele><time>2026-05-04T15:53:14.794Z</time></trkpt><trkpt lat="45.1832684" lon="9.1413629"><ele>62.5</ele><time>2026-05-04T15:53:16.794Z</time></trkpt><trkpt lat="45.1832247" lon="9.1415046"><ele>64.0</ele><time>2026-05-04T15:53:18.797Z</time></trkpt><trkpt lat="45.183188" lon="9.1416597"><ele>62.400000000000006</ele><time>2026-05-04T15:53:20.794Z</time></trkpt><trkpt lat="45.1831451" lon="9.1418204"><ele>60.800000000000004</ele><time>2026-05-04T15:53:22.8Z</time></trkpt><trkpt lat="45.1830975" lon="9.1419735"><ele>59.199999999999996</ele><time>2026-05-04T15:53:24.793Z</time></trkpt><trkpt lat="45.1830523" lon="9.1421104"><ele>57.599999999999994</ele><time>2026-05-04T15:53:26.797Z</time></trkpt><trkpt lat="45.1830196" lon="9.142249"><ele>56.0</ele><time>2026-05-04T15:53:28.798Z</time></trkpt><trkpt lat="45.1829985" lon="9.1423692"><ele>56.8</ele><time>2026-05-04T15:53:30.809Z</time></trkpt><trkpt lat="45.1829699" lon="9.1425028"><ele>57.599999999999994</ele><time>2026-05-04T15:53:32.797Z</time></trkpt><trkpt lat="45.1829366" lon="9.1426407"><ele>58.4</ele><time>2026-05-04T15:53:34.799Z</time></trkpt><trkpt lat="45.1829036" lon="9.1427817"><ele>59.2</ele><time>2026-05-04T15:53:36.788Z</time></trkpt><trkpt lat="45.1828659" lon="9.1429218"><ele>60.0</ele><time>2026-05-04T15:53:38.8Z</time></trkpt><trkpt lat="45.1828371" lon="9.1430612"><ele>60.0</ele><time>2026-05-04T15:53:40.797Z</time></trkpt><trkpt lat="45.1828058" lon="9.1432105"><ele>60.0</ele><time>2026-05-04T15:53:42.792Z</time></trkpt><trkpt lat="45.1827746" lon="9.1433543"><ele>60.0</ele><time>2026-05-04T15:53:44.797Z</time></trkpt><trkpt lat="45.182742" lon="9.1435021"><ele>60.0</ele><time>2026-05-04T15:53:46.795Z</time></trkpt><trkpt lat="45.1827058" lon="9.1436443"><ele>60.0</ele><time>2026-05-04T15:53:48.858Z</time></trkpt><trkpt lat="45.1826765" lon="9.1437828"><ele>60.6</ele><time>2026-05-04T15:53:50.793Z</time></trkpt><trkpt lat="45.1826481" lon="9.1439326"><ele>61.2</ele><time>2026-05-04T15:53:52.799Z</time></trkpt><trkpt lat="45.1826222" lon="9.1440801"><ele>61.8</ele><time>2026-05-04T15:53:54.803Z</time></trkpt><trkpt lat="45.1826061" lon="9.1442213"><ele>62.4</ele><time>2026-05-04T15:53:56.794Z</time></trkpt><trkpt lat="45.1825808" lon="9.1443644"><ele>63.0</ele><time>2026-05-04T15:53:58.865Z</time></trkpt><trkpt lat="45.1825574" lon="9.1445072"><ele>63.4</ele><time>2026-05-04T15:54:00.794Z</time></trkpt><trkpt lat="45.1825303" lon="9.1446483"><ele>63.8</ele><time>2026-05-04T15:54:02.799Z</time></trkpt><trkpt lat="45.1825264" lon="9.144789"><ele>64.2</ele><time>2026-05-04T15:54:04.796Z</time></trkpt><trkpt lat="45.1825348" lon="9.1449309"><ele>64.6</ele><time>2026-05-04T15:54:06.793Z</time></trkpt><trkpt lat="45.1825357" lon="9.1450719"><ele>65.0</ele><time>2026-05-04T15:54:08.802Z</time></trkpt><trkpt lat="45.1825225" lon="9.1452184"><ele>66.0</ele><time>2026-05-04T15:54:10.871Z</time></trkpt><trkpt lat="45.1825289" lon="9.1453633"><ele>67.0</ele><time>2026-05-04T15:54:12.805Z</time></trkpt><trkpt lat="45.1825339" lon="9.1455047"><ele>68.0</ele><time>2026-05-04T15:54:14.797Z</time></trkpt><trkpt lat="45.1825378" lon="9.1456334"><ele>69.0</ele><time>2026-05-04T15:54:16.801Z</time></trkpt><trkpt lat="45.1825498" lon="9.145766"><ele>70.0</ele><time>2026-05-04T15:54:18.806Z</time></trkpt><trkpt lat="45.182551" lon="9.1458718"><ele>70.16666666666666</ele><time>2026-05-04T15:54:20.791Z</time></trkpt><trkpt lat="45.182532" lon="9.1459775"><ele>70.33333333333333</ele><time>2026-05-04T15:54:23.791Z</time></trkpt><trkpt lat="45.1824924" lon="9.1460633"><ele>70.5</ele><time>2026-05-04T15:54:26.791Z</time></trkpt><trkpt lat="45.1824181" lon="9.1460861"><ele>70.66666666666667</ele><time>2026-05-04T15:54:30.79Z</time></trkpt><trkpt lat="45.1823869" lon="9.1462058"><ele>70.83333333333334</ele><time>2026-05-04T15:54:35.792Z</time></trkpt><trkpt lat="45.1823325" lon="9.1462941"><ele>71.0</ele><time>2026-05-04T15:54:38.787Z</time></trkpt><trkpt lat="45.1822805" lon="9.1463661"><ele>65.0</ele><time>2026-05-04T15:54:41.798Z</time></trkpt><trkpt lat="45.1822283" lon="9.14643"><ele>65.0</ele><time>2026-05-04T15:54:44.789Z</time></trkpt><trkpt lat="45.1821582" lon="9.1464762"><ele>65.0</ele><time>2026-05-04T15:54:48.789Z</time></trkpt></trkseg></trk></gpx>